ftp/pub/mcmurdo/arrivalheights/2024/11272024.txt

Download

		Temp	Hi	Low	Out	Dew	Wind	Wind	Wind	Hi	Hi	Wind	Heat	THW		Heat	Cool	In 	In	In 	In 	In 	In Air	Wind	Wind	ISS 	Arc.
Date	Time	Out	Temp	Temp	Hum	Pt.	Speed	Dir	Run	Speed	Dir	Chill	Index	Index	Bar  	D-D 	D-D 	Temp	Hum	Dew	Heat	EMC	Density	Samp	Tx 	Recept	Int.
11/26/24	0:01	-7.8	-7.8	-7.8	56	-15.1	9.6	SE	0.16	10.4	SE	-14.7	-8.1	-14.9	726.0	0.018	0.000	21.6	10	-11.4	18.7	2.52	 .0713	21	1	91.3	1
11/26/24	0:02	-7.8	-7.8	-7.9	57	-14.9	9.6	SSE	0.16	12.2	SSE	-14.7	-8.1	-14.9	726.0	0.018	0.000	21.6	10	-11.4	18.7	2.52	 .0713	23	1	100.0	1
11/26/24	0:03	-7.8	-7.8	-7.9	56	-15.1	7.8	SSE	0.13	9.6	SSE	-13.9	-8.1	-14.2	726.0	0.018	0.000	21.6	10	-11.4	18.7	2.52	 .0713	24	1	100.0	1
11/26/24	0:04	-7.8	-7.8	-7.8	56	-15.0	8.7	SE	0.14	10.4	SE	-14.2	-8.1	-14.5	726.0	0.018	0.000	21.6	10	-11.4	18.8	2.51	 .0713	23	1	100.0	1
11/26/24	0:05	-7.7	-7.7	-7.8	55	-15.2	8.7	SE	0.14	12.2	SE	-14.2	-8.0	-14.4	726.0	0.018	0.000	21.6	10	-11.4	18.8	2.51	 .0713	23	1	100.0	1
11/26/24	0:06	-7.7	-7.7	-7.8	55	-15.2	7.8	SE	0.13	9.6	SE	-13.8	-8.0	-14.1	726.0	0.018	0.000	21.6	10	-11.4	18.8	2.51	 .0713	24	1	100.0	1
11/26/24	0:07	-7.7	-7.7	-7.7	56	-14.9	10.4	SSE	0.17	13.0	SSE	-14.8	-7.9	-15.1	726.0	0.018	0.000	21.6	10	-11.4	18.8	2.51	 .0713	23	1	100.0	1
11/26/24	0:08	-7.7	-7.6	-7.7	55	-15.2	9.6	SE	0.16	11.3	SSE	-14.4	-7.9	-14.7	726.0	0.018	0.000	21.7	10	-11.3	18.9	2.51	 .0712	24	1	100.0	1
11/26/24	0:09	-7.7	-7.6	-7.7	55	-15.2	7.8	SSE	0.13	11.3	SSE	-13.7	-7.9	-14.0	726.0	0.018	0.000	21.7	10	-11.3	18.9	2.51	 .0712	23	1	100.0	1
11/26/24	0:10	-7.7	-7.6	-7.7	55	-15.2	7.8	SE	0.13	10.4	SE	-13.7	-7.9	-14.0	725.9	0.018	0.000	21.7	10	-11.3	18.9	2.51	 .0712	23	1	100.0	1
11/26/24	0:11	-7.6	-7.6	-7.7	55	-15.1	9.6	ESE	0.16	10.4	ESE	-14.4	-7.9	-14.7	726.0	0.018	0.000	21.7	10	-11.3	18.9	2.51	 .0712	24	1	100.0	1
11/26/24	0:12	-7.6	-7.6	-7.6	57	-14.6	7.0	E	0.12	8.7	E	-13.2	-7.8	-13.4	726.0	0.018	0.000	21.7	10	-11.3	18.9	2.51	 .0712	23	1	100.0	1
11/26/24	0:13	-7.4	-7.4	-7.5	57	-14.5	7.0	ESE	0.12	8.7	E	-13.1	-7.7	-13.3	726.0	0.018	0.000	21.7	10	-11.3	18.9	2.51	 .0712	24	1	100.0	1
11/26/24	0:14	-7.4	-7.4	-7.4	57	-14.5	5.2	ESE	0.09	7.0	ESE	-12.0	-7.7	-12.3	726.0	0.018	0.000	21.7	10	-11.3	18.9	2.51	 .0712	23	1	100.0	1
11/26/24	0:15	-7.3	-7.3	-7.3	57	-14.4	6.1	ESE	0.10	7.0	ESE	-12.4	-7.6	-12.7	725.9	0.018	0.000	21.8	10	-11.2	19.1	2.50	 .0712	24	1	100.0	1
11/26/24	0:16	-7.2	-7.2	-7.3	57	-14.3	6.1	ESE	0.10	7.8	ESE	-12.3	-7.5	-12.6	725.9	0.018	0.000	21.8	10	-11.2	19.1	2.50	 .0712	23	1	100.0	1
11/26/24	0:17	-7.1	-7.1	-7.2	57	-14.2	7.0	ESE	0.12	7.8	ESE	-12.6	-7.4	-12.9	725.9	0.018	0.000	21.8	10	-11.2	19.1	2.50	 .0712	23	1	100.0	1
11/26/24	0:18	-7.1	-7.1	-7.1	57	-14.1	6.1	ESE	0.10	7.8	ESE	-12.1	-7.3	-12.4	725.9	0.018	0.000	21.8	10	-11.2	19.1	2.50	 .0712	24	1	100.0	1
11/26/24	0:19	-7.0	-7.0	-7.1	57	-14.1	7.8	ESE	0.13	8.7	SE	-12.9	-7.3	-13.2	726.0	0.018	0.000	21.8	10	-11.2	19.1	2.50	 .0712	23	1	100.0	1
11/26/24	0:20	-6.9	-6.9	-7.0	57	-14.0	7.8	ESE	0.13	8.7	ESE	-12.8	-7.2	-13.1	725.9	0.018	0.000	21.8	10	-11.2	19.1	2.50	 .0712	24	1	100.0	1
11/26/24	0:21	-6.9	-6.9	-6.9	56	-14.2	7.8	ESE	0.13	8.7	ESE	-12.8	-7.2	-13.1	725.9	0.018	0.000	21.8	10	-11.2	19.1	2.50	 .0712	23	1	100.0	1
11/26/24	0:22	-6.9	-6.9	-6.9	55	-14.4	7.0	ESE	0.12	7.8	ESE	-12.4	-7.2	-12.7	725.9	0.018	0.000	21.8	10	-11.2	19.1	2.50	 .0712	23	1	100.0	1
11/26/24	0:23	-6.9	-6.9	-6.9	55	-14.4	7.8	ESE	0.13	8.7	ESE	-12.8	-7.2	-13.1	725.9	0.018	0.000	21.8	10	-11.2	19.1	2.50	 .0712	24	1	100.0	1
11/26/24	0:24	-6.9	-6.9	-6.9	54	-14.7	6.1	ESE	0.10	8.7	ESE	-11.9	-7.2	-12.2	725.9	0.018	0.000	21.8	10	-11.2	19.1	2.50	 .0712	23	1	100.0	1
11/26/24	0:25	-6.9	-6.9	-6.9	54	-14.7	6.1	ESE	0.10	7.8	ESE	-11.9	-7.2	-12.2	725.9	0.018	0.000	21.8	10	-11.2	19.1	2.50	 .0712	24	1	100.0	1
11/26/24	0:26	-6.9	-6.9	-6.9	54	-14.7	7.0	ESE	0.12	7.8	ESE	-12.4	-7.2	-12.7	725.9	0.018	0.000	21.8	10	-11.2	19.1	2.50	 .0712	23	1	100.0	1
11/26/24	0:27	-6.8	-6.8	-6.9	55	-14.4	6.1	SE	0.10	7.8	ESE	-11.8	-7.1	-12.1	725.9	0.017	0.000	21.8	10	-11.2	19.1	2.50	 .0712	24	1	100.0	1
11/26/24	0:28	-6.8	-6.8	-6.8	55	-14.3	7.0	ESE	0.12	7.8	ESE	-12.2	-7.1	-12.5	725.9	0.017	0.000	21.8	10	-11.2	19.1	2.50	 .0712	23	1	100.0	1
11/26/24	0:29	-6.8	-6.8	-6.8	54	-14.6	7.8	ESE	0.13	7.8	ESE	-12.7	-7.1	-13.0	725.9	0.017	0.000	21.8	10	-11.2	19.1	2.50	 .0712	23	1	100.0	1
11/26/24	0:30	-6.9	-6.9	-6.9	53	-14.9	6.1	ESE	0.10	7.8	ESE	-11.9	-7.2	-12.2	725.9	0.018	0.000	21.8	10	-11.2	19.1	2.50	 .0712	24	1	100.0	1
11/26/24	0:31	-6.9	-6.9	-6.9	53	-14.9	6.1	ESE	0.10	7.8	ESE	-11.9	-7.2	-12.2	725.9	0.018	0.000	21.7	10	-11.3	18.9	2.51	 .0712	23	1	100.0	1
11/26/24	0:32	-6.9	-6.9	-6.9	54	-14.7	6.1	ESE	0.10	7.0	ESE	-11.9	-7.2	-12.2	725.8	0.018	0.000	21.7	10	-11.3	18.9	2.51	 .0712	24	1	100.0	1
11/26/24	0:33	-6.8	-6.8	-6.9	55	-14.4	7.8	ESE	0.13	9.6	ESE	-12.7	-7.1	-13.0	725.8	0.017	0.000	21.7	10	-11.3	18.9	2.51	 .0712	23	1	100.0	1
11/26/24	0:34	-6.8	-6.8	-6.9	55	-14.4	8.7	ESE	0.14	10.4	ESE	-13.1	-7.1	-13.3	725.9	0.017	0.000	21.7	10	-11.3	18.9	2.51	 .0712	23	1	100.0	1
11/26/24	0:35	-6.7	-6.7	-6.8	56	-14.1	8.7	ESE	0.14	9.6	ESE	-12.9	-7.0	-13.2	725.9	0.017	0.000	21.7	10	-11.3	18.9	2.51	 .0712	24	1	100.0	1
11/26/24	0:36	-6.7	-6.7	-6.7	55	-14.3	7.8	ESE	0.13	9.6	ESE	-12.6	-7.0	-12.8	725.8	0.017	0.000	21.7	10	-11.3	18.9	2.51	 .0712	23	1	100.0	1
11/26/24	0:37	-6.7	-6.7	-6.7	55	-14.2	8.7	E	0.14	10.4	SE	-12.8	-6.9	-13.1	725.8	0.017	0.000	21.7	10	-11.3	18.9	2.51	 .0712	24	1	100.0	1
11/26/24	0:38	-6.7	-6.7	-6.7	55	-14.2	7.8	ESE	0.13	9.6	E	-12.5	-6.9	-12.8	725.8	0.017	0.000	21.7	10	-11.3	18.9	2.51	 .0712	23	1	100.0	1
11/26/24	0:39	-6.7	-6.7	-6.7	54	-14.4	7.8	ESE	0.13	8.7	ESE	-12.5	-6.9	-12.8	725.8	0.017	0.000	21.7	10	-11.3	18.9	2.51	 .0712	24	1	100.0	1
11/26/24	0:40	-6.7	-6.7	-6.7	54	-14.5	7.0	ESE	0.12	8.7	ESE	-12.2	-7.0	-12.4	725.8	0.017	0.000	21.7	11	-10.1	19.0	2.73	 .0712	23	1	100.0	1
11/26/24	0:41	-6.7	-6.7	-6.7	55	-14.2	6.1	ESE	0.10	7.8	SE	-11.7	-6.9	-11.9	725.8	0.017	0.000	21.7	11	-10.1	19.0	2.73	 .0712	23	1	100.0	1
11/26/24	0:42	-6.7	-6.7	-6.7	54	-14.4	7.8	ESE	0.13	8.7	ESE	-12.5	-6.9	-12.8	725.8	0.017	0.000	21.7	11	-10.1	19.0	2.73	 .0712	24	1	100.0	1
11/26/24	0:43	-6.7	-6.7	-6.7	54	-14.4	7.0	ESE	0.12	8.7	SE	-12.1	-6.9	-12.4	725.8	0.017	0.000	21.7	11	-10.1	19.0	2.73	 .0712	23	1	100.0	1
11/26/24	0:44	-6.7	-6.6	-6.7	54	-14.4	7.8	ESE	0.13	9.6	SE	-12.5	-6.9	-12.8	725.8	0.017	0.000	21.7	11	-10.1	19.0	2.73	 .0712	24	1	100.0	1
11/26/24	0:45	-6.7	-6.7	-6.7	52	-15.0	7.8	SE	0.13	8.7	SSE	-12.6	-7.1	-12.9	725.8	0.017	0.000	21.7	11	-10.1	19.0	2.73	 .0712	23	1	100.0	1
11/26/24	0:46	-6.8	-6.7	-6.8	52	-15.1	7.8	SE	0.13	9.6	SE	-12.7	-7.1	-13.0	725.7	0.017	0.000	21.7	11	-10.1	19.0	2.73	 .0712	23	1	100.0	1
11/26/24	0:47	-6.9	-6.9	-6.9	51	-15.4	7.0	SE	0.12	7.8	SE	-12.4	-7.2	-12.7	725.8	0.018	0.000	21.7	11	-10.1	19.0	2.73	 .0712	24	1	100.0	1
11/26/24	0:48	-7.0	-6.9	-7.0	51	-15.4	5.2	ESE	0.09	7.8	SE	-11.6	-7.3	-11.8	725.8	0.018	0.000	21.7	11	-10.1	19.0	2.73	 .0712	23	1	100.0	1
11/26/24	0:49	-7.1	-7.0	-7.1	52	-15.3	7.8	SE	0.13	8.7	ESE	-12.9	-7.3	-13.2	725.7	0.018	0.000	21.8	11	-10.0	19.1	2.73	 .0712	24	1	100.0	1
11/26/24	0:50	-7.1	-7.1	-7.1	53	-15.1	7.0	ESE	0.12	7.8	ESE	-12.6	-7.4	-12.9	725.7	0.018	0.000	21.8	11	-10.0	19.1	2.73	 .0712	23	1	100.0	1
11/26/24	0:51	-7.2	-7.1	-7.2	53	-15.1	7.8	SE	0.13	9.6	SE	-13.1	-7.4	-13.4	725.7	0.018	0.000	21.8	11	-10.0	19.1	2.73	 .0712	23	1	100.0	1
11/26/24	0:52	-7.2	-7.2	-7.2	53	-15.2	7.8	SSE	0.13	8.7	SE	-13.2	-7.5	-13.4	725.7	0.018	0.000	21.8	11	-10.0	19.1	2.73	 .0712	24	1	100.0	1
11/26/24	0:53	-7.2	-7.2	-7.2	53	-15.2	9.6	SSE	0.16	10.4	SSE	-13.9	-7.5	-14.2	725.7	0.018	0.000	21.8	11	-10.0	19.1	2.73	 .0712	23	1	100.0	1
11/26/24	0:54	-7.2	-7.2	-7.2	54	-15.0	8.7	SSE	0.14	10.4	SSE	-13.6	-7.5	-13.8	725.7	0.018	0.000	21.8	11	-10.0	19.2	2.72	 .0712	24	1	100.0	1
11/26/24	0:55	-7.2	-7.2	-7.3	53	-15.2	7.0	SE	0.12	9.6	SSE	-12.8	-7.5	-13.1	725.6	0.018	0.000	21.8	11	-10.0	19.2	2.72	 .0711	23	1	100.0	1
11/26/24	0:56	-7.2	-7.2	-7.3	55	-14.7	7.8	ESE	0.13	9.6	ESE	-13.2	-7.5	-13.4	725.7	0.018	0.000	21.8	11	-10.0	19.2	2.72	 .0712	24	1	100.0	1
11/26/24	0:57	-7.2	-7.2	-7.2	56	-14.5	7.8	ESE	0.13	9.6	SE	-13.1	-7.4	-13.4	725.7	0.018	0.000	21.8	11	-10.0	19.2	2.72	 .0712	23	1	100.0	1
11/26/24	0:58	-7.1	-7.1	-7.2	56	-14.4	8.7	SE	0.14	10.4	SE	-13.4	-7.4	-13.7	725.7	0.018	0.000	21.8	11	-10.0	19.2	2.72	 .0712	23	1	100.0	1
11/26/24	0:59	-7.2	-7.1	-7.2	54	-14.9	7.8	ESE	0.13	9.6	ESE	-13.1	-7.4	-13.4	725.7	0.018	0.000	21.9	11	-9.9	19.2	2.72	 .0711	24	1	100.0	1
11/26/24	1:00	-7.1	-7.1	-7.2	53	-15.1	6.1	ESE	0.10	7.8	ESE	-12.2	-7.4	-12.4	725.7	0.018	0.000	21.9	11	-9.9	19.2	2.72	 .0711	23	1	100.0	1
11/26/24	1:01	-7.1	-7.1	-7.1	54	-14.9	6.1	ESE	0.10	8.7	ESE	-12.2	-7.4	-12.4	725.7	0.018	0.000	21.9	11	-9.9	19.2	2.72	 .0711	24	1	100.0	1
11/26/24	1:02	-7.0	-7.0	-7.1	54	-14.8	7.0	SE	0.12	10.4	ESE	-12.5	-7.3	-12.8	725.7	0.018	0.000	21.9	11	-9.9	19.3	2.72	 .0711	23	1	100.0	1
11/26/24	1:03	-7.0	-7.0	-7.0	53	-15.0	5.2	SE	0.09	6.1	SE	-11.6	-7.3	-11.8	725.7	0.018	0.000	21.9	11	-9.9	19.3	2.72	 .0711	23	1	100.0	1
11/26/24	1:04	-6.9	-6.9	-7.0	53	-14.9	6.1	SE	0.10	7.8	SE	-12.0	-7.2	-12.3	725.7	0.018	0.000	21.9	11	-9.9	19.3	2.72	 .0711	24	1	100.0	1
11/26/24	1:05	-6.9	-6.9	-6.9	53	-14.9	7.0	SE	0.12	7.8	SE	-12.4	-7.2	-12.7	725.7	0.018	0.000	22.0	11	-9.9	19.4	2.72	 .0711	23	1	100.0	1
11/26/24	1:06	-6.9	-6.9	-6.9	53	-14.9	7.0	ESE	0.12	7.8	ESE	-12.4	-7.2	-12.7	725.7	0.018	0.000	22.0	11	-9.9	19.4	2.72	 .0711	24	1	100.0	1
11/26/24	1:07	-6.8	-6.8	-6.9	54	-14.6	7.0	ESE	0.12	7.8	ESE	-12.3	-7.1	-12.6	725.7	0.017	0.000	22.0	11	-9.9	19.4	2.72	 .0711	23	1	100.0	1
11/26/24	1:08	-6.8	-6.8	-6.8	53	-14.8	6.1	ESE	0.10	7.8	ESE	-11.8	-7.1	-12.1	725.6	0.017	0.000	22.0	11	-9.9	19.4	2.72	 .0711	24	1	100.0	1
11/26/24	1:09	-6.8	-6.8	-6.8	53	-14.8	6.1	SE	0.10	7.0	SE	-11.8	-7.1	-12.1	725.7	0.017	0.000	22.0	11	-9.9	19.4	2.72	 .0711	23	1	100.0	1
11/26/24	1:10	-6.8	-6.8	-6.8	52	-15.0	6.1	SE	0.10	7.8	SE	-11.8	-7.1	-12.1	725.7	0.017	0.000	22.0	11	-9.9	19.4	2.72	 .0711	23	1	100.0	1
11/26/24	1:11	-6.9	-6.8	-6.9	52	-15.1	7.0	ESE	0.12	7.8	ESE	-12.4	-7.2	-12.7	725.7	0.018	0.000	22.0	11	-9.9	19.4	2.72	 .0711	24	1	100.0	1
11/26/24	1:12	-6.9	-6.9	-6.9	52	-15.2	7.0	ESE	0.12	7.8	ESE	-12.4	-7.2	-12.7	725.7	0.018	0.000	22.0	11	-9.9	19.4	2.72	 .0711	23	1	100.0	1
11/26/24	1:13	-6.9	-6.9	-6.9	52	-15.2	6.1	ESE	0.10	7.0	ESE	-12.0	-7.2	-12.3	725.7	0.018	0.000	22.1	11	-9.8	19.4	2.72	 .0711	24	1	100.0	1
11/26/24	1:14	-6.9	-6.9	-6.9	52	-15.2	5.2	ESE	0.09	7.0	ESE	-11.5	-7.2	-11.8	725.6	0.018	0.000	22.1	11	-9.8	19.4	2.72	 .0711	23	1	100.0	1
11/26/24	1:15	-6.9	-6.9	-6.9	53	-14.9	6.1	ESE	0.10	7.8	ESE	-11.9	-7.2	-12.2	725.6	0.018	0.000	22.1	11	-9.8	19.4	2.72	 .0711	23	1	100.0	1
11/26/24	1:16	-6.8	-6.8	-6.9	54	-14.6	7.8	ESE	0.13	8.7	ESE	-12.7	-7.1	-13.0	725.6	0.017	0.000	22.1	11	-9.8	19.4	2.72	 .0711	24	1	100.0	1
11/26/24	1:17	-6.8	-6.8	-6.8	53	-14.8	7.0	ESE	0.12	7.8	ESE	-12.2	-7.1	-12.5	725.6	0.017	0.000	22.1	11	-9.8	19.4	2.72	 .0711	23	1	100.0	1
11/26/24	1:18	-6.8	-6.8	-6.8	53	-14.8	6.1	ESE	0.10	7.8	ESE	-11.8	-7.1	-12.1	725.6	0.017	0.000	22.1	11	-9.8	19.4	2.72	 .0711	24	1	100.0	1
11/26/24	1:19	-6.7	-6.7	-6.8	53	-14.7	7.8	ESE	0.13	9.6	ESE	-12.6	-7.0	-12.8	725.6	0.017	0.000	22.1	11	-9.8	19.4	2.72	 .0711	23	1	100.0	1
11/26/24	1:20	-6.8	-6.7	-6.8	52	-15.0	7.8	ESE	0.13	8.7	ESE	-12.6	-7.1	-12.9	725.6	0.017	0.000	22.1	11	-9.8	19.4	2.72	 .0711	24	1	100.0	1
11/26/24	1:21	-6.8	-6.8	-6.8	52	-15.0	7.0	ESE	0.12	8.7	ESE	-12.2	-7.1	-12.5	725.6	0.017	0.000	22.1	11	-9.8	19.4	2.72	 .0711	23	1	100.0	1
11/26/24	1:22	-6.8	-6.8	-6.8	52	-15.0	6.1	ESE	0.10	7.8	ESE	-11.8	-7.1	-12.1	725.6	0.017	0.000	22.1	11	-9.8	19.4	2.72	 .0711	23	1	100.0	1
11/26/24	1:23	-6.8	-6.8	-6.8	52	-15.0	7.0	ESE	0.12	7.8	ESE	-12.2	-7.1	-12.5	725.6	0.017	0.000	22.1	11	-9.8	19.4	2.72	 .0711	24	1	100.0	1
11/26/24	1:24	-6.8	-6.8	-6.8	52	-15.0	7.0	ESE	0.12	7.8	ESE	-12.2	-7.1	-12.5	725.6	0.017	0.000	22.1	11	-9.8	19.4	2.72	 .0711	23	1	100.0	1
11/26/24	1:25	-6.8	-6.8	-6.8	52	-15.0	7.8	ESE	0.13	8.7	ESE	-12.6	-7.1	-12.9	725.6	0.017	0.000	22.1	11	-9.8	19.4	2.72	 .0711	24	1	100.0	1
11/26/24	1:26	-6.8	-6.8	-6.8	51	-15.3	7.0	ESE	0.12	7.8	ESE	-12.3	-7.2	-12.6	725.6	0.017	0.000	22.1	11	-9.8	19.6	2.71	 .0711	23	1	100.0	1
11/26/24	1:27	-6.8	-6.8	-6.8	52	-15.1	7.0	ESE	0.12	7.8	ESE	-12.3	-7.1	-12.6	725.6	0.017	0.000	22.1	11	-9.8	19.6	2.71	 .0711	23	1	100.0	1
11/26/24	1:28	-6.8	-6.8	-6.8	52	-15.1	6.1	ESE	0.10	7.0	SE	-11.8	-7.1	-12.1	725.6	0.017	0.000	22.1	11	-9.8	19.6	2.71	 .0711	24	1	100.0	1
11/26/24	1:29	-6.8	-6.8	-6.8	52	-15.1	6.1	ESE	0.10	7.0	ESE	-11.8	-7.1	-12.1	725.6	0.017	0.000	22.1	11	-9.8	19.6	2.71	 .0711	23	1	100.0	1
11/26/24	1:30	-6.9	-6.8	-6.9	52	-15.1	6.1	ESE	0.10	7.8	ESE	-11.9	-7.2	-12.2	725.6	0.018	0.000	22.1	11	-9.8	19.6	2.71	 .0711	24	1	100.0	1
11/26/24	1:31	-6.8	-6.8	-6.9	53	-14.8	6.1	ESE	0.10	7.8	ESE	-11.8	-7.1	-12.1	725.6	0.017	0.000	22.1	11	-9.8	19.6	2.71	 .0711	23	1	100.0	1
11/26/24	1:32	-6.9	-6.9	-6.9	52	-15.1	7.0	ESE	0.12	8.7	SE	-12.4	-7.2	-12.7	725.5	0.018	0.000	22.1	11	-9.8	19.6	2.71	 .0711	24	1	100.0	1
11/26/24	1:33	-6.9	-6.8	-6.9	52	-15.1	6.1	SE	0.10	7.0	SE	-11.9	-7.2	-12.2	725.5	0.018	0.000	22.1	11	-9.8	19.6	2.71	 .0711	23	1	100.0	1
11/26/24	1:34	-6.9	-6.8	-6.9	52	-15.1	6.1	SE	0.10	7.0	SE	-11.9	-7.2	-12.2	725.5	0.018	0.000	22.1	11	-9.8	19.6	2.71	 .0711	23	1	100.0	1
11/26/24	1:35	-6.9	-6.8	-6.9	52	-15.1	7.0	SE	0.12	7.8	SE	-12.4	-7.2	-12.7	725.6	0.018	0.000	22.1	11	-9.8	19.6	2.71	 .0711	24	1	100.0	1
11/26/24	1:36	-6.9	-6.9	-6.9	52	-15.1	6.1	SSE	0.10	7.8	SSE	-11.9	-7.2	-12.2	725.5	0.018	0.000	22.1	11	-9.8	19.6	2.71	 .0711	23	1	100.0	1
11/26/24	1:37	-6.9	-6.9	-6.9	51	-15.4	6.1	SE	0.10	7.8	SE	-12.0	-7.2	-12.3	725.5	0.018	0.000	22.2	11	-9.7	19.6	2.71	 .0710	24	1	100.0	1
11/26/24	1:38	-7.0	-6.9	-7.0	51	-15.4	6.1	SE	0.10	7.0	SE	-12.1	-7.3	-12.3	725.5	0.018	0.000	22.2	11	-9.7	19.6	2.71	 .0710	23	1	100.0	1
11/26/24	1:39	-7.0	-7.0	-7.0	51	-15.4	5.2	SE	0.09	7.8	SE	-11.6	-7.3	-11.8	725.5	0.018	0.000	22.2	11	-9.7	19.6	2.71	 .0711	23	1	100.0	1
11/26/24	1:40	-7.0	-7.0	-7.0	52	-15.2	5.2	ESE	0.09	7.8	ESE	-11.6	-7.3	-11.8	725.5	0.018	0.000	22.2	11	-9.7	19.6	2.71	 .0711	24	1	100.0	1
11/26/24	1:41	-7.0	-7.0	-7.0	52	-15.2	7.0	ESE	0.12	7.8	ESE	-12.5	-7.3	-12.8	725.5	0.018	0.000	22.2	11	-9.7	19.6	2.71	 .0711	23	1	100.0	1
11/26/24	1:42	-6.9	-6.9	-7.0	52	-15.2	6.1	SE	0.10	7.0	SE	-12.0	-7.2	-12.3	725.5	0.018	0.000	22.2	11	-9.7	19.6	2.71	 .0711	24	1	100.0	1
11/26/24	1:43	-6.8	-6.8	-6.9	54	-14.6	5.2	ESE	0.09	7.0	SE	-11.3	-7.1	-11.6	725.5	0.017	0.000	22.2	11	-9.7	19.6	2.71	 .0710	23	1	100.0	1
11/26/24	1:44	-6.8	-6.8	-6.8	53	-14.8	5.2	ESE	0.09	7.0	ESE	-11.3	-7.1	-11.6	725.4	0.017	0.000	22.2	11	-9.7	19.7	2.71	 .0710	24	1	100.0	1
11/26/24	1:45	-6.7	-6.7	-6.8	53	-14.7	3.5	SE	0.06	6.1	SE	-9.9	-6.9	-10.2	725.5	0.017	0.000	22.2	11	-9.7	19.7	2.71	 .0710	23	1	100.0	1
11/26/24	1:46	-6.6	-6.6	-6.7	53	-14.6	3.5	ESE	0.06	6.1	ESE	-9.8	-6.9	-10.1	725.4	0.017	0.000	22.3	11	-9.6	19.8	2.71	 .0710	23	1	100.0	1
11/26/24	1:47	-6.5	-6.5	-6.6	53	-14.5	6.1	ESE	0.10	7.0	ESE	-11.4	-6.8	-11.7	725.5	0.017	0.000	22.3	11	-9.6	19.8	2.71	 .0710	24	1	100.0	1
11/26/24	1:48	-6.4	-6.4	-6.4	51	-14.9	4.3	ESE	0.07	6.1	E	-10.2	-6.7	-10.6	725.5	0.017	0.000	22.3	11	-9.6	19.8	2.71	 .0710	23	1	100.0	1
11/26/24	1:49	-6.4	-6.4	-6.4	51	-14.9	4.3	ESE	0.07	6.1	ESE	-10.2	-6.7	-10.6	725.4	0.017	0.000	22.3	11	-9.6	19.8	2.71	 .0710	24	1	100.0	1
11/26/24	1:50	-6.4	-6.4	-6.4	51	-14.9	4.3	ESE	0.07	6.1	ESE	-10.2	-6.7	-10.6	725.4	0.017	0.000	22.3	11	-9.6	19.8	2.71	 .0710	23	1	100.0	1
11/26/24	1:51	-6.3	-6.3	-6.3	51	-14.8	3.5	ESE	0.06	6.1	ESE	-9.5	-6.7	-9.8	725.5	0.017	0.000	22.3	11	-9.6	19.8	2.71	 .0710	23	1	100.0	1
11/26/24	1:52	-6.3	-6.3	-6.3	51	-14.8	5.2	ESE	0.09	6.1	ESE	-10.7	-6.6	-11.0	725.4	0.017	0.000	22.3	11	-9.6	19.8	2.71	 .0710	24	1	100.0	1
11/26/24	1:53	-6.3	-6.3	-6.3	51	-14.8	4.3	ESE	0.07	5.2	ESE	-10.1	-6.6	-10.4	725.4	0.017	0.000	22.3	11	-9.6	19.8	2.71	 .0710	23	1	100.0	1
11/26/24	1:54	-6.3	-6.3	-6.3	51	-14.8	4.3	E	0.07	6.1	ESE	-10.1	-6.6	-10.4	725.4	0.017	0.000	22.3	11	-9.6	19.8	2.71	 .0710	24	1	100.0	1
11/26/24	1:55	-6.2	-6.2	-6.3	51	-14.7	3.5	ESE	0.06	5.2	E	-9.4	-6.6	-9.7	725.4	0.017	0.000	22.3	11	-9.6	19.8	2.71	 .0710	23	1	100.0	1
11/26/24	1:56	-6.2	-6.2	-6.2	51	-14.7	3.5	ESE	0.06	5.2	ESE	-9.4	-6.6	-9.7	725.4	0.017	0.000	22.3	11	-9.6	19.8	2.71	 .0710	23	1	100.0	1
11/26/24	1:57	-6.2	-6.2	-6.2	51	-14.7	3.5	ESE	0.06	5.2	ESE	-9.4	-6.6	-9.7	725.4	0.017	0.000	22.3	11	-9.6	19.8	2.71	 .0710	24	1	100.0	1
11/26/24	1:58	-6.2	-6.2	-6.2	50	-15.0	2.6	ESE	0.04	3.5	ESE	-8.6	-6.6	-8.9	725.4	0.017	0.000	22.3	11	-9.6	19.8	2.71	 .0710	23	1	100.0	1
11/26/24	1:59	-6.2	-6.2	-6.2	50	-14.9	2.6	ESE	0.04	2.6	ESE	-8.4	-6.5	-8.8	725.4	0.017	0.000	22.3	11	-9.6	19.8	2.71	 .0710	24	1	100.0	1
11/26/24	2:00	-6.2	-6.2	-6.2	50	-15.0	2.6	ESE	0.04	2.6	ESE	-8.6	-6.6	-8.9	725.4	0.017	0.000	22.3	11	-9.6	19.8	2.71	 .0710	23	1	100.0	1
11/26/24	2:01	-6.2	-6.2	-6.2	49	-15.2	1.7	ESE	0.03	2.6	ESE	-7.4	-6.6	-7.7	725.4	0.017	0.000	22.3	11	-9.6	19.8	2.71	 .0710	24	1	100.0	1
11/26/24	2:02	-6.2	-6.2	-6.2	49	-15.2	1.7	ESE	0.03	2.6	ESE	-7.4	-6.6	-7.7	725.4	0.017	0.000	22.3	11	-9.6	19.8	2.71	 .0710	23	1	100.0	1
11/26/24	2:03	-6.2	-6.2	-6.2	49	-15.2	0.9	ESE	0.01	1.7	ESE	-6.2	-6.6	-6.6	725.4	0.017	0.000	22.3	11	-9.6	19.8	2.71	 .0710	23	1	100.0	1
11/26/24	2:04	-6.2	-6.2	-6.2	49	-15.2	0.0	ESE	0.00	0.9	ESE	-6.2	-6.6	-6.6	725.4	0.017	0.000	22.3	11	-9.6	19.8	2.71	 .0710	24	1	100.0	1
11/26/24	2:05	-6.2	-6.2	-6.2	50	-14.9	0.9	ESE	0.01	2.6	ESE	-6.2	-6.5	-6.5	725.4	0.017	0.000	22.3	11	-9.6	19.8	2.71	 .0710	23	1	100.0	1
11/26/24	2:06	-6.1	-6.1	-6.2	49	-15.1	2.6	ESE	0.04	3.5	ESE	-8.4	-6.4	-8.7	725.4	0.017	0.000	22.3	11	-9.6	19.8	2.71	 .0710	24	1	100.0	1
11/26/24	2:07	-6.1	-6.1	-6.1	48	-15.4	1.7	ESE	0.03	2.6	ESE	-7.3	-6.4	-7.6	725.4	0.017	0.000	22.4	11	-9.6	19.9	2.70	 .0710	23	1	100.0	1
11/26/24	2:08	-6.1	-6.1	-6.1	48	-15.3	1.7	ESE	0.03	2.6	ESE	-7.2	-6.4	-7.6	725.4	0.017	0.000	22.4	11	-9.6	19.9	2.70	 .0710	23	1	100.0	1
11/26/24	2:09	-6.0	-6.0	-6.1	48	-15.3	1.7	ESE	0.03	2.6	ESE	-7.2	-6.3	-7.5	725.4	0.017	0.000	22.4	11	-9.6	19.9	2.70	 .0710	24	1	100.0	1
11/26/24	2:10	-6.0	-6.0	-6.0	48	-15.3	1.7	ESE	0.03	2.6	ESE	-7.2	-6.3	-7.5	725.4	0.017	0.000	22.4	11	-9.6	19.9	2.70	 .0710	23	1	100.0	1
11/26/24	2:11	-5.9	-5.9	-6.0	48	-15.2	1.7	ESE	0.03	2.6	ESE	-7.1	-6.3	-7.4	725.3	0.017	0.000	22.4	11	-9.6	19.9	2.70	 .0710	24	1	100.0	1
11/26/24	2:12	-5.9	-5.9	-5.9	48	-15.2	1.7	ESE	0.03	2.6	ESE	-7.1	-6.2	-7.4	725.3	0.017	0.000	22.4	11	-9.6	19.9	2.70	 .0710	23	1	100.0	1
11/26/24	2:13	-5.8	-5.8	-5.8	48	-15.1	2.6	ESE	0.04	3.5	ESE	-8.0	-6.1	-8.3	725.3	0.017	0.000	22.4	11	-9.6	19.9	2.70	 .0710	24	1	100.0	1
11/26/24	2:14	-5.7	-5.7	-5.8	48	-15.0	4.3	ESE	0.07	5.2	ESE	-9.4	-6.1	-9.8	725.3	0.017	0.000	22.4	11	-9.6	19.9	2.70	 .0710	23	1	100.0	1
11/26/24	2:15	-5.7	-5.7	-5.7	48	-15.0	3.5	ESE	0.06	5.2	ESE	-8.8	-6.1	-9.1	725.3	0.017	0.000	22.4	11	-9.6	19.9	2.70	 .0710	23	1	100.0	1
11/26/24	2:16	-5.7	-5.7	-5.7	48	-15.0	1.7	ESE	0.03	3.5	ESE	-6.9	-6.1	-7.2	725.3	0.017	0.000	22.4	11	-9.6	19.9	2.70	 .0710	24	1	100.0	1
11/26/24	2:17	-5.7	-5.7	-5.7	48	-14.9	3.5	ESE	0.06	3.5	ESE	-8.7	-6.0	-9.1	725.3	0.017	0.000	22.4	11	-9.6	19.9	2.70	 .0710	23	1	100.0	1
11/26/24	2:18	-5.7	-5.7	-5.7	47	-15.3	2.6	SE	0.04	3.5	SE	-7.9	-6.1	-8.3	725.3	0.017	0.000	22.4	11	-9.5	20.0	2.70	 .0710	24	1	100.0	1
11/26/24	2:19	-5.7	-5.7	-5.7	47	-15.3	3.5	SE	0.06	4.3	SE	-8.8	-6.1	-9.1	725.3	0.017	0.000	22.4	11	-9.6	19.9	2.70	 .0710	23	1	100.0	1
11/26/24	2:20	-5.7	-5.7	-5.7	46	-15.5	2.6	SE	0.04	3.5	SE	-7.9	-6.1	-8.3	725.3	0.017	0.000	22.4	11	-9.6	19.9	2.70	 .0710	23	1	100.0	1
11/26/24	2:21	-5.7	-5.7	-5.7	45	-15.8	1.7	SE	0.03	4.3	SE	-6.9	-6.1	-7.3	725.3	0.017	0.000	22.4	11	-9.5	20.0	2.70	 .0710	24	1	100.0	1
11/26/24	2:22	-5.8	-5.7	-5.8	46	-15.6	3.5	ESE	0.06	6.1	ESE	-8.8	-6.1	-9.2	725.3	0.017	0.000	22.4	11	-9.5	20.0	2.70	 .0710	23	1	100.0	1
11/26/24	2:23	-5.8	-5.8	-5.8	46	-15.6	1.7	ESE	0.03	3.5	ESE	-6.9	-6.1	-7.3	725.3	0.017	0.000	22.4	11	-9.5	20.0	2.70	 .0710	24	1	100.0	1
11/26/24	2:24	-5.8	-5.8	-5.8	46	-15.6	1.7	ESE	0.03	2.6	ESE	-7.0	-6.2	-7.3	725.3	0.017	0.000	22.4	11	-9.5	20.0	2.70	 .0710	23	1	100.0	1
11/26/24	2:25	-5.8	-5.8	-5.8	46	-15.6	1.7	ESE	0.03	2.6	ESE	-7.0	-6.2	-7.3	725.3	0.017	0.000	22.4	11	-9.5	20.0	2.70	 .0710	24	1	100.0	1
11/26/24	2:26	-5.8	-5.8	-5.8	47	-15.3	2.6	ESE	0.04	5.2	ESE	-8.0	-6.1	-8.3	725.3	0.017	0.000	22.4	11	-9.5	20.0	2.70	 .0710	23	1	100.0	1
11/26/24	2:27	-5.7	-5.7	-5.8	47	-15.3	2.6	ESE	0.04	5.2	ESE	-7.9	-6.1	-8.3	725.2	0.017	0.000	22.4	11	-9.5	20.0	2.70	 .0710	23	1	100.0	1
11/26/24	2:28	-5.7	-5.7	-5.7	47	-15.3	2.6	ESE	0.04	5.2	ESE	-7.9	-6.1	-8.3	725.2	0.017	0.000	22.4	11	-9.5	20.0	2.70	 .0710	24	1	100.0	1
11/26/24	2:29	-5.6	-5.6	-5.7	47	-15.2	1.7	ESE	0.03	4.3	SSE	-6.7	-6.0	-7.1	725.3	0.017	0.000	22.5	11	-9.5	20.1	2.70	 .0709	23	1	100.0	1
11/26/24	2:30	-5.6	-5.6	-5.6	48	-14.9	3.5	S	0.06	5.2	S	-8.7	-5.9	-9.0	725.2	0.017	0.000	22.5	11	-9.5	20.1	2.70	 .0709	24	1	100.0	1
11/26/24	2:31	-5.7	-5.6	-5.7	47	-15.2	4.3	S	0.07	6.1	S	-9.4	-6.0	-9.7	725.2	0.017	0.000	22.5	11	-9.5	20.1	2.70	 .0709	23	1	100.0	1
11/26/24	2:32	-5.8	-5.7	-5.8	46	-15.6	5.2	S	0.09	6.1	S	-10.1	-6.1	-10.4	725.2	0.017	0.000	22.5	11	-9.5	20.1	2.70	 .0709	23	1	100.0	1
11/26/24	2:33	-5.9	-5.8	-5.9	46	-15.7	3.5	S	0.06	5.2	S	-9.0	-6.2	-9.3	725.2	0.017	0.000	22.5	11	-9.5	20.1	2.70	 .0709	24	1	100.0	1
11/26/24	2:34	-6.0	-5.9	-6.0	47	-15.5	4.3	S	0.07	8.7	SSE	-9.8	-6.3	-10.1	725.2	0.017	0.000	22.5	11	-9.5	20.1	2.70	 .0709	23	1	100.0	1
11/26/24	2:35	-6.1	-6.0	-6.1	48	-15.4	4.3	S	0.07	5.2	S	-9.9	-6.4	-10.2	725.2	0.017	0.000	22.5	11	-9.5	20.1	2.70	 .0709	24	1	100.0	1
11/26/24	2:36	-6.2	-6.1	-6.2	49	-15.2	3.5	S	0.06	5.2	S	-9.3	-6.5	-9.6	725.2	0.017	0.000	22.5	11	-9.5	20.1	2.70	 .0709	23	1	100.0	1
11/26/24	2:37	-6.2	-6.1	-6.2	48	-15.5	4.3	S	0.07	4.3	S	-10.1	-6.6	-10.4	725.2	0.017	0.000	22.5	11	-9.5	20.1	2.70	 .0709	24	1	100.0	1
11/26/24	2:38	-6.3	-6.2	-6.3	49	-15.3	4.3	SSW	0.07	4.3	SSW	-10.1	-6.6	-10.4	725.2	0.017	0.000	22.6	11	-9.4	20.2	2.70	 .0709	23	1	100.0	1
11/26/24	2:39	-6.3	-6.3	-6.3	49	-15.3	3.5	SSW	0.06	5.2	SSW	-9.4	-6.6	-9.8	725.2	0.017	0.000	22.6	11	-9.4	20.2	2.70	 .0709	23	1	100.0	1
11/26/24	2:40	-6.4	-6.3	-6.4	48	-15.6	2.6	SSW	0.04	3.5	SSW	-8.7	-6.7	-9.1	725.2	0.017	0.000	22.6	11	-9.4	20.2	2.70	 .0709	24	1	100.0	1
11/26/24	2:41	-6.4	-6.4	-6.4	47	-15.9	1.7	SSW	0.03	2.6	SSW	-7.6	-6.7	-7.9	725.1	0.017	0.000	22.6	11	-9.4	20.2	2.70	 .0709	23	1	100.0	1
11/26/24	2:42	-6.4	-6.4	-6.4	47	-15.9	1.7	SSW	0.03	3.5	SSW	-7.7	-6.8	-8.0	725.1	0.017	0.000	22.6	11	-9.4	20.2	2.70	 .0709	24	1	100.0	1
11/26/24	2:43	-6.4	-6.4	-6.4	48	-15.6	2.6	SSW	0.04	5.2	S	-8.7	-6.7	-9.1	725.1	0.017	0.000	22.6	11	-9.4	20.2	2.70	 .0709	23	1	100.0	1
11/26/24	2:44	-6.4	-6.4	-6.4	49	-15.4	2.6	S	0.04	5.2	S	-8.7	-6.7	-9.1	725.1	0.017	0.000	22.6	11	-9.4	20.2	2.70	 .0709	23	1	100.0	1
11/26/24	2:45	-6.4	-6.4	-6.4	49	-15.4	2.6	S	0.04	2.6	S	-8.7	-6.7	-9.1	725.1	0.017	0.000	22.6	11	-9.4	20.2	2.70	 .0709	24	1	100.0	1
11/26/24	2:46	-6.4	-6.4	-6.4	49	-15.4	2.6	S	0.04	3.5	S	-8.7	-6.7	-9.1	725.1	0.017	0.000	22.6	11	-9.4	20.2	2.70	 .0709	23	1	100.0	1
11/26/24	2:47	-6.4	-6.4	-6.4	49	-15.4	2.6	S	0.04	3.5	S	-8.7	-6.7	-9.1	725.1	0.017	0.000	22.6	11	-9.4	20.2	2.70	 .0709	24	1	100.0	1
11/26/24	2:48	-6.4	-6.4	-6.4	48	-15.6	2.6	S	0.04	4.3	S	-8.7	-6.7	-9.1	725.1	0.017	0.000	22.6	11	-9.4	20.2	2.70	 .0709	23	1	100.0	1
11/26/24	2:49	-6.3	-6.3	-6.4	49	-15.3	4.3	S	0.07	5.2	S	-10.2	-6.7	-10.5	725.1	0.017	0.000	22.6	11	-9.4	20.2	2.70	 .0709	24	1	100.0	1
11/26/24	2:50	-6.3	-6.3	-6.3	49	-15.3	4.3	S	0.07	5.2	S	-10.2	-6.7	-10.5	725.1	0.017	0.000	22.6	11	-9.4	20.2	2.70	 .0709	23	1	100.0	1
11/26/24	2:51	-6.4	-6.4	-6.4	49	-15.4	3.5	SSE	0.06	5.2	SSE	-9.6	-6.7	-9.9	725.1	0.017	0.000	22.6	11	-9.4	20.2	2.70	 .0709	23	1	100.0	1
11/26/24	2:52	-6.4	-6.4	-6.4	48	-15.6	2.6	SSE	0.04	3.5	SSE	-8.7	-6.7	-9.1	725.1	0.017	0.000	22.6	11	-9.4	20.2	2.70	 .0709	24	1	100.0	1
11/26/24	2:53	-6.4	-6.4	-6.4	48	-15.7	2.6	SSE	0.04	4.3	SSE	-8.8	-6.8	-9.1	725.1	0.017	0.000	22.6	11	-9.4	20.2	2.70	 .0709	23	1	100.0	1
11/26/24	2:54	-6.4	-6.4	-6.4	49	-15.4	2.6	SSE	0.04	3.5	SSE	-8.8	-6.8	-9.1	725.1	0.017	0.000	22.6	11	-9.4	20.2	2.70	 .0709	24	1	100.0	1
11/26/24	2:55	-6.4	-6.4	-6.4	49	-15.4	2.6	SSE	0.04	3.5	SSE	-8.8	-6.8	-9.1	725.1	0.017	0.000	22.6	11	-9.4	20.2	2.70	 .0709	23	1	100.0	1
11/26/24	2:56	-6.4	-6.4	-6.4	48	-15.6	2.6	SSE	0.04	3.5	SSE	-8.7	-6.7	-9.1	725.1	0.017	0.000	22.6	11	-9.4	20.2	2.70	 .0709	23	1	100.0	1
11/26/24	2:57	-6.3	-6.3	-6.4	47	-15.8	1.7	SSE	0.03	2.6	SSE	-7.6	-6.7	-7.9	725.1	0.017	0.000	22.6	11	-9.4	20.2	2.70	 .0709	24	1	100.0	1
11/26/24	2:58	-6.3	-6.3	-6.3	47	-15.8	1.7	SSE	0.03	2.6	SSE	-7.5	-6.6	-7.8	725.1	0.017	0.000	22.7	11	-9.3	20.3	2.69	 .0709	23	1	100.0	1
11/26/24	2:59	-6.2	-6.2	-6.2	47	-15.7	2.6	SSE	0.04	3.5	SSE	-8.4	-6.5	-8.8	725.1	0.017	0.000	22.7	11	-9.3	20.3	2.69	 .0709	24	1	100.0	1
11/26/24	3:00	-6.2	-6.1	-6.2	47	-15.7	2.6	SSE	0.04	3.5	SSE	-8.4	-6.5	-8.8	725.1	0.017	0.000	22.7	11	-9.3	20.3	2.69	 .0709	23	1	100.0	1
11/26/24	3:01	-6.1	-6.1	-6.1	47	-15.6	2.6	SSE	0.04	2.6	SSE	-8.4	-6.4	-8.7	725.1	0.017	0.000	22.7	11	-9.3	20.3	2.69	 .0709	23	1	100.0	1
11/26/24	3:02	-6.1	-6.1	-6.1	47	-15.6	1.7	SSE	0.03	3.5	SSE	-7.2	-6.4	-7.6	725.1	0.017	0.000	22.7	11	-9.3	20.3	2.69	 .0709	24	1	100.0	1
11/26/24	3:03	-6.0	-6.0	-6.1	47	-15.5	1.7	SSE	0.03	2.6	SSE	-7.2	-6.3	-7.5	725.1	0.017	0.000	22.7	11	-9.3	20.3	2.69	 .0709	23	1	100.0	1
11/26/24	3:04	-6.0	-6.0	-6.0	48	-15.3	2.6	SSE	0.04	4.3	SSE	-8.3	-6.3	-8.6	725.1	0.017	0.000	22.7	11	-9.3	20.3	2.69	 .0709	24	1	100.0	1
11/26/24	3:05	-6.0	-6.0	-6.0	47	-15.5	2.6	SSE	0.04	3.5	SSE	-8.3	-6.3	-8.6	725.1	0.017	0.000	22.7	11	-9.3	20.3	2.69	 .0709	23	1	100.0	1
11/26/24	3:06	-6.0	-6.0	-6.0	47	-15.5	1.7	SSE	0.03	2.6	SSE	-7.2	-6.3	-7.5	725.0	0.017	0.000	22.7	11	-9.3	20.4	2.69	 .0709	24	1	100.0	1
11/26/24	3:07	-6.0	-6.0	-6.0	47	-15.5	3.5	SSE	0.06	4.3	SE	-9.1	-6.3	-9.4	725.0	0.017	0.000	22.7	11	-9.3	20.4	2.69	 .0709	23	1	100.0	1
11/26/24	3:08	-5.9	-5.9	-6.0	47	-15.5	3.5	SE	0.06	4.3	SE	-9.1	-6.3	-9.4	725.0	0.017	0.000	22.7	11	-9.3	20.4	2.69	 .0709	23	1	100.0	1
11/26/24	3:09	-5.9	-5.9	-6.0	46	-15.7	3.5	SE	0.06	3.5	SE	-9.1	-6.3	-9.4	725.0	0.017	0.000	22.7	11	-9.3	20.4	2.69	 .0709	24	1	100.0	1
11/26/24	3:10	-5.9	-5.9	-5.9	45	-16.0	2.6	SE	0.04	3.5	SE	-8.2	-6.3	-8.6	725.0	0.017	0.000	22.7	11	-9.3	20.4	2.69	 .0709	23	1	100.0	1
11/26/24	3:11	-5.9	-5.9	-5.9	45	-15.9	2.6	SE	0.04	3.5	SE	-8.2	-6.2	-8.5	725.0	0.017	0.000	22.7	11	-9.3	20.4	2.69	 .0709	24	1	100.0	1
11/26/24	3:12	-5.9	-5.9	-5.9	45	-15.9	2.6	SE	0.04	3.5	SE	-8.2	-6.2	-8.5	725.0	0.017	0.000	22.7	11	-9.3	20.4	2.69	 .0709	23	1	100.0	1
11/26/24	3:13	-5.9	-5.9	-5.9	44	-16.2	1.7	SE	0.03	2.6	SE	-7.1	-6.3	-7.4	725.0	0.017	0.000	22.7	11	-9.3	20.4	2.69	 .0709	23	1	100.0	1
11/26/24	3:14	-5.9	-5.9	-5.9	44	-16.2	1.7	SE	0.03	2.6	SE	-7.1	-6.3	-7.4	725.0	0.017	0.000	22.7	11	-9.3	20.4	2.69	 .0709	24	1	100.0	1
11/26/24	3:15	-5.8	-5.8	-5.9	45	-15.9	2.6	SE	0.04	2.6	SE	-8.1	-6.2	-8.5	724.9	0.017	0.000	22.8	11	-9.3	20.4	2.69	 .0708	23	1	100.0	1
11/26/24	3:16	-5.8	-5.8	-5.8	45	-15.9	2.6	SE	0.04	3.5	SE	-8.1	-6.2	-8.5	724.9	0.017	0.000	22.8	11	-9.3	20.4	2.69	 .0708	24	1	100.0	1
11/26/24	3:17	-5.8	-5.8	-5.8	45	-15.9	2.6	SE	0.04	3.5	SE	-8.1	-6.2	-8.5	725.0	0.017	0.000	22.8	11	-9.3	20.4	2.69	 .0708	23	1	100.0	1
11/26/24	3:18	-5.9	-5.8	-5.9	45	-15.9	2.6	SE	0.04	3.5	SE	-8.2	-6.2	-8.5	725.0	0.017	0.000	22.8	11	-9.3	20.4	2.69	 .0708	24	1	100.0	1
11/26/24	3:19	-5.9	-5.8	-5.9	44	-16.2	3.5	SE	0.06	4.3	SE	-9.0	-6.3	-9.4	724.9	0.017	0.000	22.8	11	-9.3	20.4	2.69	 .0708	23	1	100.0	1
11/26/24	3:20	-5.9	-5.8	-5.9	44	-16.2	3.5	SE	0.06	3.5	SE	-9.0	-6.3	-9.4	725.0	0.017	0.000	22.8	11	-9.3	20.4	2.69	 .0708	23	1	100.0	1
11/26/24	3:21	-5.9	-5.9	-5.9	44	-16.2	3.5	SE	0.06	4.3	SE	-9.0	-6.3	-9.4	725.0	0.017	0.000	22.8	11	-9.3	20.4	2.69	 .0708	24	1	100.0	1
11/26/24	3:22	-5.9	-5.9	-5.9	44	-16.2	3.5	SE	0.06	4.3	SE	-9.0	-6.3	-9.4	724.9	0.017	0.000	22.8	11	-9.3	20.4	2.69	 .0708	23	1	100.0	1
11/26/24	3:23	-5.9	-5.9	-5.9	46	-15.7	3.5	SE	0.06	6.1	SE	-9.0	-6.2	-9.3	724.9	0.017	0.000	22.8	11	-9.3	20.4	2.69	 .0708	24	1	100.0	1
11/26/24	3:24	-5.9	-5.9	-5.9	45	-15.9	4.3	ESE	0.07	6.1	ESE	-9.7	-6.2	-10.0	724.9	0.017	0.000	22.8	11	-9.2	20.6	2.69	 .0708	23	1	100.0	1
11/26/24	3:25	-5.8	-5.8	-5.9	46	-15.6	5.2	E	0.09	6.1	E	-10.2	-6.2	-10.5	724.9	0.017	0.000	22.8	11	-9.2	20.6	2.69	 .0708	23	1	100.0	1
11/26/24	3:26	-5.8	-5.8	-5.8	46	-15.6	4.3	ESE	0.07	6.1	ESE	-9.6	-6.2	-9.9	724.9	0.017	0.000	22.8	11	-9.2	20.6	2.69	 .0708	24	1	100.0	1
11/26/24	3:27	-5.8	-5.8	-5.8	46	-15.6	5.2	ESE	0.09	6.1	ESE	-10.1	-6.1	-10.4	724.9	0.017	0.000	22.8	11	-9.2	20.6	2.69	 .0708	23	1	100.0	1
11/26/24	3:28	-5.8	-5.8	-5.8	45	-15.9	4.3	ESE	0.07	5.2	ESE	-9.6	-6.2	-10.0	724.9	0.017	0.000	22.8	11	-9.2	20.6	2.69	 .0708	24	1	100.0	1
11/26/24	3:29	-5.8	-5.8	-5.8	45	-15.9	4.3	ESE	0.07	6.1	ESE	-9.6	-6.2	-10.0	724.9	0.017	0.000	22.9	11	-9.2	20.6	2.69	 .0708	23	1	100.0	1
11/26/24	3:30	-5.9	-5.8	-5.9	44	-16.2	3.5	ESE	0.06	4.3	ESE	-9.0	-6.3	-9.4	724.9	0.017	0.000	22.9	11	-9.2	20.6	2.69	 .0708	24	1	100.0	1
11/26/24	3:31	-5.9	-5.9	-5.9	45	-16.0	6.1	SE	0.10	7.8	SE	-10.8	-6.3	-11.1	724.9	0.017	0.000	22.9	11	-9.2	20.6	2.69	 .0708	23	1	100.0	1
11/26/24	3:32	-6.1	-6.0	-6.1	44	-16.4	7.8	SSE	0.13	11.3	S	-11.7	-6.4	-12.1	724.9	0.017	0.000	22.9	11	-9.2	20.6	2.69	 .0708	23	1	100.0	1
11/26/24	3:33	-6.2	-6.1	-6.2	43	-16.7	6.1	S	0.10	9.6	S	-11.1	-6.5	-11.4	724.9	0.017	0.000	22.9	11	-9.2	20.6	2.69	 .0708	24	1	100.0	1
11/26/24	3:34	-6.3	-6.2	-6.3	42	-17.1	4.3	S	0.07	6.1	S	-10.1	-6.7	-10.5	724.9	0.017	0.000	22.9	11	-9.2	20.6	2.69	 .0708	23	1	100.0	1
11/26/24	3:35	-6.3	-6.3	-6.3	43	-16.9	4.3	SSW	0.07	6.1	SSW	-10.2	-6.7	-10.5	724.9	0.017	0.000	22.9	11	-9.2	20.6	2.69	 .0708	24	1	100.0	1
11/26/24	3:36	-6.4	-6.4	-6.4	43	-16.9	2.6	SSW	0.04	3.5	SSW	-8.7	-6.7	-9.1	724.9	0.017	0.000	22.9	11	-9.2	20.6	2.69	 .0708	23	1	100.0	1
11/26/24	3:37	-6.4	-6.4	-6.4	43	-17.0	2.6	SSW	0.04	3.5	SSW	-8.8	-6.8	-9.1	724.9	0.017	0.000	22.9	11	-9.1	20.7	2.68	 .0708	23	1	100.0	1
11/26/24	3:38	-6.4	-6.4	-6.4	44	-16.7	2.6	S	0.04	4.3	S	-8.7	-6.7	-9.1	724.9	0.017	0.000	22.9	11	-9.1	20.7	2.68	 .0708	24	1	100.0	1
11/26/24	3:39	-6.4	-6.4	-6.4	44	-16.7	3.5	SE	0.06	4.3	SSE	-9.6	-6.7	-9.9	724.9	0.017	0.000	22.9	11	-9.1	20.7	2.68	 .0708	23	1	100.0	1
11/26/24	3:40	-6.3	-6.3	-6.4	45	-16.3	3.5	SE	0.06	4.3	SE	-9.5	-6.7	-9.8	724.9	0.017	0.000	23.0	11	-9.1	20.7	2.68	 .0708	24	1	100.0	1
11/26/24	3:41	-6.3	-6.3	-6.3	44	-16.6	2.6	SE	0.04	3.5	SE	-8.6	-6.6	-8.9	724.9	0.017	0.000	23.0	11	-9.1	20.7	2.68	 .0708	23	1	100.0	1
11/26/24	3:42	-6.2	-6.2	-6.3	44	-16.5	3.5	SE	0.06	4.3	SE	-9.4	-6.6	-9.7	724.9	0.017	0.000	23.0	11	-9.1	20.7	2.68	 .0708	24	1	100.0	1
11/26/24	3:43	-6.2	-6.2	-6.2	43	-16.8	2.6	SE	0.04	4.3	SE	-8.6	-6.6	-8.9	724.8	0.017	0.000	23.0	11	-9.1	20.7	2.68	 .0708	23	1	100.0	1
11/26/24	3:44	-6.2	-6.2	-6.2	43	-16.7	4.3	ESE	0.07	6.1	ESE	-10.0	-6.5	-10.3	724.8	0.017	0.000	23.0	11	-9.1	20.7	2.68	 .0708	23	1	100.0	1
11/26/24	3:45	-6.2	-6.2	-6.2	42	-17.0	3.5	ESE	0.06	5.2	ESE	-9.3	-6.6	-9.7	724.8	0.017	0.000	23.0	11	-9.1	20.7	2.68	 .0708	24	1	100.0	1
11/26/24	3:46	-6.2	-6.2	-6.2	42	-17.0	3.5	ESE	0.06	5.2	ESE	-9.3	-6.6	-9.7	724.8	0.017	0.000	23.0	11	-9.1	20.7	2.68	 .0708	23	1	100.0	1
11/26/24	3:47	-6.2	-6.2	-6.2	42	-17.0	3.5	E	0.06	5.2	ESE	-9.3	-6.6	-9.7	724.8	0.017	0.000	23.0	11	-9.1	20.7	2.68	 .0708	24	1	100.0	1
11/26/24	3:48	-6.2	-6.2	-6.2	42	-17.0	2.6	ESE	0.04	3.5	ESE	-8.4	-6.6	-8.8	724.8	0.017	0.000	23.0	11	-9.1	20.7	2.68	 .0708	23	1	100.0	1
11/26/24	3:49	-6.2	-6.2	-6.2	42	-17.0	3.5	SE	0.06	6.1	ESE	-9.3	-6.6	-9.7	724.8	0.017	0.000	23.0	11	-9.1	20.7	2.68	 .0708	23	1	100.0	1
11/26/24	3:50	-6.2	-6.2	-6.2	42	-17.0	2.6	SE	0.04	3.5	SE	-8.4	-6.6	-8.8	724.8	0.017	0.000	23.0	11	-9.1	20.7	2.68	 .0708	24	1	100.0	1
11/26/24	3:51	-6.2	-6.2	-6.2	41	-17.4	2.6	SE	0.04	4.3	SE	-8.6	-6.6	-8.9	724.8	0.017	0.000	23.0	11	-9.1	20.7	2.68	 .0708	23	1	100.0	1
11/26/24	3:52	-6.2	-6.2	-6.2	42	-17.1	2.6	SE	0.04	3.5	SE	-8.6	-6.6	-8.9	724.8	0.017	0.000	23.0	11	-9.1	20.7	2.68	 .0708	24	1	100.0	1
11/26/24	3:53	-6.2	-6.2	-6.2	42	-17.1	3.5	SE	0.06	4.3	SE	-9.4	-6.6	-9.8	724.8	0.017	0.000	23.1	11	-9.0	20.8	2.68	 .0708	23	1	100.0	1
11/26/24	3:54	-6.2	-6.2	-6.2	42	-17.1	4.3	E	0.07	6.1	E	-10.1	-6.6	-10.4	724.8	0.017	0.000	23.0	11	-9.1	20.7	2.68	 .0708	23	1	100.0	1
11/26/24	3:55	-6.2	-6.2	-6.2	42	-17.1	4.3	E	0.07	5.2	E	-10.1	-6.6	-10.4	724.7	0.017	0.000	23.1	11	-9.0	20.8	2.68	 .0708	24	1	100.0	1
11/26/24	3:56	-6.3	-6.3	-6.3	42	-17.2	2.6	E	0.04	3.5	E	-8.7	-6.7	-9.1	724.8	0.017	0.000	23.0	11	-9.1	20.7	2.68	 .0708	23	1	100.0	1
11/26/24	3:57	-6.3	-6.3	-6.3	42	-17.2	3.5	E	0.06	5.2	E	-9.5	-6.7	-9.9	724.8	0.017	0.000	23.0	11	-9.1	20.7	2.68	 .0708	24	1	100.0	1
11/26/24	3:58	-6.3	-6.3	-6.4	43	-16.9	2.6	E	0.04	3.5	E	-8.7	-6.7	-9.0	724.7	0.017	0.000	23.0	11	-9.1	20.7	2.68	 .0708	23	1	100.0	1
11/26/24	3:59	-6.3	-6.3	-6.3	43	-16.9	3.5	E	0.06	5.2	E	-9.5	-6.7	-9.8	724.8	0.017	0.000	23.0	11	-9.1	20.7	2.68	 .0708	24	1	100.0	1
11/26/24	4:00	-6.3	-6.3	-6.3	42	-17.2	2.6	E	0.04	3.5	E	-8.7	-6.7	-9.1	724.8	0.017	0.000	23.0	11	-9.1	20.7	2.68	 .0708	23	1	100.0	1
11/26/24	4:01	-6.3	-6.3	-6.3	42	-17.2	3.5	E	0.06	5.2	E	-9.5	-6.7	-9.9	724.8	0.017	0.000	23.0	11	-9.1	20.7	2.68	 .0708	23	1	100.0	1
11/26/24	4:02	-6.3	-6.3	-6.3	43	-16.9	3.5	E	0.06	5.2	E	-9.5	-6.7	-9.8	724.8	0.017	0.000	23.0	11	-9.1	20.7	2.68	 .0708	24	1	100.0	1
11/26/24	4:03	-6.4	-6.3	-6.4	43	-16.9	3.5	E	0.06	5.2	E	-9.6	-6.7	-9.9	724.8	0.017	0.000	23.0	11	-9.1	20.7	2.68	 .0708	23	1	100.0	1
11/26/24	4:04	-6.4	-6.4	-6.4	44	-16.7	4.3	E	0.07	5.2	E	-10.2	-6.7	-10.6	724.8	0.017	0.000	23.0	11	-9.1	20.7	2.68	 .0708	24	1	100.0	1
11/26/24	4:05	-6.4	-6.4	-6.4	44	-16.7	4.3	E	0.07	6.1	E	-10.2	-6.7	-10.6	724.7	0.017	0.000	23.0	11	-9.1	20.7	2.68	 .0708	23	1	100.0	1
11/26/24	4:06	-6.4	-6.4	-6.4	45	-16.4	4.3	E	0.07	5.2	E	-10.2	-6.7	-10.6	724.8	0.017	0.000	23.0	11	-9.1	20.7	2.68	 .0708	23	1	100.0	1
11/26/24	4:07	-6.4	-6.4	-6.4	45	-16.4	4.3	E	0.07	6.1	E	-10.2	-6.7	-10.6	724.8	0.017	0.000	23.0	11	-9.1	20.7	2.68	 .0708	24	1	100.0	1
11/26/24	4:08	-6.4	-6.4	-6.4	44	-16.7	3.5	E	0.06	4.3	E	-9.6	-6.7	-9.9	724.8	0.017	0.000	23.0	11	-9.1	20.7	2.68	 .0708	23	1	100.0	1
11/26/24	4:09	-6.4	-6.4	-6.4	44	-16.7	4.3	E	0.07	5.2	E	-10.2	-6.7	-10.6	724.8	0.017	0.000	23.0	11	-9.1	20.7	2.68	 .0708	24	1	100.0	1
11/26/24	4:10	-6.4	-6.4	-6.4	45	-16.4	5.2	E	0.09	6.1	E	-10.8	-6.7	-11.2	724.8	0.017	0.000	23.0	11	-9.1	20.7	2.68	 .0708	23	1	100.0	1
11/26/24	4:11	-6.4	-6.4	-6.4	45	-16.4	4.3	E	0.07	6.1	E	-10.2	-6.7	-10.6	724.8	0.017	0.000	23.0	11	-9.1	20.7	2.68	 .0708	24	1	100.0	1
11/26/24	4:12	-6.4	-6.3	-6.4	45	-16.4	4.3	E	0.07	6.1	E	-10.2	-6.7	-10.6	724.8	0.017	0.000	23.0	11	-9.1	20.7	2.68	 .0708	23	1	100.0	1
11/26/24	4:13	-6.4	-6.4	-6.4	44	-16.7	4.3	E	0.07	6.1	E	-10.2	-6.7	-10.6	724.7	0.017	0.000	23.0	11	-9.1	20.7	2.68	 .0708	23	1	100.0	1
11/26/24	4:14	-6.4	-6.4	-6.4	43	-16.9	4.3	E	0.07	4.3	E	-10.2	-6.7	-10.6	724.7	0.017	0.000	23.0	11	-9.1	20.7	2.68	 .0708	24	1	100.0	1
11/26/24	4:15	-6.4	-6.4	-6.4	43	-17.0	3.5	E	0.06	4.3	E	-9.6	-6.8	-9.9	724.8	0.017	0.000	22.9	11	-9.1	20.7	2.68	 .0708	23	1	100.0	1
11/26/24	4:16	-6.5	-6.4	-6.5	43	-17.0	3.5	E	0.06	6.1	E	-9.7	-6.8	-10.0	724.7	0.017	0.000	23.0	11	-9.1	20.7	2.68	 .0708	24	1	100.0	1
11/26/24	4:17	-6.5	-6.5	-6.5	44	-16.8	4.3	E	0.07	5.2	E	-10.4	-6.8	-10.7	724.8	0.017	0.000	23.0	11	-9.1	20.7	2.68	 .0708	23	1	100.0	1
11/26/24	4:18	-6.4	-6.4	-6.5	45	-16.4	3.5	E	0.06	5.2	E	-9.6	-6.8	-9.9	724.8	0.017	0.000	23.0	11	-9.1	20.7	2.68	 .0708	23	1	100.0	1
11/26/24	4:19	-6.4	-6.4	-6.5	44	-16.7	2.6	E	0.04	3.5	E	-8.8	-6.8	-9.1	724.7	0.017	0.000	23.0	11	-9.1	20.7	2.68	 .0708	24	1	100.0	1
11/26/24	4:20	-6.4	-6.4	-6.4	44	-16.7	2.6	E	0.04	3.5	E	-8.7	-6.7	-9.1	724.8	0.017	0.000	23.0	11	-9.1	20.7	2.68	 .0708	23	1	100.0	1
11/26/24	4:21	-6.4	-6.4	-6.4	44	-16.7	3.5	ESE	0.06	5.2	ESE	-9.6	-6.7	-9.9	724.8	0.017	0.000	23.0	11	-9.1	20.7	2.68	 .0708	24	1	100.0	1
11/26/24	4:22	-6.3	-6.3	-6.3	44	-16.6	3.5	E	0.06	5.2	E	-9.5	-6.7	-9.8	724.7	0.017	0.000	22.9	11	-9.1	20.7	2.68	 .0708	23	1	100.0	1
11/26/24	4:23	-6.3	-6.3	-6.3	44	-16.6	3.5	E	0.06	5.2	E	-9.4	-6.6	-9.8	724.7	0.017	0.000	23.0	11	-9.1	20.7	2.68	 .0708	24	1	100.0	1
11/26/24	4:24	-6.3	-6.3	-6.3	44	-16.6	2.6	E	0.04	3.5	E	-8.6	-6.6	-8.9	724.7	0.017	0.000	22.9	11	-9.1	20.7	2.68	 .0708	23	1	100.0	1
11/26/24	4:25	-6.3	-6.3	-6.3	44	-16.6	2.6	ESE	0.04	3.5	ESE	-8.6	-6.6	-8.9	724.7	0.017	0.000	22.9	11	-9.1	20.7	2.68	 .0708	23	1	100.0	1
11/26/24	4:26	-6.3	-6.2	-6.3	43	-16.8	2.6	ESE	0.04	3.5	ESE	-8.6	-6.6	-8.9	724.7	0.017	0.000	22.9	11	-9.1	20.7	2.68	 .0708	24	1	100.0	1
11/26/24	4:27	-6.2	-6.2	-6.2	43	-16.8	3.5	ESE	0.06	5.2	ESE	-9.4	-6.6	-9.7	724.7	0.017	0.000	23.0	11	-9.1	20.7	2.68	 .0708	23	1	100.0	1
11/26/24	4:28	-6.2	-6.2	-6.2	43	-16.7	3.5	ESE	0.06	5.2	ESE	-9.3	-6.5	-9.6	724.7	0.017	0.000	22.9	11	-9.1	20.7	2.68	 .0708	24	1	100.0	1
11/26/24	4:29	-6.2	-6.2	-6.2	43	-16.7	3.5	E	0.06	5.2	E	-9.3	-6.5	-9.6	724.7	0.017	0.000	22.9	11	-9.1	20.7	2.68	 .0708	23	1	100.0	1
11/26/24	4:30	-6.2	-6.2	-6.2	42	-17.0	2.6	E	0.04	3.5	E	-8.4	-6.6	-8.8	724.7	0.017	0.000	22.9	11	-9.1	20.7	2.68	 .0708	23	1	100.0	1
11/26/24	4:31	-6.2	-6.2	-6.2	42	-17.0	2.6	E	0.04	3.5	E	-8.4	-6.6	-8.8	724.7	0.017	0.000	22.9	11	-9.1	20.7	2.68	 .0708	24	1	100.0	1
11/26/24	4:32	-6.2	-6.2	-6.2	42	-17.0	1.7	E	0.03	3.5	E	-7.3	-6.6	-7.7	724.7	0.017	0.000	22.9	11	-9.1	20.7	2.68	 .0708	23	1	100.0	1
11/26/24	4:33	-6.2	-6.2	-6.2	43	-16.7	2.6	E	0.04	3.5	E	-8.4	-6.5	-8.8	724.7	0.017	0.000	22.9	11	-9.1	20.7	2.68	 .0708	24	1	100.0	1
11/26/24	4:34	-6.1	-6.1	-6.2	42	-17.0	2.6	ESE	0.04	3.5	ESE	-8.4	-6.5	-8.8	724.7	0.017	0.000	22.9	11	-9.1	20.7	2.68	 .0708	23	1	100.0	1
11/26/24	4:35	-6.1	-6.1	-6.2	42	-17.0	2.6	ESE	0.04	3.5	ESE	-8.4	-6.5	-8.8	724.7	0.017	0.000	22.9	11	-9.1	20.7	2.68	 .0708	24	1	100.0	1
11/26/24	4:36	-6.1	-6.1	-6.1	42	-16.9	2.6	ESE	0.04	3.5	ESE	-8.3	-6.4	-8.7	724.7	0.017	0.000	22.9	11	-9.1	20.7	2.68	 .0708	23	1	100.0	1
11/26/24	4:37	-6.1	-6.1	-6.1	42	-17.0	2.6	ESE	0.04	5.2	ESE	-8.4	-6.5	-8.8	724.7	0.017	0.000	22.9	11	-9.1	20.7	2.68	 .0708	23	1	100.0	1
11/26/24	4:38	-6.1	-6.1	-6.1	42	-17.0	2.6	ESE	0.04	3.5	E	-8.4	-6.5	-8.8	724.7	0.017	0.000	22.9	11	-9.1	20.7	2.68	 .0708	24	1	100.0	1
11/26/24	4:39	-6.2	-6.1	-6.2	43	-16.7	2.6	E	0.04	3.5	E	-8.4	-6.5	-8.8	724.7	0.017	0.000	22.9	11	-9.2	20.6	2.69	 .0708	23	1	100.0	1
11/26/24	4:40	-6.2	-6.1	-6.2	42	-17.0	2.6	E	0.04	5.2	E	-8.4	-6.6	-8.8	724.6	0.017	0.000	22.9	11	-9.2	20.6	2.69	 .0708	24	1	100.0	1
11/26/24	4:41	-6.2	-6.2	-6.2	42	-17.1	2.6	E	0.04	5.2	E	-8.6	-6.6	-8.9	724.7	0.017	0.000	22.9	11	-9.1	20.7	2.68	 .0708	23	1	100.0	1
11/26/24	4:42	-6.2	-6.2	-6.2	43	-16.7	1.7	E	0.03	3.5	E	-7.3	-6.5	-7.7	724.7	0.017	0.000	22.9	11	-9.2	20.6	2.69	 .0708	23	1	100.0	1
11/26/24	4:43	-6.1	-6.1	-6.2	43	-16.7	2.6	E	0.04	3.5	E	-8.4	-6.4	-8.7	724.7	0.017	0.000	22.9	11	-9.2	20.6	2.69	 .0708	24	1	100.0	1
11/26/24	4:44	-6.1	-6.1	-6.1	43	-16.7	3.5	E	0.06	3.5	E	-9.2	-6.4	-9.6	724.6	0.017	0.000	22.9	11	-9.2	20.6	2.69	 .0708	23	1	100.0	1
11/26/24	4:45	-6.1	-6.1	-6.1	42	-16.9	2.6	E	0.04	5.2	E	-8.3	-6.4	-8.7	724.7	0.017	0.000	22.9	11	-9.2	20.6	2.69	 .0708	24	1	100.0	1
11/26/24	4:46	-6.1	-6.1	-6.1	41	-17.2	3.5	E	0.06	5.2	E	-9.2	-6.4	-9.6	724.7	0.017	0.000	22.9	11	-9.2	20.6	2.69	 .0708	23	1	100.0	1
11/26/24	4:47	-6.1	-6.1	-6.1	41	-17.2	2.6	E	0.04	5.2	E	-8.3	-6.4	-8.7	724.6	0.017	0.000	22.9	11	-9.2	20.6	2.69	 .0708	24	1	100.0	1
11/26/24	4:48	-6.1	-6.1	-6.1	41	-17.3	3.5	E	0.06	5.2	E	-9.2	-6.5	-9.6	724.6	0.017	0.000	22.9	11	-9.2	20.6	2.69	 .0708	23	1	100.0	1
11/26/24	4:49	-6.1	-6.1	-6.1	41	-17.3	3.5	E	0.06	6.1	E	-9.2	-6.5	-9.6	724.6	0.017	0.000	22.9	11	-9.2	20.6	2.69	 .0708	23	1	100.0	1
11/26/24	4:50	-6.2	-6.1	-6.2	41	-17.3	3.5	E	0.06	4.3	E	-9.3	-6.6	-9.7	724.6	0.017	0.000	22.9	11	-9.2	20.6	2.69	 .0708	24	1	100.0	1
11/26/24	4:51	-6.2	-6.2	-6.2	41	-17.4	3.5	E	0.06	4.3	E	-9.4	-6.6	-9.8	724.6	0.017	0.000	22.9	11	-9.2	20.6	2.69	 .0708	23	1	100.0	1
11/26/24	4:52	-6.3	-6.3	-6.3	41	-17.4	3.5	E	0.06	4.3	E	-9.4	-6.7	-9.8	724.6	0.017	0.000	22.9	11	-9.2	20.6	2.69	 .0708	24	1	100.0	1
11/26/24	4:53	-6.3	-6.3	-6.3	41	-17.4	2.6	E	0.04	3.5	E	-8.6	-6.7	-9.0	724.6	0.017	0.000	22.9	11	-9.2	20.6	2.69	 .0708	23	1	100.0	1
11/26/24	4:54	-6.3	-6.3	-6.3	41	-17.4	2.6	E	0.04	3.5	E	-8.6	-6.7	-9.0	724.6	0.017	0.000	22.9	11	-9.2	20.6	2.69	 .0708	23	1	100.0	1
11/26/24	4:55	-6.3	-6.3	-6.3	41	-17.4	2.6	E	0.04	3.5	E	-8.6	-6.7	-9.0	724.6	0.017	0.000	22.9	11	-9.2	20.6	2.69	 .0708	24	1	100.0	1
11/26/24	4:56	-6.2	-6.2	-6.3	41	-17.4	2.6	E	0.04	3.5	E	-8.6	-6.6	-8.9	724.6	0.017	0.000	22.9	11	-9.2	20.6	2.69	 .0708	23	1	100.0	1
11/26/24	4:57	-6.2	-6.2	-6.2	42	-17.1	2.6	E	0.04	3.5	E	-8.6	-6.6	-8.9	724.6	0.017	0.000	22.9	11	-9.2	20.6	2.69	 .0708	24	1	100.0	1
11/26/24	4:58	-6.2	-6.2	-6.2	42	-17.0	2.6	ESE	0.04	3.5	E	-8.4	-6.6	-8.8	724.6	0.017	0.000	22.9	11	-9.2	20.6	2.69	 .0708	23	1	100.0	1
11/26/24	4:59	-6.2	-6.2	-6.2	42	-17.0	2.6	ESE	0.04	3.5	ESE	-8.4	-6.6	-8.8	724.6	0.017	0.000	22.9	11	-9.2	20.6	2.69	 .0708	23	1	100.0	1
11/26/24	5:00	-6.2	-6.2	-6.2	42	-17.0	3.5	ESE	0.06	5.2	ESE	-9.3	-6.6	-9.7	724.6	0.017	0.000	22.9	11	-9.2	20.6	2.69	 .0708	24	1	100.0	1
11/26/24	5:01	-6.1	-6.1	-6.2	42	-17.0	3.5	E	0.06	5.2	E	-9.2	-6.5	-9.6	724.6	0.017	0.000	22.8	11	-9.2	20.6	2.69	 .0708	23	1	100.0	1
11/26/24	5:02	-6.2	-6.1	-6.2	41	-17.3	3.5	E	0.06	5.2	E	-9.3	-6.6	-9.7	724.6	0.017	0.000	22.8	11	-9.2	20.6	2.69	 .0708	24	1	100.0	1
11/26/24	5:03	-6.2	-6.2	-6.2	41	-17.3	3.5	E	0.06	3.5	E	-9.3	-6.6	-9.7	724.6	0.017	0.000	22.8	11	-9.2	20.6	2.69	 .0708	23	1	100.0	1
11/26/24	5:04	-6.2	-6.2	-6.2	41	-17.3	3.5	E	0.06	5.2	E	-9.3	-6.6	-9.7	724.5	0.017	0.000	22.9	11	-9.2	20.6	2.69	 .0708	24	1	100.0	1
11/26/24	5:05	-6.2	-6.2	-6.2	41	-17.3	3.5	E	0.06	5.2	E	-9.3	-6.6	-9.7	724.5	0.017	0.000	22.9	11	-9.2	20.6	2.69	 .0708	23	1	100.0	1
11/26/24	5:06	-6.2	-6.2	-6.2	41	-17.3	2.6	E	0.04	4.3	E	-8.4	-6.6	-8.8	724.6	0.017	0.000	22.9	11	-9.2	20.6	2.69	 .0708	23	1	100.0	1
11/26/24	5:07	-6.2	-6.2	-6.2	42	-17.0	2.6	E	0.04	3.5	E	-8.4	-6.6	-8.8	724.6	0.017	0.000	22.8	11	-9.2	20.6	2.69	 .0708	24	1	100.0	1
11/26/24	5:08	-6.2	-6.2	-6.2	41	-17.3	2.6	E	0.04	3.5	E	-8.4	-6.6	-8.8	724.6	0.017	0.000	22.9	11	-9.2	20.6	2.69	 .0708	23	1	100.0	1
11/26/24	5:09	-6.2	-6.2	-6.2	41	-17.3	2.6	E	0.04	3.5	E	-8.4	-6.6	-8.8	724.6	0.017	0.000	22.8	11	-9.2	20.6	2.69	 .0708	24	1	100.0	1
11/26/24	5:10	-6.2	-6.2	-6.2	41	-17.3	1.7	E	0.03	2.6	E	-7.3	-6.6	-7.7	724.5	0.017	0.000	22.9	11	-9.2	20.6	2.69	 .0708	23	1	100.0	1
11/26/24	5:11	-6.1	-6.1	-6.1	40	-17.5	1.7	E	0.03	2.6	E	-7.3	-6.5	-7.7	724.6	0.017	0.000	22.8	11	-9.2	20.6	2.69	 .0708	23	1	100.0	1
11/26/24	5:12	-6.1	-6.1	-6.1	40	-17.5	1.7	E	0.03	1.7	E	-7.2	-6.4	-7.6	724.6	0.017	0.000	22.8	11	-9.2	20.6	2.69	 .0708	24	1	100.0	1
11/26/24	5:13	-6.0	-6.0	-6.1	40	-17.4	0.9	E	0.01	1.7	E	-6.0	-6.4	-6.4	724.5	0.017	0.000	22.9	11	-9.2	20.6	2.69	 .0708	23	1	100.0	1
11/26/24	5:14	-6.0	-6.0	-6.0	41	-17.2	0.9	E	0.01	1.7	E	-6.0	-6.4	-6.4	724.6	0.017	0.000	22.8	11	-9.2	20.6	2.69	 .0708	24	1	100.0	1
11/26/24	5:15	-5.9	-5.9	-5.9	40	-17.3	1.7	E	0.03	2.6	E	-7.1	-6.3	-7.4	724.5	0.017	0.000	22.9	11	-9.2	20.6	2.69	 .0708	23	1	100.0	1
11/26/24	5:16	-5.8	-5.8	-5.9	40	-17.3	1.7	E	0.03	2.6	E	-7.0	-6.2	-7.4	724.5	0.017	0.000	22.9	11	-9.2	20.6	2.69	 .0708	24	1	100.0	1
11/26/24	5:17	-5.8	-5.8	-5.8	39	-17.6	2.6	E	0.04	2.6	E	-8.1	-6.2	-8.5	724.6	0.017	0.000	22.9	11	-9.2	20.6	2.69	 .0708	23	1	100.0	1
11/26/24	5:18	-5.8	-5.8	-5.8	39	-17.6	1.7	E	0.03	3.5	E	-7.0	-6.2	-7.4	724.5	0.017	0.000	22.8	11	-9.2	20.6	2.69	 .0708	23	1	100.0	1
11/26/24	5:19	-5.8	-5.8	-5.8	39	-17.6	1.7	E	0.03	2.6	E	-7.0	-6.2	-7.4	724.5	0.017	0.000	22.9	11	-9.2	20.6	2.69	 .0708	24	1	100.0	1
11/26/24	5:20	-5.8	-5.8	-5.8	39	-17.5	0.0	E	0.00	0.9	E	-5.8	-6.2	-6.2	724.5	0.017	0.000	22.9	11	-9.2	20.6	2.69	 .0708	23	1	100.0	1
11/26/24	5:21	-5.7	-5.7	-5.8	42	-16.6	1.7	E	0.03	2.6	E	-6.9	-6.1	-7.3	724.5	0.017	0.000	22.8	11	-9.2	20.6	2.69	 .0708	24	1	100.0	1
11/26/24	5:22	-5.7	-5.7	-5.7	43	-16.3	0.9	E	0.01	1.7	E	-5.7	-6.1	-6.1	724.5	0.017	0.000	22.8	11	-9.2	20.6	2.69	 .0708	23	1	100.0	1
11/26/24	5:23	-5.6	-5.6	-5.7	44	-16.0	1.7	E	0.03	2.6	E	-6.7	-6.0	-7.1	724.5	0.017	0.000	22.9	11	-9.2	20.6	2.69	 .0708	23	1	100.0	1
11/26/24	5:24	-5.6	-5.6	-5.6	44	-15.9	2.6	SSE	0.04	4.3	S	-7.8	-5.9	-8.2	724.5	0.017	0.000	22.9	11	-9.2	20.6	2.69	 .0708	24	1	100.0	1
11/26/24	5:25	-5.6	-5.6	-5.6	44	-15.9	1.7	W	0.03	3.5	W	-6.7	-5.9	-7.1	724.4	0.017	0.000	22.8	11	-9.2	20.6	2.69	 .0708	23	1	100.0	1
11/26/24	5:26	-5.6	-5.6	-5.6	44	-15.9	1.7	W	0.03	2.6	W	-6.7	-5.9	-7.1	724.4	0.017	0.000	22.8	11	-9.2	20.6	2.69	 .0708	24	1	100.0	1
11/26/24	5:27	-5.6	-5.6	-5.6	43	-16.2	0.9	W	0.01	1.7	W	-5.6	-5.9	-5.9	724.4	0.017	0.000	22.8	11	-9.2	20.6	2.69	 .0708	23	1	100.0	1
11/26/24	5:28	-5.5	-5.5	-5.6	43	-16.1	2.6	WNW	0.04	6.1	WNW	-7.7	-5.9	-8.1	724.5	0.017	0.000	22.8	11	-9.2	20.6	2.69	 .0708	24	1	100.0	1
11/26/24	5:29	-5.6	-5.5	-5.6	43	-16.2	2.6	WNW	0.04	3.5	WNW	-7.8	-5.9	-8.2	724.4	0.017	0.000	22.8	11	-9.2	20.6	2.69	 .0708	23	1	100.0	1
11/26/24	5:30	-5.6	-5.6	-5.6	43	-16.2	2.6	WNW	0.04	4.3	NNW	-7.8	-5.9	-8.2	724.4	0.017	0.000	22.8	11	-9.2	20.6	2.69	 .0708	23	1	100.0	1
11/26/24	5:31	-5.6	-5.6	-5.6	42	-16.5	2.6	NW	0.04	3.5	NW	-7.8	-6.0	-8.2	724.4	0.017	0.000	22.8	11	-9.2	20.6	2.69	 .0708	24	1	100.0	1
11/26/24	5:32	-5.6	-5.6	-5.6	42	-16.5	1.7	NW	0.03	2.6	NW	-6.7	-6.0	-7.1	724.4	0.017	0.000	22.8	11	-9.2	20.6	2.69	 .0708	23	1	100.0	1
11/26/24	5:33	-5.6	-5.6	-5.7	41	-16.8	0.0	NW	0.00	1.7	NW	-5.6	-6.0	-6.0	724.4	0.017	0.000	22.8	11	-9.2	20.6	2.69	 .0708	24	1	100.0	1
11/26/24	5:34	-5.6	-5.6	-5.7	41	-16.8	0.0	---	0.00	0.0	---	-5.6	-6.0	-6.0	724.4	0.017	0.000	22.8	11	-9.2	20.6	2.69	 .0708	23	1	100.0	1
11/26/24	5:35	-5.6	-5.6	-5.6	42	-16.5	0.0	---	0.00	0.0	---	-5.6	-5.9	-5.9	724.4	0.017	0.000	22.8	11	-9.2	20.6	2.69	 .0708	23	1	100.0	1
11/26/24	5:36	-5.5	-5.5	-5.6	42	-16.4	0.0	---	0.00	0.0	---	-5.5	-5.9	-5.9	724.4	0.017	0.000	22.8	11	-9.2	20.6	2.69	 .0708	24	1	100.0	1
11/26/24	5:37	-5.4	-5.4	-5.5	42	-16.4	0.0	---	0.00	0.0	---	-5.4	-5.8	-5.8	724.4	0.017	0.000	22.8	11	-9.2	20.6	2.69	 .0708	23	1	100.0	1
11/26/24	5:38	-5.4	-5.4	-5.4	43	-16.0	0.0	---	0.00	0.0	---	-5.4	-5.8	-5.8	724.4	0.016	0.000	22.8	11	-9.2	20.6	2.69	 .0708	24	1	100.0	1
11/26/24	5:39	-5.3	-5.3	-5.3	44	-15.7	0.0	---	0.00	0.0	---	-5.3	-5.7	-5.7	724.4	0.016	0.000	22.8	11	-9.2	20.6	2.69	 .0708	23	1	100.0	1
11/26/24	5:40	-5.3	-5.3	-5.3	44	-15.6	0.9	SW	0.01	2.6	W	-5.3	-5.7	-5.7	724.4	0.016	0.000	22.8	11	-9.2	20.6	2.69	 .0708	24	1	100.0	1
11/26/24	5:41	-5.3	-5.3	-5.3	44	-15.6	0.9	WNW	0.01	3.5	WNW	-5.3	-5.7	-5.7	724.4	0.016	0.000	22.8	11	-9.2	20.6	2.69	 .0708	23	1	100.0	1
11/26/24	5:42	-5.2	-5.2	-5.3	43	-15.9	3.5	NE	0.06	5.2	NE	-8.2	-5.6	-8.6	724.4	0.016	0.000	22.8	11	-9.2	20.6	2.69	 .0708	23	1	100.0	1
11/26/24	5:43	-5.3	-5.2	-5.3	42	-16.2	5.2	ENE	0.09	7.8	E	-9.5	-5.7	-9.9	724.4	0.016	0.000	22.8	11	-9.2	20.6	2.69	 .0708	24	1	100.0	1
11/26/24	5:44	-5.4	-5.3	-5.4	42	-16.3	5.2	NE	0.09	7.8	NE	-9.6	-5.8	-10.0	724.3	0.016	0.000	22.8	11	-9.2	20.6	2.69	 .0708	23	1	100.0	1
11/26/24	5:45	-5.5	-5.4	-5.5	42	-16.4	3.5	NE	0.06	4.3	NE	-8.6	-5.9	-8.9	724.3	0.017	0.000	22.8	11	-9.3	20.4	2.69	 .0708	24	1	100.0	1
11/26/24	5:46	-5.6	-5.6	-5.6	42	-16.5	2.6	NE	0.04	3.5	NE	-7.8	-6.0	-8.2	724.4	0.017	0.000	22.8	11	-9.2	20.6	2.69	 .0708	23	1	100.0	1
11/26/24	5:47	-5.7	-5.6	-5.7	41	-16.8	2.6	NE	0.04	2.6	NE	-7.9	-6.1	-8.3	724.4	0.017	0.000	22.8	11	-9.2	20.6	2.69	 .0708	23	1	100.0	1
11/26/24	5:48	-5.7	-5.7	-5.7	40	-17.2	1.7	NE	0.03	2.6	NE	-6.9	-6.1	-7.3	724.3	0.017	0.000	22.8	11	-9.2	20.6	2.69	 .0708	24	1	100.0	1
11/26/24	5:49	-5.7	-5.7	-5.7	39	-17.5	1.7	NE	0.03	2.6	NE	-6.9	-6.1	-7.3	724.4	0.017	0.000	22.8	11	-9.3	20.4	2.69	 .0708	23	1	100.0	1
11/26/24	5:50	-5.7	-5.7	-5.7	38	-17.8	1.7	NE	0.03	1.7	ENE	-6.9	-6.1	-7.3	724.4	0.017	0.000	22.8	11	-9.2	20.6	2.69	 .0708	24	1	100.0	1
11/26/24	5:51	-5.7	-5.7	-5.7	38	-17.8	1.7	ENE	0.03	2.6	ENE	-6.9	-6.1	-7.3	724.4	0.017	0.000	22.8	11	-9.2	20.6	2.69	 .0708	23	1	100.0	1
11/26/24	5:52	-5.7	-5.7	-5.7	38	-17.8	1.7	ENE	0.03	2.6	ENE	-6.9	-6.1	-7.3	724.3	0.017	0.000	22.8	11	-9.3	20.4	2.69	 .0708	23	1	100.0	1
11/26/24	5:53	-5.7	-5.7	-5.7	38	-17.8	2.6	ENE	0.04	4.3	NW	-7.9	-6.1	-8.3	724.3	0.017	0.000	22.8	11	-9.3	20.4	2.69	 .0708	24	1	100.0	1
11/26/24	5:54	-5.7	-5.7	-5.7	39	-17.4	2.6	NNW	0.04	3.5	NW	-7.9	-6.1	-8.3	724.3	0.017	0.000	22.8	11	-9.3	20.4	2.69	 .0708	23	1	100.0	1
11/26/24	5:55	-5.7	-5.7	-5.7	42	-16.6	2.6	NNW	0.04	3.5	NW	-7.9	-6.1	-8.3	724.3	0.017	0.000	22.8	11	-9.3	20.4	2.69	 .0708	24	1	100.0	1
11/26/24	5:56	-5.6	-5.6	-5.7	42	-16.5	1.7	NNW	0.03	2.6	NNW	-6.7	-6.0	-7.1	724.3	0.017	0.000	22.8	11	-9.3	20.4	2.69	 .0708	23	1	100.0	1
11/26/24	5:57	-5.6	-5.6	-5.7	41	-16.8	1.7	ENE	0.03	2.6	NE	-6.7	-6.0	-7.1	724.3	0.017	0.000	22.8	11	-9.3	20.4	2.69	 .0708	24	1	100.0	1
11/26/24	5:58	-5.6	-5.6	-5.6	41	-16.8	2.6	ENE	0.04	4.3	ENE	-7.8	-6.0	-8.2	724.3	0.017	0.000	22.8	11	-9.3	20.4	2.69	 .0708	23	1	100.0	1
11/26/24	5:59	-5.7	-5.6	-5.7	39	-17.4	3.5	ENE	0.06	4.3	ENE	-8.7	-6.1	-9.1	724.3	0.017	0.000	22.8	11	-9.3	20.4	2.69	 .0708	23	1	100.0	1
11/26/24	6:00	-5.7	-5.7	-5.7	38	-17.8	3.5	ENE	0.06	5.2	NNW	-8.8	-6.1	-9.2	724.3	0.017	0.000	22.8	11	-9.3	20.4	2.69	 .0708	24	1	100.0	1
11/26/24	6:01	-5.8	-5.7	-5.8	40	-17.2	3.5	NNW	0.06	5.2	NNW	-8.8	-6.2	-9.2	724.3	0.017	0.000	22.8	11	-9.3	20.4	2.69	 .0708	23	1	100.0	1
11/26/24	6:02	-5.9	-5.8	-5.9	41	-17.1	1.7	NNW	0.03	2.6	NNW	-7.1	-6.3	-7.4	724.3	0.017	0.000	22.8	11	-9.3	20.4	2.69	 .0708	24	1	100.0	1
11/26/24	6:03	-5.9	-5.9	-5.9	41	-17.1	1.7	NNW	0.03	2.6	NNW	-7.1	-6.3	-7.4	724.3	0.017	0.000	22.8	11	-9.3	20.4	2.69	 .0708	23	1	100.0	1
11/26/24	6:04	-5.9	-5.9	-5.9	42	-16.8	0.9	NNW	0.01	1.7	NNW	-5.9	-6.3	-6.3	724.3	0.017	0.000	22.8	11	-9.3	20.4	2.69	 .0708	23	1	100.0	1
11/26/24	6:05	-5.9	-5.9	-5.9	42	-16.8	1.7	NNW	0.03	2.6	NNW	-7.1	-6.3	-7.4	724.3	0.017	0.000	22.8	11	-9.3	20.4	2.69	 .0708	24	1	100.0	1
11/26/24	6:06	-5.9	-5.9	-5.9	43	-16.5	2.6	NNW	0.04	3.5	NNW	-8.2	-6.3	-8.6	724.3	0.017	0.000	22.8	11	-9.3	20.4	2.69	 .0708	23	1	100.0	1
11/26/24	6:07	-5.9	-5.9	-5.9	43	-16.5	0.9	NNW	0.01	1.7	NNW	-5.9	-6.3	-6.3	724.3	0.017	0.000	22.8	11	-9.3	20.4	2.69	 .0708	24	1	100.0	1
11/26/24	6:08	-5.8	-5.8	-5.9	43	-16.4	2.6	NW	0.04	3.5	NW	-8.0	-6.2	-8.4	724.3	0.017	0.000	22.8	11	-9.3	20.4	2.69	 .0708	23	1	100.0	1
11/26/24	6:09	-5.8	-5.8	-5.8	43	-16.4	0.9	NW	0.01	2.6	NW	-5.8	-6.2	-6.2	724.2	0.017	0.000	22.7	11	-9.3	20.4	2.69	 .0708	24	1	100.0	1
11/26/24	6:10	-5.7	-5.7	-5.8	43	-16.3	0.9	NW	0.01	1.7	NW	-5.7	-6.1	-6.1	724.2	0.017	0.000	22.8	11	-9.3	20.4	2.69	 .0708	23	1	100.0	1
11/26/24	6:11	-5.7	-5.7	-5.7	43	-16.3	1.7	NW	0.03	2.6	NW	-6.8	-6.1	-7.2	724.3	0.017	0.000	22.7	11	-9.3	20.4	2.69	 .0708	23	1	100.0	1
11/26/24	6:12	-5.7	-5.7	-5.7	42	-16.6	3.5	NW	0.06	4.3	NW	-8.7	-6.1	-9.1	724.3	0.017	0.000	22.7	11	-9.3	20.4	2.69	 .0708	24	1	100.0	1
11/26/24	6:13	-5.7	-5.6	-5.7	41	-16.8	2.6	NNW	0.04	3.5	NNW	-7.9	-6.1	-8.3	724.3	0.017	0.000	22.8	11	-9.3	20.4	2.69	 .0708	23	1	100.0	1
11/26/24	6:14	-5.7	-5.7	-5.7	42	-16.6	2.6	NW	0.04	3.5	NW	-7.9	-6.1	-8.3	724.3	0.017	0.000	22.8	11	-9.3	20.4	2.69	 .0708	24	1	100.0	1
11/26/24	6:15	-5.7	-5.7	-5.7	42	-16.6	3.5	WNW	0.06	3.5	NW	-8.8	-6.1	-9.2	724.2	0.017	0.000	22.7	11	-9.3	20.4	2.69	 .0708	23	1	100.0	1
11/26/24	6:16	-5.8	-5.7	-5.8	42	-16.7	2.6	NW	0.04	3.5	NW	-8.0	-6.2	-8.4	724.3	0.017	0.000	22.7	11	-9.3	20.4	2.69	 .0708	23	1	100.0	1
11/26/24	6:17	-5.8	-5.8	-5.8	42	-16.7	1.7	NW	0.03	3.5	NW	-6.9	-6.2	-7.3	724.2	0.017	0.000	22.7	11	-9.3	20.4	2.69	 .0708	24	1	100.0	1
11/26/24	6:18	-5.8	-5.8	-5.8	42	-16.7	3.5	NW	0.06	4.3	NW	-8.9	-6.2	-9.3	724.3	0.017	0.000	22.7	11	-9.3	20.4	2.69	 .0708	23	1	100.0	1
11/26/24	6:19	-5.8	-5.8	-5.8	42	-16.7	2.6	NNW	0.04	3.5	NW	-8.1	-6.2	-8.5	724.2	0.017	0.000	22.7	11	-9.3	20.4	2.69	 .0708	24	1	100.0	1
11/26/24	6:20	-5.9	-5.9	-5.9	42	-16.8	0.9	NNW	0.01	1.7	NNW	-5.9	-6.3	-6.3	724.3	0.017	0.000	22.7	11	-9.3	20.4	2.69	 .0708	23	1	100.0	1
11/26/24	6:21	-5.9	-5.9	-5.9	43	-16.5	0.9	NNW	0.01	2.6	NNW	-5.9	-6.3	-6.3	724.3	0.017	0.000	22.7	11	-9.3	20.4	2.69	 .0708	24	1	100.0	1
11/26/24	6:22	-5.9	-5.9	-5.9	43	-16.5	2.6	NNW	0.04	2.6	NNW	-8.2	-6.3	-8.6	724.3	0.017	0.000	22.7	11	-9.3	20.4	2.69	 .0708	23	1	100.0	1
11/26/24	6:23	-5.9	-5.9	-5.9	43	-16.5	1.7	NNW	0.03	2.6	NNW	-7.1	-6.3	-7.4	724.3	0.017	0.000	22.7	11	-9.3	20.4	2.69	 .0708	23	1	100.0	1
11/26/24	6:24	-5.9	-5.9	-5.9	44	-16.2	0.0	---	0.00	0.0	---	-5.9	-6.3	-6.3	724.3	0.017	0.000	22.7	11	-9.3	20.4	2.69	 .0708	24	1	100.0	1
11/26/24	6:25	-5.8	-5.8	-5.9	44	-16.2	1.7	NW	0.03	2.6	NW	-7.0	-6.2	-7.4	724.3	0.017	0.000	22.7	11	-9.3	20.4	2.69	 .0708	23	1	100.0	1
11/26/24	6:26	-5.8	-5.8	-5.8	45	-15.9	1.7	NW	0.03	3.5	NW	-7.0	-6.2	-7.4	724.3	0.017	0.000	22.7	11	-9.3	20.4	2.69	 .0708	24	1	100.0	1
11/26/24	6:27	-5.8	-5.8	-5.8	44	-16.1	2.6	NW	0.04	4.3	NW	-8.0	-6.2	-8.4	724.3	0.017	0.000	22.7	11	-9.3	20.4	2.69	 .0708	23	1	100.0	1
11/26/24	6:28	-5.8	-5.8	-5.8	44	-16.1	3.5	NW	0.06	4.3	NW	-8.8	-6.2	-9.2	724.3	0.017	0.000	22.7	11	-9.3	20.4	2.69	 .0708	23	1	100.0	1
11/26/24	6:29	-5.8	-5.8	-5.8	46	-15.6	3.5	NW	0.06	4.3	NW	-8.9	-6.2	-9.3	724.2	0.017	0.000	22.7	11	-9.3	20.4	2.69	 .0708	24	1	100.0	1
11/26/24	6:30	-5.9	-5.9	-5.9	48	-15.2	2.6	WNW	0.04	3.5	WNW	-8.2	-6.2	-8.5	724.2	0.017	0.000	22.7	11	-9.3	20.4	2.69	 .0708	23	1	100.0	1
11/26/24	6:31	-5.9	-5.9	-5.9	47	-15.5	1.7	WNW	0.03	4.3	WNW	-7.1	-6.3	-7.4	724.3	0.017	0.000	22.7	11	-9.3	20.4	2.69	 .0708	24	1	100.0	1
11/26/24	6:32	-6.0	-5.9	-6.0	46	-15.8	2.6	NNW	0.04	4.3	NNW	-8.3	-6.3	-8.6	724.3	0.017	0.000	22.7	11	-9.3	20.4	2.69	 .0708	23	1	100.0	1
11/26/24	6:33	-6.1	-6.0	-6.1	45	-16.1	4.3	NW	0.07	5.2	NW	-9.9	-6.4	-10.2	724.3	0.017	0.000	22.7	11	-9.3	20.4	2.69	 .0708	24	1	100.0	1
11/26/24	6:34	-6.1	-6.1	-6.1	45	-16.1	3.5	NNW	0.06	5.2	NNW	-9.2	-6.4	-9.6	724.3	0.017	0.000	22.7	11	-9.3	20.4	2.69	 .0708	23	1	100.0	1
11/26/24	6:35	-6.2	-6.2	-6.2	46	-16.0	4.3	NW	0.07	5.2	NW	-10.1	-6.6	-10.4	724.3	0.017	0.000	22.7	11	-9.3	20.4	2.69	 .0708	23	1	100.0	1
11/26/24	6:36	-6.3	-6.2	-6.3	46	-16.0	5.2	NW	0.09	7.0	NW	-10.7	-6.6	-11.0	724.2	0.017	0.000	22.7	11	-9.3	20.4	2.69	 .0708	24	1	100.0	1
11/26/24	6:37	-6.4	-6.3	-6.4	47	-15.9	3.5	NNW	0.06	5.2	NNW	-9.6	-6.7	-9.9	724.2	0.017	0.000	22.7	11	-9.3	20.4	2.69	 .0708	23	1	100.0	1
11/26/24	6:38	-6.4	-6.4	-6.4	48	-15.7	3.5	NW	0.06	3.5	NW	-9.6	-6.8	-9.9	724.3	0.017	0.000	22.7	11	-9.3	20.4	2.69	 .0708	24	1	100.0	1
11/26/24	6:39	-6.6	-6.5	-6.6	48	-15.8	3.5	NW	0.06	4.3	NW	-9.8	-6.9	-10.1	724.2	0.017	0.000	22.7	11	-9.3	20.3	2.69	 .0708	23	1	100.0	1
11/26/24	6:40	-6.6	-6.6	-6.6	48	-15.8	2.6	NW	0.04	3.5	NW	-8.9	-6.9	-9.3	724.2	0.017	0.000	22.7	11	-9.3	20.3	2.69	 .0708	23	1	100.0	1
11/26/24	6:41	-6.7	-6.7	-6.7	48	-15.9	2.6	NW	0.04	3.5	NW	-9.1	-7.1	-9.4	724.2	0.017	0.000	22.7	11	-9.3	20.4	2.69	 .0708	24	1	100.0	1
11/26/24	6:42	-6.7	-6.7	-6.7	49	-15.7	3.5	NW	0.06	5.2	NW	-9.9	-7.1	-10.3	724.2	0.017	0.000	22.7	11	-9.3	20.3	2.69	 .0708	23	1	100.0	1
11/26/24	6:43	-6.8	-6.7	-6.8	49	-15.7	4.3	NW	0.07	4.3	NW	-10.7	-7.1	-11.1	724.2	0.017	0.000	22.7	11	-9.3	20.3	2.69	 .0708	24	1	100.0	1
11/26/24	6:44	-6.8	-6.8	-6.8	51	-15.2	5.2	NW	0.09	7.8	NW	-11.3	-7.1	-11.6	724.2	0.017	0.000	22.7	11	-9.3	20.3	2.69	 .0708	23	1	100.0	1
11/26/24	6:45	-6.9	-6.8	-6.9	52	-15.1	5.2	NW	0.09	7.0	NW	-11.4	-7.2	-11.7	724.2	0.018	0.000	22.7	11	-9.3	20.3	2.69	 .0708	24	1	100.0	1
11/26/24	6:46	-6.9	-6.9	-6.9	53	-14.9	5.2	NW	0.09	7.0	NW	-11.5	-7.2	-11.8	724.2	0.018	0.000	22.7	11	-9.3	20.4	2.69	 .0708	23	1	100.0	1
11/26/24	6:47	-7.0	-6.9	-7.0	53	-15.0	4.3	NW	0.07	5.2	NW	-10.9	-7.3	-11.2	724.2	0.018	0.000	22.7	11	-9.3	20.3	2.69	 .0708	23	1	100.0	1
11/26/24	6:48	-7.1	-7.0	-7.1	56	-14.4	4.3	NNW	0.07	5.2	NW	-11.0	-7.3	-11.3	724.2	0.018	0.000	22.7	11	-9.3	20.3	2.69	 .0708	24	1	100.0	1
11/26/24	6:49	-7.1	-7.1	-7.1	52	-15.3	4.3	NNW	0.07	5.2	NNW	-11.0	-7.3	-11.3	724.1	0.018	0.000	22.7	11	-9.3	20.3	2.69	 .0708	23	1	100.0	1
11/26/24	6:50	-7.1	-7.1	-7.1	50	-15.7	4.3	NNW	0.07	5.2	NNW	-11.0	-7.3	-11.3	724.1	0.018	0.000	22.7	11	-9.3	20.3	2.69	 .0708	24	1	100.0	1
11/26/24	6:51	-7.0	-7.0	-7.1	53	-15.0	5.2	NNW	0.09	7.0	N	-11.6	-7.3	-11.8	724.2	0.018	0.000	22.7	11	-9.3	20.3	2.69	 .0708	23	1	100.0	1
11/26/24	6:52	-7.0	-7.0	-7.0	55	-14.5	4.3	N	0.07	5.2	N	-10.9	-7.3	-11.2	724.2	0.018	0.000	22.7	11	-9.3	20.3	2.69	 .0708	23	1	100.0	1
11/26/24	6:53	-7.0	-7.0	-7.0	53	-15.0	5.2	NNW	0.09	7.0	NNW	-11.6	-7.3	-11.8	724.1	0.018	0.000	22.7	11	-9.3	20.3	2.69	 .0708	24	1	100.0	1
11/26/24	6:54	-7.0	-7.0	-7.0	49	-15.9	5.2	N	0.09	7.8	N	-11.6	-7.3	-11.9	724.1	0.018	0.000	22.7	11	-9.3	20.3	2.69	 .0708	23	1	100.0	1
11/26/24	6:55	-7.0	-7.0	-7.1	48	-16.2	5.2	N	0.09	7.0	N	-11.6	-7.3	-11.9	724.1	0.018	0.000	22.7	11	-9.3	20.3	2.69	 .0708	24	1	100.0	1
11/26/24	6:56	-7.1	-7.0	-7.1	47	-16.5	5.2	N	0.09	7.0	N	-11.6	-7.4	-11.9	724.1	0.018	0.000	22.7	11	-9.3	20.3	2.69	 .0708	23	1	100.0	1
11/26/24	6:57	-7.1	-7.1	-7.1	47	-16.5	5.2	N	0.09	7.0	N	-11.6	-7.4	-11.9	724.2	0.018	0.000	22.7	11	-9.3	20.3	2.69	 .0708	24	1	100.0	1
11/26/24	6:58	-7.1	-7.1	-7.1	47	-16.5	5.2	NNW	0.09	6.1	N	-11.6	-7.4	-11.9	724.1	0.018	0.000	22.7	11	-9.3	20.3	2.69	 .0708	23	1	100.0	1
11/26/24	6:59	-7.1	-7.1	-7.1	47	-16.5	5.2	NNW	0.09	7.0	NNW	-11.7	-7.4	-12.0	724.2	0.018	0.000	22.7	11	-9.3	20.3	2.69	 .0708	23	1	100.0	1
11/26/24	7:00	-7.1	-7.1	-7.1	50	-15.8	6.1	NW	0.10	7.8	NW	-12.2	-7.4	-12.4	724.2	0.018	0.000	22.7	11	-9.3	20.3	2.69	 .0708	24	1	100.0	1
11/26/24	7:01	-7.1	-7.1	-7.1	49	-16.0	6.1	NW	0.10	7.0	NW	-12.2	-7.4	-12.4	724.2	0.018	0.000	22.7	11	-9.3	20.3	2.69	 .0708	23	1	100.0	1
11/26/24	7:02	-7.2	-7.1	-7.2	48	-16.3	6.1	NW	0.10	7.8	NW	-12.2	-7.4	-12.5	724.2	0.018	0.000	22.7	11	-9.3	20.3	2.69	 .0708	24	1	100.0	1
11/26/24	7:03	-7.1	-7.1	-7.2	47	-16.5	5.2	NNW	0.09	7.0	NW	-11.7	-7.4	-12.0	724.1	0.018	0.000	22.7	11	-9.3	20.3	2.69	 .0708	23	1	100.0	1
11/26/24	7:04	-7.2	-7.1	-7.2	47	-16.6	5.2	NNW	0.09	7.0	NNW	-11.7	-7.5	-12.1	724.1	0.018	0.000	22.7	11	-9.3	20.3	2.69	 .0708	23	1	100.0	1
11/26/24	7:05	-7.1	-7.1	-7.2	45	-17.1	6.1	NNW	0.10	7.8	NNW	-12.2	-7.4	-12.5	724.1	0.018	0.000	22.7	11	-9.3	20.3	2.69	 .0708	24	1	100.0	1
11/26/24	7:06	-7.2	-7.2	-7.2	45	-17.1	5.2	NNW	0.09	7.0	NNW	-11.7	-7.5	-12.1	724.1	0.018	0.000	22.7	11	-9.3	20.3	2.69	 .0708	23	1	100.0	1
11/26/24	7:07	-7.2	-7.1	-7.2	45	-17.1	6.1	NW	0.10	7.8	NW	-12.2	-7.5	-12.6	724.1	0.018	0.000	22.6	11	-9.4	20.2	2.70	 .0708	24	1	100.0	1
11/26/24	7:08	-7.2	-7.2	-7.2	45	-17.1	6.1	NW	0.10	7.8	NW	-12.2	-7.5	-12.6	724.2	0.018	0.000	22.7	11	-9.3	20.3	2.69	 .0708	23	1	100.0	1
11/26/24	7:09	-7.2	-7.2	-7.2	45	-17.1	4.3	NW	0.07	5.2	NW	-11.2	-7.5	-11.5	724.1	0.018	0.000	22.7	11	-9.3	20.3	2.69	 .0708	23	1	100.0	1
11/26/24	7:10	-7.2	-7.2	-7.2	46	-16.8	3.5	NW	0.06	5.2	NW	-10.4	-7.5	-10.8	724.1	0.018	0.000	22.7	11	-9.3	20.3	2.69	 .0708	24	1	100.0	1
11/26/24	7:11	-7.2	-7.2	-7.2	47	-16.6	3.5	NW	0.06	4.3	NW	-10.4	-7.5	-10.8	724.2	0.018	0.000	22.6	11	-9.4	20.2	2.70	 .0708	23	1	100.0	1
11/26/24	7:12	-7.1	-7.1	-7.2	47	-16.5	4.3	NW	0.07	5.2	NW	-11.1	-7.4	-11.4	724.1	0.018	0.000	22.6	11	-9.4	20.2	2.70	 .0708	24	1	100.0	1
11/26/24	7:13	-7.1	-7.1	-7.2	48	-16.3	5.2	NW	0.09	7.8	NW	-11.7	-7.4	-12.0	724.1	0.018	0.000	22.6	11	-9.4	20.2	2.70	 .0708	23	1	100.0	1
11/26/24	7:14	-7.1	-7.1	-7.1	49	-16.0	7.8	NW	0.13	8.7	NW	-13.1	-7.4	-13.3	724.1	0.018	0.000	22.6	11	-9.4	20.2	2.70	 .0708	24	1	100.0	1
11/26/24	7:15	-7.2	-7.1	-7.2	54	-14.9	8.7	NW	0.14	9.6	NW	-13.5	-7.4	-13.8	724.1	0.018	0.000	22.6	11	-9.4	20.2	2.70	 .0708	23	1	100.0	1
11/26/24	7:16	-7.3	-7.2	-7.3	57	-14.4	7.0	NW	0.12	8.7	NW	-12.8	-7.6	-13.1	724.2	0.018	0.000	22.6	11	-9.4	20.2	2.70	 .0708	23	1	100.0	1
11/26/24	7:17	-7.4	-7.3	-7.4	61	-13.7	7.0	NW	0.12	7.0	NW	-13.1	-7.7	-13.3	724.2	0.018	0.000	22.6	11	-9.4	20.2	2.70	 .0708	24	1	100.0	1
11/26/24	7:18	-7.6	-7.5	-7.6	62	-13.6	7.8	NW	0.13	8.7	NW	-13.7	-7.8	-13.9	724.2	0.018	0.000	22.6	11	-9.4	20.2	2.70	 .0708	23	1	100.0	1
11/26/24	7:19	-7.7	-7.6	-7.7	64	-13.4	7.8	NNW	0.13	8.7	NNW	-13.8	-7.9	-14.0	724.2	0.018	0.000	22.6	11	-9.4	20.2	2.70	 .0708	24	1	100.0	1
11/26/24	7:20	-7.9	-7.8	-7.9	64	-13.6	7.0	NW	0.12	8.7	NW	-13.7	-8.2	-13.9	724.2	0.018	0.000	22.6	11	-9.4	20.2	2.70	 .0708	23	1	100.0	1
11/26/24	7:21	-8.1	-7.9	-8.1	65	-13.5	6.1	NNW	0.10	7.8	NW	-13.3	-8.2	-13.5	724.2	0.018	0.000	22.6	11	-9.4	20.2	2.70	 .0708	23	1	100.0	1
11/26/24	7:22	-8.2	-8.1	-8.2	66	-13.4	5.2	NNW	0.09	7.0	NNW	-12.9	-8.3	-13.1	724.2	0.018	0.000	22.6	11	-9.4	20.2	2.70	 .0708	24	1	100.0	1
11/26/24	7:23	-8.3	-8.2	-8.3	67	-13.3	4.3	NNW	0.07	5.2	NNW	-12.4	-8.4	-12.6	724.2	0.018	0.000	22.6	11	-9.4	20.2	2.70	 .0708	23	1	100.0	1
11/26/24	7:24	-8.3	-8.3	-8.3	67	-13.3	4.3	NNW	0.07	5.2	NNW	-12.4	-8.4	-12.6	724.2	0.018	0.000	22.6	11	-9.4	20.2	2.70	 .0708	24	1	100.0	1
11/26/24	7:25	-8.3	-8.3	-8.3	67	-13.4	4.3	NNW	0.07	7.0	NNW	-12.5	-8.5	-12.7	724.2	0.019	0.000	22.6	11	-9.4	20.2	2.70	 .0708	23	1	100.0	1
11/26/24	7:26	-8.3	-8.3	-8.3	66	-13.5	6.1	NW	0.10	7.8	NW	-13.6	-8.4	-13.8	724.2	0.018	0.000	22.6	11	-9.4	20.2	2.70	 .0708	24	1	100.0	1
11/26/24	7:27	-8.2	-8.2	-8.3	65	-13.6	6.1	NW	0.10	7.0	NW	-13.5	-8.4	-13.7	724.1	0.018	0.000	22.6	11	-9.4	20.2	2.70	 .0708	23	1	100.0	1
11/26/24	7:28	-8.2	-8.2	-8.2	64	-13.8	5.2	NW	0.09	7.0	NW	-12.9	-8.3	-13.1	724.1	0.018	0.000	22.6	11	-9.4	20.2	2.70	 .0708	23	1	100.0	1
11/26/24	7:29	-8.1	-8.1	-8.2	61	-14.3	4.3	NW	0.07	4.3	NW	-12.3	-8.3	-12.5	724.2	0.018	0.000	22.6	11	-9.4	20.2	2.70	 .0708	24	1	100.0	1
11/26/24	7:30	-8.0	-8.0	-8.1	59	-14.6	3.5	NW	0.06	4.3	NW	-11.4	-8.2	-11.7	724.1	0.018	0.000	22.6	11	-9.4	20.2	2.70	 .0708	23	1	100.0	1
11/26/24	7:31	-7.9	-7.9	-8.0	57	-15.0	3.5	NW	0.06	4.3	NW	-11.3	-8.2	-11.6	724.1	0.018	0.000	22.6	11	-9.4	20.2	2.70	 .0708	24	1	100.0	1
11/26/24	7:32	-7.9	-7.9	-7.9	56	-15.1	3.5	NW	0.06	5.2	NW	-11.3	-8.2	-11.6	724.1	0.018	0.000	22.6	11	-9.4	20.2	2.70	 .0708	23	1	100.0	1
11/26/24	7:33	-7.8	-7.8	-7.9	55	-15.3	6.1	NW	0.10	7.8	NW	-13.0	-8.1	-13.3	724.1	0.018	0.000	22.6	11	-9.4	20.2	2.70	 .0708	23	1	100.0	1
11/26/24	7:34	-7.7	-7.7	-7.7	54	-15.4	5.2	NNW	0.09	7.8	NNW	-12.3	-7.9	-12.6	724.1	0.018	0.000	22.6	11	-9.4	20.2	2.70	 .0708	24	1	100.0	1
11/26/24	7:35	-7.6	-7.6	-7.7	52	-15.8	5.2	NNW	0.09	7.0	NNW	-12.3	-7.9	-12.6	724.1	0.018	0.000	22.6	11	-9.4	20.2	2.70	 .0708	23	1	100.0	1
11/26/24	7:36	-7.6	-7.6	-7.6	51	-16.0	5.2	NNW	0.09	7.0	NNW	-12.3	-7.9	-12.6	724.1	0.018	0.000	22.6	11	-9.4	20.2	2.70	 .0708	24	1	100.0	1
11/26/24	7:37	-7.6	-7.6	-7.6	50	-16.2	4.3	NNW	0.07	5.2	NNW	-11.6	-7.8	-11.9	724.1	0.018	0.000	22.6	11	-9.4	20.2	2.70	 .0708	23	1	100.0	1
11/26/24	7:38	-7.6	-7.6	-7.6	51	-16.0	4.3	NNW	0.07	5.2	NNW	-11.6	-7.8	-11.9	724.1	0.018	0.000	22.6	11	-9.4	20.2	2.70	 .0708	24	1	100.0	1
11/26/24	7:39	-7.5	-7.5	-7.6	50	-16.2	4.3	NNW	0.07	5.2	NNW	-11.6	-7.8	-11.8	724.1	0.018	0.000	22.6	11	-9.4	20.2	2.70	 .0708	23	1	100.0	1
11/26/24	7:40	-7.4	-7.4	-7.5	50	-16.1	4.3	NNW	0.07	5.2	NNW	-11.5	-7.7	-11.8	724.1	0.018	0.000	22.6	11	-9.4	20.2	2.70	 .0708	23	1	100.0	1
11/26/24	7:41	-7.4	-7.4	-7.4	50	-16.1	4.3	NW	0.07	7.0	NW	-11.5	-7.7	-11.8	724.1	0.018	0.000	22.6	11	-9.4	20.2	2.70	 .0708	24	1	100.0	1
11/26/24	7:42	-7.4	-7.4	-7.4	50	-16.0	4.3	NW	0.07	7.0	NW	-11.4	-7.7	-11.7	724.1	0.018	0.000	22.6	11	-9.4	20.2	2.70	 .0708	23	1	100.0	1
11/26/24	7:43	-7.4	-7.4	-7.4	50	-16.0	4.3	NW	0.07	5.2	NW	-11.4	-7.7	-11.7	724.1	0.018	0.000	22.6	11	-9.4	20.2	2.70	 .0708	24	1	100.0	1
11/26/24	7:44	-7.4	-7.4	-7.4	51	-15.8	3.5	NW	0.06	4.3	NW	-10.7	-7.7	-11.0	724.1	0.018	0.000	22.6	11	-9.4	20.2	2.70	 .0708	23	1	100.0	1
11/26/24	7:45	-7.4	-7.4	-7.4	51	-15.9	4.3	NNW	0.07	5.2	NW	-11.5	-7.7	-11.8	724.1	0.018	0.000	22.6	11	-9.4	20.2	2.70	 .0708	23	1	100.0	1
11/26/24	7:46	-7.4	-7.4	-7.4	50	-16.1	3.5	NNW	0.06	5.2	NNW	-10.8	-7.7	-11.1	724.1	0.018	0.000	22.6	11	-9.4	20.2	2.70	 .0708	24	1	100.0	1
11/26/24	7:47	-7.4	-7.4	-7.4	48	-16.5	4.3	NNW	0.07	5.2	NNW	-11.4	-7.7	-11.7	724.1	0.018	0.000	22.6	11	-9.4	20.2	2.70	 .0708	23	1	100.0	1
11/26/24	7:48	-7.4	-7.4	-7.4	48	-16.5	3.5	NNW	0.06	4.3	NNW	-10.7	-7.7	-11.0	724.1	0.018	0.000	22.6	11	-9.4	20.2	2.70	 .0708	24	1	100.0	1
11/26/24	7:49	-7.3	-7.3	-7.4	48	-16.5	4.3	NNW	0.07	7.0	N	-11.3	-7.6	-11.6	724.1	0.018	0.000	22.6	11	-9.4	20.2	2.70	 .0708	23	1	100.0	1
11/26/24	7:50	-7.2	-7.2	-7.3	48	-16.4	6.1	NNW	0.10	7.8	NNW	-12.3	-7.5	-12.6	724.1	0.018	0.000	22.6	11	-9.4	20.2	2.70	 .0708	23	1	100.0	1
11/26/24	7:51	-7.2	-7.2	-7.2	47	-16.6	7.0	NNW	0.12	8.7	NNW	-12.7	-7.5	-13.1	724.0	0.018	0.000	22.6	11	-9.4	20.2	2.70	 .0708	24	1	100.0	1
11/26/24	7:52	-7.2	-7.2	-7.2	46	-16.8	7.0	NNW	0.12	8.7	N	-12.7	-7.5	-13.1	724.0	0.018	0.000	22.6	11	-9.4	20.2	2.70	 .0708	23	1	100.0	1
11/26/24	7:53	-7.1	-7.1	-7.1	46	-16.8	7.0	NNW	0.12	7.8	NNW	-12.6	-7.4	-12.9	724.0	0.018	0.000	22.6	11	-9.4	20.2	2.70	 .0708	24	1	100.0	1
11/26/24	7:54	-7.1	-7.1	-7.1	46	-16.8	5.2	NNW	0.09	7.8	NNW	-11.7	-7.4	-12.0	724.0	0.018	0.000	22.6	11	-9.4	20.2	2.70	 .0708	23	1	100.0	1
11/26/24	7:55	-7.2	-7.1	-7.2	46	-16.8	6.1	NNW	0.10	7.8	NNW	-12.2	-7.5	-12.6	724.0	0.018	0.000	22.6	11	-9.4	20.2	2.70	 .0708	24	1	100.0	1
11/26/24	7:56	-7.2	-7.2	-7.2	47	-16.6	4.3	NNW	0.07	5.2	NNW	-11.2	-7.6	-11.6	724.1	0.018	0.000	22.6	11	-9.4	20.2	2.70	 .0708	23	1	100.0	1
11/26/24	7:57	-7.2	-7.2	-7.2	50	-15.9	4.3	NNW	0.07	5.2	NNW	-11.2	-7.5	-11.5	724.1	0.018	0.000	22.6	11	-9.4	20.2	2.70	 .0708	23	1	100.0	1
11/26/24	7:58	-7.3	-7.2	-7.3	54	-15.0	4.3	NW	0.07	5.2	NW	-11.3	-7.6	-11.6	724.1	0.018	0.000	22.6	11	-9.4	20.2	2.70	 .0708	24	1	100.0	1
11/26/24	7:59	-7.3	-7.3	-7.3	55	-14.8	4.3	NW	0.07	7.0	NW	-11.3	-7.6	-11.6	724.1	0.018	0.000	22.6	11	-9.4	20.2	2.70	 .0708	23	1	100.0	1
11/26/24	8:00	-7.3	-7.3	-7.3	54	-15.0	7.8	NNW	0.13	9.6	NNW	-13.2	-7.6	-13.5	724.1	0.018	0.000	22.6	11	-9.4	20.2	2.70	 .0708	24	1	100.0	1
11/26/24	8:01	-7.3	-7.3	-7.3	53	-15.2	8.7	NNW	0.14	9.6	NNW	-13.6	-7.6	-13.9	724.1	0.018	0.000	22.6	11	-9.4	20.2	2.70	 .0708	23	1	100.0	1
11/26/24	8:02	-7.3	-7.3	-7.3	53	-15.2	7.0	NNW	0.12	8.7	NNW	-12.8	-7.6	-13.1	724.1	0.018	0.000	22.6	11	-9.4	20.2	2.70	 .0708	23	1	100.0	1
11/26/24	8:03	-7.3	-7.3	-7.3	53	-15.2	7.8	NNW	0.13	9.6	NNW	-13.2	-7.6	-13.5	724.1	0.018	0.000	22.6	11	-9.4	20.2	2.70	 .0708	24	1	100.0	1
11/26/24	8:04	-7.3	-7.3	-7.3	55	-14.8	4.3	NW	0.07	7.0	NNW	-11.3	-7.6	-11.6	724.1	0.018	0.000	22.6	11	-9.4	20.2	2.70	 .0708	23	1	100.0	1
11/26/24	8:05	-7.4	-7.3	-7.4	57	-14.5	5.2	NW	0.09	5.2	NW	-12.0	-7.7	-12.3	724.1	0.018	0.000	22.6	11	-9.4	20.2	2.70	 .0708	24	1	100.0	1
11/26/24	8:06	-7.4	-7.4	-7.4	57	-14.5	3.5	NW	0.06	3.5	NW	-10.7	-7.7	-11.0	724.1	0.018	0.000	22.6	11	-9.4	20.2	2.70	 .0708	23	1	100.0	1
11/26/24	8:07	-7.4	-7.4	-7.4	56	-14.7	3.5	NW	0.06	5.2	NNW	-10.8	-7.7	-11.1	724.0	0.018	0.000	22.6	11	-9.4	20.2	2.70	 .0708	24	1	100.0	1
11/26/24	8:08	-7.4	-7.4	-7.4	57	-14.5	3.5	NNW	0.06	4.3	NNW	-10.8	-7.7	-11.1	724.1	0.018	0.000	22.6	11	-9.4	20.2	2.70	 .0708	23	1	100.0	1
11/26/24	8:09	-7.5	-7.4	-7.5	57	-14.6	4.3	NNW	0.07	7.0	NW	-11.6	-7.8	-11.8	724.0	0.018	0.000	22.6	11	-9.4	20.2	2.70	 .0708	23	1	100.0	1
11/26/24	8:10	-7.4	-7.4	-7.5	56	-14.7	5.2	NNW	0.09	7.8	NNW	-12.1	-7.7	-12.3	724.0	0.018	0.000	22.6	11	-9.4	20.2	2.70	 .0708	24	1	100.0	1
11/26/24	8:11	-7.4	-7.4	-7.4	56	-14.7	6.1	NNW	0.10	7.8	NNW	-12.6	-7.7	-12.9	724.0	0.018	0.000	22.6	11	-9.4	20.2	2.70	 .0708	23	1	100.0	1
11/26/24	8:12	-7.4	-7.4	-7.4	55	-14.9	5.2	NNW	0.09	7.0	NNW	-12.0	-7.7	-12.3	724.0	0.018	0.000	22.6	11	-9.4	20.2	2.70	 .0708	24	1	100.0	1
11/26/24	8:13	-7.4	-7.4	-7.4	55	-14.9	4.3	NNW	0.07	5.2	NNW	-11.4	-7.7	-11.7	724.0	0.018	0.000	22.6	11	-9.4	20.2	2.70	 .0708	23	1	100.0	1
11/26/24	8:14	-7.4	-7.4	-7.4	55	-14.9	4.3	NNW	0.07	5.2	NNW	-11.4	-7.7	-11.7	724.0	0.018	0.000	22.6	11	-9.4	20.2	2.70	 .0708	23	1	100.0	1
11/26/24	8:15	-7.4	-7.4	-7.4	55	-14.9	5.2	NNW	0.09	7.0	NW	-12.1	-7.7	-12.3	724.0	0.018	0.000	22.5	11	-9.5	20.1	2.70	 .0708	24	1	100.0	1
11/26/24	8:16	-7.4	-7.4	-7.4	57	-14.5	4.3	NNW	0.07	5.2	NNW	-11.5	-7.7	-11.8	724.0	0.018	0.000	22.5	11	-9.5	20.1	2.70	 .0708	23	1	100.0	1
11/26/24	8:17	-7.4	-7.4	-7.4	57	-14.5	5.2	NNW	0.09	7.8	NW	-12.1	-7.7	-12.3	724.0	0.018	0.000	22.5	11	-9.5	20.1	2.70	 .0708	24	1	100.0	1
11/26/24	8:18	-7.5	-7.5	-7.5	57	-14.6	4.3	NNW	0.07	5.2	NNW	-11.6	-7.8	-11.8	724.0	0.018	0.000	22.6	11	-9.4	20.2	2.70	 .0708	23	1	100.0	1
11/26/24	8:19	-7.6	-7.5	-7.6	58	-14.4	3.5	NW	0.06	3.5	NNW	-10.9	-7.8	-11.1	724.0	0.018	0.000	22.6	11	-9.4	20.2	2.70	 .0708	24	1	100.0	1
11/26/24	8:20	-7.6	-7.6	-7.6	59	-14.2	2.6	NW	0.04	3.5	NW	-10.1	-7.8	-10.3	723.9	0.018	0.000	22.5	11	-9.5	20.1	2.70	 .0708	23	1	100.0	1
11/26/24	8:21	-7.6	-7.6	-7.6	59	-14.2	2.6	NW	0.04	4.3	NW	-10.1	-7.8	-10.3	724.0	0.018	0.000	22.5	11	-9.5	20.1	2.70	 .0708	23	1	100.0	1
11/26/24	8:22	-7.6	-7.6	-7.6	60	-14.0	1.7	NW	0.03	3.5	NW	-8.9	-7.8	-9.1	724.0	0.018	0.000	22.5	11	-9.5	20.1	2.70	 .0708	24	1	100.0	1
11/26/24	8:23	-7.6	-7.6	-7.6	61	-13.8	2.6	NW	0.04	2.6	NW	-10.1	-7.8	-10.3	724.0	0.018	0.000	22.5	11	-9.5	20.1	2.70	 .0708	23	1	100.0	1
11/26/24	8:24	-7.6	-7.6	-7.6	61	-13.8	2.6	NW	0.04	3.5	NW	-10.1	-7.8	-10.3	724.0	0.018	0.000	22.5	11	-9.5	20.1	2.70	 .0708	24	1	100.0	1
11/26/24	8:25	-7.7	-7.6	-7.7	61	-13.9	2.6	NW	0.04	3.5	NW	-10.2	-7.9	-10.4	724.0	0.018	0.000	22.5	11	-9.5	20.1	2.70	 .0708	23	1	100.0	1
11/26/24	8:26	-7.7	-7.6	-7.7	61	-13.9	1.7	NW	0.03	2.6	NW	-9.0	-7.9	-9.2	724.0	0.018	0.000	22.5	11	-9.5	20.1	2.70	 .0708	23	1	100.0	1
11/26/24	8:27	-7.7	-7.7	-7.7	61	-13.9	1.7	NW	0.03	2.6	NW	-9.0	-7.9	-9.2	724.0	0.018	0.000	22.5	11	-9.5	20.1	2.70	 .0708	24	1	100.0	1
11/26/24	8:28	-7.7	-7.7	-7.7	61	-13.9	2.6	NW	0.04	3.5	NW	-10.2	-7.9	-10.4	724.0	0.018	0.000	22.5	11	-9.5	20.1	2.70	 .0708	23	1	100.0	1
11/26/24	8:29	-7.7	-7.7	-7.7	61	-13.9	2.6	NW	0.04	3.5	NW	-10.2	-7.9	-10.4	724.0	0.018	0.000	22.5	11	-9.5	20.1	2.70	 .0708	24	1	100.0	1
11/26/24	8:30	-7.7	-7.7	-7.7	61	-13.9	4.3	NW	0.07	5.2	NW	-11.8	-7.9	-12.1	724.0	0.018	0.000	22.4	11	-9.5	20.0	2.70	 .0708	23	1	100.0	1
11/26/24	8:31	-7.8	-7.7	-7.8	61	-14.0	6.1	NW	0.10	7.8	NW	-13.0	-8.0	-13.2	724.0	0.018	0.000	22.5	11	-9.5	20.1	2.70	 .0708	24	1	100.0	1
11/26/24	8:32	-7.9	-7.8	-7.9	60	-14.3	5.2	NW	0.09	7.0	NW	-12.6	-8.1	-12.8	724.1	0.018	0.000	22.4	11	-9.5	20.0	2.70	 .0708	23	1	100.0	1
11/26/24	8:33	-8.0	-7.9	-8.0	60	-14.4	6.1	NW	0.10	7.0	NW	-13.3	-8.2	-13.5	724.1	0.018	0.000	22.5	11	-9.5	20.1	2.70	 .0708	23	1	100.0	1
11/26/24	8:34	-8.1	-8.0	-8.1	61	-14.3	5.2	NW	0.09	7.8	NW	-12.8	-8.3	-13.0	724.1	0.018	0.000	22.4	11	-9.5	20.0	2.70	 .0708	24	1	100.0	1
11/26/24	8:35	-8.2	-8.1	-8.2	61	-14.4	7.0	NW	0.12	7.8	NW	-13.9	-8.4	-14.2	724.0	0.018	0.000	22.4	11	-9.5	20.0	2.70	 .0708	23	1	100.0	1
11/26/24	8:36	-8.3	-8.2	-8.3	61	-14.5	6.1	NW	0.10	7.0	NW	-13.6	-8.5	-13.8	724.0	0.018	0.000	22.4	11	-9.5	20.0	2.70	 .0708	24	1	100.0	1
11/26/24	8:37	-8.3	-8.3	-8.3	62	-14.3	7.8	NW	0.13	7.8	NW	-14.6	-8.6	-14.8	724.0	0.019	0.000	22.4	11	-9.5	20.0	2.70	 .0708	23	1	100.0	1
11/26/24	8:38	-8.4	-8.3	-8.4	63	-14.2	7.8	NW	0.13	8.7	NW	-14.6	-8.6	-14.8	724.0	0.019	0.000	22.4	11	-9.5	20.0	2.70	 .0708	23	1	100.0	1
11/26/24	8:39	-8.5	-8.4	-8.5	64	-14.1	7.8	NW	0.13	8.7	NW	-14.7	-8.7	-14.9	724.0	0.019	0.000	22.4	11	-9.5	20.0	2.70	 .0708	24	1	100.0	1
11/26/24	8:40	-8.5	-8.5	-8.5	64	-14.1	7.8	NW	0.13	8.7	NW	-14.7	-8.7	-14.9	724.1	0.019	0.000	22.4	11	-9.5	20.0	2.70	 .0708	23	1	100.0	1
11/26/24	8:41	-8.5	-8.5	-8.5	64	-14.1	7.0	NW	0.12	7.8	NW	-14.3	-8.7	-14.5	724.0	0.019	0.000	22.4	11	-9.5	20.0	2.70	 .0708	24	1	100.0	1
11/26/24	8:42	-8.5	-8.5	-8.5	64	-14.1	7.0	NW	0.12	8.7	NW	-14.3	-8.7	-14.5	724.0	0.019	0.000	22.4	11	-9.5	20.0	2.70	 .0708	23	1	100.0	1
11/26/24	8:43	-8.5	-8.5	-8.5	64	-14.1	7.0	NW	0.12	7.8	NW	-14.3	-8.7	-14.5	724.0	0.019	0.000	22.4	11	-9.5	20.0	2.70	 .0708	23	1	100.0	1
11/26/24	8:44	-8.5	-8.5	-8.5	64	-14.1	7.8	NW	0.13	8.7	WNW	-14.7	-8.7	-14.9	724.0	0.019	0.000	22.4	11	-9.5	20.0	2.70	 .0708	24	1	100.0	1
11/26/24	8:45	-8.5	-8.5	-8.5	64	-14.1	6.1	NW	0.10	7.8	NW	-13.8	-8.7	-14.0	724.0	0.019	0.000	22.4	11	-9.5	20.0	2.70	 .0708	23	1	100.0	1
11/26/24	8:46	-8.5	-8.5	-8.5	64	-14.1	7.0	NW	0.12	8.7	NW	-14.3	-8.7	-14.5	724.0	0.019	0.000	22.4	11	-9.5	20.0	2.70	 .0708	24	1	100.0	1
11/26/24	8:47	-8.5	-8.5	-8.5	63	-14.3	6.1	NW	0.10	7.0	NW	-13.8	-8.7	-14.0	724.0	0.019	0.000	22.4	11	-9.5	20.0	2.70	 .0708	23	1	100.0	1
11/26/24	8:48	-8.5	-8.5	-8.5	64	-14.1	6.1	NW	0.10	7.8	NW	-13.8	-8.7	-14.0	724.0	0.019	0.000	22.4	11	-9.5	20.0	2.70	 .0708	24	1	100.0	1
11/26/24	8:49	-8.6	-8.5	-8.6	64	-14.2	6.1	NW	0.10	7.0	NW	-13.9	-8.7	-14.1	724.0	0.019	0.000	22.4	11	-9.5	20.0	2.70	 .0708	23	1	100.0	1
11/26/24	8:50	-8.6	-8.5	-8.6	64	-14.2	7.0	NW	0.12	8.7	NW	-14.4	-8.7	-14.6	724.0	0.019	0.000	22.4	11	-9.5	20.0	2.70	 .0708	23	1	100.0	1
11/26/24	8:51	-8.5	-8.5	-8.6	63	-14.3	7.0	NW	0.12	7.8	NW	-14.3	-8.7	-14.5	723.9	0.019	0.000	22.4	11	-9.5	20.0	2.70	 .0708	24	1	100.0	1
11/26/24	8:52	-8.4	-8.4	-8.5	63	-14.2	7.0	NW	0.12	7.0	NW	-14.3	-8.6	-14.4	723.9	0.019	0.000	22.4	11	-9.5	20.0	2.70	 .0708	23	1	100.0	1
11/26/24	8:53	-8.4	-8.4	-8.4	62	-14.4	7.0	NW	0.12	7.8	NW	-14.2	-8.6	-14.4	723.9	0.019	0.000	22.4	11	-9.5	20.0	2.70	 .0708	24	1	100.0	1
11/26/24	8:54	-8.3	-8.3	-8.4	62	-14.3	7.0	NW	0.12	7.8	NW	-14.1	-8.6	-14.3	723.9	0.019	0.000	22.4	11	-9.5	20.0	2.70	 .0708	23	1	100.0	1
11/26/24	8:55	-8.3	-8.3	-8.3	61	-14.5	6.1	NW	0.10	7.0	NW	-13.6	-8.5	-13.8	723.9	0.018	0.000	22.4	11	-9.5	20.0	2.70	 .0708	23	1	100.0	1
11/26/24	8:56	-8.3	-8.3	-8.3	61	-14.5	6.1	NW	0.10	7.0	NW	-13.6	-8.5	-13.8	723.9	0.018	0.000	22.4	11	-9.5	20.0	2.70	 .0708	24	1	100.0	1
11/26/24	8:57	-8.2	-8.2	-8.3	60	-14.6	6.1	NW	0.10	7.0	NW	-13.5	-8.4	-13.7	723.9	0.018	0.000	22.4	11	-9.5	20.0	2.70	 .0708	23	1	100.0	1
11/26/24	8:58	-8.2	-8.2	-8.2	60	-14.6	5.2	NW	0.09	7.0	NW	-13.0	-8.4	-13.2	723.9	0.018	0.000	22.4	11	-9.5	20.0	2.70	 .0708	24	1	100.0	1
11/26/24	8:59	-8.2	-8.2	-8.3	60	-14.6	6.1	NW	0.10	7.8	NW	-13.5	-8.4	-13.7	723.9	0.018	0.000	22.4	11	-9.5	20.0	2.70	 .0708	23	1	100.0	1
11/26/24	9:00	-8.3	-8.2	-8.3	60	-14.7	5.2	NW	0.09	7.0	NW	-13.1	-8.5	-13.3	724.0	0.018	0.000	22.4	11	-9.5	20.0	2.70	 .0708	24	1	100.0	1
11/26/24	9:01	-8.2	-8.2	-8.3	60	-14.6	4.3	NW	0.07	5.2	NW	-12.4	-8.4	-12.6	724.0	0.018	0.000	22.4	11	-9.5	20.0	2.70	 .0708	23	1	100.0	1
11/26/24	9:02	-8.3	-8.3	-8.3	60	-14.7	5.2	NW	0.09	5.2	NW	-13.1	-8.5	-13.3	724.0	0.018	0.000	22.4	11	-9.5	20.0	2.70	 .0708	23	1	100.0	1
11/26/24	9:03	-8.3	-8.3	-8.3	60	-14.7	5.2	NW	0.09	7.0	NW	-13.1	-8.5	-13.3	724.0	0.018	0.000	22.4	11	-9.5	20.0	2.70	 .0708	24	1	100.0	1
11/26/24	9:04	-8.3	-8.3	-8.3	60	-14.7	6.1	NW	0.10	7.0	NW	-13.6	-8.5	-13.8	724.0	0.018	0.000	22.4	11	-9.5	20.0	2.70	 .0708	23	1	100.0	1
11/26/24	9:05	-8.3	-8.3	-8.3	60	-14.7	5.2	NW	0.09	7.0	NW	-13.1	-8.5	-13.3	724.0	0.018	0.000	22.4	11	-9.5	20.0	2.70	 .0708	24	1	100.0	1
11/26/24	9:06	-8.3	-8.3	-8.3	60	-14.7	5.2	NW	0.09	7.0	NW	-13.1	-8.5	-13.3	723.9	0.018	0.000	22.4	11	-9.5	20.0	2.70	 .0708	23	1	100.0	1
11/26/24	9:07	-8.3	-8.3	-8.3	60	-14.7	5.2	NW	0.09	7.0	NW	-13.1	-8.5	-13.3	724.0	0.018	0.000	22.4	11	-9.6	19.9	2.70	 .0708	23	1	100.0	1
11/26/24	9:08	-8.3	-8.3	-8.3	59	-14.9	6.1	NW	0.10	7.8	NW	-13.6	-8.5	-13.8	723.9	0.018	0.000	22.4	11	-9.5	20.0	2.70	 .0708	24	1	100.0	1
11/26/24	9:09	-8.3	-8.3	-8.3	59	-14.9	6.1	NW	0.10	7.0	NW	-13.6	-8.5	-13.8	723.9	0.018	0.000	22.4	11	-9.6	19.9	2.70	 .0708	23	1	100.0	1
11/26/24	9:10	-8.3	-8.2	-8.3	59	-14.9	6.1	NW	0.10	7.0	NW	-13.6	-8.5	-13.8	723.9	0.018	0.000	22.4	11	-9.6	19.9	2.70	 .0708	24	1	100.0	1
11/26/24	9:11	-8.2	-8.2	-8.2	59	-14.8	6.1	NW	0.10	7.0	NW	-13.5	-8.4	-13.7	723.9	0.018	0.000	22.4	11	-9.6	19.9	2.70	 .0708	23	1	100.0	1
11/26/24	9:12	-8.2	-8.2	-8.2	59	-14.8	6.1	NW	0.10	7.8	NW	-13.4	-8.4	-13.7	723.9	0.018	0.000	22.4	11	-9.6	19.9	2.70	 .0708	24	1	100.0	1
11/26/24	9:13	-8.1	-8.1	-8.2	59	-14.7	6.1	NW	0.10	7.0	NW	-13.4	-8.3	-13.6	723.9	0.018	0.000	22.4	11	-9.6	19.9	2.70	 .0708	23	1	100.0	1
11/26/24	9:14	-8.1	-8.1	-8.1	59	-14.7	6.1	NW	0.10	7.0	NW	-13.4	-8.3	-13.6	724.0	0.018	0.000	22.4	11	-9.6	19.9	2.70	 .0708	23	1	100.0	1
11/26/24	9:15	-8.0	-8.0	-8.1	59	-14.6	7.0	NW	0.12	7.8	NW	-13.7	-8.2	-13.9	724.0	0.018	0.000	22.4	11	-9.6	19.9	2.70	 .0708	24	1	100.0	1
11/26/24	9:16	-8.0	-8.0	-8.0	59	-14.6	7.0	NW	0.12	7.8	NW	-13.7	-8.2	-13.9	724.0	0.018	0.000	22.4	11	-9.6	19.9	2.70	 .0708	23	1	100.0	1
11/26/24	9:17	-7.9	-7.9	-8.0	59	-14.6	7.8	NW	0.13	8.7	NW	-14.1	-8.2	-14.3	724.0	0.018	0.000	22.4	11	-9.6	19.9	2.70	 .0708	24	1	100.0	1
11/26/24	9:18	-7.8	-7.8	-7.9	58	-14.7	8.7	NW	0.14	9.6	NW	-14.3	-8.1	-14.5	724.0	0.018	0.000	22.4	11	-9.6	19.9	2.70	 .0708	23	1	100.0	1
11/26/24	9:19	-7.8	-7.8	-7.8	58	-14.6	8.7	NW	0.14	9.6	NW	-14.2	-8.0	-14.4	724.0	0.018	0.000	22.3	11	-9.6	19.8	2.71	 .0709	23	1	100.0	1
11/26/24	9:20	-7.7	-7.7	-7.7	57	-14.7	8.7	NW	0.14	9.6	NW	-14.1	-7.9	-14.4	724.0	0.018	0.000	22.3	11	-9.6	19.8	2.71	 .0709	24	1	100.0	1
11/26/24	9:21	-7.7	-7.7	-7.7	57	-14.7	8.7	NW	0.14	9.6	NW	-14.1	-7.9	-14.4	724.0	0.018	0.000	22.3	11	-9.6	19.8	2.71	 .0709	23	1	100.0	1
11/26/24	9:22	-7.7	-7.7	-7.7	56	-14.9	9.6	NW	0.16	10.4	NW	-14.4	-7.9	-14.7	724.0	0.018	0.000	22.3	11	-9.6	19.8	2.71	 .0709	24	1	100.0	1
11/26/24	9:23	-7.6	-7.6	-7.6	56	-14.9	9.6	NW	0.16	10.4	NW	-14.4	-7.9	-14.7	724.0	0.018	0.000	22.3	11	-9.6	19.8	2.71	 .0709	23	1	100.0	1
11/26/24	9:24	-7.6	-7.6	-7.6	56	-14.8	8.7	NW	0.14	9.6	NW	-13.9	-7.8	-14.2	723.9	0.018	0.000	22.3	11	-9.6	19.8	2.71	 .0709	24	1	100.0	1
11/26/24	9:25	-7.5	-7.5	-7.6	56	-14.8	8.7	NW	0.14	9.6	NW	-13.9	-7.8	-14.2	723.9	0.018	0.000	22.3	11	-9.6	19.8	2.71	 .0709	23	1	100.0	1
11/26/24	9:26	-7.5	-7.5	-7.5	56	-14.8	8.7	NW	0.14	10.4	NW	-13.9	-7.8	-14.2	724.0	0.018	0.000	22.3	11	-9.6	19.8	2.71	 .0709	23	1	100.0	1
11/26/24	9:27	-7.4	-7.4	-7.5	56	-14.7	9.6	NW	0.16	10.4	NW	-14.2	-7.7	-14.4	723.9	0.018	0.000	22.3	11	-9.6	19.8	2.71	 .0709	24	1	100.0	1
11/26/24	9:28	-7.4	-7.4	-7.4	56	-14.7	10.4	NW	0.17	11.3	NW	-14.5	-7.7	-14.8	724.0	0.018	0.000	22.3	11	-9.6	19.8	2.71	 .0709	23	1	100.0	1
11/26/24	9:29	-7.4	-7.4	-7.4	56	-14.7	9.6	NW	0.16	11.3	NW	-14.1	-7.7	-14.4	723.9	0.018	0.000	22.3	11	-9.6	19.8	2.71	 .0709	24	1	100.0	1
11/26/24	9:30	-7.4	-7.4	-7.4	56	-14.7	9.6	NW	0.16	12.2	NW	-14.1	-7.7	-14.4	723.9	0.018	0.000	22.3	11	-9.6	19.8	2.71	 .0709	23	1	100.0	1
11/26/24	9:31	-7.4	-7.4	-7.4	56	-14.7	10.4	NW	0.17	11.3	NW	-14.4	-7.7	-14.7	724.0	0.018	0.000	22.3	11	-9.6	19.8	2.71	 .0709	23	1	100.0	1
11/26/24	9:32	-7.4	-7.4	-7.4	56	-14.7	11.3	NW	0.19	12.2	NW	-14.7	-7.7	-15.0	724.0	0.018	0.000	22.3	11	-9.6	19.8	2.71	 .0709	24	1	100.0	1
11/26/24	9:33	-7.4	-7.3	-7.4	56	-14.7	10.4	NW	0.17	11.3	NW	-14.4	-7.7	-14.7	723.9	0.018	0.000	22.3	11	-9.6	19.8	2.71	 .0709	23	1	100.0	1
11/26/24	9:34	-7.4	-7.4	-7.4	55	-14.9	11.3	NW	0.19	12.2	WNW	-14.7	-7.7	-15.0	724.0	0.018	0.000	22.3	11	-9.6	19.8	2.71	 .0709	24	1	100.0	1
11/26/24	9:35	-7.4	-7.4	-7.4	55	-14.9	10.4	NW	0.17	11.3	NW	-14.5	-7.7	-14.8	724.0	0.018	0.000	22.3	11	-9.6	19.8	2.71	 .0709	23	1	100.0	1
11/26/24	9:36	-7.4	-7.4	-7.4	55	-14.9	10.4	NW	0.17	12.2	WNW	-14.5	-7.7	-14.8	724.0	0.018	0.000	22.3	11	-9.6	19.8	2.71	 .0709	23	1	100.0	1
11/26/24	9:37	-7.4	-7.4	-7.4	55	-14.9	11.3	WNW	0.19	13.0	WNW	-14.8	-7.7	-15.1	724.0	0.018	0.000	22.3	11	-9.6	19.8	2.71	 .0709	24	1	100.0	1
11/26/24	9:38	-7.4	-7.4	-7.4	54	-15.1	9.6	NW	0.16	11.3	WNW	-14.1	-7.7	-14.4	724.0	0.018	0.000	22.3	11	-9.6	19.8	2.71	 .0709	23	1	100.0	1
11/26/24	9:39	-7.4	-7.4	-7.4	54	-15.1	9.6	NW	0.16	11.3	WNW	-14.1	-7.7	-14.4	724.0	0.018	0.000	22.3	11	-9.6	19.8	2.71	 .0709	24	1	100.0	1
11/26/24	9:40	-7.4	-7.4	-7.4	54	-15.1	9.6	NW	0.16	10.4	NW	-14.1	-7.7	-14.4	724.0	0.018	0.000	22.3	11	-9.6	19.8	2.71	 .0709	23	1	100.0	1
11/26/24	9:41	-7.4	-7.4	-7.4	54	-15.1	9.6	NW	0.16	11.3	NW	-14.1	-7.7	-14.4	724.0	0.018	0.000	22.3	11	-9.6	19.8	2.71	 .0709	24	1	100.0	1
11/26/24	9:42	-7.4	-7.4	-7.4	54	-15.1	10.4	NW	0.17	11.3	NW	-14.4	-7.7	-14.7	724.0	0.018	0.000	22.3	11	-9.6	19.8	2.71	 .0709	23	1	100.0	1
11/26/24	9:43	-7.4	-7.4	-7.4	54	-15.1	9.6	NW	0.16	10.4	NW	-14.1	-7.7	-14.4	724.0	0.018	0.000	22.2	11	-9.7	19.7	2.71	 .0709	23	1	100.0	1
11/26/24	9:44	-7.4	-7.4	-7.4	54	-15.1	9.6	NW	0.16	10.4	NW	-14.1	-7.7	-14.4	724.0	0.018	0.000	22.2	11	-9.7	19.7	2.71	 .0709	24	1	100.0	1
11/26/24	9:45	-7.4	-7.4	-7.4	54	-15.1	8.7	NW	0.14	11.3	NW	-13.8	-7.7	-14.1	724.0	0.018	0.000	22.2	11	-9.7	19.7	2.71	 .0709	23	1	100.0	1
11/26/24	9:46	-7.4	-7.4	-7.4	54	-15.1	7.8	NW	0.13	9.6	NNW	-13.4	-7.7	-13.7	724.0	0.018	0.000	22.2	11	-9.7	19.7	2.71	 .0709	24	1	100.0	1
11/26/24	9:47	-7.4	-7.4	-7.4	54	-15.1	8.7	NW	0.14	10.4	NW	-13.8	-7.7	-14.1	724.0	0.018	0.000	22.2	11	-9.7	19.7	2.71	 .0709	23	1	100.0	1
11/26/24	9:48	-7.4	-7.4	-7.4	54	-15.2	9.6	NW	0.16	10.4	NW	-14.2	-7.7	-14.4	724.0	0.018	0.000	22.2	11	-9.7	19.7	2.71	 .0709	23	1	100.0	1
11/26/24	9:49	-7.4	-7.4	-7.4	55	-14.9	8.7	NW	0.14	9.6	NW	-13.8	-7.7	-14.1	724.0	0.018	0.000	22.2	11	-9.7	19.7	2.71	 .0709	24	1	100.0	1
11/26/24	9:50	-7.5	-7.4	-7.5	55	-15.0	8.7	NW	0.14	9.6	NW	-13.9	-7.8	-14.2	724.0	0.018	0.000	22.2	11	-9.7	19.7	2.71	 .0709	23	1	100.0	1
11/26/24	9:51	-7.5	-7.5	-7.5	55	-15.0	9.6	NW	0.16	10.4	NW	-14.2	-7.8	-14.5	724.0	0.018	0.000	22.2	11	-9.7	19.7	2.71	 .0709	24	1	100.0	1
11/26/24	9:52	-7.5	-7.4	-7.5	55	-15.0	7.8	NW	0.13	10.4	NW	-13.5	-7.8	-13.8	724.0	0.018	0.000	22.2	11	-9.7	19.7	2.71	 .0709	23	1	100.0	1
11/26/24	9:53	-7.5	-7.5	-7.5	55	-15.0	8.7	NW	0.14	9.6	NW	-13.9	-7.8	-14.2	724.0	0.018	0.000	22.2	11	-9.7	19.7	2.71	 .0709	23	1	100.0	1
11/26/24	9:54	-7.6	-7.5	-7.6	55	-15.1	8.7	NW	0.14	8.7	NW	-13.9	-7.8	-14.2	724.0	0.018	0.000	22.2	11	-9.7	19.7	2.71	 .0709	24	1	100.0	1
11/26/24	9:55	-7.6	-7.6	-7.6	55	-15.1	7.8	NW	0.13	8.7	NW	-13.6	-7.8	-13.9	724.0	0.018	0.000	22.2	11	-9.7	19.7	2.71	 .0709	23	1	100.0	1
11/26/24	9:56	-7.6	-7.6	-7.6	55	-15.1	8.7	NW	0.14	9.6	NW	-14.1	-7.9	-14.3	724.0	0.018	0.000	22.2	11	-9.7	19.6	2.71	 .0709	24	1	100.0	1
11/26/24	9:57	-7.6	-7.6	-7.6	56	-14.9	7.8	NW	0.13	9.6	NW	-13.7	-7.9	-13.9	724.0	0.018	0.000	22.2	11	-9.7	19.7	2.71	 .0709	23	1	100.0	1
11/26/24	9:58	-7.6	-7.6	-7.6	55	-15.1	7.8	NW	0.13	9.6	WNW	-13.7	-7.9	-13.9	724.0	0.018	0.000	22.2	11	-9.7	19.7	2.71	 .0709	24	1	100.0	1
11/26/24	9:59	-7.6	-7.6	-7.6	55	-15.1	7.8	NW	0.13	8.7	NW	-13.7	-7.9	-13.9	724.0	0.018	0.000	22.2	11	-9.7	19.6	2.71	 .0709	23	1	100.0	1
11/26/24	10:00	-7.6	-7.6	-7.6	55	-15.1	7.8	NW	0.13	8.7	NW	-13.7	-7.9	-13.9	724.0	0.018	0.000	22.2	11	-9.7	19.7	2.71	 .0709	23	1	100.0	1
11/26/24	10:01	-7.6	-7.6	-7.6	56	-14.9	7.8	NW	0.13	9.6	NW	-13.7	-7.9	-13.9	724.0	0.018	0.000	22.2	11	-9.7	19.6	2.71	 .0709	24	1	100.0	1
11/26/24	10:02	-7.6	-7.6	-7.6	56	-14.9	7.8	NW	0.13	8.7	NW	-13.7	-7.9	-13.9	724.0	0.018	0.000	22.2	11	-9.7	19.6	2.71	 .0709	23	1	100.0	1
11/26/24	10:03	-7.6	-7.6	-7.6	56	-14.8	7.8	NW	0.13	8.7	NW	-13.6	-7.8	-13.9	724.1	0.018	0.000	22.2	11	-9.7	19.7	2.71	 .0709	24	1	100.0	1
11/26/24	10:04	-7.6	-7.6	-7.6	56	-14.9	7.8	NW	0.13	8.7	NW	-13.7	-7.9	-13.9	724.0	0.018	0.000	22.2	11	-9.7	19.6	2.71	 .0709	23	1	100.0	1
11/26/24	10:05	-7.6	-7.6	-7.6	57	-14.6	7.8	NW	0.13	8.7	NW	-13.6	-7.8	-13.9	724.0	0.018	0.000	22.2	11	-9.7	19.6	2.71	 .0709	24	1	100.0	1
11/26/24	10:06	-7.6	-7.6	-7.6	57	-14.7	7.8	NW	0.13	9.6	NW	-13.7	-7.9	-13.9	724.0	0.018	0.000	22.2	11	-9.7	19.6	2.71	 .0709	23	1	100.0	1
11/26/24	10:07	-7.6	-7.6	-7.6	57	-14.7	7.0	NW	0.12	7.8	NW	-13.2	-7.9	-13.5	724.0	0.018	0.000	22.2	11	-9.7	19.6	2.71	 .0709	23	1	100.0	1
11/26/24	10:08	-7.6	-7.6	-7.6	57	-14.7	7.8	NW	0.13	8.7	NW	-13.7	-7.9	-13.9	724.0	0.018	0.000	22.2	11	-9.7	19.6	2.71	 .0709	24	1	100.0	1
11/26/24	10:09	-7.7	-7.6	-7.7	57	-14.7	8.7	NW	0.14	10.4	NW	-14.1	-7.9	-14.4	724.1	0.018	0.000	22.2	11	-9.7	19.6	2.71	 .0709	23	1	100.0	1
11/26/24	10:10	-7.7	-7.7	-7.7	58	-14.5	8.7	NW	0.14	9.6	NW	-14.1	-7.9	-14.3	724.0	0.018	0.000	22.2	11	-9.7	19.6	2.71	 .0709	24	1	100.0	1
11/26/24	10:11	-7.7	-7.7	-7.7	58	-14.5	8.7	NW	0.14	9.6	NW	-14.1	-7.9	-14.3	724.0	0.018	0.000	22.2	11	-9.7	19.6	2.71	 .0709	23	1	100.0	1
11/26/24	10:12	-7.7	-7.7	-7.7	60	-14.1	8.7	NW	0.14	9.6	NW	-14.1	-7.9	-14.3	724.0	0.018	0.000	22.2	11	-9.7	19.6	2.71	 .0709	23	1	100.0	1
11/26/24	10:13	-7.7	-7.7	-7.7	60	-14.1	8.7	NW	0.14	9.6	NW	-14.1	-7.9	-14.3	724.0	0.018	0.000	22.2	11	-9.7	19.6	2.71	 .0709	24	1	100.0	1
11/26/24	10:14	-7.7	-7.7	-7.7	60	-14.1	7.8	NW	0.13	8.7	NW	-13.8	-7.9	-14.0	724.0	0.018	0.000	22.2	11	-9.7	19.6	2.71	 .0709	23	1	100.0	1
11/26/24	10:15	-7.7	-7.7	-7.7	60	-14.1	7.8	NW	0.13	9.6	NW	-13.8	-7.9	-14.0	724.0	0.018	0.000	22.1	11	-9.8	19.6	2.71	 .0709	24	1	100.0	1
11/26/24	10:16	-7.7	-7.7	-7.7	60	-14.1	7.8	NW	0.13	8.7	WNW	-13.8	-7.9	-14.0	724.0	0.018	0.000	22.2	11	-9.7	19.6	2.71	 .0709	23	1	100.0	1
11/26/24	10:17	-7.7	-7.7	-7.7	60	-14.1	7.8	NW	0.13	9.6	NW	-13.8	-7.9	-14.0	724.0	0.018	0.000	22.2	11	-9.7	19.6	2.71	 .0709	24	1	100.0	1
11/26/24	10:18	-7.7	-7.7	-7.7	61	-13.9	8.7	NW	0.14	10.4	NW	-14.2	-7.9	-14.4	723.9	0.018	0.000	22.1	11	-9.8	19.6	2.71	 .0709	23	1	100.0	1
11/26/24	10:19	-7.7	-7.7	-7.7	62	-13.7	9.6	NW	0.16	10.4	NW	-14.4	-7.9	-14.7	723.9	0.018	0.000	22.1	11	-9.8	19.6	2.71	 .0709	23	1	100.0	1
11/26/24	10:20	-7.7	-7.7	-7.7	62	-13.7	8.7	NW	0.14	9.6	NW	-14.1	-7.9	-14.3	724.0	0.018	0.000	22.1	11	-9.8	19.6	2.71	 .0709	24	1	100.0	1
11/26/24	10:21	-7.7	-7.7	-7.7	62	-13.7	7.8	NW	0.13	8.7	NW	-13.8	-7.9	-14.0	724.0	0.018	0.000	22.1	11	-9.8	19.6	2.71	 .0709	23	1	100.0	1
11/26/24	10:22	-7.7	-7.7	-7.7	62	-13.7	7.8	NW	0.13	9.6	NW	-13.8	-7.9	-14.0	724.0	0.018	0.000	22.1	11	-9.8	19.6	2.71	 .0709	24	1	100.0	1
11/26/24	10:23	-7.8	-7.7	-7.8	62	-13.8	7.8	NW	0.13	8.7	NW	-13.8	-8.0	-14.1	724.0	0.018	0.000	22.1	11	-9.8	19.6	2.71	 .0709	23	1	100.0	1
11/26/24	10:24	-7.8	-7.8	-7.8	62	-13.8	7.8	NW	0.13	9.6	NW	-13.8	-8.0	-14.1	724.0	0.018	0.000	22.1	11	-9.8	19.6	2.71	 .0709	23	1	100.0	1
11/26/24	10:25	-7.8	-7.8	-7.8	62	-13.8	8.7	NW	0.14	9.6	NW	-14.2	-8.0	-14.4	724.0	0.018	0.000	22.1	11	-9.8	19.4	2.72	 .0709	24	1	100.0	1
11/26/24	10:26	-7.8	-7.8	-7.8	62	-13.8	7.8	NW	0.13	9.6	NW	-13.8	-8.0	-14.1	723.9	0.018	0.000	22.1	11	-9.8	19.4	2.72	 .0709	23	1	100.0	1
11/26/24	10:27	-7.8	-7.8	-7.8	63	-13.6	7.8	NW	0.13	8.7	NW	-13.8	-8.0	-14.1	724.0	0.018	0.000	22.1	11	-9.8	19.4	2.72	 .0709	24	1	100.0	1
11/26/24	10:28	-7.8	-7.8	-7.8	63	-13.6	7.8	NW	0.13	9.6	NW	-13.8	-8.0	-14.1	724.0	0.018	0.000	22.1	11	-9.8	19.4	2.72	 .0709	23	1	100.0	1
11/26/24	10:29	-7.8	-7.8	-7.8	63	-13.6	8.7	NW	0.14	8.7	NW	-14.2	-8.0	-14.4	723.9	0.018	0.000	22.1	11	-9.8	19.4	2.72	 .0709	23	1	100.0	1
11/26/24	10:30	-7.8	-7.8	-7.8	63	-13.6	8.7	NW	0.14	9.6	NW	-14.2	-8.0	-14.4	723.9	0.018	0.000	22.1	11	-9.8	19.4	2.72	 .0709	24	1	100.0	1
11/26/24	10:31	-7.8	-7.8	-7.8	64	-13.4	8.7	NW	0.14	9.6	NW	-14.2	-8.0	-14.4	723.9	0.018	0.000	22.1	11	-9.8	19.4	2.72	 .0709	23	1	100.0	1
11/26/24	10:32	-7.8	-7.8	-7.8	64	-13.4	8.7	NW	0.14	9.6	NW	-14.2	-8.0	-14.4	723.9	0.018	0.000	22.1	11	-9.8	19.4	2.72	 .0709	24	1	100.0	1
11/26/24	10:33	-7.8	-7.8	-7.8	64	-13.5	8.7	NW	0.14	9.6	NW	-14.3	-8.1	-14.5	724.0	0.018	0.000	22.1	11	-9.8	19.4	2.72	 .0709	23	1	100.0	1
11/26/24	10:34	-7.8	-7.8	-7.8	64	-13.5	8.7	NW	0.14	9.6	NW	-14.3	-8.1	-14.5	724.0	0.018	0.000	22.1	11	-9.8	19.4	2.72	 .0709	24	1	100.0	1
11/26/24	10:35	-7.8	-7.8	-7.8	64	-13.5	8.7	NW	0.14	9.6	NW	-14.3	-8.1	-14.5	723.9	0.018	0.000	22.1	11	-9.8	19.4	2.72	 .0709	23	1	100.0	1
11/26/24	10:36	-7.8	-7.8	-7.8	64	-13.5	9.6	NW	0.16	10.4	NW	-14.7	-8.1	-14.9	724.0	0.018	0.000	22.0	11	-9.9	19.4	2.72	 .0709	23	1	100.0	1
11/26/24	10:37	-7.8	-7.8	-7.9	65	-13.3	10.4	NW	0.17	11.3	NNW	-15.0	-8.1	-15.2	724.0	0.018	0.000	22.1	11	-9.8	19.4	2.72	 .0709	24	1	100.0	1
11/26/24	10:38	-7.9	-7.9	-7.9	65	-13.3	10.4	NNW	0.17	12.2	NNW	-15.1	-8.1	-15.3	724.0	0.018	0.000	22.0	11	-9.9	19.4	2.72	 .0709	23	1	100.0	1
11/26/24	10:39	-7.9	-7.9	-7.9	65	-13.3	9.6	NNW	0.16	10.4	NNW	-14.7	-8.1	-14.9	724.0	0.018	0.000	22.0	11	-9.9	19.4	2.72	 .0709	24	1	100.0	1
11/26/24	10:40	-7.9	-7.9	-7.9	65	-13.4	8.7	NNW	0.14	10.4	NNW	-14.4	-8.2	-14.7	724.0	0.018	0.000	22.0	11	-9.9	19.4	2.72	 .0709	23	1	100.0	1
11/26/24	10:41	-7.9	-7.9	-7.9	65	-13.4	7.8	NNW	0.13	8.7	NW	-14.1	-8.2	-14.3	724.0	0.018	0.000	22.0	11	-9.9	19.4	2.72	 .0709	23	1	100.0	1
11/26/24	10:42	-7.9	-7.9	-7.9	64	-13.6	7.8	NNW	0.13	8.7	NNW	-14.1	-8.2	-14.3	723.9	0.018	0.000	22.0	11	-9.9	19.4	2.72	 .0709	24	1	100.0	1
11/26/24	10:43	-7.9	-7.9	-7.9	64	-13.6	9.6	NNW	0.16	10.4	NNW	-14.8	-8.2	-15.0	724.0	0.018	0.000	22.0	11	-9.9	19.4	2.72	 .0709	23	1	100.0	1
11/26/24	10:44	-7.9	-7.9	-7.9	66	-13.1	11.3	NNW	0.19	13.0	NNW	-15.3	-8.1	-15.6	723.9	0.018	0.000	22.0	11	-9.9	19.4	2.72	 .0709	24	1	100.0	1
11/26/24	10:45	-7.9	-7.9	-7.9	67	-13.0	9.6	NNW	0.16	11.3	NNW	-14.7	-8.1	-14.9	723.9	0.018	0.000	22.0	11	-9.9	19.4	2.72	 .0709	23	1	100.0	1
11/26/24	10:46	-7.9	-7.9	-7.9	67	-13.0	9.6	NNW	0.16	10.4	NNW	-14.7	-8.1	-14.9	723.9	0.018	0.000	21.9	11	-9.9	19.3	2.72	 .0710	24	1	100.0	1
11/26/24	10:47	-7.9	-7.9	-7.9	67	-13.0	9.6	NNW	0.16	10.4	NNW	-14.7	-8.1	-14.9	723.9	0.018	0.000	21.9	11	-9.9	19.3	2.72	 .0710	23	1	100.0	1
11/26/24	10:48	-7.9	-7.9	-7.9	67	-13.0	8.7	NNW	0.14	9.6	NNW	-14.4	-8.1	-14.6	723.9	0.018	0.000	21.9	11	-9.9	19.3	2.72	 .0710	23	1	100.0	1
11/26/24	10:49	-7.9	-7.9	-7.9	67	-13.0	9.6	NNW	0.16	10.4	NNW	-14.7	-8.1	-14.9	723.9	0.018	0.000	21.9	11	-9.9	19.3	2.72	 .0710	24	1	100.0	1
11/26/24	10:50	-7.9	-7.9	-7.9	67	-13.0	8.7	NNW	0.14	10.4	NNW	-14.4	-8.1	-14.6	723.9	0.018	0.000	21.9	11	-9.9	19.3	2.72	 .0710	23	1	100.0	1
11/26/24	10:51	-7.9	-7.9	-7.9	67	-13.0	8.7	NNW	0.14	10.4	NNW	-14.4	-8.1	-14.6	723.9	0.018	0.000	21.9	11	-9.9	19.3	2.72	 .0710	24	1	100.0	1
11/26/24	10:52	-7.9	-7.9	-7.9	67	-13.0	8.7	NNW	0.14	10.4	NNW	-14.4	-8.1	-14.6	723.9	0.018	0.000	21.9	11	-9.9	19.3	2.72	 .0710	23	1	100.0	1
11/26/24	10:53	-7.9	-7.9	-7.9	67	-13.0	9.6	NNW	0.16	10.4	NNW	-14.7	-8.1	-14.9	723.9	0.018	0.000	21.9	11	-9.9	19.3	2.72	 .0710	23	1	100.0	1
11/26/24	10:54	-7.8	-7.8	-7.9	68	-12.7	8.7	NNW	0.14	9.6	NNW	-14.3	-8.0	-14.4	723.9	0.018	0.000	21.9	11	-9.9	19.3	2.72	 .0710	24	1	100.0	1
11/26/24	10:55	-7.8	-7.8	-7.8	68	-12.7	8.7	NNW	0.14	9.6	NNW	-14.3	-8.0	-14.4	723.9	0.018	0.000	21.9	11	-9.9	19.3	2.72	 .0709	23	1	100.0	1
11/26/24	10:56	-7.8	-7.8	-7.8	68	-12.7	9.6	NNW	0.16	10.4	NNW	-14.7	-8.0	-14.8	723.9	0.018	0.000	21.9	11	-9.9	19.3	2.72	 .0710	24	1	100.0	1
11/26/24	10:57	-7.8	-7.8	-7.8	69	-12.5	8.7	NNW	0.14	9.6	NNW	-14.3	-8.0	-14.4	723.9	0.018	0.000	21.9	11	-9.9	19.3	2.72	 .0709	23	1	100.0	1
11/26/24	10:58	-7.8	-7.8	-7.8	69	-12.5	8.7	NNW	0.14	9.6	NNW	-14.3	-8.0	-14.4	723.9	0.018	0.000	21.9	11	-9.9	19.3	2.72	 .0710	24	1	100.0	1
11/26/24	10:59	-7.8	-7.8	-7.8	69	-12.5	9.6	NNW	0.16	9.6	NNW	-14.6	-7.9	-14.7	723.9	0.018	0.000	21.9	11	-9.9	19.3	2.72	 .0710	23	1	100.0	1
11/26/24	11:00	-7.8	-7.8	-7.8	69	-12.5	8.7	NNW	0.14	9.6	NNW	-14.2	-7.9	-14.4	723.9	0.018	0.000	21.9	11	-9.9	19.3	2.72	 .0710	23	1	100.0	1
11/26/24	11:01	-7.8	-7.8	-7.8	69	-12.5	8.7	NNW	0.14	9.6	NNW	-14.2	-7.9	-14.4	723.9	0.018	0.000	21.9	11	-9.9	19.3	2.72	 .0710	24	1	100.0	1
11/26/24	11:02	-7.8	-7.8	-7.8	69	-12.5	8.7	NNW	0.14	9.6	NNW	-14.3	-8.0	-14.4	723.9	0.018	0.000	21.9	11	-9.9	19.3	2.72	 .0709	23	1	100.0	1
11/26/24	11:03	-7.8	-7.8	-7.8	69	-12.5	9.6	NNW	0.16	10.4	NNW	-14.7	-8.0	-14.8	723.9	0.018	0.000	21.9	11	-9.9	19.3	2.72	 .0710	24	1	100.0	1
11/26/24	11:04	-7.8	-7.8	-7.8	69	-12.5	9.6	NNW	0.16	11.3	NNW	-14.7	-8.0	-14.8	723.9	0.018	0.000	21.9	11	-9.9	19.3	2.72	 .0710	23	1	100.0	1
11/26/24	11:05	-7.8	-7.8	-7.8	70	-12.4	9.6	NNW	0.16	10.4	NNW	-14.7	-8.0	-14.8	723.9	0.018	0.000	21.9	11	-9.9	19.3	2.72	 .0709	23	1	100.0	1
11/26/24	11:06	-7.9	-7.8	-7.9	70	-12.4	9.6	NNW	0.16	10.4	NNW	-14.7	-8.1	-14.9	723.9	0.018	0.000	21.9	11	-9.9	19.3	2.72	 .0710	24	1	100.0	1
11/26/24	11:07	-7.9	-7.8	-7.9	70	-12.4	10.4	NNW	0.17	11.3	NNW	-15.1	-8.1	-15.2	723.9	0.018	0.000	21.9	11	-9.9	19.3	2.72	 .0709	23	1	100.0	1
11/26/24	11:08	-7.9	-7.9	-7.9	70	-12.4	9.6	NNW	0.16	10.4	NNW	-14.7	-8.1	-14.9	723.8	0.018	0.000	21.9	11	-9.9	19.3	2.72	 .0709	24	1	100.0	1
11/26/24	11:09	-7.9	-7.9	-7.9	71	-12.2	9.6	NNW	0.16	11.3	NNW	-14.7	-8.1	-14.9	723.8	0.018	0.000	21.9	11	-9.9	19.3	2.72	 .0709	23	1	100.0	1
11/26/24	11:10	-7.9	-7.9	-7.9	71	-12.2	9.6	NNW	0.16	10.4	NNW	-14.7	-8.1	-14.9	723.8	0.018	0.000	21.9	11	-9.9	19.2	2.72	 .0710	24	1	100.0	1
11/26/24	11:11	-7.8	-7.8	-7.9	71	-12.2	10.4	NNW	0.17	12.2	NW	-15.0	-8.0	-15.2	723.8	0.018	0.000	21.9	11	-9.9	19.2	2.72	 .0710	23	1	100.0	1
11/26/24	11:12	-7.8	-7.8	-7.9	71	-12.2	11.3	NNW	0.19	13.0	NNW	-15.3	-8.0	-15.4	723.8	0.018	0.000	21.9	11	-9.9	19.2	2.72	 .0710	23	1	100.0	1
11/26/24	11:13	-7.9	-7.8	-7.9	71	-12.2	12.2	NNW	0.20	13.0	NW	-15.6	-8.1	-15.8	723.8	0.018	0.000	21.9	11	-9.9	19.2	2.72	 .0710	24	1	100.0	1
11/26/24	11:14	-7.8	-7.8	-7.8	71	-12.2	11.3	NNW	0.19	13.0	NNW	-15.3	-8.0	-15.4	723.8	0.018	0.000	21.9	11	-9.9	19.2	2.72	 .0710	23	1	100.0	1
11/26/24	11:15	-7.8	-7.8	-7.8	71	-12.2	12.2	NW	0.20	13.9	NW	-15.6	-8.0	-15.7	723.8	0.018	0.000	21.9	11	-9.9	19.2	2.72	 .0710	24	1	100.0	1
11/26/24	11:16	-7.8	-7.8	-7.8	71	-12.2	12.2	NNW	0.20	13.9	NNW	-15.6	-8.0	-15.7	723.8	0.018	0.000	21.9	11	-9.9	19.2	2.72	 .0710	23	1	100.0	1
11/26/24	11:17	-7.8	-7.8	-7.8	71	-12.2	10.4	NNW	0.17	12.2	NNW	-15.0	-8.0	-15.2	723.8	0.018	0.000	21.9	11	-9.9	19.2	2.72	 .0710	23	1	100.0	1
11/26/24	11:18	-7.8	-7.8	-7.8	71	-12.2	10.4	NNW	0.17	13.0	N	-15.0	-8.0	-15.2	723.8	0.018	0.000	21.9	11	-9.9	19.2	2.72	 .0710	24	1	100.0	1
11/26/24	11:19	-7.8	-7.8	-7.8	71	-12.2	11.3	NNW	0.19	13.0	NNW	-15.3	-8.0	-15.4	723.8	0.018	0.000	21.9	11	-9.9	19.2	2.72	 .0710	23	1	100.0	1
11/26/24	11:20	-7.9	-7.8	-7.9	71	-12.2	12.2	NNW	0.20	13.0	NW	-15.6	-8.1	-15.8	723.7	0.018	0.000	21.9	11	-9.9	19.2	2.72	 .0710	24	1	100.0	1
11/26/24	11:21	-7.9	-7.9	-7.9	71	-12.2	10.4	NW	0.17	12.2	NNW	-15.1	-8.1	-15.2	723.7	0.018	0.000	21.9	11	-9.9	19.2	2.72	 .0710	23	1	100.0	1
11/26/24	11:22	-7.9	-7.9	-7.9	72	-12.1	9.6	NNW	0.16	11.3	NNW	-14.7	-8.1	-14.9	723.8	0.018	0.000	21.9	11	-9.9	19.2	2.72	 .0710	23	1	100.0	1
11/26/24	11:23	-7.9	-7.9	-7.9	72	-12.1	10.4	NNW	0.17	13.0	NNW	-15.1	-8.1	-15.2	723.8	0.018	0.000	21.8	11	-10.0	19.2	2.72	 .0710	24	1	100.0	1
11/26/24	11:24	-7.9	-7.9	-7.9	72	-12.1	11.3	NNW	0.19	13.0	NNW	-15.3	-8.1	-15.5	723.7	0.018	0.000	21.8	11	-10.0	19.2	2.72	 .0710	23	1	100.0	1
11/26/24	11:25	-7.9	-7.9	-7.9	72	-12.1	10.4	NNW	0.17	12.2	NW	-15.1	-8.1	-15.2	723.8	0.018	0.000	21.8	11	-10.0	19.2	2.72	 .0710	24	1	100.0	1
11/26/24	11:26	-7.9	-7.9	-7.9	72	-12.1	10.4	NNW	0.17	12.2	NNW	-15.1	-8.1	-15.2	723.8	0.018	0.000	21.8	11	-10.0	19.2	2.72	 .0710	23	1	100.0	1
11/26/24	11:27	-7.9	-7.9	-7.9	72	-12.1	9.6	NNW	0.16	11.3	NNW	-14.7	-8.1	-14.9	723.8	0.018	0.000	21.8	11	-10.0	19.2	2.72	 .0710	24	1	100.0	1
11/26/24	11:28	-7.9	-7.9	-7.9	72	-12.1	10.4	NNW	0.17	11.3	NNW	-15.1	-8.1	-15.2	723.8	0.018	0.000	21.8	11	-10.0	19.2	2.72	 .0710	23	1	100.0	1
11/26/24	11:29	-7.9	-7.9	-7.9	71	-12.3	9.6	NNW	0.16	10.4	NNW	-14.8	-8.1	-14.9	723.8	0.018	0.000	21.8	11	-10.0	19.2	2.72	 .0710	23	1	100.0	1
11/26/24	11:30	-7.9	-7.9	-7.9	71	-12.3	9.6	NNW	0.16	10.4	NW	-14.8	-8.1	-14.9	723.8	0.018	0.000	21.8	11	-10.0	19.2	2.72	 .0710	24	1	100.0	1
11/26/24	11:31	-7.9	-7.9	-7.9	72	-12.1	9.6	NNW	0.16	11.3	NNW	-14.8	-8.1	-14.9	723.8	0.018	0.000	21.8	11	-10.0	19.2	2.72	 .0710	23	1	100.0	1
11/26/24	11:32	-7.9	-7.9	-7.9	71	-12.3	10.4	NNW	0.17	11.3	NNW	-15.1	-8.1	-15.3	723.8	0.018	0.000	21.8	11	-10.0	19.2	2.72	 .0710	24	1	100.0	1
11/26/24	11:33	-7.9	-7.9	-7.9	71	-12.3	10.4	NNW	0.17	11.3	NNW	-15.1	-8.1	-15.3	723.8	0.018	0.000	21.8	11	-10.0	19.2	2.72	 .0710	23	1	100.0	1
11/26/24	11:34	-7.9	-7.9	-7.9	71	-12.3	10.4	NNW	0.17	12.2	NNW	-15.1	-8.1	-15.3	723.8	0.018	0.000	21.8	11	-10.0	19.1	2.73	 .0710	23	1	100.0	1
11/26/24	11:35	-7.9	-7.9	-7.9	71	-12.2	10.4	NNW	0.17	11.3	NNW	-15.1	-8.1	-15.2	723.8	0.018	0.000	21.8	11	-10.0	19.1	2.73	 .0710	24	1	100.0	1
11/26/24	11:36	-7.9	-7.9	-7.9	72	-12.1	10.4	NNW	0.17	11.3	NNW	-15.1	-8.1	-15.2	723.8	0.018	0.000	21.8	11	-10.0	19.1	2.73	 .0710	23	1	100.0	1
11/26/24	11:37	-7.9	-7.9	-7.9	72	-12.1	12.2	NNW	0.20	14.8	NNW	-15.6	-8.1	-15.8	723.8	0.018	0.000	21.8	11	-10.0	19.1	2.73	 .0710	24	1	100.0	1
11/26/24	11:38	-7.9	-7.9	-7.9	72	-12.1	10.4	NNW	0.17	11.3	NNW	-15.1	-8.1	-15.2	723.8	0.018	0.000	21.8	11	-10.0	19.1	2.73	 .0710	23	1	100.0	1
11/26/24	11:39	-7.9	-7.9	-7.9	72	-12.1	9.6	NNW	0.16	14.8	NNW	-14.7	-8.1	-14.9	723.8	0.018	0.000	21.8	11	-10.0	19.1	2.73	 .0710	24	1	100.0	1
11/26/24	11:40	-7.9	-7.9	-7.9	72	-12.1	9.6	NNW	0.16	10.4	NNW	-14.8	-8.1	-14.9	723.8	0.018	0.000	21.8	11	-10.0	19.1	2.73	 .0710	23	1	100.0	1
11/26/24	11:41	-7.9	-7.9	-7.9	72	-12.1	10.4	NNW	0.17	12.2	NNW	-15.1	-8.1	-15.3	723.8	0.018	0.000	21.8	11	-10.0	19.1	2.73	 .0710	23	1	100.0	1
11/26/24	11:42	-7.9	-7.9	-7.9	72	-12.1	9.6	NNW	0.16	11.3	NNW	-14.8	-8.1	-14.9	723.8	0.018	0.000	21.7	11	-10.1	19.0	2.73	 .0710	24	1	100.0	1
11/26/24	11:43	-7.9	-7.9	-7.9	72	-12.1	10.4	NNW	0.17	11.3	NNW	-15.1	-8.1	-15.3	723.8	0.018	0.000	21.7	11	-10.1	19.0	2.73	 .0710	23	1	100.0	1
11/26/24	11:44	-7.9	-7.9	-7.9	72	-12.1	10.4	NNW	0.17	12.2	NNW	-15.1	-8.1	-15.3	723.8	0.018	0.000	21.7	11	-10.1	19.0	2.73	 .0710	24	1	100.0	1
11/26/24	11:45	-7.9	-7.9	-7.9	72	-12.1	9.6	NNW	0.16	10.4	NNW	-14.8	-8.1	-14.9	723.7	0.018	0.000	21.7	11	-10.1	19.0	2.73	 .0710	23	1	100.0	1
11/26/24	11:46	-7.9	-7.9	-7.9	72	-12.1	9.6	NNW	0.16	10.4	NNW	-14.8	-8.1	-14.9	723.8	0.018	0.000	21.7	11	-10.1	19.0	2.73	 .0710	23	1	100.0	1
11/26/24	11:47	-8.0	-7.9	-8.0	72	-12.2	9.6	NNW	0.16	11.3	NNW	-14.8	-8.2	-15.0	723.8	0.018	0.000	21.7	11	-10.1	19.0	2.73	 .0710	24	1	100.0	1
11/26/24	11:48	-8.0	-8.0	-8.0	72	-12.2	8.7	NNW	0.14	9.6	NNW	-14.5	-8.2	-14.7	723.8	0.018	0.000	21.7	11	-10.1	19.0	2.73	 .0710	23	1	100.0	1
11/26/24	11:49	-8.0	-8.0	-8.0	72	-12.2	9.6	NNW	0.16	10.4	NNW	-14.8	-8.2	-15.0	723.8	0.018	0.000	21.7	11	-10.1	19.0	2.73	 .0710	24	1	100.0	1
11/26/24	11:50	-8.0	-8.0	-8.0	72	-12.2	8.7	NNW	0.14	10.4	NNW	-14.5	-8.2	-14.7	723.8	0.018	0.000	21.7	11	-10.1	19.0	2.73	 .0710	23	1	100.0	1
11/26/24	11:51	-8.0	-8.0	-8.0	72	-12.2	9.6	NNW	0.16	11.3	NNW	-14.8	-8.2	-15.0	723.8	0.018	0.000	21.7	11	-10.1	19.0	2.73	 .0710	24	1	100.0	1
11/26/24	11:52	-8.0	-8.0	-8.0	72	-12.2	9.6	NNW	0.16	10.4	NNW	-14.8	-8.2	-15.0	723.8	0.018	0.000	21.7	11	-10.1	19.0	2.73	 .0710	23	1	100.0	1
11/26/24	11:53	-8.1	-8.0	-8.1	72	-12.2	8.7	NNW	0.14	9.6	NW	-14.6	-8.2	-14.7	723.8	0.018	0.000	21.7	11	-10.1	19.0	2.73	 .0710	23	1	100.0	1
11/26/24	11:54	-8.1	-8.0	-8.1	72	-12.2	8.7	NNW	0.14	8.7	NNW	-14.6	-8.2	-14.7	723.8	0.018	0.000	21.7	11	-10.1	19.0	2.73	 .0710	24	1	100.0	1
11/26/24	11:55	-8.1	-8.1	-8.1	72	-12.2	7.0	NNW	0.12	7.8	NNW	-13.8	-8.2	-13.9	723.8	0.018	0.000	21.7	11	-10.1	19.0	2.73	 .0710	23	1	100.0	1
11/26/24	11:56	-8.1	-8.1	-8.1	72	-12.2	9.6	NNW	0.16	11.3	NNW	-14.9	-8.2	-15.1	723.8	0.018	0.000	21.7	11	-10.1	19.0	2.73	 .0710	24	1	100.0	1
11/26/24	11:57	-8.1	-8.1	-8.1	72	-12.2	9.6	NNW	0.16	10.4	NNW	-14.9	-8.2	-15.1	723.8	0.018	0.000	21.7	11	-10.1	18.9	2.73	 .0710	23	1	100.0	1
11/26/24	11:58	-8.1	-8.1	-8.1	72	-12.2	8.7	NNW	0.14	10.4	NNW	-14.6	-8.2	-14.7	723.8	0.018	0.000	21.7	11	-10.1	18.9	2.73	 .0710	23	1	100.0	1
11/26/24	11:59	-8.1	-8.1	-8.1	72	-12.2	8.7	NNW	0.14	9.6	NW	-14.6	-8.2	-14.7	723.8	0.018	0.000	21.7	11	-10.1	19.0	2.73	 .0710	24	1	100.0	1
11/26/24	12:00	-8.1	-8.0	-8.1	72	-12.2	10.4	NNW	0.17	12.2	NNW	-15.3	-8.2	-15.4	723.8	0.018	0.000	21.7	11	-10.1	19.0	2.73	 .0710	23	1	100.0	1
11/26/24	12:01	-8.0	-8.0	-8.1	72	-12.2	10.4	NNW	0.17	11.3	NNW	-15.2	-8.2	-15.3	723.7	0.018	0.000	21.7	11	-10.1	19.0	2.73	 .0710	24	1	100.0	1
11/26/24	12:02	-8.0	-8.0	-8.0	72	-12.2	10.4	NNW	0.17	11.3	NNW	-15.2	-8.2	-15.3	723.8	0.018	0.000	21.7	11	-10.1	19.0	2.73	 .0710	23	1	100.0	1
11/26/24	12:03	-8.0	-8.0	-8.0	72	-12.2	8.7	NNW	0.14	10.4	NNW	-14.5	-8.2	-14.7	723.8	0.018	0.000	21.7	11	-10.1	19.0	2.73	 .0710	24	1	100.0	1
11/26/24	12:04	-8.0	-8.0	-8.0	72	-12.2	10.4	NNW	0.17	11.3	NNW	-15.2	-8.2	-15.3	723.8	0.018	0.000	21.7	11	-10.1	19.0	2.73	 .0710	23	1	100.0	1
11/26/24	12:05	-8.0	-8.0	-8.0	72	-12.2	9.6	NNW	0.16	11.3	NNW	-14.8	-8.2	-15.0	723.8	0.018	0.000	21.7	11	-10.1	19.0	2.73	 .0710	23	1	100.0	1
11/26/24	12:06	-8.1	-8.0	-8.1	72	-12.2	8.7	NNW	0.14	10.4	NNW	-14.6	-8.2	-14.7	723.8	0.018	0.000	21.8	11	-10.0	19.1	2.73	 .0710	24	1	100.0	1
11/26/24	12:07	-8.1	-8.1	-8.1	72	-12.2	10.4	NNW	0.17	12.2	NNW	-15.3	-8.2	-15.4	723.8	0.018	0.000	21.8	11	-10.0	19.1	2.73	 .0710	23	1	100.0	1
11/26/24	12:08	-8.1	-8.1	-8.1	72	-12.2	10.4	NNW	0.17	12.2	NNW	-15.3	-8.2	-15.4	723.8	0.018	0.000	21.8	11	-10.0	19.1	2.73	 .0710	24	1	100.0	1
11/26/24	12:09	-8.1	-8.1	-8.1	72	-12.2	10.4	NNW	0.17	10.4	NNW	-15.3	-8.2	-15.4	723.8	0.018	0.000	21.8	11	-10.0	19.1	2.73	 .0710	23	1	100.0	1
11/26/24	12:10	-8.1	-8.1	-8.1	72	-12.3	9.6	NNW	0.16	11.3	NNW	-15.0	-8.3	-15.2	723.8	0.018	0.000	21.8	11	-10.0	19.2	2.72	 .0710	23	1	100.0	1
11/26/24	12:11	-8.1	-8.1	-8.1	72	-12.3	10.4	NNW	0.17	12.2	NNW	-15.3	-8.3	-15.5	723.8	0.018	0.000	21.8	11	-10.0	19.2	2.72	 .0710	24	1	100.0	1
11/26/24	12:12	-8.1	-8.1	-8.1	72	-12.3	10.4	NNW	0.17	12.2	NNW	-15.3	-8.3	-15.5	723.8	0.018	0.000	21.8	11	-10.0	19.2	2.72	 .0710	23	1	100.0	1
11/26/24	12:13	-8.1	-8.1	-8.1	72	-12.3	9.6	NNW	0.16	11.3	NNW	-15.0	-8.3	-15.2	723.8	0.018	0.000	21.8	11	-10.0	19.2	2.72	 .0710	24	1	100.0	1
11/26/24	12:14	-8.1	-8.1	-8.2	72	-12.3	9.6	NNW	0.16	10.4	NNW	-15.0	-8.3	-15.2	723.7	0.018	0.000	21.8	11	-10.0	19.2	2.72	 .0710	23	1	100.0	1
11/26/24	12:15	-8.2	-8.1	-8.2	72	-12.3	9.6	NNW	0.16	10.4	NNW	-15.1	-8.3	-15.2	723.8	0.018	0.000	21.8	11	-10.0	19.2	2.72	 .0710	23	1	100.0	1
11/26/24	12:16	-8.1	-8.1	-8.2	72	-12.3	8.7	NW	0.14	9.6	NNW	-14.7	-8.3	-14.8	723.8	0.018	0.000	21.9	11	-9.9	19.2	2.72	 .0710	24	1	100.0	1
11/26/24	12:17	-8.2	-8.2	-8.2	72	-12.3	9.6	NNW	0.16	10.4	NNW	-15.1	-8.3	-15.2	723.8	0.018	0.000	21.9	11	-9.9	19.2	2.72	 .0710	23	1	100.0	1
11/26/24	12:18	-8.2	-8.2	-8.2	73	-12.2	9.6	NNW	0.16	11.3	NNW	-15.1	-8.3	-15.2	723.8	0.018	0.000	21.9	11	-9.9	19.2	2.72	 .0710	24	1	100.0	1
11/26/24	12:19	-8.2	-8.2	-8.2	73	-12.2	10.4	NNW	0.17	12.2	NNW	-15.4	-8.3	-15.6	723.8	0.018	0.000	21.9	11	-9.9	19.2	2.72	 .0710	23	1	100.0	1
11/26/24	12:20	-8.1	-8.1	-8.2	73	-12.1	10.4	NNW	0.17	12.2	NNW	-15.3	-8.3	-15.5	723.8	0.018	0.000	21.9	11	-9.9	19.2	2.72	 .0710	24	1	100.0	1
11/26/24	12:21	-8.1	-8.1	-8.1	73	-12.1	10.4	NNW	0.17	11.3	NNW	-15.3	-8.3	-15.5	723.8	0.018	0.000	21.9	11	-9.9	19.2	2.72	 .0710	23	1	100.0	1
11/26/24	12:22	-8.1	-8.1	-8.1	73	-12.1	9.6	NNW	0.16	11.3	NNW	-15.0	-8.3	-15.2	723.7	0.018	0.000	21.9	11	-9.9	19.2	2.72	 .0710	23	1	100.0	1
11/26/24	12:23	-8.1	-8.1	-8.1	73	-12.0	10.4	NNW	0.17	11.3	NNW	-15.3	-8.2	-15.4	723.7	0.018	0.000	21.9	11	-9.9	19.2	2.72	 .0710	24	1	100.0	1
11/26/24	12:24	-8.1	-8.1	-8.1	73	-12.1	11.3	NW	0.19	13.9	NW	-15.6	-8.3	-15.8	723.8	0.018	0.000	21.9	11	-9.9	19.2	2.72	 .0710	23	1	100.0	1
11/26/24	12:25	-8.1	-8.1	-8.1	73	-12.1	10.4	NNW	0.17	11.3	NNW	-15.3	-8.3	-15.5	723.7	0.018	0.000	21.9	11	-9.9	19.2	2.72	 .0709	24	1	100.0	1
11/26/24	12:26	-8.2	-8.1	-8.2	73	-12.2	11.3	NNW	0.19	12.2	NW	-15.7	-8.3	-15.8	723.7	0.018	0.000	21.9	11	-9.9	19.2	2.72	 .0710	23	1	100.0	1
11/26/24	12:27	-8.1	-8.1	-8.2	73	-12.1	10.4	NW	0.17	12.2	NW	-15.3	-8.3	-15.5	723.7	0.018	0.000	21.9	11	-9.9	19.2	2.72	 .0710	24	1	100.0	1
11/26/24	12:28	-8.1	-8.1	-8.1	73	-12.1	8.7	NNW	0.14	9.6	NNW	-14.7	-8.3	-14.8	723.7	0.018	0.000	21.8	11	-10.0	19.2	2.72	 .0710	23	1	100.0	1
11/26/24	12:29	-8.1	-8.1	-8.1	73	-12.1	8.7	NNW	0.14	9.6	NNW	-14.7	-8.3	-14.8	723.7	0.018	0.000	21.9	11	-9.9	19.2	2.72	 .0709	23	1	100.0	1
11/26/24	12:30	-8.1	-8.1	-8.1	73	-12.1	10.4	NW	0.17	12.2	NNW	-15.3	-8.3	-15.5	723.7	0.018	0.000	21.8	11	-10.0	19.2	2.72	 .0710	24	1	100.0	1
11/26/24	12:31	-8.1	-8.1	-8.1	73	-12.1	10.4	NW	0.17	12.2	NW	-15.3	-8.3	-15.5	723.7	0.018	0.000	21.8	11	-10.0	19.2	2.72	 .0710	23	1	100.0	1
11/26/24	12:32	-8.1	-8.1	-8.1	73	-12.1	11.3	NNW	0.19	12.2	NW	-15.6	-8.3	-15.8	723.7	0.018	0.000	21.8	11	-10.0	19.2	2.72	 .0710	24	1	100.0	1
11/26/24	12:33	-8.2	-8.1	-8.2	73	-12.2	10.4	NNW	0.17	11.3	NNW	-15.4	-8.3	-15.6	723.7	0.018	0.000	21.8	11	-10.0	19.2	2.72	 .0710	23	1	100.0	1
11/26/24	12:34	-8.2	-8.2	-8.2	73	-12.2	10.4	NNW	0.17	12.2	NNW	-15.4	-8.3	-15.6	723.7	0.018	0.000	21.8	11	-10.0	19.2	2.72	 .0710	23	1	100.0	1
11/26/24	12:35	-8.2	-8.2	-8.2	73	-12.2	10.4	NNW	0.17	12.2	NNW	-15.4	-8.3	-15.6	723.7	0.018	0.000	21.8	11	-10.0	19.2	2.72	 .0710	24	1	100.0	1
11/26/24	12:36	-8.2	-8.2	-8.2	73	-12.2	8.7	NNW	0.14	10.4	NW	-14.8	-8.4	-14.9	723.7	0.018	0.000	21.8	11	-10.0	19.2	2.72	 .0710	23	1	100.0	1
11/26/24	12:37	-8.2	-8.2	-8.2	73	-12.2	9.6	NNW	0.16	11.3	NNW	-15.1	-8.3	-15.2	723.7	0.018	0.000	21.8	11	-10.0	19.2	2.72	 .0710	24	1	100.0	1
11/26/24	12:38	-8.2	-8.2	-8.2	73	-12.2	10.4	NNW	0.17	12.2	NNW	-15.4	-8.4	-15.6	723.7	0.018	0.000	21.8	11	-10.0	19.2	2.72	 .0710	23	1	100.0	1
11/26/24	12:39	-8.2	-8.2	-8.2	73	-12.2	9.6	NNW	0.16	10.4	NW	-15.1	-8.4	-15.3	723.7	0.018	0.000	21.8	11	-10.0	19.1	2.73	 .0710	23	1	100.0	1
11/26/24	12:40	-8.2	-8.2	-8.2	74	-12.0	9.6	NNW	0.16	11.3	NNW	-15.1	-8.3	-15.2	723.7	0.018	0.000	21.8	11	-10.0	19.1	2.73	 .0710	24	1	100.0	1
11/26/24	12:41	-8.2	-8.2	-8.2	74	-12.0	10.4	NNW	0.17	12.2	NNW	-15.4	-8.3	-15.5	723.7	0.018	0.000	21.8	11	-10.0	19.1	2.73	 .0710	23	1	100.0	1
11/26/24	12:42	-8.1	-8.1	-8.2	74	-11.9	10.4	NW	0.17	12.2	NW	-15.3	-8.3	-15.5	723.7	0.018	0.000	21.8	11	-10.0	19.1	2.73	 .0710	24	1	100.0	1
11/26/24	12:43	-8.1	-8.1	-8.2	74	-11.9	10.4	NW	0.17	12.2	NNW	-15.3	-8.3	-15.5	723.7	0.018	0.000	21.8	11	-10.0	19.1	2.73	 .0710	23	1	100.0	1
11/26/24	12:44	-8.2	-8.1	-8.2	74	-12.0	9.6	NNW	0.16	11.3	NNW	-15.1	-8.3	-15.2	723.7	0.018	0.000	21.7	11	-10.1	19.0	2.73	 .0710	24	1	100.0	1
11/26/24	12:45	-8.2	-8.1	-8.2	73	-12.2	9.6	NW	0.16	10.4	NNW	-15.1	-8.3	-15.2	723.7	0.018	0.000	21.7	11	-10.1	19.0	2.73	 .0710	23	1	100.0	1
11/26/24	12:46	-8.2	-8.1	-8.2	73	-12.2	9.6	NNW	0.16	11.3	NNW	-15.1	-8.3	-15.2	723.7	0.018	0.000	21.7	11	-10.1	19.0	2.73	 .0710	23	1	100.0	1
11/26/24	12:47	-8.2	-8.1	-8.2	73	-12.2	10.4	NNW	0.17	11.3	NNW	-15.4	-8.3	-15.6	723.7	0.018	0.000	21.7	11	-10.1	19.0	2.73	 .0710	24	1	100.0	1
11/26/24	12:48	-8.2	-8.2	-8.2	73	-12.2	9.6	NNW	0.16	11.3	NW	-15.1	-8.3	-15.2	723.7	0.018	0.000	21.7	11	-10.1	19.0	2.73	 .0710	23	1	100.0	1
11/26/24	12:49	-8.2	-8.2	-8.2	73	-12.2	9.6	NW	0.16	11.3	NW	-15.1	-8.3	-15.2	723.7	0.018	0.000	21.7	11	-10.1	19.0	2.73	 .0710	24	1	100.0	1
11/26/24	12:50	-8.2	-8.2	-8.2	73	-12.2	10.4	NW	0.17	12.2	NW	-15.4	-8.3	-15.6	723.7	0.018	0.000	21.7	11	-10.1	19.0	2.73	 .0710	23	1	100.0	1
11/26/24	12:51	-8.2	-8.2	-8.2	73	-12.2	10.4	NW	0.17	11.3	NW	-15.4	-8.4	-15.6	723.6	0.018	0.000	21.7	11	-10.1	19.0	2.73	 .0710	23	1	100.0	1
11/26/24	12:52	-8.2	-8.2	-8.2	73	-12.2	11.3	NW	0.19	12.2	NW	-15.8	-8.4	-15.9	723.6	0.018	0.000	21.7	11	-10.1	19.0	2.73	 .0710	24	1	100.0	1
11/26/24	12:53	-8.2	-8.2	-8.2	73	-12.2	11.3	NW	0.19	12.2	NNW	-15.8	-8.4	-15.9	723.6	0.018	0.000	21.7	11	-10.1	19.0	2.73	 .0710	23	1	100.0	1
11/26/24	12:54	-8.2	-8.2	-8.2	73	-12.2	9.6	NNW	0.16	11.3	NNW	-15.1	-8.4	-15.3	723.6	0.018	0.000	21.7	11	-10.1	19.0	2.73	 .0710	24	1	100.0	1
11/26/24	12:55	-8.2	-8.2	-8.2	74	-12.0	11.3	NNW	0.19	12.2	NNW	-15.8	-8.3	-15.9	723.6	0.018	0.000	21.7	11	-10.1	19.0	2.73	 .0710	23	1	100.0	1
11/26/24	12:56	-8.2	-8.2	-8.2	74	-12.0	10.4	NNW	0.17	12.2	NNW	-15.4	-8.3	-15.6	723.7	0.018	0.000	21.7	11	-10.1	18.9	2.73	 .0710	24	1	100.0	1
11/26/24	12:57	-8.2	-8.2	-8.2	74	-12.0	10.4	NNW	0.17	11.3	NW	-15.4	-8.3	-15.6	723.6	0.018	0.000	21.7	11	-10.1	19.0	2.73	 .0710	23	1	100.0	1
11/26/24	12:58	-8.2	-8.2	-8.2	74	-12.0	9.6	NNW	0.16	11.3	NNW	-15.1	-8.3	-15.2	723.7	0.018	0.000	21.7	11	-10.1	18.9	2.73	 .0710	23	1	100.0	1
11/26/24	12:59	-8.2	-8.2	-8.2	74	-12.0	10.4	NW	0.17	12.2	NW	-15.4	-8.3	-15.5	723.7	0.018	0.000	21.7	11	-10.1	18.9	2.73	 .0710	24	1	100.0	1
11/26/24	13:00	-8.2	-8.2	-8.2	74	-12.0	10.4	NNW	0.17	11.3	NW	-15.4	-8.3	-15.5	723.7	0.018	0.000	21.7	11	-10.1	18.9	2.73	 .0710	23	1	100.0	1
11/26/24	13:01	-8.2	-8.2	-8.2	74	-12.0	9.6	NW	0.16	11.3	NNW	-15.1	-8.3	-15.2	723.6	0.018	0.000	21.7	11	-10.1	18.9	2.73	 .0710	24	1	100.0	1
11/26/24	13:02	-8.2	-8.2	-8.2	74	-12.0	9.6	NNW	0.16	10.4	NNW	-15.1	-8.3	-15.2	723.7	0.018	0.000	21.7	11	-10.1	18.9	2.73	 .0710	23	1	100.0	1
11/26/24	13:03	-8.2	-8.2	-8.2	74	-12.0	9.6	NW	0.16	10.4	NNW	-15.1	-8.3	-15.2	723.7	0.018	0.000	21.7	11	-10.1	18.9	2.73	 .0710	23	1	100.0	1
11/26/24	13:04	-8.2	-8.2	-8.2	74	-12.0	9.6	NW	0.16	10.4	NNW	-15.1	-8.3	-15.2	723.7	0.018	0.000	21.7	11	-10.1	18.9	2.73	 .0710	24	1	100.0	1
11/26/24	13:05	-8.2	-8.2	-8.2	74	-12.0	9.6	NNW	0.16	10.4	NW	-15.1	-8.3	-15.2	723.7	0.018	0.000	21.7	11	-10.1	18.9	2.73	 .0710	23	1	100.0	1
11/26/24	13:06	-8.2	-8.2	-8.2	74	-12.0	9.6	NNW	0.16	12.2	NNW	-15.1	-8.3	-15.2	723.7	0.018	0.000	21.7	11	-10.1	18.9	2.73	 .0710	24	1	100.0	1
11/26/24	13:07	-8.2	-8.2	-8.2	74	-12.0	10.4	NNW	0.17	12.2	NNW	-15.4	-8.3	-15.5	723.7	0.018	0.000	21.7	11	-10.1	18.9	2.73	 .0710	23	1	100.0	1
11/26/24	13:08	-8.2	-8.2	-8.2	74	-12.0	10.4	NNW	0.17	11.3	NNW	-15.4	-8.3	-15.5	723.7	0.018	0.000	21.7	11	-10.1	18.9	2.73	 .0710	23	1	100.0	1
11/26/24	13:09	-8.2	-8.2	-8.2	74	-12.0	10.4	NNW	0.17	11.3	NW	-15.4	-8.3	-15.5	723.7	0.018	0.000	21.7	11	-10.1	18.9	2.73	 .0710	24	1	100.0	1
11/26/24	13:10	-8.2	-8.2	-8.2	74	-12.0	11.3	NW	0.19	12.2	NNW	-15.7	-8.3	-15.8	723.7	0.018	0.000	21.7	11	-10.1	18.9	2.73	 .0710	23	1	100.0	1
11/26/24	13:11	-8.2	-8.2	-8.2	74	-12.0	10.4	NW	0.17	12.2	NNW	-15.4	-8.3	-15.5	723.7	0.018	0.000	21.7	11	-10.1	18.9	2.73	 .0710	24	1	100.0	1
11/26/24	13:12	-8.2	-8.2	-8.2	74	-12.0	11.3	NW	0.19	12.2	NW	-15.7	-8.3	-15.8	723.7	0.018	0.000	21.7	11	-10.1	18.9	2.73	 .0710	23	1	100.0	1
11/26/24	13:13	-8.2	-8.2	-8.2	74	-12.0	11.3	NW	0.19	12.2	NW	-15.7	-8.3	-15.8	723.7	0.018	0.000	21.7	11	-10.1	18.9	2.73	 .0710	24	1	100.0	1
11/26/24	13:14	-8.2	-8.2	-8.2	74	-12.0	9.6	NW	0.16	11.3	NW	-15.1	-8.3	-15.2	723.7	0.018	0.000	21.7	11	-10.1	19.0	2.73	 .0710	23	1	100.0	1
11/26/24	13:15	-8.2	-8.2	-8.2	74	-12.0	9.6	NW	0.16	9.6	NW	-15.1	-8.3	-15.2	723.7	0.018	0.000	21.7	11	-10.1	18.9	2.73	 .0710	23	1	100.0	1
11/26/24	13:16	-8.2	-8.2	-8.2	74	-12.0	9.6	NW	0.16	10.4	NW	-15.1	-8.3	-15.2	723.6	0.018	0.000	21.7	11	-10.1	19.0	2.73	 .0710	24	1	100.0	1
11/26/24	13:17	-8.3	-8.2	-8.3	74	-12.1	7.8	NW	0.13	8.7	NW	-14.5	-8.4	-14.6	723.7	0.018	0.000	21.7	11	-10.1	18.9	2.73	 .0710	23	1	100.0	1
11/26/24	13:18	-8.3	-8.3	-8.3	74	-12.1	8.7	NNW	0.14	9.6	NNW	-14.8	-8.4	-14.9	723.6	0.018	0.000	21.7	11	-10.1	18.9	2.73	 .0710	24	1	100.0	1
11/26/24	13:19	-8.3	-8.3	-8.3	73	-12.3	8.7	NW	0.14	10.4	NW	-14.9	-8.4	-15.1	723.6	0.019	0.000	21.7	11	-10.1	19.0	2.73	 .0710	23	1	100.0	1
11/26/24	13:20	-8.3	-8.3	-8.3	74	-12.1	9.6	NW	0.16	11.3	NW	-15.3	-8.4	-15.4	723.6	0.019	0.000	21.7	11	-10.1	19.0	2.73	 .0710	23	1	100.0	1
11/26/24	13:21	-8.3	-8.3	-8.3	74	-12.1	9.6	NW	0.16	9.6	NW	-15.3	-8.4	-15.4	723.7	0.019	0.000	21.7	11	-10.1	19.0	2.73	 .0710	24	1	100.0	1
11/26/24	13:22	-8.3	-8.3	-8.3	74	-12.1	9.6	NW	0.16	10.4	NW	-15.3	-8.4	-15.4	723.6	0.019	0.000	21.7	11	-10.1	19.0	2.73	 .0710	23	1	100.0	1
11/26/24	13:23	-8.4	-8.3	-8.4	74	-12.2	9.6	NW	0.16	10.4	NW	-15.3	-8.5	-15.4	723.6	0.019	0.000	21.7	11	-10.1	19.0	2.73	 .0710	24	1	100.0	1
11/26/24	13:24	-8.3	-8.3	-8.3	74	-12.1	8.7	NW	0.14	9.6	NW	-14.9	-8.4	-15.1	723.6	0.019	0.000	21.7	11	-10.1	19.0	2.73	 .0710	23	1	100.0	1
11/26/24	13:25	-8.3	-8.3	-8.3	73	-12.3	8.7	NW	0.14	10.4	NW	-14.9	-8.4	-15.1	723.6	0.019	0.000	21.7	11	-10.1	19.0	2.73	 .0710	24	1	100.0	1
11/26/24	13:26	-8.3	-8.3	-8.3	73	-12.3	9.6	NW	0.16	11.3	NW	-15.3	-8.4	-15.4	723.7	0.019	0.000	21.7	11	-10.1	19.0	2.73	 .0710	23	1	100.0	1
11/26/24	13:27	-8.3	-8.3	-8.3	73	-12.3	8.7	NW	0.14	10.4	NW	-14.9	-8.4	-15.1	723.6	0.019	0.000	21.7	11	-10.1	19.0	2.73	 .0710	23	1	100.0	1
11/26/24	13:28	-8.3	-8.3	-8.3	73	-12.3	9.6	NW	0.16	10.4	NW	-15.3	-8.4	-15.4	723.6	0.019	0.000	21.7	11	-10.1	19.0	2.73	 .0710	24	1	100.0	1
11/26/24	13:29	-8.4	-8.3	-8.4	73	-12.4	9.6	NW	0.16	10.4	NW	-15.3	-8.5	-15.4	723.6	0.019	0.000	21.7	11	-10.1	19.0	2.73	 .0710	23	1	100.0	1
11/26/24	13:30	-8.4	-8.3	-8.4	73	-12.4	10.4	NW	0.17	11.3	NW	-15.7	-8.5	-15.8	723.6	0.019	0.000	21.7	11	-10.1	19.0	2.73	 .0710	24	1	100.0	1
11/26/24	13:31	-8.3	-8.3	-8.3	73	-12.3	8.7	NW	0.14	9.6	NNW	-14.9	-8.4	-15.1	723.6	0.019	0.000	21.7	11	-10.1	19.0	2.73	 .0710	23	1	100.0	1
11/26/24	13:32	-8.3	-8.3	-8.4	73	-12.3	9.6	NW	0.16	10.4	NW	-15.3	-8.4	-15.4	723.6	0.019	0.000	21.7	11	-10.1	19.0	2.73	 .0710	23	1	100.0	1
11/26/24	13:33	-8.4	-8.4	-8.4	73	-12.4	9.6	NW	0.16	10.4	NW	-15.3	-8.5	-15.4	723.6	0.019	0.000	21.7	11	-10.1	19.0	2.73	 .0710	24	1	100.0	1
11/26/24	13:34	-8.4	-8.4	-8.4	73	-12.4	9.6	NW	0.16	10.4	NW	-15.3	-8.5	-15.4	723.6	0.019	0.000	21.7	11	-10.1	19.0	2.73	 .0710	23	1	100.0	1
11/26/24	13:35	-8.4	-8.4	-8.4	73	-12.4	10.4	NNW	0.17	12.2	NW	-15.7	-8.5	-15.8	723.6	0.019	0.000	21.7	11	-10.1	19.0	2.73	 .0710	24	1	100.0	1
11/26/24	13:36	-8.4	-8.4	-8.4	73	-12.4	9.6	NW	0.16	11.3	NNW	-15.3	-8.5	-15.4	723.6	0.019	0.000	21.8	11	-10.0	19.1	2.73	 .0710	23	1	100.0	1
11/26/24	13:37	-8.3	-8.3	-8.4	73	-12.3	7.8	NW	0.13	8.7	NNW	-14.6	-8.4	-14.7	723.6	0.019	0.000	21.8	11	-10.0	19.1	2.73	 .0710	24	1	100.0	1
11/26/24	13:38	-8.3	-8.3	-8.4	73	-12.3	8.7	NW	0.14	10.4	NW	-14.9	-8.4	-15.1	723.6	0.019	0.000	21.7	11	-10.1	19.0	2.73	 .0710	23	1	100.0	1
11/26/24	13:39	-8.4	-8.4	-8.4	73	-12.4	8.7	NNW	0.14	9.6	NW	-15.0	-8.5	-15.1	723.6	0.019	0.000	21.7	11	-10.1	19.0	2.73	 .0710	23	1	100.0	1
11/26/24	13:40	-8.4	-8.4	-8.4	73	-12.4	8.7	NW	0.14	9.6	NNW	-15.0	-8.5	-15.1	723.6	0.019	0.000	21.7	11	-10.1	19.0	2.73	 .0710	24	1	100.0	1
11/26/24	13:41	-8.4	-8.4	-8.4	73	-12.4	8.7	NW	0.14	10.4	NW	-15.0	-8.5	-15.1	723.6	0.019	0.000	21.8	11	-10.0	19.1	2.73	 .0710	23	1	100.0	1
11/26/24	13:42	-8.3	-8.3	-8.4	73	-12.3	9.6	NW	0.16	10.4	NW	-15.3	-8.4	-15.4	723.6	0.019	0.000	21.8	11	-10.0	19.1	2.73	 .0710	24	1	100.0	1
11/26/24	13:43	-8.3	-8.3	-8.3	73	-12.3	9.6	NW	0.16	10.4	NW	-15.3	-8.4	-15.4	723.6	0.019	0.000	21.7	11	-10.1	19.0	2.73	 .0710	23	1	100.0	1
11/26/24	13:44	-8.3	-8.3	-8.3	73	-12.3	9.6	NW	0.16	10.4	NW	-15.3	-8.4	-15.4	723.6	0.019	0.000	21.8	11	-10.0	19.1	2.73	 .0710	23	1	100.0	1
11/26/24	13:45	-8.4	-8.3	-8.4	73	-12.4	10.4	NW	0.17	12.2	NNW	-15.7	-8.5	-15.8	723.6	0.019	0.000	21.8	11	-10.0	19.1	2.73	 .0710	24	1	100.0	1
11/26/24	13:46	-8.3	-8.3	-8.4	73	-12.3	10.4	NW	0.17	13.9	NW	-15.6	-8.4	-15.7	723.6	0.019	0.000	21.7	11	-10.1	19.0	2.73	 .0710	23	1	100.0	1
11/26/24	13:47	-8.3	-8.3	-8.3	73	-12.3	9.6	NW	0.16	12.2	NW	-15.3	-8.4	-15.4	723.6	0.019	0.000	21.7	11	-10.1	19.0	2.73	 .0710	24	1	100.0	1
11/26/24	13:48	-8.3	-8.3	-8.3	73	-12.3	9.6	NW	0.16	11.3	NW	-15.3	-8.4	-15.4	723.6	0.019	0.000	21.7	11	-10.1	19.0	2.73	 .0710	23	1	100.0	1
11/26/24	13:49	-8.4	-8.3	-8.4	73	-12.4	9.6	NW	0.16	11.3	NW	-15.3	-8.5	-15.4	723.6	0.019	0.000	21.8	11	-10.0	19.1	2.73	 .0710	24	1	100.0	1
11/26/24	13:50	-8.4	-8.4	-8.4	73	-12.4	10.4	NW	0.17	12.2	NW	-15.7	-8.5	-15.8	723.5	0.019	0.000	21.7	11	-10.1	19.0	2.73	 .0710	23	1	100.0	1
11/26/24	13:51	-8.4	-8.4	-8.4	73	-12.4	9.6	NW	0.16	12.2	NW	-15.4	-8.6	-15.5	723.6	0.019	0.000	21.8	11	-10.0	19.1	2.73	 .0710	23	1	100.0	1
11/26/24	13:52	-8.4	-8.4	-8.4	73	-12.4	9.6	NW	0.16	11.3	NW	-15.4	-8.6	-15.5	723.5	0.019	0.000	21.8	11	-10.0	19.1	2.73	 .0710	24	1	100.0	1
11/26/24	13:53	-8.5	-8.4	-8.5	73	-12.5	9.6	NW	0.16	10.4	NW	-15.5	-8.6	-15.6	723.5	0.019	0.000	21.8	11	-10.0	19.1	2.73	 .0710	23	1	100.0	1
11/26/24	13:54	-8.5	-8.4	-8.5	73	-12.5	9.6	NW	0.16	10.4	NW	-15.5	-8.6	-15.6	723.6	0.019	0.000	21.8	11	-10.0	19.1	2.73	 .0710	24	1	100.0	1
11/26/24	13:55	-8.5	-8.5	-8.5	73	-12.5	9.6	NW	0.16	11.3	NW	-15.5	-8.6	-15.6	723.6	0.019	0.000	21.8	11	-10.0	19.1	2.73	 .0710	23	1	100.0	1
11/26/24	13:56	-8.5	-8.5	-8.5	73	-12.5	9.6	NW	0.16	11.3	NW	-15.5	-8.6	-15.6	723.6	0.019	0.000	21.8	11	-10.0	19.1	2.73	 .0710	23	1	100.0	1
11/26/24	13:57	-8.5	-8.5	-8.5	73	-12.5	8.7	NW	0.14	10.4	NW	-15.1	-8.6	-15.2	723.6	0.019	0.000	21.8	11	-10.0	19.1	2.73	 .0710	24	1	100.0	1
11/26/24	13:58	-8.4	-8.4	-8.5	73	-12.4	9.6	NNW	0.16	10.4	NNW	-15.4	-8.6	-15.5	723.6	0.019	0.000	21.8	11	-10.0	19.1	2.73	 .0710	23	1	100.0	1
11/26/24	13:59	-8.4	-8.4	-8.5	73	-12.4	10.4	NW	0.17	11.3	NNW	-15.7	-8.6	-15.8	723.6	0.019	0.000	21.8	11	-10.0	19.2	2.72	 .0709	24	1	100.0	1
11/26/24	14:00	-8.5	-8.4	-8.5	73	-12.5	9.6	NW	0.16	10.4	NW	-15.5	-8.6	-15.6	723.6	0.019	0.000	21.8	11	-10.0	19.1	2.73	 .0710	23	1	100.0	1
11/26/24	14:01	-8.5	-8.5	-8.5	73	-12.5	9.6	NNW	0.16	10.4	NNW	-15.5	-8.6	-15.6	723.6	0.019	0.000	21.8	11	-10.0	19.1	2.73	 .0710	23	1	100.0	1
11/26/24	14:02	-8.5	-8.5	-8.5	73	-12.5	11.3	NNW	0.19	12.2	NW	-16.1	-8.6	-16.2	723.6	0.019	0.000	21.8	11	-10.0	19.1	2.73	 .0710	24	1	100.0	1
11/26/24	14:03	-8.5	-8.5	-8.5	73	-12.5	10.4	NNW	0.17	11.3	NNW	-15.8	-8.6	-15.9	723.5	0.019	0.000	21.8	11	-10.0	19.1	2.73	 .0710	23	1	100.0	1
11/26/24	14:04	-8.6	-8.5	-8.6	73	-12.5	10.4	NW	0.17	12.2	NW	-15.9	-8.7	-16.0	723.5	0.019	0.000	21.8	11	-10.0	19.1	2.73	 .0710	24	1	100.0	1
11/26/24	14:05	-8.6	-8.6	-8.6	73	-12.6	10.4	NW	0.17	11.3	NW	-15.9	-8.7	-16.1	723.5	0.019	0.000	21.8	11	-10.0	19.1	2.73	 .0710	23	1	100.0	1
11/26/24	14:06	-8.7	-8.6	-8.7	73	-12.6	10.4	NW	0.17	11.3	NW	-16.0	-8.8	-16.1	723.5	0.019	0.000	21.8	11	-10.0	19.1	2.73	 .0710	24	1	100.0	1
11/26/24	14:07	-8.7	-8.7	-8.7	73	-12.6	11.3	NW	0.19	11.3	NW	-16.3	-8.8	-16.4	723.5	0.019	0.000	21.8	11	-10.0	19.1	2.73	 .0710	23	1	100.0	1
11/26/24	14:08	-8.7	-8.7	-8.7	72	-12.9	10.4	NW	0.17	11.3	NW	-16.1	-8.9	-16.3	723.5	0.019	0.000	21.8	11	-10.0	19.1	2.73	 .0710	23	1	100.0	1
11/26/24	14:09	-8.8	-8.7	-8.8	72	-12.9	10.4	NW	0.17	11.3	NNW	-16.2	-8.9	-16.3	723.5	0.019	0.000	21.8	11	-10.0	19.1	2.73	 .0710	24	1	100.0	1
11/26/24	14:10	-8.8	-8.7	-8.8	72	-12.9	9.6	NW	0.16	11.3	NNW	-15.8	-8.9	-16.0	723.5	0.019	0.000	21.8	11	-10.0	19.1	2.73	 .0710	23	1	100.0	1
11/26/24	14:11	-8.8	-8.8	-8.8	72	-12.9	8.7	NW	0.14	9.6	NW	-15.5	-8.9	-15.7	723.5	0.019	0.000	21.8	11	-10.0	19.1	2.73	 .0710	24	1	100.0	1
11/26/24	14:12	-8.8	-8.8	-8.8	72	-13.0	8.7	NW	0.14	9.6	NW	-15.6	-9.0	-15.7	723.5	0.019	0.000	21.8	11	-10.0	19.1	2.73	 .0710	23	1	100.0	1
11/26/24	14:13	-8.8	-8.8	-8.8	72	-13.0	7.8	NW	0.13	8.7	NW	-15.2	-9.0	-15.3	723.5	0.019	0.000	21.7	11	-10.1	19.0	2.73	 .0710	23	1	100.0	1
11/26/24	14:14	-8.9	-8.8	-8.9	72	-13.0	8.7	NW	0.14	9.6	NW	-15.6	-9.1	-15.8	723.5	0.019	0.000	21.7	11	-10.1	19.0	2.73	 .0710	24	1	100.0	1
11/26/24	14:15	-8.9	-8.9	-8.9	72	-13.0	8.7	NW	0.14	9.6	NW	-15.6	-9.1	-15.8	723.5	0.019	0.000	21.7	11	-10.1	19.0	2.73	 .0710	23	1	100.0	1
11/26/24	14:16	-8.9	-8.9	-8.9	72	-13.1	8.7	NW	0.14	9.6	NW	-15.7	-9.1	-15.8	723.5	0.019	0.000	21.7	11	-10.1	19.0	2.73	 .0710	24	1	100.0	1
11/26/24	14:17	-8.9	-8.9	-8.9	72	-13.1	8.7	NNW	0.14	9.6	NNW	-15.7	-9.1	-15.8	723.5	0.019	0.000	21.7	11	-10.1	19.0	2.73	 .0710	23	1	100.0	1
11/26/24	14:18	-8.9	-8.9	-8.9	72	-13.0	8.7	NNW	0.14	9.6	NNW	-15.6	-9.1	-15.8	723.5	0.019	0.000	21.7	11	-10.1	19.0	2.73	 .0710	24	1	100.0	1
11/26/24	14:19	-8.9	-8.9	-8.9	72	-13.0	8.7	NW	0.14	8.7	NNW	-15.6	-9.1	-15.8	723.6	0.019	0.000	21.7	11	-10.1	19.0	2.73	 .0710	23	1	100.0	1
11/26/24	14:20	-8.9	-8.9	-8.9	72	-13.1	8.7	NW	0.14	9.6	NW	-15.7	-9.1	-15.8	723.6	0.019	0.000	21.7	11	-10.1	19.0	2.73	 .0710	23	1	100.0	1
11/26/24	14:21	-8.9	-8.9	-8.9	72	-13.1	8.7	NNW	0.14	9.6	NNW	-15.7	-9.1	-15.8	723.6	0.019	0.000	21.7	11	-10.1	19.0	2.73	 .0710	24	1	100.0	1
11/26/24	14:22	-8.9	-8.9	-8.9	72	-13.0	8.7	NNW	0.14	10.4	NW	-15.6	-9.1	-15.8	723.6	0.019	0.000	21.7	11	-10.1	19.0	2.73	 .0710	23	1	100.0	1
11/26/24	14:23	-8.9	-8.9	-8.9	72	-13.0	9.6	NW	0.16	10.4	NW	-15.9	-9.1	-16.1	723.6	0.019	0.000	21.7	11	-10.1	19.0	2.73	 .0710	24	1	100.0	1
11/26/24	14:24	-8.9	-8.9	-8.9	72	-13.0	8.7	NW	0.14	8.7	NW	-15.6	-9.1	-15.8	723.6	0.019	0.000	21.7	11	-10.1	19.0	2.73	 .0710	23	1	100.0	1
11/26/24	14:25	-8.9	-8.9	-8.9	71	-13.2	8.7	NW	0.14	9.6	NW	-15.6	-9.1	-15.8	723.6	0.019	0.000	21.7	11	-10.1	19.0	2.73	 .0710	23	1	100.0	1
11/26/24	14:26	-8.9	-8.9	-8.9	71	-13.2	7.8	NW	0.13	9.6	NW	-15.2	-9.1	-15.4	723.6	0.019	0.000	21.7	11	-10.1	19.0	2.73	 .0710	24	1	100.0	1
11/26/24	14:27	-8.9	-8.9	-8.9	72	-13.0	8.7	NW	0.14	9.6	NNW	-15.6	-9.1	-15.8	723.6	0.019	0.000	21.8	11	-10.0	19.1	2.73	 .0710	23	1	100.0	1
11/26/24	14:28	-8.9	-8.9	-8.9	72	-13.0	8.7	NW	0.14	11.3	NNW	-15.6	-9.1	-15.8	723.6	0.019	0.000	21.7	11	-10.1	19.0	2.73	 .0710	24	1	100.0	1
11/26/24	14:29	-8.9	-8.8	-8.9	72	-13.0	9.6	NW	0.16	10.4	NW	-15.9	-9.1	-16.1	723.6	0.019	0.000	21.8	11	-10.0	19.1	2.73	 .0710	23	1	100.0	1
11/26/24	14:30	-8.8	-8.8	-8.9	72	-13.0	8.7	NW	0.14	11.3	NNW	-15.6	-9.0	-15.7	723.5	0.019	0.000	21.8	11	-10.0	19.1	2.73	 .0710	24	1	100.0	1
11/26/24	14:31	-8.8	-8.8	-8.8	72	-13.0	9.6	NW	0.16	11.3	NNW	-15.9	-9.0	-16.1	723.6	0.019	0.000	21.8	11	-10.0	19.1	2.73	 .0710	23	1	100.0	1
11/26/24	14:32	-8.8	-8.8	-8.8	72	-12.9	8.7	NW	0.14	9.6	NW	-15.5	-8.9	-15.7	723.6	0.019	0.000	21.8	11	-10.0	19.1	2.73	 .0710	23	1	100.0	1
11/26/24	14:33	-8.8	-8.8	-8.8	72	-12.9	9.6	NW	0.16	11.3	NW	-15.8	-8.9	-16.0	723.6	0.019	0.000	21.8	11	-10.0	19.2	2.72	 .0709	24	1	100.0	1
11/26/24	14:34	-8.8	-8.8	-8.8	72	-12.9	9.6	NW	0.16	11.3	NW	-15.8	-8.9	-16.0	723.6	0.019	0.000	21.8	11	-10.0	19.2	2.72	 .0709	23	1	100.0	1
11/26/24	14:35	-8.8	-8.8	-8.8	72	-12.9	8.7	NW	0.14	9.6	NW	-15.5	-8.9	-15.7	723.6	0.019	0.000	21.8	11	-10.0	19.2	2.72	 .0710	24	1	100.0	1
11/26/24	14:36	-8.8	-8.8	-8.8	71	-13.1	8.7	NW	0.14	8.7	NW	-15.6	-9.0	-15.7	723.6	0.019	0.000	21.8	11	-10.0	19.2	2.72	 .0710	23	1	100.0	1
11/26/24	14:37	-8.9	-8.8	-8.9	71	-13.2	8.7	NW	0.14	9.6	NW	-15.6	-9.1	-15.8	723.6	0.019	0.000	21.8	11	-10.0	19.2	2.72	 .0709	23	1	100.0	1
11/26/24	14:38	-8.9	-8.9	-8.9	71	-13.2	8.7	NW	0.14	9.6	NW	-15.6	-9.1	-15.8	723.6	0.019	0.000	21.8	11	-10.0	19.2	2.72	 .0709	24	1	100.0	1
11/26/24	14:39	-8.8	-8.8	-8.9	71	-13.1	9.6	NW	0.16	10.4	NW	-15.9	-9.0	-16.1	723.6	0.019	0.000	21.8	11	-10.0	19.2	2.72	 .0710	23	1	100.0	1
11/26/24	14:40	-8.8	-8.8	-8.8	72	-13.0	9.6	NW	0.16	12.2	NW	-15.9	-9.0	-16.1	723.6	0.019	0.000	21.8	11	-10.0	19.2	2.72	 .0709	24	1	100.0	1
11/26/24	14:41	-8.8	-8.8	-8.8	71	-13.1	9.6	NW	0.16	11.3	NW	-15.9	-9.0	-16.1	723.6	0.019	0.000	21.8	11	-10.0	19.2	2.72	 .0709	23	1	100.0	1
11/26/24	14:42	-8.8	-8.8	-8.8	71	-13.1	10.4	NW	0.17	12.2	NW	-16.2	-9.0	-16.4	723.6	0.019	0.000	21.8	11	-10.0	19.2	2.72	 .0709	24	1	100.0	1
11/26/24	14:43	-8.8	-8.8	-8.8	72	-12.9	8.7	NNW	0.14	9.6	NW	-15.5	-8.9	-15.7	723.6	0.019	0.000	21.8	11	-10.0	19.2	2.72	 .0710	23	1	100.0	1
11/26/24	14:44	-8.8	-8.8	-8.8	72	-12.9	8.7	NNW	0.14	9.6	NNW	-15.5	-8.9	-15.7	723.6	0.019	0.000	21.8	11	-10.0	19.2	2.72	 .0709	23	1	100.0	1
11/26/24	14:45	-8.7	-8.7	-8.8	72	-12.9	8.7	NW	0.14	9.6	NNW	-15.4	-8.9	-15.6	723.6	0.019	0.000	21.8	11	-10.0	19.2	2.72	 .0709	24	1	100.0	1
11/26/24	14:46	-8.7	-8.7	-8.7	72	-12.9	7.8	NW	0.13	9.6	NW	-15.0	-8.9	-15.2	723.6	0.019	0.000	21.8	11	-10.0	19.1	2.73	 .0710	23	1	100.0	1
11/26/24	14:47	-8.7	-8.7	-8.7	72	-12.9	9.6	NW	0.16	10.4	NNW	-15.8	-8.9	-15.9	723.6	0.019	0.000	21.8	11	-10.0	19.1	2.73	 .0710	24	1	100.0	1
11/26/24	14:48	-8.8	-8.7	-8.8	72	-12.9	8.7	NW	0.14	9.6	NW	-15.5	-8.9	-15.7	723.6	0.019	0.000	21.8	11	-10.0	19.1	2.73	 .0710	23	1	100.0	1
11/26/24	14:49	-8.8	-8.8	-8.8	72	-12.9	9.6	NW	0.16	10.4	NW	-15.8	-8.9	-16.0	723.6	0.019	0.000	21.8	11	-10.0	19.1	2.73	 .0710	23	1	100.0	1
11/26/24	14:50	-8.8	-8.8	-8.8	72	-12.9	8.7	NW	0.14	11.3	NW	-15.5	-8.9	-15.7	723.6	0.019	0.000	21.8	11	-10.0	19.1	2.73	 .0710	24	1	100.0	1
11/26/24	14:51	-8.8	-8.8	-8.8	72	-13.0	9.6	NW	0.16	10.4	NNW	-15.9	-9.0	-16.1	723.6	0.019	0.000	21.8	11	-10.0	19.1	2.73	 .0710	23	1	100.0	1
11/26/24	14:52	-8.8	-8.8	-8.8	72	-13.0	9.6	NW	0.16	10.4	NW	-15.9	-9.0	-16.1	723.6	0.019	0.000	21.8	11	-10.0	19.1	2.73	 .0710	24	1	100.0	1
11/26/24	14:53	-8.8	-8.8	-8.8	72	-13.0	10.4	NNW	0.17	12.2	NNW	-16.2	-9.0	-16.4	723.6	0.019	0.000	21.8	11	-10.0	19.1	2.73	 .0710	23	1	100.0	1
11/26/24	14:54	-8.8	-8.8	-8.8	72	-12.9	10.4	NW	0.17	12.2	NW	-16.2	-8.9	-16.3	723.6	0.019	0.000	21.8	11	-10.0	19.1	2.73	 .0710	24	1	100.0	1
11/26/24	14:55	-8.8	-8.8	-8.8	72	-13.0	8.7	NNW	0.14	9.6	NNW	-15.6	-9.0	-15.7	723.7	0.019	0.000	21.8	11	-10.0	19.1	2.73	 .0710	23	1	100.0	1
11/26/24	14:56	-8.8	-8.8	-8.8	72	-13.0	8.7	NNW	0.14	9.6	NNW	-15.6	-9.0	-15.7	723.7	0.019	0.000	21.8	11	-10.0	19.1	2.73	 .0710	23	1	100.0	1
11/26/24	14:57	-8.8	-8.8	-8.8	72	-13.0	8.7	NW	0.14	8.7	NNW	-15.6	-9.0	-15.7	723.7	0.019	0.000	21.8	11	-10.0	19.1	2.73	 .0710	24	1	100.0	1
11/26/24	14:58	-8.9	-8.8	-8.9	72	-13.0	10.4	NW	0.17	11.3	NW	-16.3	-9.1	-16.4	723.7	0.019	0.000	21.7	11	-10.1	19.0	2.73	 .0710	23	1	100.0	1
11/26/24	14:59	-8.8	-8.8	-8.9	72	-13.0	9.6	NW	0.16	12.2	NW	-15.9	-9.0	-16.1	723.7	0.019	0.000	21.7	11	-10.1	19.0	2.73	 .0710	24	1	100.0	1
11/26/24	15:00	-8.8	-8.8	-8.8	72	-12.9	11.3	NW	0.19	12.2	NNW	-16.4	-8.9	-16.6	723.7	0.019	0.000	21.7	11	-10.1	19.0	2.73	 .0710	23	1	100.0	1
11/26/24	15:01	-8.8	-8.8	-8.8	72	-12.9	8.7	NW	0.14	11.3	NNW	-15.5	-8.9	-15.7	723.6	0.019	0.000	21.7	11	-10.1	19.0	2.73	 .0710	23	1	100.0	1
11/26/24	15:02	-8.8	-8.8	-8.8	72	-12.9	9.6	NNW	0.16	10.4	NNW	-15.8	-8.9	-16.0	723.6	0.019	0.000	21.7	11	-10.1	19.0	2.73	 .0710	24	1	100.0	1
11/26/24	15:03	-8.8	-8.8	-8.8	72	-12.9	10.4	NNW	0.17	12.2	NW	-16.2	-8.9	-16.3	723.7	0.019	0.000	21.7	11	-10.1	19.0	2.73	 .0710	23	1	100.0	1
11/26/24	15:04	-8.8	-8.8	-8.8	72	-12.9	9.6	NW	0.16	10.4	NW	-15.8	-8.9	-16.0	723.7	0.019	0.000	21.7	11	-10.1	19.0	2.73	 .0710	24	1	100.0	1
11/26/24	15:05	-8.8	-8.8	-8.8	72	-12.9	8.7	NW	0.14	9.6	NW	-15.5	-8.9	-15.7	723.7	0.019	0.000	21.7	11	-10.1	19.0	2.73	 .0710	23	1	100.0	1
11/26/24	15:06	-8.8	-8.8	-8.8	72	-12.9	8.7	NW	0.14	9.6	NW	-15.5	-8.9	-15.7	723.7	0.019	0.000	21.7	11	-10.1	19.0	2.73	 .0710	23	1	100.0	1
11/26/24	15:07	-8.8	-8.8	-8.8	72	-12.9	10.4	NW	0.17	12.2	NW	-16.2	-8.9	-16.3	723.7	0.019	0.000	21.7	11	-10.1	19.0	2.73	 .0710	24	1	100.0	1
11/26/24	15:08	-8.7	-8.7	-8.8	72	-12.9	8.7	NW	0.14	10.4	NW	-15.4	-8.9	-15.6	723.7	0.019	0.000	21.7	11	-10.1	19.0	2.73	 .0710	23	1	100.0	1
11/26/24	15:09	-8.7	-8.7	-8.7	72	-12.9	7.0	NW	0.12	7.8	NW	-14.6	-8.9	-14.8	723.7	0.019	0.000	21.7	11	-10.1	19.0	2.73	 .0710	24	1	100.0	1
11/26/24	15:10	-8.8	-8.7	-8.8	72	-12.9	7.8	NW	0.13	8.7	NW	-15.1	-8.9	-15.3	723.7	0.019	0.000	21.7	11	-10.1	19.0	2.73	 .0710	23	1	100.0	1
11/26/24	15:11	-8.8	-8.8	-8.8	72	-12.9	9.6	NW	0.16	11.3	NW	-15.8	-8.9	-16.0	723.7	0.019	0.000	21.7	11	-10.1	19.0	2.73	 .0710	24	1	100.0	1
11/26/24	15:12	-8.8	-8.8	-8.8	72	-12.9	9.6	NW	0.16	10.4	NW	-15.8	-8.9	-16.0	723.7	0.019	0.000	21.7	11	-10.1	18.9	2.73	 .0710	23	1	100.0	1
11/26/24	15:13	-8.8	-8.8	-8.8	72	-12.9	8.7	NW	0.14	9.6	NW	-15.5	-8.9	-15.7	723.7	0.019	0.000	21.7	11	-10.1	18.9	2.73	 .0710	23	1	100.0	1
11/26/24	15:14	-8.8	-8.8	-8.8	72	-12.9	9.6	NW	0.16	10.4	NW	-15.8	-8.9	-16.0	723.7	0.019	0.000	21.7	11	-10.1	18.9	2.73	 .0710	24	1	100.0	1
11/26/24	15:15	-8.8	-8.8	-8.8	72	-12.9	9.6	NNW	0.16	10.4	NNW	-15.8	-8.9	-16.0	723.7	0.019	0.000	21.7	11	-10.1	18.9	2.73	 .0710	23	1	100.0	1
11/26/24	15:16	-8.8	-8.8	-8.8	72	-12.9	9.6	NW	0.16	11.3	NW	-15.8	-8.9	-16.0	723.7	0.019	0.000	21.7	11	-10.1	18.9	2.73	 .0710	24	1	100.0	1
11/26/24	15:17	-8.8	-8.8	-8.8	72	-12.9	9.6	NW	0.16	10.4	NW	-15.8	-8.9	-16.0	723.7	0.019	0.000	21.7	11	-10.1	18.9	2.73	 .0710	23	1	100.0	1
11/26/24	15:18	-8.8	-8.8	-8.8	72	-12.9	9.6	NW	0.16	11.3	NW	-15.8	-8.9	-16.0	723.7	0.019	0.000	21.7	11	-10.1	18.9	2.73	 .0710	23	1	100.0	1
11/26/24	15:19	-8.8	-8.8	-8.8	72	-12.9	9.6	NW	0.16	11.3	NW	-15.8	-8.9	-16.0	723.7	0.019	0.000	21.7	11	-10.1	18.9	2.73	 .0710	24	1	100.0	1
11/26/24	15:20	-8.8	-8.8	-8.8	72	-12.9	8.7	NW	0.14	9.6	NW	-15.5	-8.9	-15.7	723.7	0.019	0.000	21.7	11	-10.1	18.9	2.73	 .0710	23	1	100.0	1
11/26/24	15:21	-8.8	-8.8	-8.8	72	-12.9	9.6	NW	0.16	9.6	NW	-15.8	-8.9	-16.0	723.7	0.019	0.000	21.7	11	-10.1	18.9	2.73	 .0710	24	1	100.0	1
11/26/24	15:22	-8.8	-8.8	-8.8	72	-13.0	9.6	NW	0.16	10.4	NW	-15.9	-9.0	-16.1	723.7	0.019	0.000	21.7	11	-10.1	18.9	2.73	 .0710	23	1	100.0	1
11/26/24	15:23	-8.8	-8.8	-8.8	72	-13.0	9.6	NW	0.16	10.4	NW	-15.9	-9.0	-16.1	723.7	0.019	0.000	21.7	11	-10.1	18.9	2.73	 .0710	24	1	100.0	1
11/26/24	15:24	-8.8	-8.8	-8.8	72	-13.0	8.7	NNW	0.14	10.4	NW	-15.6	-9.0	-15.7	723.7	0.019	0.000	21.7	11	-10.1	18.9	2.73	 .0710	23	1	100.0	1
11/26/24	15:25	-8.8	-8.8	-8.8	72	-12.9	9.6	NNW	0.16	10.4	NNW	-15.8	-8.9	-16.0	723.7	0.019	0.000	21.7	11	-10.1	18.9	2.73	 .0710	23	1	100.0	1
11/26/24	15:26	-8.8	-8.8	-8.8	72	-12.9	8.7	NNW	0.14	10.4	NNW	-15.5	-8.9	-15.7	723.7	0.019	0.000	21.7	11	-10.1	18.9	2.73	 .0710	24	1	100.0	1
11/26/24	15:27	-8.8	-8.8	-8.8	72	-12.9	9.6	NW	0.16	10.4	NW	-15.8	-8.9	-16.0	723.7	0.019	0.000	21.7	11	-10.1	18.9	2.73	 .0710	23	1	100.0	1
11/26/24	15:28	-8.8	-8.8	-8.8	72	-13.0	9.6	NW	0.16	11.3	NW	-15.9	-9.0	-16.1	723.7	0.019	0.000	21.7	11	-10.1	18.9	2.73	 .0710	24	1	100.0	1
11/26/24	15:29	-8.8	-8.8	-8.8	72	-13.0	9.6	NW	0.16	11.3	NW	-15.9	-9.0	-16.1	723.7	0.019	0.000	21.7	11	-10.1	18.9	2.73	 .0710	23	1	100.0	1
11/26/24	15:30	-8.8	-8.8	-8.8	72	-12.9	9.6	NW	0.16	10.4	NW	-15.8	-8.9	-16.0	723.7	0.019	0.000	21.7	11	-10.1	18.9	2.73	 .0710	23	1	100.0	1
11/26/24	15:31	-8.8	-8.8	-8.8	72	-12.9	9.6	NW	0.16	10.4	NW	-15.8	-8.9	-16.0	723.7	0.019	0.000	21.7	11	-10.1	18.9	2.73	 .0710	24	1	100.0	1
11/26/24	15:32	-8.8	-8.8	-8.8	72	-12.9	9.6	NW	0.16	10.4	NW	-15.8	-8.9	-16.0	723.7	0.019	0.000	21.7	11	-10.1	18.9	2.73	 .0710	23	1	100.0	1
11/26/24	15:33	-8.8	-8.8	-8.8	72	-12.9	10.4	NW	0.17	11.3	NNW	-16.2	-8.9	-16.3	723.7	0.019	0.000	21.7	11	-10.1	19.0	2.73	 .0710	24	1	100.0	1
11/26/24	15:34	-8.8	-8.8	-8.8	72	-13.0	10.4	NW	0.17	11.3	NW	-16.2	-9.0	-16.4	723.7	0.019	0.000	21.7	11	-10.1	19.0	2.73	 .0710	23	1	100.0	1
11/26/24	15:35	-8.8	-8.8	-8.8	72	-12.9	10.4	NW	0.17	12.2	NW	-16.2	-8.9	-16.3	723.7	0.019	0.000	21.7	11	-10.1	19.0	2.73	 .0710	24	1	100.0	1
11/26/24	15:36	-8.8	-8.8	-8.8	72	-12.9	11.3	NW	0.19	12.2	NW	-16.4	-8.9	-16.6	723.7	0.019	0.000	21.7	11	-10.1	19.0	2.73	 .0710	23	1	100.0	1
11/26/24	15:37	-8.8	-8.8	-8.8	72	-12.9	8.7	NW	0.14	11.3	NNW	-15.5	-8.9	-15.7	723.7	0.019	0.000	21.8	11	-10.0	19.1	2.73	 .0710	23	1	100.0	1
11/26/24	15:38	-8.7	-8.7	-8.8	72	-12.9	10.4	NW	0.17	12.2	NNW	-16.1	-8.9	-16.3	723.7	0.019	0.000	21.7	11	-10.1	19.0	2.73	 .0710	24	1	100.0	1
11/26/24	15:39	-8.7	-8.7	-8.7	72	-12.9	10.4	NW	0.17	11.3	NNW	-16.1	-8.9	-16.3	723.7	0.019	0.000	21.8	11	-10.0	19.1	2.73	 .0710	23	1	100.0	1
11/26/24	15:40	-8.7	-8.7	-8.7	72	-12.9	11.3	NW	0.19	13.0	NW	-16.4	-8.9	-16.6	723.7	0.019	0.000	21.8	11	-10.0	19.1	2.73	 .0710	24	1	100.0	1
11/26/24	15:41	-8.7	-8.7	-8.7	72	-12.9	10.4	NW	0.17	13.0	NW	-16.1	-8.9	-16.3	723.7	0.019	0.000	21.8	11	-10.0	19.1	2.73	 .0710	23	1	100.0	1
11/26/24	15:42	-8.7	-8.7	-8.7	72	-12.9	10.4	NW	0.17	12.2	NW	-16.1	-8.9	-16.3	723.7	0.019	0.000	21.8	11	-10.0	19.1	2.73	 .0710	23	1	100.0	1
11/26/24	15:43	-8.7	-8.7	-8.7	72	-12.9	10.4	NW	0.17	11.3	NW	-16.1	-8.9	-16.3	723.7	0.019	0.000	21.8	11	-10.0	19.1	2.73	 .0710	24	1	100.0	1
11/26/24	15:44	-8.7	-8.7	-8.7	72	-12.9	9.6	NW	0.16	10.4	NW	-15.8	-8.9	-15.9	723.7	0.019	0.000	21.8	11	-10.0	19.1	2.73	 .0710	23	1	100.0	1
11/26/24	15:45	-8.7	-8.7	-8.7	72	-12.9	8.7	NW	0.14	10.4	NW	-15.4	-8.9	-15.6	723.7	0.019	0.000	21.8	11	-10.0	19.1	2.73	 .0710	24	1	100.0	1
11/26/24	15:46	-8.8	-8.7	-8.8	72	-12.9	9.6	NW	0.16	11.3	NW	-15.8	-8.9	-16.0	723.7	0.019	0.000	21.8	11	-10.0	19.1	2.73	 .0710	23	1	100.0	1
11/26/24	15:47	-8.8	-8.8	-8.8	72	-12.9	10.4	NW	0.17	12.2	NW	-16.2	-8.9	-16.3	723.7	0.019	0.000	21.8	11	-10.0	19.1	2.73	 .0710	23	1	100.0	1
11/26/24	15:48	-8.8	-8.8	-8.8	72	-12.9	9.6	NW	0.16	11.3	NW	-15.8	-8.9	-16.0	723.8	0.019	0.000	21.8	11	-10.0	19.1	2.73	 .0710	24	1	100.0	1
11/26/24	15:49	-8.8	-8.8	-8.8	73	-12.7	9.6	NNW	0.16	10.4	NW	-15.8	-8.9	-15.9	723.8	0.019	0.000	21.8	11	-10.0	19.1	2.73	 .0710	23	1	100.0	1
11/26/24	15:50	-8.7	-8.7	-8.8	73	-12.7	10.4	NNW	0.17	11.3	NNW	-16.1	-8.8	-16.2	723.7	0.019	0.000	21.8	11	-10.0	19.1	2.73	 .0710	24	1	100.0	1
11/26/24	15:51	-8.7	-8.7	-8.7	73	-12.7	9.6	NW	0.16	10.4	NNW	-15.8	-8.8	-15.9	723.7	0.019	0.000	21.8	11	-10.0	19.1	2.73	 .0710	23	1	100.0	1
11/26/24	15:52	-8.7	-8.7	-8.8	73	-12.7	9.6	NW	0.16	10.4	NW	-15.8	-8.8	-15.9	723.7	0.019	0.000	21.8	11	-10.0	19.1	2.73	 .0710	24	1	100.0	1
11/26/24	15:53	-8.7	-8.7	-8.7	73	-12.7	10.4	NW	0.17	11.3	NW	-16.1	-8.8	-16.2	723.7	0.019	0.000	21.7	11	-10.1	19.0	2.73	 .0710	23	1	100.0	1
11/26/24	15:54	-8.7	-8.7	-8.7	73	-12.7	10.4	NW	0.17	12.2	NW	-16.1	-8.8	-16.2	723.7	0.019	0.000	21.7	11	-10.1	19.0	2.73	 .0710	23	1	100.0	1
11/26/24	15:55	-8.7	-8.7	-8.7	73	-12.7	10.4	NW	0.17	11.3	NW	-16.1	-8.8	-16.2	723.7	0.019	0.000	21.7	11	-10.1	19.0	2.73	 .0710	24	1	100.0	1
11/26/24	15:56	-8.7	-8.7	-8.7	73	-12.7	8.7	NW	0.14	10.4	NW	-15.4	-8.8	-15.5	723.7	0.019	0.000	21.7	11	-10.1	19.0	2.73	 .0710	23	1	100.0	1
11/26/24	15:57	-8.7	-8.7	-8.8	72	-12.9	9.6	NW	0.16	11.3	NW	-15.8	-8.9	-15.9	723.7	0.019	0.000	21.7	11	-10.1	19.0	2.73	 .0710	24	1	100.0	1
11/26/24	15:58	-8.8	-8.8	-8.8	72	-12.9	11.3	NW	0.19	13.0	NW	-16.4	-8.9	-16.6	723.7	0.019	0.000	21.8	11	-10.0	19.1	2.73	 .0710	23	1	100.0	1
11/26/24	15:59	-8.7	-8.7	-8.8	73	-12.7	9.6	NW	0.16	11.3	NW	-15.8	-8.8	-15.9	723.8	0.019	0.000	21.7	11	-10.1	19.0	2.73	 .0710	24	1	100.0	1
11/26/24	16:00	-8.7	-8.7	-8.7	73	-12.6	8.7	NNW	0.14	10.4	NNW	-15.3	-8.8	-15.4	723.7	0.019	0.000	21.7	11	-10.1	19.0	2.73	 .0710	23	1	100.0	1
11/26/24	16:01	-8.7	-8.7	-8.7	73	-12.6	10.4	NNW	0.17	11.3	NNW	-16.0	-8.8	-16.1	723.7	0.019	0.000	21.7	11	-10.1	19.0	2.73	 .0710	23	1	100.0	1
11/26/24	16:02	-8.7	-8.7	-8.7	73	-12.6	10.4	NW	0.17	12.2	NW	-16.0	-8.8	-16.1	723.7	0.019	0.000	21.7	11	-10.1	19.0	2.73	 .0710	24	1	100.0	1
11/26/24	16:03	-8.7	-8.7	-8.7	73	-12.6	11.3	NW	0.19	12.2	NW	-16.3	-8.8	-16.4	723.7	0.019	0.000	21.7	11	-10.1	19.0	2.73	 .0710	23	1	100.0	1
11/26/24	16:04	-8.6	-8.6	-8.7	73	-12.6	10.4	NW	0.17	12.2	NW	-15.9	-8.7	-16.1	723.7	0.019	0.000	21.7	11	-10.1	19.0	2.73	 .0710	24	1	100.0	1
11/26/24	16:05	-8.6	-8.6	-8.6	73	-12.6	10.4	NW	0.17	12.2	NW	-15.9	-8.7	-16.1	723.7	0.019	0.000	21.7	11	-10.1	19.0	2.73	 .0710	23	1	100.0	1
11/26/24	16:06	-8.6	-8.6	-8.6	73	-12.6	10.4	NW	0.17	11.3	NW	-15.9	-8.7	-16.1	723.7	0.019	0.000	21.7	11	-10.1	19.0	2.73	 .0710	23	1	100.0	1
11/26/24	16:07	-8.7	-8.6	-8.7	72	-12.8	9.6	NW	0.16	11.3	NW	-15.7	-8.8	-15.8	723.7	0.019	0.000	21.7	11	-10.1	19.0	2.73	 .0710	24	1	100.0	1
11/26/24	16:08	-8.7	-8.7	-8.7	72	-12.8	10.4	NW	0.17	12.2	NW	-16.0	-8.8	-16.2	723.7	0.019	0.000	21.7	11	-10.1	19.0	2.73	 .0710	23	1	100.0	1
11/26/24	16:09	-8.7	-8.7	-8.7	72	-12.8	11.3	NW	0.19	12.2	NW	-16.3	-8.8	-16.5	723.7	0.019	0.000	21.7	11	-10.1	19.0	2.73	 .0710	24	1	100.0	1
11/26/24	16:10	-8.7	-8.7	-8.7	73	-12.7	10.4	NW	0.17	11.3	NW	-16.1	-8.8	-16.2	723.7	0.019	0.000	21.7	11	-10.1	19.0	2.73	 .0710	23	1	100.0	1
11/26/24	16:11	-8.8	-8.7	-8.8	72	-12.9	10.4	NW	0.17	11.3	NW	-16.2	-8.9	-16.3	723.7	0.019	0.000	21.7	11	-10.1	19.0	2.73	 .0710	23	1	100.0	1
11/26/24	16:12	-8.8	-8.8	-8.8	72	-12.9	11.3	NW	0.19	12.2	NW	-16.4	-8.9	-16.6	723.7	0.019	0.000	21.7	11	-10.1	19.0	2.73	 .0710	24	1	100.0	1
11/26/24	16:13	-8.8	-8.8	-8.8	72	-12.9	10.4	NW	0.17	12.2	NW	-16.2	-8.9	-16.3	723.7	0.019	0.000	21.7	11	-10.1	18.9	2.73	 .0710	23	1	100.0	1
11/26/24	16:14	-8.7	-8.7	-8.8	73	-12.7	10.4	NW	0.17	12.2	NW	-16.1	-8.8	-16.2	723.7	0.019	0.000	21.7	11	-10.1	18.9	2.73	 .0710	24	1	100.0	1
11/26/24	16:15	-8.8	-8.7	-8.8	73	-12.7	10.4	NW	0.17	11.3	NW	-16.2	-8.9	-16.3	723.7	0.019	0.000	21.7	11	-10.1	18.9	2.73	 .0710	23	1	100.0	1
11/26/24	16:16	-8.7	-8.7	-8.8	73	-12.7	11.3	NW	0.19	13.0	NNW	-16.4	-8.8	-16.5	723.7	0.019	0.000	21.7	11	-10.1	18.9	2.73	 .0710	24	1	100.0	1
11/26/24	16:17	-8.7	-8.7	-8.8	73	-12.7	11.3	NW	0.19	13.0	NW	-16.4	-8.8	-16.5	723.7	0.019	0.000	21.7	11	-10.1	18.9	2.73	 .0710	23	1	100.0	1
11/26/24	16:18	-8.7	-8.7	-8.7	73	-12.7	10.4	NW	0.17	12.2	NW	-16.1	-8.8	-16.2	723.7	0.019	0.000	21.7	11	-10.1	18.9	2.73	 .0710	23	1	100.0	1
11/26/24	16:19	-8.7	-8.7	-8.7	73	-12.7	10.4	NW	0.17	12.2	NW	-16.1	-8.8	-16.2	723.7	0.019	0.000	21.7	11	-10.1	18.9	2.73	 .0710	24	1	100.0	1
11/26/24	16:20	-8.7	-8.7	-8.7	73	-12.6	10.4	NW	0.17	11.3	NW	-16.0	-8.8	-16.1	723.7	0.019	0.000	21.7	11	-10.1	18.9	2.73	 .0710	23	1	100.0	1
11/26/24	16:21	-8.7	-8.7	-8.7	73	-12.6	11.3	NW	0.19	13.0	NW	-16.3	-8.8	-16.4	723.7	0.019	0.000	21.7	11	-10.1	18.9	2.73	 .0710	24	1	100.0	1
11/26/24	16:22	-8.7	-8.7	-8.7	73	-12.6	11.3	NW	0.19	12.2	NW	-16.3	-8.8	-16.4	723.7	0.019	0.000	21.7	11	-10.1	18.9	2.73	 .0710	23	1	100.0	1
11/26/24	16:23	-8.7	-8.7	-8.7	73	-12.6	10.4	NW	0.17	11.3	NW	-16.0	-8.8	-16.1	723.7	0.019	0.000	21.7	11	-10.1	18.9	2.73	 .0710	23	1	100.0	1
11/26/24	16:24	-8.6	-8.6	-8.7	73	-12.6	11.3	NW	0.19	12.2	NW	-16.3	-8.7	-16.4	723.7	0.019	0.000	21.6	11	-10.2	18.8	2.73	 .0710	24	1	100.0	1
11/26/24	16:25	-8.6	-8.6	-8.7	73	-12.6	11.3	NW	0.19	13.0	NW	-16.3	-8.7	-16.4	723.7	0.019	0.000	21.7	11	-10.1	18.9	2.73	 .0710	23	1	100.0	1
11/26/24	16:26	-8.6	-8.6	-8.6	73	-12.6	12.2	NW	0.20	14.8	NW	-16.6	-8.7	-16.7	723.8	0.019	0.000	21.6	11	-10.2	18.8	2.73	 .0710	24	1	100.0	1
11/26/24	16:27	-8.5	-8.5	-8.6	73	-12.5	12.2	NW	0.20	13.0	NW	-16.4	-8.6	-16.5	723.8	0.019	0.000	21.6	11	-10.2	18.8	2.73	 .0710	23	1	100.0	1
11/26/24	16:28	-8.5	-8.5	-8.6	73	-12.5	12.2	NW	0.20	13.9	NW	-16.4	-8.6	-16.5	723.7	0.019	0.000	21.6	11	-10.2	18.8	2.73	 .0710	24	1	100.0	1
11/26/24	16:29	-8.5	-8.5	-8.6	73	-12.5	11.3	NW	0.19	13.0	NW	-16.1	-8.6	-16.2	723.8	0.019	0.000	21.6	11	-10.2	18.8	2.73	 .0710	23	1	100.0	1
11/26/24	16:30	-8.6	-8.6	-8.6	73	-12.5	10.4	NW	0.17	12.2	NW	-15.9	-8.7	-16.0	723.8	0.019	0.000	21.6	11	-10.2	18.8	2.73	 .0710	23	1	100.0	1
11/26/24	16:31	-8.6	-8.6	-8.6	73	-12.6	11.3	NNW	0.19	13.0	NNW	-16.3	-8.7	-16.4	723.8	0.019	0.000	21.6	11	-10.2	18.8	2.73	 .0710	24	1	100.0	1
11/26/24	16:32	-8.6	-8.6	-8.6	73	-12.6	12.2	NW	0.20	13.9	NNW	-16.6	-8.7	-16.7	723.8	0.019	0.000	21.7	11	-10.1	18.9	2.73	 .0710	23	1	100.0	1
11/26/24	16:33	-8.6	-8.6	-8.6	73	-12.6	11.3	NW	0.19	12.2	NW	-16.3	-8.7	-16.4	723.8	0.019	0.000	21.7	11	-10.1	18.9	2.73	 .0710	24	1	100.0	1
11/26/24	16:34	-8.6	-8.6	-8.6	73	-12.6	12.2	NW	0.20	13.9	NNW	-16.6	-8.7	-16.7	723.8	0.019	0.000	21.7	11	-10.1	18.9	2.73	 .0710	23	1	100.0	1
11/26/24	16:35	-8.6	-8.6	-8.6	73	-12.5	11.3	NW	0.19	13.0	NNW	-16.2	-8.7	-16.3	723.8	0.019	0.000	21.7	11	-10.1	18.9	2.73	 .0710	23	1	100.0	1
11/26/24	16:36	-8.6	-8.6	-8.6	73	-12.6	11.3	NW	0.19	13.0	NW	-16.3	-8.7	-16.4	723.8	0.019	0.000	21.7	11	-10.1	18.9	2.73	 .0710	24	1	100.0	1
11/26/24	16:37	-8.6	-8.6	-8.6	73	-12.6	12.2	NW	0.20	13.0	NW	-16.6	-8.7	-16.7	723.8	0.019	0.000	21.7	11	-10.1	18.9	2.73	 .0710	23	1	100.0	1
11/26/24	16:38	-8.7	-8.6	-8.7	73	-12.6	12.2	NW	0.20	13.0	NW	-16.6	-8.8	-16.7	723.8	0.019	0.000	21.7	11	-10.1	18.9	2.73	 .0710	24	1	100.0	1
11/26/24	16:39	-8.7	-8.7	-8.7	73	-12.6	12.2	NW	0.20	13.0	NW	-16.6	-8.8	-16.7	723.7	0.019	0.000	21.7	11	-10.1	19.0	2.73	 .0710	23	1	100.0	1
11/26/24	16:40	-8.7	-8.7	-8.7	73	-12.6	12.2	NW	0.20	13.9	NW	-16.6	-8.8	-16.7	723.8	0.019	0.000	21.7	11	-10.1	19.0	2.73	 .0710	24	1	100.0	1
11/26/24	16:41	-8.6	-8.6	-8.7	73	-12.6	12.2	NW	0.20	13.0	NW	-16.6	-8.7	-16.7	723.8	0.019	0.000	21.7	11	-10.1	19.0	2.73	 .0710	23	1	100.0	1
11/26/24	16:42	-8.7	-8.7	-8.7	73	-12.6	13.0	NW	0.22	13.9	NW	-16.9	-8.8	-17.0	723.8	0.019	0.000	21.7	11	-10.1	19.0	2.73	 .0710	23	1	100.0	1
11/26/24	16:43	-8.7	-8.7	-8.7	73	-12.6	13.9	NW	0.23	14.8	NW	-17.2	-8.8	-17.3	723.8	0.019	0.000	21.7	11	-10.1	19.0	2.73	 .0710	24	1	100.0	1
11/26/24	16:44	-8.6	-8.6	-8.7	73	-12.6	13.0	NW	0.22	13.9	NW	-16.8	-8.7	-16.9	723.8	0.019	0.000	21.7	11	-10.1	19.0	2.73	 .0710	23	1	100.0	1
11/26/24	16:45	-8.6	-8.6	-8.6	73	-12.6	13.0	NW	0.22	14.8	NW	-16.8	-8.7	-16.9	723.8	0.019	0.000	21.7	11	-10.1	19.0	2.73	 .0710	24	1	100.0	1
11/26/24	16:46	-8.6	-8.6	-8.6	73	-12.6	13.0	NW	0.22	16.5	NW	-16.8	-8.7	-16.9	723.8	0.019	0.000	21.7	11	-10.1	19.0	2.73	 .0710	23	1	100.0	1
11/26/24	16:47	-8.6	-8.6	-8.6	73	-12.6	13.0	NW	0.22	14.8	NW	-16.8	-8.7	-16.9	723.8	0.019	0.000	21.7	11	-10.1	19.0	2.73	 .0710	23	1	100.0	1
11/26/24	16:48	-8.7	-8.6	-8.7	73	-12.6	12.2	NW	0.20	16.5	NNW	-16.6	-8.8	-16.7	723.8	0.019	0.000	21.7	11	-10.1	19.0	2.73	 .0710	24	1	100.0	1
11/26/24	16:49	-8.7	-8.6	-8.7	73	-12.6	12.2	NW	0.20	13.9	NW	-16.6	-8.8	-16.7	723.8	0.019	0.000	21.7	11	-10.1	19.0	2.73	 .0710	23	1	100.0	1
11/26/24	16:50	-8.7	-8.7	-8.7	73	-12.6	13.0	NW	0.22	13.9	NW	-16.9	-8.8	-17.0	723.8	0.019	0.000	21.7	11	-10.1	19.0	2.73	 .0710	24	1	100.0	1
11/26/24	16:51	-8.7	-8.7	-8.7	73	-12.7	13.0	NW	0.22	13.0	NW	-16.9	-8.8	-17.1	723.8	0.019	0.000	21.7	11	-10.1	19.0	2.73	 .0710	23	1	100.0	1
11/26/24	16:52	-8.8	-8.7	-8.8	73	-12.7	12.2	NW	0.20	13.9	NW	-16.8	-8.9	-16.9	723.8	0.019	0.000	21.7	11	-10.1	19.0	2.73	 .0710	23	1	100.0	1
11/26/24	16:53	-8.7	-8.7	-8.7	73	-12.7	13.0	NNW	0.22	13.9	NW	-16.9	-8.8	-17.1	723.8	0.019	0.000	21.7	11	-10.1	19.0	2.73	 .0710	24	1	100.0	1
11/26/24	16:54	-8.7	-8.7	-8.7	73	-12.6	13.9	NW	0.23	15.7	NW	-17.2	-8.8	-17.3	723.8	0.019	0.000	21.7	11	-10.1	19.0	2.73	 .0710	23	1	100.0	1
11/26/24	16:55	-8.6	-8.6	-8.7	73	-12.6	11.3	NW	0.19	13.9	NNW	-16.3	-8.7	-16.4	723.9	0.019	0.000	21.7	11	-10.1	19.0	2.73	 .0710	24	1	100.0	1
11/26/24	16:56	-8.6	-8.6	-8.6	73	-12.5	12.2	NNW	0.20	13.9	NW	-16.5	-8.7	-16.6	723.8	0.019	0.000	21.7	11	-10.1	19.0	2.73	 .0710	23	1	100.0	1
11/26/24	16:57	-8.6	-8.6	-8.6	73	-12.5	12.2	NNW	0.20	14.8	NW	-16.5	-8.7	-16.6	723.9	0.019	0.000	21.7	11	-10.1	19.0	2.73	 .0710	24	1	100.0	1
11/26/24	16:58	-8.5	-8.5	-8.6	73	-12.5	12.2	NW	0.20	13.0	NW	-16.4	-8.6	-16.5	723.8	0.019	0.000	21.7	11	-10.1	19.0	2.73	 .0710	23	1	100.0	1
11/26/24	16:59	-8.5	-8.5	-8.5	73	-12.5	11.3	NNW	0.19	12.2	NNW	-16.1	-8.6	-16.2	723.8	0.019	0.000	21.7	11	-10.1	19.0	2.73	 .0710	23	1	100.0	1
11/26/24	17:00	-8.5	-8.5	-8.5	73	-12.5	12.2	NNW	0.20	13.0	NNW	-16.4	-8.6	-16.5	723.9	0.019	0.000	21.7	11	-10.1	19.0	2.73	 .0710	24	1	100.0	1
11/26/24	17:01	-8.5	-8.5	-8.5	73	-12.5	11.3	NNW	0.19	12.2	NNW	-16.1	-8.6	-16.2	723.9	0.019	0.000	21.7	11	-10.1	19.0	2.73	 .0710	23	1	100.0	1
11/26/24	17:02	-8.5	-8.5	-8.5	73	-12.5	11.3	NW	0.19	13.0	NW	-16.1	-8.6	-16.2	723.9	0.019	0.000	21.7	11	-10.1	19.0	2.73	 .0710	24	1	100.0	1
11/26/24	17:03	-8.6	-8.6	-8.6	73	-12.5	11.3	NW	0.19	12.2	NW	-16.2	-8.7	-16.3	723.9	0.019	0.000	21.7	11	-10.1	19.0	2.73	 .0710	23	1	100.0	1
11/26/24	17:04	-8.6	-8.6	-8.6	74	-12.4	11.3	NNW	0.19	11.3	NW	-16.3	-8.7	-16.4	723.8	0.019	0.000	21.7	11	-10.1	19.0	2.73	 .0710	23	1	100.0	1
11/26/24	17:05	-8.6	-8.6	-8.6	74	-12.4	11.3	NW	0.19	11.3	NW	-16.3	-8.7	-16.4	723.9	0.019	0.000	21.7	11	-10.1	18.9	2.73	 .0710	24	1	100.0	1
11/26/24	17:06	-8.7	-8.6	-8.7	74	-12.5	11.3	NW	0.19	12.2	NNW	-16.3	-8.8	-16.4	723.9	0.019	0.000	21.7	11	-10.1	18.9	2.73	 .0710	23	1	100.0	1
11/26/24	17:07	-8.7	-8.7	-8.7	74	-12.5	11.3	NW	0.19	12.2	NW	-16.3	-8.8	-16.4	723.9	0.019	0.000	21.7	11	-10.1	18.9	2.73	 .0710	24	1	100.0	1
11/26/24	17:08	-8.7	-8.7	-8.7	74	-12.5	11.3	NW	0.19	12.2	NW	-16.3	-8.8	-16.4	723.9	0.019	0.000	21.7	11	-10.1	18.9	2.73	 .0710	23	1	100.0	1
11/26/24	17:09	-8.7	-8.7	-8.7	74	-12.5	12.2	NW	0.20	13.0	NW	-16.6	-8.8	-16.7	723.9	0.019	0.000	21.7	11	-10.1	18.9	2.73	 .0710	24	1	100.0	1
11/26/24	17:10	-8.6	-8.6	-8.7	74	-12.4	11.3	NW	0.19	12.2	NW	-16.3	-8.7	-16.4	723.9	0.019	0.000	21.7	11	-10.1	18.9	2.73	 .0710	23	1	100.0	1
11/26/24	17:11	-8.6	-8.6	-8.6	74	-12.4	10.4	NW	0.17	12.2	NW	-15.9	-8.7	-16.0	723.9	0.019	0.000	21.7	11	-10.1	18.9	2.73	 .0710	23	1	100.0	1
11/26/24	17:12	-8.6	-8.6	-8.6	74	-12.4	11.3	NW	0.19	13.0	NW	-16.2	-8.7	-16.3	723.9	0.019	0.000	21.7	11	-10.1	18.9	2.73	 .0710	24	1	100.0	1
11/26/24	17:13	-8.6	-8.6	-8.6	74	-12.4	10.4	NW	0.17	11.3	NW	-15.9	-8.7	-16.0	723.9	0.019	0.000	21.7	11	-10.1	18.9	2.73	 .0710	23	1	100.0	1
11/26/24	17:14	-8.6	-8.5	-8.6	74	-12.4	10.4	NNW	0.17	11.3	NW	-15.9	-8.7	-16.0	723.9	0.019	0.000	21.7	11	-10.1	18.9	2.73	 .0710	24	1	100.0	1
11/26/24	17:15	-8.5	-8.5	-8.5	74	-12.3	10.4	NW	0.17	12.2	NNW	-15.8	-8.6	-15.9	723.9	0.019	0.000	21.7	11	-10.1	18.9	2.73	 .0710	23	1	100.0	1
11/26/24	17:16	-8.5	-8.5	-8.5	74	-12.3	10.4	NW	0.17	11.3	NW	-15.8	-8.6	-15.9	723.9	0.019	0.000	21.7	11	-10.1	18.9	2.73	 .0710	23	1	100.0	1
11/26/24	17:17	-8.6	-8.6	-8.6	74	-12.4	10.4	NW	0.17	11.3	NW	-15.9	-8.7	-16.0	723.9	0.019	0.000	21.7	11	-10.1	18.9	2.73	 .0710	24	1	100.0	1
11/26/24	17:18	-8.6	-8.6	-8.6	74	-12.4	10.4	NW	0.17	12.2	NW	-15.9	-8.7	-16.1	723.9	0.019	0.000	21.6	11	-10.2	18.8	2.73	 .0710	23	1	100.0	1
11/26/24	17:19	-8.6	-8.6	-8.6	74	-12.4	10.4	NW	0.17	11.3	NW	-15.9	-8.7	-16.1	723.9	0.019	0.000	21.7	11	-10.1	18.9	2.73	 .0710	24	1	100.0	1
11/26/24	17:20	-8.7	-8.6	-8.7	74	-12.5	10.4	NW	0.17	12.2	NW	-16.0	-8.8	-16.1	723.9	0.019	0.000	21.6	11	-10.2	18.8	2.73	 .0710	23	1	100.0	1
11/26/24	17:21	-8.6	-8.6	-8.7	74	-12.4	12.2	NW	0.20	13.0	NW	-16.6	-8.7	-16.7	723.9	0.019	0.000	21.6	11	-10.2	18.8	2.73	 .0710	24	1	100.0	1
11/26/24	17:22	-8.6	-8.6	-8.6	74	-12.4	10.4	NW	0.17	12.2	NW	-15.9	-8.7	-16.1	723.9	0.019	0.000	21.6	11	-10.2	18.8	2.73	 .0710	23	1	100.0	1
11/26/24	17:23	-8.6	-8.6	-8.6	74	-12.4	12.2	NW	0.20	13.0	NW	-16.6	-8.7	-16.7	723.9	0.019	0.000	21.6	11	-10.2	18.8	2.73	 .0710	23	1	100.0	1
11/26/24	17:24	-8.6	-8.6	-8.6	74	-12.4	10.4	NW	0.17	11.3	NW	-15.9	-8.7	-16.0	723.9	0.019	0.000	21.6	11	-10.2	18.8	2.73	 .0710	24	1	100.0	1
11/26/24	17:25	-8.6	-8.6	-8.6	74	-12.4	11.3	NW	0.19	12.2	NW	-16.2	-8.7	-16.3	723.9	0.019	0.000	21.6	11	-10.2	18.8	2.73	 .0710	23	1	100.0	1
11/26/24	17:26	-8.6	-8.6	-8.6	74	-12.4	10.4	NW	0.17	11.3	NW	-15.9	-8.7	-16.1	723.9	0.019	0.000	21.6	11	-10.2	18.8	2.73	 .0710	24	1	100.0	1
11/26/24	17:27	-8.6	-8.6	-8.6	74	-12.4	10.4	NW	0.17	12.2	NW	-15.9	-8.7	-16.1	723.9	0.019	0.000	21.6	11	-10.2	18.8	2.73	 .0710	23	1	100.0	1
11/26/24	17:28	-8.6	-8.6	-8.6	74	-12.4	11.3	NW	0.19	11.3	NW	-16.3	-8.7	-16.4	723.9	0.019	0.000	21.6	11	-10.2	18.8	2.73	 .0710	23	1	100.0	1
11/26/24	17:29	-8.6	-8.6	-8.6	74	-12.4	11.3	NW	0.19	12.2	NW	-16.2	-8.7	-16.3	723.9	0.019	0.000	21.6	11	-10.2	18.8	2.73	 .0710	24	1	100.0	1
11/26/24	17:30	-8.6	-8.6	-8.6	74	-12.4	10.4	NW	0.17	11.3	NW	-15.9	-8.7	-16.1	723.9	0.019	0.000	21.6	11	-10.2	18.8	2.73	 .0710	23	1	100.0	1
11/26/24	17:31	-8.6	-8.6	-8.6	74	-12.4	10.4	NW	0.17	13.0	NW	-15.9	-8.7	-16.0	723.9	0.019	0.000	21.6	11	-10.2	18.8	2.73	 .0711	24	1	100.0	1
11/26/24	17:32	-8.6	-8.6	-8.6	74	-12.4	11.3	NW	0.19	12.2	NNW	-16.2	-8.7	-16.3	723.9	0.019	0.000	21.6	11	-10.2	18.8	2.73	 .0711	23	1	100.0	1
11/26/24	17:33	-8.5	-8.5	-8.6	74	-12.3	11.3	NW	0.19	12.2	NW	-16.1	-8.6	-16.2	724.0	0.019	0.000	21.6	11	-10.2	18.8	2.73	 .0711	23	1	100.0	1
11/26/24	17:34	-8.5	-8.5	-8.5	74	-12.3	11.3	NW	0.19	13.0	NW	-16.1	-8.6	-16.2	723.9	0.019	0.000	21.6	11	-10.2	18.8	2.73	 .0710	24	1	100.0	1
11/26/24	17:35	-8.5	-8.5	-8.5	74	-12.3	11.3	NW	0.19	12.2	NW	-16.1	-8.6	-16.2	724.0	0.019	0.000	21.6	11	-10.2	18.8	2.73	 .0710	23	1	100.0	1
11/26/24	17:36	-8.6	-8.5	-8.6	74	-12.4	11.3	NW	0.19	12.2	NW	-16.2	-8.7	-16.3	723.9	0.019	0.000	21.6	11	-10.2	18.8	2.73	 .0710	24	1	100.0	1
11/26/24	17:37	-8.6	-8.6	-8.6	74	-12.4	10.4	NW	0.17	11.3	NW	-15.9	-8.7	-16.0	724.0	0.019	0.000	21.6	11	-10.2	18.8	2.73	 .0710	23	1	100.0	1
11/26/24	17:38	-8.5	-8.5	-8.6	74	-12.3	10.4	NW	0.17	11.3	NNW	-15.8	-8.6	-15.9	724.0	0.019	0.000	21.6	11	-10.2	18.8	2.73	 .0710	24	1	100.0	1
11/26/24	17:39	-8.5	-8.5	-8.5	74	-12.3	11.3	NNW	0.19	13.0	NW	-16.1	-8.6	-16.2	724.0	0.019	0.000	21.6	11	-10.2	18.8	2.73	 .0710	23	1	100.0	1
11/26/24	17:40	-8.5	-8.5	-8.5	74	-12.3	10.4	NW	0.17	11.3	NW	-15.8	-8.6	-15.9	724.0	0.019	0.000	21.6	11	-10.2	18.8	2.73	 .0710	23	1	100.0	1
11/26/24	17:41	-8.5	-8.5	-8.5	74	-12.3	11.3	NW	0.19	13.0	NNW	-16.1	-8.6	-16.2	724.0	0.019	0.000	21.7	11	-10.1	18.9	2.73	 .0710	24	1	100.0	1
11/26/24	17:42	-8.4	-8.4	-8.5	74	-12.3	11.3	NW	0.19	12.2	NW	-16.1	-8.6	-16.2	724.0	0.019	0.000	21.7	11	-10.1	18.9	2.73	 .0710	23	1	100.0	1
11/26/24	17:43	-8.4	-8.4	-8.4	74	-12.3	10.4	NW	0.17	12.2	NW	-15.7	-8.6	-15.8	724.0	0.019	0.000	21.7	11	-10.1	18.9	2.73	 .0710	24	1	100.0	1
11/26/24	17:44	-8.4	-8.4	-8.4	74	-12.3	9.6	NW	0.16	11.3	NW	-15.4	-8.6	-15.5	724.0	0.019	0.000	21.7	11	-10.1	18.9	2.73	 .0710	23	1	100.0	1
11/26/24	17:45	-8.4	-8.4	-8.4	74	-12.3	8.7	NW	0.14	9.6	NNW	-15.1	-8.6	-15.2	724.0	0.019	0.000	21.7	11	-10.1	18.9	2.73	 .0710	23	1	100.0	1
11/26/24	17:46	-8.4	-8.4	-8.4	74	-12.3	8.7	NW	0.14	9.6	NNW	-15.1	-8.6	-15.2	724.0	0.019	0.000	21.7	11	-10.1	18.9	2.73	 .0710	24	1	100.0	1
11/26/24	17:47	-8.4	-8.4	-8.4	74	-12.3	8.7	NW	0.14	9.6	NW	-15.1	-8.6	-15.2	724.0	0.019	0.000	21.7	11	-10.1	19.0	2.73	 .0710	23	1	100.0	1
11/26/24	17:48	-8.4	-8.4	-8.4	74	-12.3	9.6	NW	0.16	10.4	NNW	-15.4	-8.6	-15.5	724.1	0.019	0.000	21.7	11	-10.1	19.0	2.73	 .0710	24	1	100.0	1
11/26/24	17:49	-8.4	-8.4	-8.4	74	-12.2	8.7	NW	0.14	10.4	NNW	-15.0	-8.5	-15.1	724.0	0.019	0.000	21.7	11	-10.1	19.0	2.73	 .0710	23	1	100.0	1
11/26/24	17:50	-8.4	-8.4	-8.4	74	-12.2	9.6	NNW	0.16	10.4	NNW	-15.3	-8.5	-15.4	724.1	0.019	0.000	21.7	11	-10.1	19.0	2.73	 .0710	24	1	100.0	1
11/26/24	17:51	-8.3	-8.3	-8.4	74	-12.1	8.7	NNW	0.14	9.6	NNW	-14.9	-8.4	-15.1	724.1	0.019	0.000	21.7	11	-10.1	19.0	2.73	 .0710	23	1	100.0	1
11/26/24	17:52	-8.3	-8.3	-8.3	74	-12.1	8.7	NW	0.14	9.6	NW	-14.9	-8.4	-15.1	724.1	0.019	0.000	21.7	11	-10.1	19.0	2.73	 .0710	23	1	100.0	1
11/26/24	17:53	-8.3	-8.3	-8.3	74	-12.1	8.7	NNW	0.14	9.6	NNW	-14.9	-8.4	-15.1	724.1	0.019	0.000	21.7	11	-10.1	19.0	2.73	 .0710	24	1	100.0	1
11/26/24	17:54	-8.3	-8.3	-8.3	74	-12.1	8.7	NNW	0.14	9.6	NNW	-14.9	-8.4	-15.1	724.1	0.019	0.000	21.7	11	-10.1	19.0	2.73	 .0710	23	1	100.0	1
11/26/24	17:55	-8.3	-8.3	-8.3	74	-12.1	8.7	NNW	0.14	9.6	NNW	-14.8	-8.4	-14.9	724.1	0.018	0.000	21.7	11	-10.1	19.0	2.73	 .0710	24	1	100.0	1
11/26/24	17:56	-8.3	-8.3	-8.3	74	-12.1	9.6	NNW	0.16	10.4	NNW	-15.2	-8.4	-15.3	724.1	0.018	0.000	21.7	11	-10.1	19.0	2.73	 .0710	23	1	100.0	1
11/26/24	17:57	-8.3	-8.3	-8.3	74	-12.1	9.6	NNW	0.16	11.3	NNW	-15.2	-8.4	-15.3	724.1	0.018	0.000	21.7	11	-10.1	19.0	2.73	 .0710	23	1	100.0	1
11/26/24	17:58	-8.2	-8.2	-8.3	74	-12.0	10.4	NNW	0.17	11.3	NNW	-15.4	-8.3	-15.6	724.1	0.018	0.000	21.7	11	-10.1	19.0	2.73	 .0710	24	1	100.0	1
11/26/24	17:59	-8.2	-8.2	-8.2	74	-12.0	10.4	NNW	0.17	12.2	NW	-15.4	-8.3	-15.6	724.1	0.018	0.000	21.7	11	-10.1	19.0	2.73	 .0710	23	1	100.0	1
11/26/24	18:00	-8.2	-8.2	-8.2	74	-12.0	10.4	NNW	0.17	11.3	NNW	-15.4	-8.3	-15.5	724.1	0.018	0.000	21.7	11	-10.1	19.0	2.73	 .0710	24	1	100.0	1
11/26/24	18:01	-8.2	-8.2	-8.2	74	-12.0	11.3	NNW	0.19	13.0	NNW	-15.7	-8.3	-15.8	724.1	0.018	0.000	21.7	11	-10.1	19.0	2.73	 .0710	23	1	100.0	1
11/26/24	18:02	-8.1	-8.1	-8.2	74	-11.9	11.3	NNW	0.19	12.2	NNW	-15.6	-8.3	-15.8	724.1	0.018	0.000	21.7	11	-10.1	19.0	2.73	 .0710	24	1	100.0	1
11/26/24	18:03	-8.1	-8.1	-8.2	74	-11.9	11.3	NNW	0.19	13.0	NNW	-15.6	-8.3	-15.8	724.1	0.018	0.000	21.7	11	-10.1	19.0	2.73	 .0710	23	1	100.0	1
11/26/24	18:04	-8.1	-8.1	-8.1	74	-11.9	10.4	NNW	0.17	12.2	NNW	-15.3	-8.3	-15.5	724.1	0.018	0.000	21.7	11	-10.1	19.0	2.73	 .0710	23	1	100.0	1
11/26/24	18:05	-8.1	-8.1	-8.1	74	-11.9	11.3	NNW	0.19	12.2	NNW	-15.6	-8.3	-15.8	724.1	0.018	0.000	21.7	11	-10.1	19.0	2.73	 .0710	24	1	100.0	1
11/26/24	18:06	-8.1	-8.1	-8.1	74	-11.9	10.4	NNW	0.17	12.2	NNW	-15.3	-8.2	-15.4	724.1	0.018	0.000	21.7	11	-10.1	19.0	2.73	 .0710	23	1	100.0	1
11/26/24	18:07	-8.1	-8.1	-8.1	74	-11.9	11.3	NW	0.19	12.2	NNW	-15.6	-8.2	-15.7	724.1	0.018	0.000	21.7	11	-10.1	19.0	2.73	 .0710	24	1	100.0	1
11/26/24	18:08	-8.1	-8.1	-8.1	74	-11.9	10.4	NNW	0.17	11.3	NNW	-15.3	-8.2	-15.4	724.1	0.018	0.000	21.7	11	-10.1	19.0	2.73	 .0710	23	1	100.0	1
11/26/24	18:09	-8.1	-8.1	-8.1	74	-11.9	9.6	NNW	0.16	10.4	NNW	-14.9	-8.2	-15.1	724.2	0.018	0.000	21.7	11	-10.1	18.9	2.73	 .0710	23	1	100.0	1
11/26/24	18:10	-8.1	-8.1	-8.1	74	-11.9	11.3	NNW	0.19	13.0	NNW	-15.6	-8.2	-15.7	724.2	0.018	0.000	21.7	11	-10.1	19.0	2.73	 .0710	24	1	100.0	1
11/26/24	18:11	-8.1	-8.1	-8.1	74	-11.9	11.3	NNW	0.19	13.0	NW	-15.6	-8.2	-15.7	724.1	0.018	0.000	21.7	11	-10.1	19.0	2.73	 .0710	23	1	100.0	1
11/26/24	18:12	-8.0	-8.0	-8.1	74	-11.8	11.3	NNW	0.19	13.0	NW	-15.5	-8.2	-15.7	724.1	0.018	0.000	21.7	11	-10.1	19.0	2.73	 .0710	24	1	100.0	1
11/26/24	18:13	-8.0	-8.0	-8.0	74	-11.8	11.3	NNW	0.19	12.2	NW	-15.5	-8.2	-15.7	724.2	0.018	0.000	21.7	11	-10.1	18.9	2.73	 .0710	23	1	100.0	1
11/26/24	18:14	-8.0	-8.0	-8.0	74	-11.8	11.3	NNW	0.19	13.0	NNW	-15.5	-8.2	-15.7	724.2	0.018	0.000	21.7	11	-10.1	18.9	2.73	 .0710	24	1	100.0	1
11/26/24	18:15	-8.0	-8.0	-8.0	74	-11.8	11.3	NNW	0.19	12.2	NNW	-15.5	-8.2	-15.7	724.2	0.018	0.000	21.7	11	-10.1	18.9	2.73	 .0710	23	1	100.0	1
11/26/24	18:16	-8.0	-8.0	-8.0	74	-11.8	11.3	NNW	0.19	12.2	NNW	-15.5	-8.2	-15.7	724.2	0.018	0.000	21.7	11	-10.1	18.9	2.73	 .0710	23	1	100.0	1
11/26/24	18:17	-7.9	-7.9	-8.0	74	-11.8	11.3	NNW	0.19	12.2	NNW	-15.4	-8.1	-15.6	724.2	0.018	0.000	21.7	11	-10.1	18.9	2.73	 .0710	24	1	100.0	1
11/26/24	18:18	-7.9	-7.9	-7.9	74	-11.8	10.4	NNW	0.17	12.2	NNW	-15.1	-8.1	-15.3	724.2	0.018	0.000	21.7	11	-10.1	18.9	2.73	 .0711	23	1	100.0	1
11/26/24	18:19	-7.9	-7.9	-7.9	74	-11.7	12.2	NNW	0.20	15.7	NNW	-15.6	-8.1	-15.8	724.2	0.018	0.000	21.7	11	-10.1	18.9	2.73	 .0710	24	1	100.0	1
11/26/24	18:20	-7.9	-7.9	-7.9	74	-11.7	12.2	NNW	0.20	13.0	NNW	-15.6	-8.1	-15.8	724.2	0.018	0.000	21.7	11	-10.1	18.9	2.73	 .0710	23	1	100.0	1
11/26/24	18:21	-7.9	-7.9	-7.9	74	-11.7	14.8	NNW	0.25	17.4	NNW	-16.4	-8.1	-16.6	724.2	0.018	0.000	21.7	11	-10.1	18.9	2.73	 .0710	23	1	100.0	1
11/26/24	18:22	-7.9	-7.9	-7.9	73	-11.9	13.0	NNW	0.22	15.7	NNW	-15.9	-8.1	-16.1	724.2	0.018	0.000	21.7	11	-10.1	18.9	2.73	 .0710	24	1	100.0	1
11/26/24	18:23	-7.9	-7.9	-7.9	73	-11.9	13.9	NNW	0.23	17.4	NNW	-16.1	-8.1	-16.3	724.2	0.018	0.000	21.7	11	-10.1	18.9	2.73	 .0710	23	1	100.0	1
11/26/24	18:24	-7.9	-7.9	-7.9	73	-11.9	12.2	NNW	0.20	13.9	NNW	-15.7	-8.1	-15.8	724.2	0.018	0.000	21.7	11	-10.1	18.9	2.73	 .0710	24	1	100.0	1
11/26/24	18:25	-7.9	-7.9	-7.9	73	-11.9	13.0	NNW	0.22	14.8	NNW	-15.9	-8.1	-16.1	724.2	0.018	0.000	21.6	11	-10.2	18.8	2.73	 .0711	23	1	100.0	1
11/26/24	18:26	-7.9	-7.9	-7.9	73	-11.9	13.0	NNW	0.22	13.9	NNW	-15.9	-8.1	-16.1	724.2	0.018	0.000	21.6	11	-10.2	18.8	2.73	 .0711	24	1	100.0	1
11/26/24	18:27	-7.9	-7.9	-7.9	73	-11.9	13.0	NNW	0.22	14.8	NNW	-15.9	-8.1	-16.1	724.2	0.018	0.000	21.6	11	-10.2	18.8	2.73	 .0711	23	1	100.0	1
11/26/24	18:28	-7.9	-7.9	-7.9	73	-11.9	13.0	NNW	0.22	15.7	NNW	-15.9	-8.1	-16.1	724.2	0.018	0.000	21.6	11	-10.2	18.8	2.73	 .0711	23	1	100.0	1
11/26/24	18:29	-7.9	-7.9	-7.9	73	-11.9	14.8	NNW	0.25	17.4	NNW	-16.4	-8.1	-16.6	724.2	0.018	0.000	21.6	11	-10.2	18.8	2.73	 .0711	24	1	100.0	1
11/26/24	18:30	-7.9	-7.9	-7.9	73	-11.9	13.9	NNW	0.23	17.4	NW	-16.1	-8.1	-16.3	724.2	0.018	0.000	21.6	11	-10.2	18.8	2.73	 .0711	23	1	100.0	1
11/26/24	18:31	-7.9	-7.9	-7.9	73	-11.9	13.0	NNW	0.22	14.8	NNW	-15.9	-8.1	-16.1	724.2	0.018	0.000	21.6	11	-10.2	18.8	2.73	 .0711	24	1	100.0	1
11/26/24	18:32	-7.9	-7.9	-7.9	73	-11.9	13.9	NNW	0.23	14.8	NNW	-16.1	-8.1	-16.3	724.2	0.018	0.000	21.6	11	-10.2	18.8	2.73	 .0711	23	1	100.0	1
11/26/24	18:33	-7.9	-7.9	-7.9	73	-11.9	13.0	NNW	0.22	14.8	NNW	-15.9	-8.1	-16.1	724.2	0.018	0.000	21.6	11	-10.2	18.8	2.73	 .0711	23	1	100.0	1
11/26/24	18:34	-7.9	-7.9	-7.9	73	-11.9	13.0	NNW	0.22	15.7	NNW	-15.9	-8.1	-16.1	724.2	0.018	0.000	21.6	11	-10.2	18.8	2.73	 .0711	24	1	100.0	1
11/26/24	18:35	-7.9	-7.9	-7.9	73	-11.9	13.9	NNW	0.23	16.5	NNW	-16.1	-8.1	-16.3	724.2	0.018	0.000	21.6	11	-10.2	18.8	2.73	 .0711	23	1	100.0	1
11/26/24	18:36	-7.9	-7.9	-7.9	73	-11.9	15.7	NNW	0.26	17.4	NNW	-16.6	-8.1	-16.8	724.2	0.018	0.000	21.6	11	-10.2	18.8	2.73	 .0711	24	1	100.0	1
11/26/24	18:37	-7.9	-7.9	-7.9	73	-11.9	15.7	NNW	0.26	16.5	NNW	-16.6	-8.1	-16.8	724.2	0.018	0.000	21.6	11	-10.2	18.8	2.73	 .0711	23	1	100.0	1
11/26/24	18:38	-7.9	-7.9	-7.9	73	-11.9	15.7	NNW	0.26	17.4	NNW	-16.6	-8.1	-16.8	724.2	0.018	0.000	21.6	11	-10.2	18.8	2.73	 .0711	23	1	100.0	1
11/26/24	18:39	-7.9	-7.9	-7.9	73	-11.9	13.0	NNW	0.22	14.8	NNW	-15.9	-8.1	-16.1	724.2	0.018	0.000	21.6	11	-10.2	18.8	2.73	 .0711	24	1	100.0	1
11/26/24	18:40	-7.9	-7.9	-7.9	73	-11.9	12.2	NNW	0.20	14.8	NNW	-15.6	-8.1	-15.8	724.2	0.018	0.000	21.6	11	-10.2	18.8	2.73	 .0711	23	1	100.0	1
11/26/24	18:41	-7.9	-7.9	-7.9	73	-11.9	13.9	NNW	0.23	17.4	NNW	-16.1	-8.1	-16.3	724.2	0.018	0.000	21.6	11	-10.2	18.8	2.73	 .0711	24	1	100.0	1
11/26/24	18:42	-7.9	-7.9	-7.9	72	-12.1	14.8	NW	0.25	16.5	NW	-16.4	-8.1	-16.6	724.2	0.018	0.000	21.6	11	-10.2	18.8	2.73	 .0711	23	1	100.0	1
11/26/24	18:43	-7.8	-7.8	-7.9	72	-12.0	13.0	NNW	0.22	15.7	NNW	-15.8	-8.0	-16.0	724.2	0.018	0.000	21.7	11	-10.1	18.9	2.73	 .0711	24	1	100.0	1
11/26/24	18:44	-7.8	-7.8	-7.8	72	-12.0	15.7	NNW	0.26	16.5	NNW	-16.6	-8.0	-16.7	724.2	0.018	0.000	21.7	11	-10.1	18.9	2.73	 .0711	23	1	100.0	1
11/26/24	18:45	-7.8	-7.8	-7.8	72	-12.0	14.8	NNW	0.25	15.7	NNW	-16.3	-8.0	-16.4	724.2	0.018	0.000	21.7	11	-10.1	18.9	2.73	 .0711	23	1	100.0	1
11/26/24	18:46	-7.8	-7.8	-7.8	72	-12.0	13.9	NNW	0.23	16.5	NNW	-16.1	-8.0	-16.2	724.2	0.018	0.000	21.7	11	-10.1	19.0	2.73	 .0710	24	1	100.0	1
11/26/24	18:47	-7.8	-7.8	-7.8	72	-12.0	13.0	NNW	0.22	14.8	NNW	-15.8	-8.0	-16.0	724.3	0.018	0.000	21.7	11	-10.1	18.9	2.73	 .0711	23	1	100.0	1
11/26/24	18:48	-7.9	-7.8	-7.9	72	-12.1	13.9	NNW	0.23	16.5	NNW	-16.1	-8.1	-16.3	724.3	0.018	0.000	21.7	11	-10.1	19.0	2.73	 .0710	24	1	100.0	1
11/26/24	18:49	-7.9	-7.9	-7.9	72	-12.1	13.9	NNW	0.23	14.8	NNW	-16.1	-8.1	-16.3	724.3	0.018	0.000	21.7	11	-10.1	19.0	2.73	 .0710	23	1	100.0	1
11/26/24	18:50	-7.9	-7.9	-7.9	72	-12.1	13.9	NNW	0.23	14.8	NNW	-16.1	-8.1	-16.3	724.3	0.018	0.000	21.7	11	-10.1	19.0	2.73	 .0710	23	1	100.0	1
11/26/24	18:51	-7.8	-7.8	-7.9	72	-12.0	14.8	NNW	0.25	15.7	NNW	-16.3	-8.0	-16.4	724.3	0.018	0.000	21.7	11	-10.1	19.0	2.73	 .0710	24	1	100.0	1
11/26/24	18:52	-7.8	-7.8	-7.8	71	-12.2	13.9	NNW	0.23	15.7	NNW	-16.1	-8.0	-16.2	724.3	0.018	0.000	21.7	11	-10.1	19.0	2.73	 .0710	23	1	100.0	1
11/26/24	18:53	-7.8	-7.8	-7.8	71	-12.1	13.9	NNW	0.23	14.8	NNW	-16.0	-7.9	-16.2	724.3	0.018	0.000	21.7	11	-10.1	19.0	2.73	 .0710	24	1	100.0	1
11/26/24	18:54	-7.8	-7.8	-7.8	71	-12.1	13.9	NNW	0.23	14.8	NNW	-16.0	-7.9	-16.2	724.3	0.018	0.000	21.7	11	-10.1	19.0	2.73	 .0710	23	1	100.0	1
11/26/24	18:55	-7.8	-7.8	-7.8	71	-12.1	13.0	NNW	0.22	13.9	NNW	-15.7	-7.9	-15.9	724.3	0.018	0.000	21.7	11	-10.1	19.0	2.73	 .0710	24	1	100.0	1
11/26/24	18:56	-7.8	-7.8	-7.8	71	-12.2	13.9	NNW	0.23	15.7	NNW	-16.1	-8.0	-16.2	724.3	0.018	0.000	21.7	11	-10.1	19.0	2.73	 .0710	23	1	100.0	1
11/26/24	18:57	-7.8	-7.8	-7.8	71	-12.2	13.9	NNW	0.23	14.8	NNW	-16.1	-8.0	-16.2	724.3	0.018	0.000	21.7	11	-10.1	19.0	2.73	 .0710	23	1	100.0	1
11/26/24	18:58	-7.8	-7.8	-7.8	71	-12.2	12.2	NNW	0.20	13.9	NNW	-15.6	-8.0	-15.7	724.3	0.018	0.000	21.7	11	-10.1	19.0	2.73	 .0710	24	1	100.0	1
11/26/24	18:59	-7.8	-7.8	-7.8	71	-12.1	13.0	NNW	0.22	14.8	NNW	-15.7	-7.9	-15.9	724.3	0.018	0.000	21.7	11	-10.1	19.0	2.73	 .0710	23	1	100.0	1
11/26/24	19:00	-7.8	-7.8	-7.8	70	-12.4	13.0	NNW	0.22	13.9	NNW	-15.8	-8.0	-16.0	724.3	0.018	0.000	21.8	11	-10.0	19.1	2.73	 .0710	24	1	100.0	1
11/26/24	19:01	-7.8	-7.8	-7.8	70	-12.4	12.2	NNW	0.20	13.0	NNW	-15.6	-8.0	-15.7	724.3	0.018	0.000	21.7	11	-10.1	19.0	2.73	 .0710	23	1	100.0	1
11/26/24	19:02	-7.8	-7.8	-7.8	70	-12.4	13.9	NNW	0.23	16.5	NNW	-16.1	-8.0	-16.2	724.3	0.018	0.000	21.7	11	-10.1	19.0	2.73	 .0710	23	1	100.0	1
11/26/24	19:03	-7.8	-7.8	-7.8	70	-12.4	13.9	NNW	0.23	14.8	NNW	-16.1	-8.0	-16.2	724.3	0.018	0.000	21.7	11	-10.1	19.0	2.73	 .0710	24	1	100.0	1
11/26/24	19:04	-7.9	-7.8	-7.9	70	-12.4	13.0	NNW	0.22	13.9	NNW	-15.9	-8.1	-16.1	724.3	0.018	0.000	21.7	11	-10.1	19.0	2.73	 .0710	23	1	100.0	1
11/26/24	19:05	-7.9	-7.9	-7.9	70	-12.4	13.9	NNW	0.23	15.7	NNW	-16.1	-8.1	-16.3	724.3	0.018	0.000	21.7	11	-10.1	19.0	2.73	 .0710	24	1	100.0	1
11/26/24	19:06	-7.9	-7.9	-7.9	69	-12.6	13.0	NNW	0.22	15.7	NNW	-15.9	-8.1	-16.1	724.3	0.018	0.000	21.7	11	-10.1	19.0	2.73	 .0710	23	1	100.0	1
11/26/24	19:07	-8.0	-7.9	-8.0	69	-12.7	13.0	NNW	0.22	13.9	NNW	-16.1	-8.2	-16.2	724.3	0.018	0.000	21.7	11	-10.1	19.0	2.73	 .0710	24	1	100.0	1
11/26/24	19:08	-8.0	-8.0	-8.0	69	-12.7	13.0	NNW	0.22	13.9	NNW	-16.1	-8.2	-16.2	724.4	0.018	0.000	21.7	10	-11.3	18.9	2.51	 .0711	23	1	100.0	1
11/26/24	19:09	-8.1	-8.1	-8.1	69	-12.7	13.0	NNW	0.22	14.8	NNW	-16.1	-8.2	-16.3	724.3	0.018	0.000	21.7	10	-11.3	18.9	2.51	 .0711	23	1	100.0	1
11/26/24	19:10	-8.1	-8.1	-8.1	69	-12.8	13.0	NNW	0.22	15.7	NNW	-16.2	-8.3	-16.3	724.3	0.018	0.000	21.7	10	-11.3	18.9	2.51	 .0711	24	1	100.0	1
11/26/24	19:11	-8.1	-8.1	-8.1	68	-12.9	13.0	NNW	0.22	15.7	NNW	-16.1	-8.2	-16.3	724.3	0.018	0.000	21.7	10	-11.3	18.9	2.51	 .0711	23	1	100.0	1
11/26/24	19:12	-8.1	-8.1	-8.1	69	-12.7	14.8	NNW	0.25	15.7	NNW	-16.6	-8.2	-16.8	724.4	0.018	0.000	21.7	10	-11.3	18.9	2.51	 .0711	24	1	100.0	1
11/26/24	19:13	-8.0	-8.0	-8.0	68	-12.9	15.7	NNW	0.26	17.4	NNW	-16.7	-8.2	-16.9	724.4	0.018	0.000	21.7	10	-11.3	18.9	2.51	 .0711	23	1	100.0	1
11/26/24	19:14	-7.9	-7.9	-8.0	68	-12.8	14.8	NNW	0.25	15.7	NNW	-16.4	-8.1	-16.6	724.3	0.018	0.000	21.7	10	-11.3	18.9	2.51	 .0711	23	1	100.0	1
11/26/24	19:15	-7.9	-7.9	-7.9	66	-13.2	16.5	NNW	0.28	18.3	NNW	-16.9	-8.2	-17.1	724.3	0.018	0.000	21.7	10	-11.3	18.9	2.51	 .0711	24	1	100.0	1
11/26/24	19:16	-7.9	-7.9	-7.9	65	-13.3	15.7	NNW	0.26	18.3	N	-16.6	-8.1	-16.8	724.3	0.018	0.000	21.7	10	-11.3	18.9	2.51	 .0711	23	1	100.0	1
11/26/24	19:17	-7.9	-7.9	-7.9	65	-13.3	16.5	NNW	0.28	18.3	NNW	-16.8	-8.1	-17.1	724.4	0.018	0.000	21.7	10	-11.3	18.9	2.51	 .0711	24	1	100.0	1
11/26/24	19:18	-7.8	-7.8	-7.8	65	-13.3	15.7	NNW	0.26	19.1	NNW	-16.6	-8.1	-16.8	724.3	0.018	0.000	21.7	10	-11.3	18.9	2.51	 .0711	23	1	100.0	1
11/26/24	19:19	-7.8	-7.8	-7.8	64	-13.5	16.5	NNW	0.28	19.1	N	-16.7	-8.1	-16.9	724.3	0.018	0.000	21.7	10	-11.3	18.9	2.51	 .0711	23	1	100.0	1
11/26/24	19:20	-7.8	-7.8	-7.8	64	-13.5	16.5	NNW	0.28	19.1	NNW	-16.7	-8.1	-16.9	724.4	0.018	0.000	21.7	10	-11.3	18.9	2.51	 .0711	24	1	100.0	1
11/26/24	19:21	-7.8	-7.8	-7.8	64	-13.4	15.7	NNW	0.26	17.4	NNW	-16.4	-8.0	-16.7	724.4	0.018	0.000	21.7	10	-11.3	18.9	2.51	 .0711	23	1	100.0	1
11/26/24	19:22	-7.8	-7.8	-7.8	64	-13.4	15.7	NNW	0.26	16.5	NNW	-16.4	-8.0	-16.7	724.4	0.018	0.000	21.7	10	-11.3	18.9	2.51	 .0711	24	1	100.0	1
11/26/24	19:23	-7.8	-7.8	-7.8	64	-13.4	16.5	NNW	0.28	18.3	NNW	-16.7	-8.0	-16.9	724.4	0.018	0.000	21.7	10	-11.3	18.9	2.51	 .0711	23	1	100.0	1
11/26/24	19:24	-7.7	-7.7	-7.8	65	-13.2	15.7	NNW	0.26	17.4	NNW	-16.4	-7.9	-16.6	724.3	0.018	0.000	21.6	10	-11.4	18.8	2.51	 .0711	24	1	100.0	1
11/26/24	19:25	-7.7	-7.7	-7.7	65	-13.2	15.7	NNW	0.26	19.1	NNW	-16.4	-7.9	-16.6	724.4	0.018	0.000	21.6	10	-11.4	18.8	2.51	 .0711	23	1	100.0	1
11/26/24	19:26	-7.7	-7.7	-7.7	64	-13.4	15.7	NNW	0.26	17.4	NNW	-16.4	-7.9	-16.6	724.4	0.018	0.000	21.6	10	-11.4	18.8	2.51	 .0711	23	1	100.0	1
11/26/24	19:27	-7.7	-7.7	-7.7	64	-13.3	17.4	NNW	0.29	18.3	NNW	-16.7	-7.9	-16.9	724.3	0.018	0.000	21.6	10	-11.4	18.8	2.51	 .0711	24	1	100.0	1
11/26/24	19:28	-7.7	-7.7	-7.7	64	-13.3	16.5	NNW	0.28	18.3	NNW	-16.5	-7.9	-16.7	724.4	0.018	0.000	21.6	10	-11.4	18.8	2.51	 .0711	23	1	100.0	1
11/26/24	19:29	-7.6	-7.6	-7.6	65	-13.1	16.5	NNW	0.28	19.1	NNW	-16.4	-7.8	-16.7	724.4	0.018	0.000	21.6	10	-11.4	18.8	2.51	 .0711	24	1	100.0	1
11/26/24	19:30	-7.6	-7.6	-7.6	65	-13.1	16.5	NNW	0.28	17.4	NNW	-16.4	-7.8	-16.7	724.4	0.018	0.000	21.6	10	-11.4	18.8	2.51	 .0711	23	1	100.0	1
11/26/24	19:31	-7.6	-7.6	-7.6	64	-13.3	13.9	NNW	0.23	15.7	NNW	-15.8	-7.8	-16.0	724.4	0.018	0.000	21.6	10	-11.4	18.8	2.51	 .0711	23	1	100.0	1
11/26/24	19:32	-7.6	-7.6	-7.6	64	-13.3	16.5	NNW	0.28	17.4	NNW	-16.4	-7.8	-16.7	724.4	0.018	0.000	21.6	10	-11.4	18.7	2.52	 .0711	24	1	100.0	1
11/26/24	19:33	-7.6	-7.6	-7.6	65	-13.1	15.7	NNW	0.26	18.3	NNW	-16.2	-7.8	-16.4	724.4	0.018	0.000	21.6	10	-11.4	18.8	2.51	 .0711	23	1	100.0	1
11/26/24	19:34	-7.6	-7.6	-7.6	65	-13.1	16.5	NNW	0.28	19.1	NNW	-16.4	-7.8	-16.7	724.4	0.018	0.000	21.6	10	-11.4	18.7	2.52	 .0711	24	1	100.0	1
11/26/24	19:35	-7.6	-7.6	-7.6	65	-13.1	14.8	NNW	0.25	16.5	NNW	-16.0	-7.8	-16.2	724.4	0.018	0.000	21.6	10	-11.4	18.7	2.52	 .0711	23	1	100.0	1
11/26/24	19:36	-7.6	-7.6	-7.6	64	-13.3	14.8	NNW	0.25	16.5	NNW	-16.0	-7.8	-16.2	724.5	0.018	0.000	21.6	10	-11.4	18.8	2.51	 .0711	24	1	100.0	1
11/26/24	19:37	-7.6	-7.6	-7.6	65	-13.0	16.5	NNW	0.28	18.3	NNW	-16.4	-7.8	-16.6	724.4	0.018	0.000	21.6	10	-11.4	18.8	2.51	 .0711	23	1	100.0	1
11/26/24	19:38	-7.6	-7.6	-7.6	65	-13.0	15.7	NNW	0.26	16.5	NNW	-16.2	-7.8	-16.4	724.4	0.018	0.000	21.6	10	-11.4	18.8	2.51	 .0711	23	1	100.0	1
11/26/24	19:39	-7.6	-7.6	-7.6	65	-13.0	15.7	NNW	0.26	17.4	NNW	-16.2	-7.8	-16.4	724.4	0.018	0.000	21.6	10	-11.4	18.8	2.51	 .0711	24	1	100.0	1
11/26/24	19:40	-7.6	-7.5	-7.6	65	-13.0	14.8	NNW	0.25	16.5	NNW	-15.9	-7.8	-16.2	724.5	0.018	0.000	21.6	10	-11.4	18.8	2.51	 .0711	23	1	100.0	1
11/26/24	19:41	-7.5	-7.5	-7.6	66	-12.8	15.7	NNW	0.26	18.3	NNW	-16.1	-7.7	-16.3	724.4	0.018	0.000	21.6	10	-11.4	18.8	2.51	 .0711	24	1	100.0	1
11/26/24	19:42	-7.5	-7.5	-7.5	65	-13.0	15.7	NNW	0.26	17.4	NNW	-16.1	-7.7	-16.3	724.4	0.018	0.000	21.7	10	-11.3	18.9	2.51	 .0711	23	1	100.0	1
11/26/24	19:43	-7.5	-7.5	-7.5	65	-13.0	15.7	NNW	0.26	17.4	NNW	-16.1	-7.7	-16.3	724.4	0.018	0.000	21.7	10	-11.3	18.9	2.51	 .0711	23	1	100.0	1
11/26/24	19:44	-7.5	-7.5	-7.5	65	-13.0	15.7	NNW	0.26	17.4	NNW	-16.1	-7.7	-16.3	724.4	0.018	0.000	21.7	10	-11.3	18.9	2.51	 .0711	24	1	100.0	1
11/26/24	19:45	-7.5	-7.5	-7.5	65	-13.0	14.8	NNW	0.25	16.5	NNW	-15.9	-7.7	-16.1	724.4	0.018	0.000	21.7	10	-11.3	18.9	2.51	 .0711	23	1	100.0	1
11/26/24	19:46	-7.5	-7.5	-7.5	66	-12.8	14.8	NNW	0.25	17.4	NNW	-15.9	-7.7	-16.1	724.5	0.018	0.000	21.7	10	-11.3	18.9	2.51	 .0711	24	1	100.0	1
11/26/24	19:47	-7.5	-7.5	-7.5	66	-12.8	13.9	NNW	0.23	16.5	NNW	-15.6	-7.7	-15.8	724.5	0.018	0.000	21.7	10	-11.3	18.9	2.51	 .0711	23	1	100.0	1
11/26/24	19:48	-7.5	-7.5	-7.5	65	-13.0	14.8	NNW	0.25	16.5	NNW	-15.9	-7.7	-16.1	724.5	0.018	0.000	21.7	10	-11.3	18.9	2.51	 .0711	24	1	100.0	1
11/26/24	19:49	-7.6	-7.5	-7.6	65	-13.0	14.8	NNW	0.25	16.5	NNW	-15.9	-7.8	-16.2	724.5	0.018	0.000	21.7	10	-11.3	18.9	2.51	 .0711	23	1	100.0	1
11/26/24	19:50	-7.6	-7.6	-7.6	65	-13.1	13.9	NNW	0.23	15.7	NNW	-15.8	-7.8	-16.0	724.5	0.018	0.000	21.8	10	-11.2	19.1	2.50	 .0711	23	1	100.0	1
11/26/24	19:51	-7.6	-7.6	-7.6	65	-13.1	14.8	NNW	0.25	15.7	NNW	-16.0	-7.8	-16.2	724.5	0.018	0.000	21.7	10	-11.3	18.9	2.51	 .0711	24	1	100.0	1
11/26/24	19:52	-7.6	-7.6	-7.6	65	-13.1	14.8	NNW	0.25	15.7	NNW	-16.0	-7.8	-16.2	724.5	0.018	0.000	21.7	10	-11.3	18.9	2.51	 .0711	23	1	100.0	1
11/26/24	19:53	-7.6	-7.6	-7.6	66	-12.9	14.8	NNW	0.25	16.5	NNW	-16.0	-7.8	-16.2	724.5	0.018	0.000	21.8	10	-11.2	19.1	2.50	 .0711	24	1	100.0	1
11/26/24	19:54	-7.6	-7.6	-7.6	66	-12.9	14.8	NNW	0.25	16.5	NNW	-16.0	-7.8	-16.2	724.5	0.018	0.000	21.8	10	-11.2	19.1	2.50	 .0711	23	1	100.0	1
11/26/24	19:55	-7.6	-7.6	-7.6	66	-12.9	16.5	NNW	0.28	17.4	NNW	-16.4	-7.8	-16.7	724.5	0.018	0.000	21.8	10	-11.2	19.1	2.50	 .0711	23	1	100.0	1
11/26/24	19:56	-7.6	-7.6	-7.6	66	-12.9	15.7	NNW	0.26	16.5	NNW	-16.2	-7.8	-16.4	724.5	0.018	0.000	21.8	10	-11.2	19.1	2.50	 .0711	24	1	100.0	1
11/26/24	19:57	-7.6	-7.6	-7.6	66	-12.8	15.7	NNW	0.26	16.5	NNW	-16.2	-7.8	-16.4	724.5	0.018	0.000	21.8	10	-11.2	19.1	2.50	 .0711	23	1	100.0	1
11/26/24	19:58	-7.6	-7.6	-7.6	66	-12.9	15.7	NNW	0.26	16.5	NNW	-16.2	-7.8	-16.4	724.5	0.018	0.000	21.8	10	-11.2	19.1	2.50	 .0711	24	1	100.0	1
11/26/24	19:59	-7.6	-7.6	-7.6	66	-12.9	15.7	NNW	0.26	16.5	NNW	-16.2	-7.8	-16.4	724.4	0.018	0.000	21.8	10	-11.2	19.1	2.50	 .0711	23	1	100.0	1
11/26/24	20:00	-7.6	-7.6	-7.6	66	-12.9	15.7	NNW	0.26	18.3	NNW	-16.2	-7.8	-16.4	724.5	0.018	0.000	21.8	10	-11.2	19.1	2.50	 .0711	24	1	100.0	1
11/26/24	20:01	-7.6	-7.6	-7.6	67	-12.7	16.5	NNW	0.28	17.4	NNW	-16.4	-7.8	-16.7	724.5	0.018	0.000	21.8	10	-11.2	19.1	2.50	 .0711	23	1	100.0	1
11/26/24	20:02	-7.6	-7.6	-7.6	67	-12.7	15.7	NNW	0.26	18.3	NNW	-16.2	-7.8	-16.4	724.5	0.018	0.000	21.8	10	-11.2	19.1	2.50	 .0711	23	1	100.0	1
11/26/24	20:03	-7.6	-7.6	-7.6	68	-12.4	16.5	NNW	0.28	19.1	NNW	-16.4	-7.7	-16.6	724.5	0.018	0.000	21.8	10	-11.2	19.1	2.50	 .0711	24	1	100.0	1
11/26/24	20:04	-7.6	-7.6	-7.6	67	-12.6	16.5	NNW	0.28	18.3	NNW	-16.4	-7.8	-16.6	724.5	0.018	0.000	21.8	10	-11.2	19.1	2.50	 .0711	23	1	100.0	1
11/26/24	20:05	-7.6	-7.6	-7.6	67	-12.6	16.5	NNW	0.28	18.3	NNW	-16.4	-7.8	-16.6	724.5	0.018	0.000	21.8	10	-11.2	19.1	2.50	 .0711	24	1	100.0	1
11/26/24	20:06	-7.6	-7.6	-7.6	67	-12.6	16.5	NNW	0.28	18.3	NNW	-16.4	-7.8	-16.6	724.5	0.018	0.000	21.8	10	-11.2	19.1	2.50	 .0711	23	1	100.0	1
11/26/24	20:07	-7.6	-7.6	-7.6	67	-12.6	16.5	NNW	0.28	18.3	NNW	-16.4	-7.8	-16.6	724.5	0.018	0.000	21.7	10	-11.3	18.9	2.51	 .0711	23	1	100.0	1
11/26/24	20:08	-7.6	-7.6	-7.6	68	-12.4	16.5	NNW	0.28	18.3	NNW	-16.4	-7.7	-16.6	724.5	0.018	0.000	21.7	10	-11.3	18.9	2.51	 .0711	24	1	100.0	1
11/26/24	20:09	-7.6	-7.6	-7.6	68	-12.4	16.5	NNW	0.28	18.3	NNW	-16.4	-7.7	-16.6	724.5	0.018	0.000	21.7	10	-11.3	18.9	2.51	 .0711	23	1	100.0	1
11/26/24	20:10	-7.6	-7.6	-7.6	68	-12.5	17.4	NNW	0.29	18.3	NNW	-16.7	-7.8	-16.8	724.5	0.018	0.000	21.7	10	-11.3	18.9	2.51	 .0711	24	1	100.0	1
11/26/24	20:11	-7.6	-7.6	-7.6	68	-12.4	16.5	NNW	0.28	17.4	NNW	-16.4	-7.7	-16.6	724.5	0.018	0.000	21.7	10	-11.3	18.9	2.51	 .0711	23	1	100.0	1
11/26/24	20:12	-7.6	-7.6	-7.6	68	-12.5	16.5	NNW	0.28	17.4	NNW	-16.4	-7.8	-16.6	724.5	0.018	0.000	21.7	10	-11.3	18.9	2.51	 .0711	24	1	100.0	1
11/26/24	20:13	-7.6	-7.6	-7.6	68	-12.5	17.4	NNW	0.29	19.1	NNW	-16.7	-7.8	-16.8	724.5	0.018	0.000	21.7	10	-11.3	18.9	2.51	 .0711	23	1	100.0	1
11/26/24	20:14	-7.6	-7.6	-7.6	68	-12.4	18.3	NNW	0.30	20.0	NNW	-16.8	-7.7	-16.9	724.5	0.018	0.000	21.7	10	-11.3	18.9	2.51	 .0711	23	1	100.0	1
11/26/24	20:15	-7.6	-7.6	-7.6	68	-12.4	16.5	NNW	0.28	20.0	NNW	-16.4	-7.7	-16.6	724.5	0.018	0.000	21.7	10	-11.3	18.9	2.51	 .0711	24	1	100.0	1
11/26/24	20:16	-7.6	-7.6	-7.6	68	-12.4	16.5	NNW	0.28	17.4	NNW	-16.4	-7.7	-16.6	724.5	0.018	0.000	21.7	10	-11.3	18.9	2.51	 .0711	23	1	100.0	1
11/26/24	20:17	-7.5	-7.5	-7.6	68	-12.4	17.4	NNW	0.29	19.1	NNW	-16.5	-7.7	-16.7	724.6	0.018	0.000	21.7	10	-11.3	18.9	2.51	 .0711	24	1	100.0	1
11/26/24	20:18	-7.5	-7.5	-7.5	68	-12.4	16.5	NNW	0.28	20.0	NNW	-16.3	-7.7	-16.5	724.6	0.018	0.000	21.7	10	-11.3	18.9	2.51	 .0711	23	1	100.0	1
11/26/24	20:19	-7.5	-7.5	-7.5	68	-12.4	16.5	NNW	0.28	19.1	NNW	-16.3	-7.7	-16.5	724.6	0.018	0.000	21.7	10	-11.3	18.9	2.51	 .0711	23	1	100.0	1
11/26/24	20:20	-7.5	-7.5	-7.5	68	-12.4	16.5	NNW	0.28	18.3	NNW	-16.3	-7.7	-16.5	724.5	0.018	0.000	21.6	10	-11.4	18.8	2.51	 .0711	24	1	100.0	1
11/26/24	20:21	-7.5	-7.4	-7.5	68	-12.4	15.7	NNW	0.26	18.3	NNW	-16.1	-7.7	-16.3	724.6	0.018	0.000	21.6	10	-11.4	18.8	2.51	 .0711	23	1	100.0	1
11/26/24	20:22	-7.5	-7.4	-7.5	68	-12.4	16.5	NNW	0.28	19.1	NNW	-16.3	-7.7	-16.5	724.6	0.018	0.000	21.6	10	-11.4	18.8	2.51	 .0711	24	1	100.0	1
11/26/24	20:23	-7.5	-7.5	-7.5	68	-12.4	15.7	NNW	0.26	17.4	NNW	-16.1	-7.7	-16.3	724.6	0.018	0.000	21.6	10	-11.4	18.8	2.51	 .0711	23	1	100.0	1
11/26/24	20:24	-7.5	-7.5	-7.5	68	-12.4	15.7	NNW	0.26	17.4	NNW	-16.1	-7.7	-16.3	724.6	0.018	0.000	21.6	10	-11.4	18.8	2.51	 .0711	24	1	100.0	1
11/26/24	20:25	-7.5	-7.5	-7.5	68	-12.4	17.4	NNW	0.29	19.1	NNW	-16.5	-7.7	-16.7	724.6	0.018	0.000	21.6	10	-11.4	18.8	2.51	 .0711	23	1	100.0	1
11/26/24	20:26	-7.5	-7.5	-7.5	68	-12.4	16.5	NNW	0.28	19.1	NNW	-16.3	-7.7	-16.5	724.6	0.018	0.000	21.6	10	-11.4	18.7	2.52	 .0711	23	1	100.0	1
11/26/24	20:27	-7.5	-7.5	-7.5	68	-12.4	16.5	NNW	0.28	18.3	NNW	-16.3	-7.7	-16.5	724.7	0.018	0.000	21.6	10	-11.4	18.7	2.52	 .0711	24	1	100.0	1
11/26/24	20:28	-7.5	-7.5	-7.5	67	-12.6	16.5	NNW	0.28	18.3	NNW	-16.3	-7.7	-16.6	724.6	0.018	0.000	21.6	10	-11.4	18.7	2.52	 .0711	23	1	100.0	1
11/26/24	20:29	-7.5	-7.5	-7.5	67	-12.6	18.3	NNW	0.30	20.9	NNW	-16.7	-7.7	-16.9	724.7	0.018	0.000	21.6	10	-11.4	18.7	2.52	 .0711	24	1	100.0	1
11/26/24	20:30	-7.5	-7.5	-7.5	67	-12.6	17.4	NNW	0.29	19.1	NNW	-16.5	-7.7	-16.7	724.6	0.018	0.000	21.6	10	-11.4	18.7	2.52	 .0711	23	1	100.0	1
11/26/24	20:31	-7.5	-7.4	-7.5	67	-12.6	17.4	NNW	0.29	20.9	NNW	-16.5	-7.7	-16.7	724.7	0.018	0.000	21.6	10	-11.4	18.7	2.52	 .0711	23	1	100.0	1
11/26/24	20:32	-7.4	-7.4	-7.5	67	-12.5	17.4	NNW	0.29	19.1	NNW	-16.4	-7.7	-16.7	724.7	0.018	0.000	21.6	10	-11.4	18.8	2.51	 .0711	24	1	100.0	1
11/26/24	20:33	-7.5	-7.4	-7.5	67	-12.6	18.3	NNW	0.30	20.0	NNW	-16.7	-7.7	-16.9	724.7	0.018	0.000	21.6	10	-11.4	18.7	2.52	 .0711	23	1	100.0	1
11/26/24	20:34	-7.4	-7.4	-7.4	67	-12.5	17.4	NNW	0.29	19.1	NNW	-16.4	-7.7	-16.7	724.7	0.018	0.000	21.6	10	-11.4	18.8	2.51	 .0711	24	1	100.0	1
11/26/24	20:35	-7.4	-7.4	-7.4	67	-12.5	17.4	NNW	0.29	19.1	NNW	-16.4	-7.7	-16.7	724.7	0.018	0.000	21.6	10	-11.4	18.8	2.51	 .0711	23	1	100.0	1
11/26/24	20:36	-7.5	-7.4	-7.5	67	-12.6	16.5	NNW	0.28	18.3	NNW	-16.3	-7.7	-16.6	724.7	0.018	0.000	21.6	10	-11.4	18.8	2.51	 .0711	24	1	100.0	1
11/26/24	20:37	-7.5	-7.5	-7.5	67	-12.6	16.5	NNW	0.28	18.3	NNW	-16.3	-7.7	-16.6	724.7	0.018	0.000	21.6	10	-11.4	18.8	2.51	 .0711	23	1	100.0	1
11/26/24	20:38	-7.5	-7.5	-7.6	67	-12.6	16.5	NNW	0.28	18.3	NNW	-16.3	-7.7	-16.6	724.7	0.018	0.000	21.6	10	-11.4	18.8	2.51	 .0711	23	1	100.0	1
11/26/24	20:39	-7.5	-7.5	-7.5	67	-12.6	17.4	NNW	0.29	20.0	NNW	-16.5	-7.7	-16.7	724.7	0.018	0.000	21.7	10	-11.3	18.9	2.51	 .0711	24	1	100.0	1
11/26/24	20:40	-7.5	-7.5	-7.5	67	-12.6	18.3	NNW	0.30	20.0	NNW	-16.7	-7.7	-16.9	724.7	0.018	0.000	21.7	10	-11.3	18.9	2.51	 .0711	23	1	100.0	1
11/26/24	20:41	-7.4	-7.4	-7.5	67	-12.5	18.3	NNW	0.30	20.9	NNW	-16.6	-7.7	-16.8	724.7	0.018	0.000	21.7	10	-11.3	18.9	2.51	 .0711	24	1	100.0	1
11/26/24	20:42	-7.4	-7.4	-7.4	67	-12.5	19.1	NNW	0.32	20.0	NNW	-16.8	-7.6	-17.0	724.7	0.018	0.000	21.7	10	-11.3	18.9	2.51	 .0711	23	1	100.0	1
11/26/24	20:43	-7.4	-7.4	-7.4	67	-12.5	19.1	NNW	0.32	20.9	NNW	-16.8	-7.7	-17.1	724.6	0.018	0.000	21.7	10	-11.3	18.9	2.51	 .0711	23	1	100.0	1
11/26/24	20:44	-7.4	-7.4	-7.4	67	-12.5	16.5	NNW	0.28	19.1	NNW	-16.2	-7.7	-16.4	724.7	0.018	0.000	21.7	10	-11.3	18.9	2.51	 .0711	24	1	100.0	1
11/26/24	20:45	-7.4	-7.4	-7.4	67	-12.5	17.4	NNW	0.29	19.1	NNW	-16.4	-7.7	-16.7	724.7	0.018	0.000	21.7	10	-11.3	18.9	2.51	 .0711	23	1	100.0	1
11/26/24	20:46	-7.4	-7.4	-7.4	67	-12.5	17.4	NNW	0.29	19.1	NNW	-16.4	-7.7	-16.7	724.7	0.018	0.000	21.7	10	-11.3	18.9	2.51	 .0711	24	1	100.0	1
11/26/24	20:47	-7.4	-7.4	-7.5	68	-12.3	16.5	NNW	0.28	18.3	NNW	-16.2	-7.6	-16.4	724.7	0.018	0.000	21.7	10	-11.3	18.9	2.51	 .0711	23	1	100.0	1
11/26/24	20:48	-7.4	-7.4	-7.5	68	-12.3	17.4	NNW	0.29	18.3	NNW	-16.4	-7.6	-16.6	724.7	0.018	0.000	21.7	10	-11.3	18.9	2.51	 .0711	23	1	100.0	1
11/26/24	20:49	-7.5	-7.5	-7.5	68	-12.4	17.4	NNW	0.29	19.1	NNW	-16.5	-7.7	-16.7	724.7	0.018	0.000	21.7	10	-11.3	18.9	2.51	 .0711	24	1	100.0	1
11/26/24	20:50	-7.4	-7.4	-7.5	68	-12.3	18.3	NNW	0.30	20.0	NNW	-16.6	-7.6	-16.8	724.7	0.018	0.000	21.7	10	-11.3	18.9	2.51	 .0711	23	1	100.0	1
11/26/24	20:51	-7.4	-7.4	-7.4	68	-12.3	18.3	NNW	0.30	20.9	NNW	-16.6	-7.6	-16.7	724.8	0.018	0.000	21.7	10	-11.3	18.9	2.51	 .0711	24	1	100.0	1
11/26/24	20:52	-7.4	-7.4	-7.4	67	-12.5	17.4	NNW	0.29	20.9	NNW	-16.4	-7.6	-16.6	724.8	0.018	0.000	21.7	10	-11.3	18.9	2.51	 .0711	23	1	100.0	1
11/26/24	20:53	-7.4	-7.4	-7.4	67	-12.5	16.5	NNW	0.28	19.1	NNW	-16.2	-7.6	-16.4	724.8	0.018	0.000	21.7	10	-11.3	18.9	2.51	 .0711	24	1	100.0	1
11/26/24	20:54	-7.4	-7.4	-7.4	67	-12.5	17.4	NNW	0.29	19.1	NNW	-16.4	-7.6	-16.6	724.8	0.018	0.000	21.7	10	-11.3	18.9	2.51	 .0711	23	1	100.0	1
11/26/24	20:55	-7.3	-7.3	-7.4	67	-12.4	18.3	NNW	0.30	20.0	NNW	-16.5	-7.6	-16.7	724.8	0.018	0.000	21.7	10	-11.3	18.9	2.51	 .0711	23	1	100.0	1
11/26/24	20:56	-7.3	-7.3	-7.4	67	-12.4	17.4	NNW	0.29	20.0	NNW	-16.3	-7.6	-16.5	724.8	0.018	0.000	21.7	10	-11.3	18.9	2.51	 .0711	24	1	100.0	1
11/26/24	20:57	-7.3	-7.3	-7.4	67	-12.4	17.4	NNW	0.29	19.1	NNW	-16.3	-7.6	-16.5	724.8	0.018	0.000	21.7	10	-11.3	18.9	2.51	 .0711	23	1	100.0	1
11/26/24	20:58	-7.3	-7.3	-7.3	68	-12.2	18.3	NNW	0.30	20.0	NNW	-16.4	-7.4	-16.6	724.8	0.018	0.000	21.7	10	-11.3	18.9	2.51	 .0711	24	1	100.0	1
11/26/24	20:59	-7.3	-7.3	-7.3	67	-12.4	17.4	NNW	0.29	18.3	NNW	-16.3	-7.6	-16.5	724.8	0.018	0.000	21.7	10	-11.3	18.9	2.51	 .0711	23	1	100.0	1
11/26/24	21:00	-7.3	-7.3	-7.3	67	-12.4	17.4	NNW	0.29	19.1	NNW	-16.3	-7.6	-16.5	724.8	0.018	0.000	21.7	10	-11.3	18.9	2.51	 .0711	23	1	100.0	1
11/26/24	21:01	-7.3	-7.3	-7.3	67	-12.4	18.3	NNW	0.30	21.7	NNW	-16.5	-7.6	-16.7	724.8	0.018	0.000	21.7	10	-11.3	18.9	2.51	 .0711	24	1	100.0	1
11/26/24	21:02	-7.3	-7.3	-7.3	68	-12.2	19.1	NNW	0.32	21.7	NNW	-16.7	-7.5	-16.8	724.8	0.018	0.000	21.7	10	-11.3	18.9	2.51	 .0711	23	1	100.0	1
11/26/24	21:03	-7.3	-7.3	-7.3	67	-12.4	18.3	NNW	0.30	19.1	NNW	-16.4	-7.5	-16.7	724.8	0.018	0.000	21.7	10	-11.3	18.9	2.51	 .0711	24	1	100.0	1
11/26/24	21:04	-7.3	-7.3	-7.3	67	-12.4	17.4	NNW	0.29	19.1	NNW	-16.3	-7.6	-16.5	724.8	0.018	0.000	21.7	10	-11.3	18.9	2.51	 .0711	23	1	100.0	1
11/26/24	21:05	-7.3	-7.3	-7.3	68	-12.2	18.3	NNW	0.30	20.0	NNW	-16.4	-7.4	-16.6	724.8	0.018	0.000	21.7	10	-11.3	18.9	2.51	 .0711	24	1	100.0	1
11/26/24	21:06	-7.3	-7.3	-7.3	68	-12.2	17.4	NNW	0.29	18.3	NNW	-16.2	-7.4	-16.4	724.8	0.018	0.000	21.7	10	-11.3	18.9	2.51	 .0711	23	1	100.0	1
11/26/24	21:07	-7.3	-7.3	-7.3	68	-12.2	15.7	NNW	0.26	18.3	NNW	-15.8	-7.4	-16.0	724.8	0.018	0.000	21.7	10	-11.3	18.9	2.51	 .0711	23	1	100.0	1
11/26/24	21:08	-7.3	-7.3	-7.3	68	-12.2	17.4	NNW	0.29	20.0	NNW	-16.2	-7.4	-16.4	724.8	0.018	0.000	21.7	10	-11.3	18.9	2.51	 .0711	24	1	100.0	1
11/26/24	21:09	-7.3	-7.3	-7.3	68	-12.2	16.5	NNW	0.28	19.1	NNW	-16.0	-7.4	-16.2	724.8	0.018	0.000	21.7	10	-11.3	18.9	2.51	 .0711	23	1	100.0	1
11/26/24	21:10	-7.3	-7.3	-7.3	68	-12.2	17.4	NNW	0.29	19.1	NNW	-16.2	-7.4	-16.4	724.8	0.018	0.000	21.7	10	-11.3	18.9	2.51	 .0711	24	1	100.0	1
11/26/24	21:11	-7.3	-7.3	-7.3	68	-12.2	16.5	NNW	0.28	18.3	NNW	-16.1	-7.5	-16.3	724.8	0.018	0.000	21.7	10	-11.3	18.9	2.51	 .0711	23	1	100.0	1
11/26/24	21:12	-7.3	-7.3	-7.3	68	-12.2	16.5	NNW	0.28	20.0	NNW	-16.1	-7.5	-16.3	724.8	0.018	0.000	21.6	10	-11.4	18.8	2.51	 .0711	23	1	100.0	1
11/26/24	21:13	-7.3	-7.3	-7.3	68	-12.2	16.5	NNW	0.28	18.3	NNW	-16.1	-7.5	-16.3	724.9	0.018	0.000	21.6	10	-11.4	18.8	2.51	 .0711	24	1	100.0	1
11/26/24	21:14	-7.4	-7.4	-7.4	68	-12.3	15.7	NNW	0.26	16.5	NNW	-15.9	-7.6	-16.1	724.9	0.018	0.000	21.6	10	-11.4	18.8	2.51	 .0711	23	1	100.0	1
11/26/24	21:15	-7.3	-7.3	-7.4	68	-12.2	17.4	NNW	0.29	19.1	NNW	-16.3	-7.5	-16.4	724.9	0.018	0.000	21.6	10	-11.4	18.8	2.51	 .0711	24	1	100.0	1
11/26/24	21:16	-7.3	-7.3	-7.3	68	-12.2	16.5	NNW	0.28	19.1	NNW	-16.1	-7.5	-16.3	724.9	0.018	0.000	21.6	10	-11.4	18.7	2.52	 .0712	23	1	100.0	1
11/26/24	21:17	-7.3	-7.3	-7.3	68	-12.2	16.5	NNW	0.28	19.1	NNW	-16.0	-7.4	-16.2	724.9	0.018	0.000	21.6	10	-11.4	18.8	2.51	 .0711	23	1	100.0	1
11/26/24	21:18	-7.3	-7.3	-7.3	68	-12.2	15.7	NNW	0.26	19.1	NNW	-15.8	-7.4	-16.0	724.9	0.018	0.000	21.6	10	-11.4	18.7	2.52	 .0712	24	1	100.0	1
11/26/24	21:19	-7.3	-7.3	-7.3	68	-12.2	16.5	NNW	0.28	17.4	NNW	-16.0	-7.4	-16.2	724.9	0.018	0.000	21.6	10	-11.4	18.7	2.52	 .0712	23	1	100.0	1
11/26/24	21:20	-7.3	-7.3	-7.3	69	-12.0	15.7	NNW	0.26	17.4	NNW	-15.8	-7.4	-16.0	724.9	0.018	0.000	21.6	10	-11.4	18.7	2.52	 .0712	24	1	100.0	1
11/26/24	21:21	-7.3	-7.3	-7.3	69	-12.0	16.5	NNW	0.28	17.4	NNW	-16.0	-7.4	-16.2	724.9	0.018	0.000	21.6	10	-11.4	18.7	2.52	 .0712	23	1	100.0	1
11/26/24	21:22	-7.3	-7.2	-7.3	69	-12.0	14.8	NNW	0.25	17.4	NNW	-15.6	-7.4	-15.8	724.9	0.018	0.000	21.6	10	-11.4	18.7	2.52	 .0712	24	1	100.0	1
11/26/24	21:23	-7.3	-7.2	-7.3	69	-12.0	15.7	NNW	0.26	18.3	NNW	-15.8	-7.4	-16.0	724.9	0.018	0.000	21.6	10	-11.4	18.7	2.52	 .0712	23	1	100.0	1
11/26/24	21:24	-7.3	-7.2	-7.3	69	-12.0	16.5	NNW	0.28	20.0	NNW	-16.0	-7.4	-16.2	724.9	0.018	0.000	21.6	10	-11.4	18.7	2.52	 .0712	23	1	100.0	1
11/26/24	21:25	-7.2	-7.2	-7.3	69	-11.9	16.5	NNW	0.28	20.0	NNW	-15.9	-7.4	-16.1	725.0	0.018	0.000	21.6	10	-11.4	18.7	2.52	 .0712	24	1	100.0	1
11/26/24	21:26	-7.2	-7.2	-7.2	69	-11.9	17.4	NNW	0.29	20.0	NNW	-16.2	-7.4	-16.3	724.9	0.018	0.000	21.6	10	-11.4	18.7	2.52	 .0712	23	1	100.0	1
11/26/24	21:27	-7.2	-7.2	-7.2	69	-11.9	16.5	NNW	0.28	18.3	NNW	-15.9	-7.4	-16.1	724.9	0.018	0.000	21.6	10	-11.4	18.7	2.52	 .0712	24	1	100.0	1
11/26/24	21:28	-7.2	-7.2	-7.2	69	-11.9	18.3	NNW	0.30	20.0	NNW	-16.3	-7.3	-16.4	724.9	0.018	0.000	21.6	10	-11.4	18.7	2.52	 .0712	23	1	100.0	1
11/26/24	21:29	-7.2	-7.2	-7.2	69	-11.9	18.3	NNW	0.30	19.1	NNW	-16.3	-7.3	-16.4	724.9	0.018	0.000	21.6	10	-11.4	18.8	2.51	 .0712	23	1	100.0	1
11/26/24	21:30	-7.2	-7.2	-7.2	69	-11.9	16.5	NNW	0.28	20.0	NNW	-15.9	-7.3	-16.1	724.9	0.018	0.000	21.6	10	-11.4	18.7	2.52	 .0712	24	1	100.0	1
11/26/24	21:31	-7.2	-7.2	-7.2	69	-11.9	17.4	NNW	0.29	19.1	NNW	-16.1	-7.3	-16.2	724.9	0.018	0.000	21.6	10	-11.4	18.8	2.51	 .0712	23	1	100.0	1
11/26/24	21:32	-7.2	-7.2	-7.2	69	-11.9	16.5	NNW	0.28	19.1	NNW	-15.9	-7.3	-16.1	724.9	0.018	0.000	21.6	10	-11.4	18.8	2.51	 .0712	24	1	100.0	1
11/26/24	21:33	-7.2	-7.2	-7.2	69	-11.9	16.5	NNW	0.28	18.3	NNW	-15.9	-7.3	-16.1	725.0	0.018	0.000	21.6	10	-11.4	18.8	2.51	 .0712	23	1	100.0	1
11/26/24	21:34	-7.2	-7.2	-7.2	69	-11.9	17.4	NNW	0.29	19.1	NNW	-16.2	-7.4	-16.3	725.0	0.018	0.000	21.7	10	-11.3	18.9	2.51	 .0711	24	1	100.0	1
11/26/24	21:35	-7.2	-7.2	-7.2	69	-11.9	16.5	NNW	0.28	18.3	NNW	-15.9	-7.4	-16.1	725.0	0.018	0.000	21.7	10	-11.3	18.9	2.51	 .0711	23	1	100.0	1
11/26/24	21:36	-7.2	-7.2	-7.2	70	-11.8	16.5	NNW	0.28	18.3	NNW	-15.9	-7.4	-16.1	725.0	0.018	0.000	21.7	10	-11.3	18.9	2.51	 .0712	23	1	100.0	1
11/26/24	21:37	-7.2	-7.2	-7.2	70	-11.8	15.7	NNW	0.26	19.1	NNW	-15.7	-7.4	-15.9	725.0	0.018	0.000	21.7	10	-11.3	18.9	2.51	 .0712	24	1	100.0	1
11/26/24	21:38	-7.2	-7.2	-7.2	70	-11.8	17.4	NNW	0.29	18.3	NNW	-16.2	-7.4	-16.3	725.0	0.018	0.000	21.7	10	-11.3	18.9	2.51	 .0711	23	1	100.0	1
11/26/24	21:39	-7.2	-7.2	-7.2	70	-11.8	17.4	NNW	0.29	18.3	NNW	-16.2	-7.4	-16.3	725.0	0.018	0.000	21.7	10	-11.3	18.9	2.51	 .0711	24	1	100.0	1
11/26/24	21:40	-7.2	-7.2	-7.2	70	-11.8	18.3	NNW	0.30	20.0	NNW	-16.3	-7.4	-16.5	725.0	0.018	0.000	21.7	10	-11.3	18.9	2.51	 .0711	23	1	100.0	1
11/26/24	21:41	-7.2	-7.2	-7.2	70	-11.8	18.3	NNW	0.30	20.0	NNW	-16.3	-7.4	-16.5	725.0	0.018	0.000	21.7	10	-11.3	18.9	2.51	 .0711	23	1	100.0	1
11/26/24	21:42	-7.2	-7.2	-7.2	70	-11.8	18.3	NNW	0.30	20.0	NNW	-16.3	-7.4	-16.5	725.0	0.018	0.000	21.7	10	-11.3	18.9	2.51	 .0711	24	1	100.0	1
11/26/24	21:43	-7.2	-7.2	-7.2	70	-11.7	17.4	NNW	0.29	20.9	NW	-16.1	-7.3	-16.2	725.1	0.018	0.000	21.8	10	-11.2	19.1	2.50	 .0711	23	1	100.0	1
11/26/24	21:44	-7.2	-7.2	-7.2	70	-11.7	17.4	NNW	0.29	19.1	NW	-16.1	-7.3	-16.2	725.1	0.018	0.000	21.8	10	-11.2	19.1	2.50	 .0711	24	1	100.0	1
11/26/24	21:45	-7.2	-7.2	-7.2	70	-11.8	17.4	NNW	0.29	20.0	NNW	-16.2	-7.4	-16.3	725.1	0.018	0.000	21.8	10	-11.2	19.1	2.50	 .0711	23	1	100.0	1
11/26/24	21:46	-7.2	-7.2	-7.2	70	-11.7	17.4	NNW	0.29	19.1	NW	-16.1	-7.3	-16.2	725.1	0.018	0.000	21.8	10	-11.2	19.1	2.50	 .0711	24	1	100.0	1
11/26/24	21:47	-7.2	-7.2	-7.2	70	-11.7	17.4	NNW	0.29	20.0	NNW	-16.1	-7.3	-16.2	725.1	0.018	0.000	21.8	10	-11.2	19.1	2.50	 .0711	23	1	100.0	1
11/26/24	21:48	-7.2	-7.1	-7.2	70	-11.7	17.4	NNW	0.29	20.0	NNW	-16.1	-7.3	-16.2	725.2	0.018	0.000	21.8	10	-11.2	19.1	2.50	 .0711	23	1	100.0	1
11/26/24	21:49	-7.2	-7.2	-7.2	70	-11.7	18.3	NNW	0.30	20.0	NNW	-16.3	-7.3	-16.4	725.1	0.018	0.000	21.8	10	-11.2	19.1	2.50	 .0711	24	1	100.0	1
11/26/24	21:50	-7.1	-7.1	-7.2	70	-11.7	18.3	NNW	0.30	21.7	NNW	-16.2	-7.3	-16.4	725.1	0.018	0.000	21.8	10	-11.2	19.1	2.50	 .0711	23	1	100.0	1
11/26/24	21:51	-7.1	-7.1	-7.1	70	-11.7	18.3	NNW	0.30	19.1	NNW	-16.2	-7.3	-16.4	725.2	0.018	0.000	21.8	10	-11.2	19.1	2.50	 .0711	24	1	100.0	1
11/26/24	21:52	-7.1	-7.1	-7.1	70	-11.6	18.3	NNW	0.30	20.0	NNW	-16.1	-7.2	-16.3	725.2	0.018	0.000	21.8	10	-11.2	19.1	2.50	 .0711	23	1	100.0	1
11/26/24	21:53	-7.1	-7.1	-7.1	70	-11.7	17.4	NNW	0.29	19.1	NW	-16.0	-7.3	-16.2	725.2	0.018	0.000	21.7	10	-11.3	18.9	2.51	 .0712	23	1	100.0	1
11/26/24	21:54	-7.1	-7.1	-7.1	70	-11.7	17.4	NNW	0.29	20.0	NNW	-16.0	-7.3	-16.2	725.3	0.018	0.000	21.7	10	-11.3	18.9	2.51	 .0712	24	1	100.0	1
11/26/24	21:55	-7.1	-7.1	-7.1	70	-11.7	17.4	NNW	0.29	20.0	NNW	-16.0	-7.3	-16.2	725.2	0.018	0.000	21.7	10	-11.3	18.9	2.51	 .0712	23	1	100.0	1
11/26/24	21:56	-7.1	-7.1	-7.1	70	-11.6	19.1	NNW	0.32	20.0	NNW	-16.3	-7.2	-16.5	725.3	0.018	0.000	21.7	10	-11.3	18.9	2.51	 .0712	24	1	100.0	1
11/26/24	21:57	-7.1	-7.1	-7.1	70	-11.6	19.1	NNW	0.32	20.9	NW	-16.3	-7.2	-16.5	725.2	0.018	0.000	21.7	10	-11.3	18.9	2.51	 .0712	23	1	100.0	1
11/26/24	21:58	-7.0	-7.0	-7.1	69	-11.7	19.1	NNW	0.32	20.9	NNW	-16.2	-7.2	-16.4	725.3	0.018	0.000	21.7	10	-11.3	18.9	2.51	 .0712	24	1	100.0	1
11/26/24	21:59	-7.0	-7.0	-7.0	69	-11.7	20.0	NNW	0.33	21.7	NW	-16.4	-7.2	-16.6	725.3	0.018	0.000	21.7	10	-11.3	18.9	2.51	 .0712	23	1	100.0	1
11/26/24	22:00	-6.9	-6.9	-7.0	69	-11.7	20.0	NNW	0.33	22.6	NNW	-16.3	-7.1	-16.5	725.3	0.018	0.000	21.7	10	-11.3	18.9	2.51	 .0712	24	1	100.0	1
11/26/24	22:01	-6.9	-6.9	-6.9	69	-11.7	18.3	NNW	0.30	22.6	NNW	-16.0	-7.1	-16.2	725.3	0.018	0.000	21.7	10	-11.3	18.9	2.51	 .0712	23	1	100.0	1
11/26/24	22:02	-6.9	-6.9	-6.9	69	-11.7	18.3	NNW	0.30	20.0	NNW	-16.0	-7.1	-16.2	725.3	0.018	0.000	21.7	10	-11.3	18.9	2.51	 .0712	23	1	100.0	1
11/26/24	22:03	-6.9	-6.9	-7.0	69	-11.7	17.4	NNW	0.29	19.1	NNW	-15.8	-7.1	-15.9	725.3	0.018	0.000	21.7	10	-11.3	18.9	2.51	 .0712	24	1	100.0	1
11/26/24	22:04	-7.0	-7.0	-7.0	70	-11.6	17.4	NNW	0.29	19.1	NNW	-15.8	-7.2	-16.0	725.4	0.018	0.000	21.7	10	-11.3	18.9	2.51	 .0712	23	1	100.0	1
11/26/24	22:05	-7.0	-7.0	-7.0	70	-11.6	19.1	NNW	0.32	20.0	NNW	-16.2	-7.2	-16.4	725.3	0.018	0.000	21.7	10	-11.3	18.9	2.51	 .0712	23	1	100.0	1
11/26/24	22:06	-7.0	-7.0	-7.0	70	-11.6	18.3	NNW	0.30	19.1	NNW	-16.1	-7.2	-16.2	725.4	0.018	0.000	21.6	10	-11.4	18.8	2.51	 .0712	24	1	100.0	1
11/26/24	22:07	-7.0	-7.0	-7.0	70	-11.6	17.4	NNW	0.29	19.1	NNW	-15.8	-7.2	-16.0	725.4	0.018	0.000	21.6	10	-11.4	18.8	2.51	 .0712	23	1	100.0	1
11/26/24	22:08	-7.0	-7.0	-7.0	70	-11.6	17.4	NNW	0.29	20.0	NNW	-15.8	-7.2	-16.0	725.4	0.018	0.000	21.6	10	-11.4	18.8	2.51	 .0712	24	1	100.0	1
11/26/24	22:09	-7.0	-7.0	-7.0	70	-11.6	17.4	NNW	0.29	19.1	NNW	-15.8	-7.2	-16.0	725.4	0.018	0.000	21.6	10	-11.4	18.8	2.51	 .0712	23	1	100.0	1
11/26/24	22:10	-7.0	-6.9	-7.0	70	-11.6	17.4	NNW	0.29	19.1	NNW	-15.8	-7.2	-16.0	725.4	0.018	0.000	21.6	10	-11.4	18.8	2.51	 .0712	23	1	100.0	1
11/26/24	22:11	-6.9	-6.9	-6.9	70	-11.5	18.3	NNW	0.30	20.9	NNW	-16.0	-7.1	-16.2	725.4	0.018	0.000	21.6	10	-11.4	18.7	2.52	 .0712	24	1	100.0	1
11/26/24	22:12	-6.9	-6.9	-6.9	70	-11.5	18.3	NNW	0.30	20.0	NNW	-16.0	-7.1	-16.2	725.4	0.018	0.000	21.6	10	-11.4	18.7	2.52	 .0712	23	1	100.0	1
11/26/24	22:13	-6.9	-6.9	-6.9	70	-11.5	17.4	NNW	0.29	19.1	NNW	-15.8	-7.1	-15.9	725.4	0.018	0.000	21.6	10	-11.4	18.7	2.52	 .0712	24	1	100.0	1
11/26/24	22:14	-6.9	-6.9	-6.9	70	-11.5	18.3	NNW	0.30	20.9	NNW	-16.0	-7.1	-16.2	725.4	0.018	0.000	21.6	10	-11.4	18.7	2.52	 .0712	23	1	100.0	1
11/26/24	22:15	-6.9	-6.9	-6.9	70	-11.5	17.4	NNW	0.29	20.0	NNW	-15.8	-7.1	-15.9	725.4	0.018	0.000	21.6	10	-11.4	18.7	2.52	 .0712	24	1	100.0	1
11/26/24	22:16	-6.9	-6.9	-6.9	70	-11.5	17.4	NNW	0.29	20.9	NW	-15.8	-7.1	-15.9	725.3	0.018	0.000	21.6	10	-11.4	18.7	2.52	 .0712	23	1	100.0	1
11/26/24	22:17	-6.9	-6.9	-6.9	70	-11.5	17.4	NNW	0.29	20.0	NNW	-15.8	-7.1	-15.9	725.4	0.018	0.000	21.6	10	-11.4	18.7	2.52	 .0712	23	1	100.0	1
11/26/24	22:18	-6.9	-6.9	-6.9	70	-11.5	17.4	NNW	0.29	18.3	NNW	-15.8	-7.1	-15.9	725.4	0.018	0.000	21.5	10	-11.5	18.6	2.52	 .0712	24	1	100.0	1
11/26/24	22:19	-6.9	-6.9	-6.9	70	-11.5	18.3	NNW	0.30	20.9	NNW	-16.0	-7.1	-16.2	725.5	0.018	0.000	21.6	10	-11.4	18.7	2.52	 .0712	23	1	100.0	1
11/26/24	22:20	-6.9	-6.9	-6.9	70	-11.5	19.1	NW	0.32	21.7	NNW	-16.2	-7.1	-16.3	725.4	0.018	0.000	21.6	10	-11.4	18.7	2.52	 .0712	24	1	100.0	1
11/26/24	22:21	-6.9	-6.9	-6.9	70	-11.4	17.4	NW	0.29	19.1	NW	-15.7	-7.1	-15.9	725.4	0.018	0.000	21.6	10	-11.4	18.7	2.52	 .0712	23	1	100.0	1
11/26/24	22:22	-6.9	-6.9	-6.9	70	-11.4	19.1	NW	0.32	20.9	NW	-16.1	-7.1	-16.3	725.4	0.018	0.000	21.6	10	-11.4	18.7	2.52	 .0712	23	1	100.0	1
11/26/24	22:23	-6.9	-6.9	-6.9	70	-11.4	18.3	NW	0.30	20.9	NNW	-15.9	-7.1	-16.1	725.5	0.018	0.000	21.6	10	-11.4	18.7	2.52	 .0712	24	1	100.0	1
11/26/24	22:24	-6.9	-6.9	-6.9	70	-11.4	18.3	NNW	0.30	20.0	NNW	-15.9	-7.1	-16.1	725.4	0.018	0.000	21.6	10	-11.4	18.7	2.52	 .0712	23	1	100.0	1
11/26/24	22:25	-6.9	-6.9	-6.9	70	-11.4	18.3	NNW	0.30	20.0	NNW	-15.9	-7.1	-16.1	725.4	0.018	0.000	21.6	10	-11.4	18.7	2.52	 .0712	24	1	100.0	1
11/26/24	22:26	-6.9	-6.9	-6.9	70	-11.4	19.1	NW	0.32	21.7	NW	-16.1	-7.1	-16.3	725.4	0.018	0.000	21.6	10	-11.4	18.7	2.52	 .0712	23	1	100.0	1
11/26/24	22:27	-6.9	-6.9	-6.9	70	-11.4	19.1	NNW	0.32	21.7	NNW	-16.1	-7.1	-16.3	725.4	0.018	0.000	21.6	10	-11.4	18.8	2.51	 .0712	24	1	100.0	1
11/26/24	22:28	-6.9	-6.9	-6.9	70	-11.4	19.1	NW	0.32	20.9	NW	-16.1	-7.1	-16.3	725.4	0.018	0.000	21.6	10	-11.4	18.8	2.51	 .0712	23	1	100.0	1
11/26/24	22:29	-6.9	-6.9	-6.9	70	-11.4	18.3	NW	0.30	20.0	NW	-15.9	-7.1	-16.1	725.4	0.018	0.000	21.6	10	-11.4	18.8	2.51	 .0712	23	1	100.0	1
11/26/24	22:30	-6.9	-6.9	-6.9	70	-11.4	19.1	NNW	0.32	20.9	NNW	-16.1	-7.1	-16.3	725.4	0.018	0.000	21.7	10	-11.3	18.9	2.51	 .0712	24	1	100.0	1
11/26/24	22:31	-6.9	-6.9	-6.9	70	-11.4	18.3	NW	0.30	20.9	NW	-15.9	-7.1	-16.1	725.4	0.018	0.000	21.7	10	-11.3	18.9	2.51	 .0712	23	1	100.0	1
11/26/24	22:32	-6.8	-6.8	-6.8	71	-11.2	20.0	NW	0.33	21.7	NW	-16.2	-7.0	-16.3	725.4	0.017	0.000	21.7	10	-11.3	18.9	2.51	 .0712	24	1	100.0	1
11/26/24	22:33	-6.8	-6.8	-6.8	71	-11.2	19.1	NW	0.32	20.9	NW	-16.0	-7.0	-16.2	725.5	0.017	0.000	21.7	10	-11.3	18.9	2.51	 .0712	23	1	100.0	1
11/26/24	22:34	-6.9	-6.8	-6.9	71	-11.3	19.1	NNW	0.32	20.0	NNW	-16.1	-7.1	-16.3	725.5	0.018	0.000	21.7	10	-11.3	18.9	2.51	 .0712	23	1	100.0	1
11/26/24	22:35	-6.9	-6.9	-6.9	71	-11.3	18.3	NNW	0.30	20.0	NNW	-15.9	-7.1	-16.1	725.5	0.018	0.000	21.7	10	-11.3	18.9	2.51	 .0712	24	1	100.0	1
11/26/24	22:36	-6.9	-6.8	-6.9	71	-11.3	18.3	NNW	0.30	20.0	NW	-15.9	-7.1	-16.1	725.5	0.018	0.000	21.7	10	-11.3	18.9	2.51	 .0712	23	1	100.0	1
11/26/24	22:37	-6.8	-6.8	-6.9	71	-11.2	20.0	NW	0.33	21.7	NW	-16.2	-7.0	-16.3	725.5	0.017	0.000	21.7	10	-11.3	18.9	2.51	 .0712	24	1	100.0	1
11/26/24	22:38	-6.8	-6.8	-6.8	71	-11.2	19.1	NNW	0.32	21.7	NW	-16.0	-7.0	-16.2	725.4	0.017	0.000	21.7	10	-11.3	18.9	2.51	 .0712	23	1	100.0	1
11/26/24	22:39	-6.8	-6.8	-6.8	71	-11.2	20.0	NNW	0.33	21.7	NNW	-16.1	-6.9	-16.3	725.5	0.017	0.000	21.7	10	-11.3	18.9	2.51	 .0712	24	1	100.0	1
11/26/24	22:40	-6.8	-6.8	-6.8	71	-11.2	20.0	NNW	0.33	20.9	NW	-16.1	-6.9	-16.3	725.5	0.017	0.000	21.7	10	-11.3	18.9	2.51	 .0712	23	1	100.0	1
11/26/24	22:41	-6.8	-6.8	-6.8	71	-11.2	19.1	NNW	0.32	20.9	NW	-15.9	-6.9	-16.1	725.5	0.017	0.000	21.7	10	-11.3	18.9	2.51	 .0712	23	1	100.0	1
11/26/24	22:42	-6.8	-6.8	-6.8	71	-11.2	20.9	NNW	0.35	22.6	NNW	-16.4	-7.0	-16.6	725.6	0.017	0.000	21.7	10	-11.3	18.9	2.51	 .0712	24	1	100.0	1
11/26/24	22:43	-6.8	-6.8	-6.8	71	-11.2	20.0	NNW	0.33	22.6	NNW	-16.1	-6.9	-16.3	725.6	0.017	0.000	21.7	10	-11.3	18.9	2.51	 .0712	23	1	100.0	1
11/26/24	22:44	-6.8	-6.8	-6.8	71	-11.2	20.0	NNW	0.33	22.6	NNW	-16.1	-6.9	-16.3	725.5	0.017	0.000	21.7	10	-11.3	18.9	2.51	 .0712	24	1	100.0	1
11/26/24	22:45	-6.7	-6.7	-6.8	71	-11.1	20.9	NW	0.35	22.6	NNW	-16.2	-6.9	-16.4	725.6	0.017	0.000	21.7	10	-11.3	18.9	2.51	 .0712	23	1	100.0	1
11/26/24	22:46	-6.7	-6.7	-6.7	71	-11.1	20.9	NW	0.35	22.6	NW	-16.2	-6.9	-16.4	725.6	0.017	0.000	21.7	10	-11.3	18.9	2.51	 .0712	23	1	100.0	1
11/26/24	22:47	-6.7	-6.7	-6.8	71	-11.1	20.0	NNW	0.33	21.7	NNW	-16.1	-6.9	-16.2	725.6	0.017	0.000	21.7	10	-11.3	18.9	2.51	 .0712	24	1	100.0	1
11/26/24	22:48	-6.8	-6.7	-6.8	71	-11.2	21.7	NW	0.36	23.5	NW	-16.4	-6.9	-16.6	725.6	0.017	0.000	21.7	10	-11.3	18.9	2.51	 .0712	23	1	100.0	1
11/26/24	22:49	-6.8	-6.7	-6.8	71	-11.2	20.9	NW	0.35	23.5	NNW	-16.3	-6.9	-16.4	725.6	0.017	0.000	21.7	10	-11.3	18.9	2.51	 .0712	24	1	100.0	1
11/26/24	22:50	-6.8	-6.8	-6.8	71	-11.2	21.7	NW	0.36	23.5	NW	-16.4	-6.9	-16.6	725.6	0.017	0.000	21.7	10	-11.3	18.9	2.51	 .0712	23	1	100.0	1
11/26/24	22:51	-6.8	-6.8	-6.8	71	-11.2	20.9	NW	0.35	22.6	NW	-16.3	-6.9	-16.4	725.6	0.017	0.000	21.7	10	-11.3	18.9	2.51	 .0712	24	1	100.0	1
11/26/24	22:52	-6.7	-6.7	-6.8	71	-11.1	20.0	NW	0.33	22.6	NW	-16.1	-6.9	-16.2	725.6	0.017	0.000	21.7	10	-11.3	18.9	2.51	 .0712	23	1	100.0	1
11/26/24	22:53	-6.7	-6.7	-6.8	71	-11.1	20.0	NW	0.33	21.7	NW	-16.1	-6.9	-16.2	725.6	0.017	0.000	21.7	10	-11.3	18.9	2.51	 .0712	23	1	100.0	1
11/26/24	22:54	-6.7	-6.7	-6.7	71	-11.1	20.9	NW	0.35	22.6	NNW	-16.2	-6.9	-16.4	725.7	0.017	0.000	21.7	10	-11.3	18.9	2.51	 .0712	24	1	100.0	1
11/26/24	22:55	-6.7	-6.7	-6.7	72	-10.9	21.7	NW	0.36	24.3	NW	-16.4	-6.9	-16.6	725.7	0.017	0.000	21.7	10	-11.3	18.9	2.51	 .0712	23	1	100.0	1
11/26/24	22:56	-6.8	-6.7	-6.8	72	-11.0	21.7	NW	0.36	24.3	NNW	-16.4	-6.9	-16.6	725.6	0.017	0.000	21.6	10	-11.4	18.8	2.51	 .0712	24	1	100.0	1
11/26/24	22:57	-6.8	-6.8	-6.8	72	-11.0	21.7	NW	0.36	23.5	NW	-16.4	-6.9	-16.6	725.6	0.017	0.000	21.6	10	-11.4	18.8	2.51	 .0712	23	1	100.0	1
11/26/24	22:58	-6.8	-6.7	-6.8	72	-11.0	20.9	NW	0.35	22.6	NW	-16.3	-6.9	-16.4	725.6	0.017	0.000	21.6	10	-11.4	18.8	2.51	 .0712	23	1	100.0	1
11/26/24	22:59	-6.8	-6.8	-6.8	72	-11.0	21.7	NW	0.36	23.5	NW	-16.4	-6.9	-16.6	725.6	0.017	0.000	21.6	10	-11.4	18.8	2.51	 .0712	24	1	100.0	1
11/26/24	23:00	-6.8	-6.8	-6.8	72	-11.0	21.7	NW	0.36	23.5	NW	-16.6	-7.0	-16.7	725.7	0.017	0.000	21.6	10	-11.4	18.7	2.52	 .0712	23	1	100.0	1
11/26/24	23:01	-6.8	-6.8	-6.8	72	-11.0	20.9	NW	0.35	22.6	NNW	-16.4	-7.0	-16.6	725.7	0.017	0.000	21.6	10	-11.4	18.7	2.52	 .0712	24	1	100.0	1
11/26/24	23:02	-6.8	-6.8	-6.8	72	-11.0	21.7	NW	0.36	22.6	NW	-16.6	-7.0	-16.7	725.7	0.017	0.000	21.6	10	-11.4	18.7	2.52	 .0712	23	1	100.0	1
11/26/24	23:03	-6.8	-6.8	-6.8	72	-11.0	21.7	NW	0.36	23.5	NW	-16.4	-6.9	-16.6	725.7	0.017	0.000	21.6	10	-11.4	18.7	2.52	 .0712	23	1	100.0	1
11/26/24	23:04	-6.8	-6.8	-6.8	72	-11.0	21.7	NW	0.36	25.2	NW	-16.4	-6.9	-16.6	725.7	0.017	0.000	21.6	10	-11.4	18.7	2.52	 .0712	24	1	100.0	1
11/26/24	23:05	-6.8	-6.7	-6.8	72	-11.0	21.7	NW	0.36	25.2	NNW	-16.4	-6.9	-16.6	725.7	0.017	0.000	21.6	10	-11.4	18.7	2.52	 .0712	23	1	100.0	1
11/26/24	23:06	-6.7	-6.7	-6.7	72	-10.9	22.6	NW	0.38	24.3	NW	-16.6	-6.9	-16.7	725.7	0.017	0.000	21.5	10	-11.5	18.6	2.52	 .0713	24	1	100.0	1
11/26/24	23:07	-6.7	-6.7	-6.7	72	-10.9	22.6	NW	0.38	26.1	NNW	-16.6	-6.9	-16.7	725.7	0.017	0.000	21.5	10	-11.5	18.6	2.52	 .0713	23	1	100.0	1
11/26/24	23:08	-6.7	-6.7	-6.7	72	-10.9	22.6	NW	0.38	24.3	NW	-16.6	-6.9	-16.7	725.7	0.017	0.000	21.5	10	-11.5	18.6	2.52	 .0713	24	1	100.0	1
11/26/24	23:09	-6.7	-6.7	-6.7	72	-10.9	23.5	NW	0.39	26.1	NNW	-16.7	-6.9	-16.9	725.7	0.017	0.000	21.4	10	-11.5	18.6	2.53	 .0713	23	1	100.0	1
11/26/24	23:10	-6.7	-6.7	-6.7	72	-10.9	23.5	NW	0.39	26.1	NW	-16.7	-6.9	-16.9	725.7	0.017	0.000	21.4	10	-11.5	18.6	2.53	 .0713	23	1	100.0	1
11/26/24	23:11	-6.7	-6.7	-6.7	72	-10.9	23.5	NW	0.39	25.2	NW	-16.7	-6.9	-16.9	725.7	0.017	0.000	21.4	10	-11.5	18.6	2.53	 .0713	24	1	100.0	1
11/26/24	23:12	-6.7	-6.7	-6.7	72	-10.9	22.6	NW	0.38	24.3	NNW	-16.4	-6.8	-16.6	725.7	0.017	0.000	21.5	10	-11.5	18.6	2.52	 .0713	23	1	100.0	1
11/26/24	23:13	-6.7	-6.7	-6.7	72	-10.9	22.6	NW	0.38	24.3	NW	-16.4	-6.8	-16.6	725.7	0.017	0.000	21.4	10	-11.5	18.6	2.53	 .0713	24	1	100.0	1
11/26/24	23:14	-6.7	-6.7	-6.7	72	-10.9	21.7	NW	0.36	23.5	NW	-16.3	-6.8	-16.5	725.7	0.017	0.000	21.4	10	-11.5	18.6	2.53	 .0713	23	1	100.0	1
11/26/24	23:15	-6.6	-6.6	-6.7	72	-10.8	22.6	NW	0.38	24.3	NW	-16.4	-6.8	-16.6	725.8	0.017	0.000	21.5	10	-11.5	18.6	2.52	 .0713	23	1	100.0	1
11/26/24	23:16	-6.6	-6.6	-6.6	72	-10.8	22.6	NW	0.38	23.5	NW	-16.4	-6.8	-16.6	725.8	0.017	0.000	21.5	10	-11.5	18.6	2.52	 .0713	24	1	100.0	1
11/26/24	23:17	-6.7	-6.6	-6.7	72	-10.9	21.7	NW	0.36	24.3	NW	-16.3	-6.8	-16.5	725.8	0.017	0.000	21.5	10	-11.5	18.6	2.52	 .0713	23	1	100.0	1
11/26/24	23:18	-6.6	-6.6	-6.6	72	-10.8	22.6	NW	0.38	24.3	NW	-16.4	-6.8	-16.6	725.8	0.017	0.000	21.5	10	-11.5	18.6	2.52	 .0713	24	1	100.0	1
11/26/24	23:19	-6.7	-6.6	-6.7	72	-10.9	21.7	NW	0.36	24.3	NW	-16.3	-6.8	-16.5	725.8	0.017	0.000	21.6	10	-11.4	18.7	2.52	 .0713	23	1	100.0	1
11/26/24	23:20	-6.6	-6.6	-6.7	72	-10.8	21.7	NW	0.36	23.5	NW	-16.2	-6.8	-16.4	725.8	0.017	0.000	21.6	10	-11.4	18.7	2.52	 .0713	24	1	100.0	1
11/26/24	23:21	-6.6	-6.6	-6.6	72	-10.8	21.7	NW	0.36	22.6	NNW	-16.2	-6.8	-16.4	725.8	0.017	0.000	21.6	10	-11.4	18.7	2.52	 .0713	23	1	100.0	1
11/26/24	23:22	-6.6	-6.6	-6.6	72	-10.8	22.6	NW	0.38	24.3	NW	-16.4	-6.8	-16.6	725.8	0.017	0.000	21.6	10	-11.4	18.7	2.52	 .0713	23	1	100.0	1
11/26/24	23:23	-6.6	-6.6	-6.6	72	-10.8	22.6	NW	0.38	24.3	NW	-16.4	-6.8	-16.6	725.8	0.017	0.000	21.6	10	-11.4	18.7	2.52	 .0713	24	1	100.0	1
11/26/24	23:24	-6.6	-6.6	-6.7	72	-10.8	23.5	NW	0.39	25.2	NW	-16.6	-6.8	-16.7	725.8	0.017	0.000	21.6	10	-11.4	18.8	2.51	 .0712	23	1	100.0	1
11/26/24	23:25	-6.7	-6.6	-6.7	72	-10.9	22.6	NW	0.38	25.2	NW	-16.4	-6.8	-16.6	725.8	0.017	0.000	21.6	10	-11.4	18.8	2.51	 .0712	24	1	100.0	1
11/26/24	23:26	-6.6	-6.6	-6.6	72	-10.8	22.6	NW	0.38	24.3	NW	-16.3	-6.7	-16.5	725.9	0.017	0.000	21.6	10	-11.4	18.8	2.51	 .0712	23	1	100.0	1
11/26/24	23:27	-6.6	-6.6	-6.6	72	-10.8	23.5	NW	0.39	25.2	NW	-16.4	-6.7	-16.6	725.8	0.017	0.000	21.6	10	-11.4	18.8	2.51	 .0712	23	1	100.0	1
11/26/24	23:28	-6.6	-6.6	-6.6	72	-10.8	22.6	NW	0.38	25.2	NW	-16.4	-6.8	-16.6	725.8	0.017	0.000	21.7	10	-11.3	18.9	2.51	 .0712	24	1	100.0	1
11/26/24	23:29	-6.6	-6.6	-6.6	72	-10.8	23.5	NW	0.39	27.0	NW	-16.6	-6.8	-16.7	725.9	0.017	0.000	21.7	10	-11.3	18.9	2.51	 .0712	23	1	100.0	1
11/26/24	23:30	-6.6	-6.6	-6.6	72	-10.8	22.6	NW	0.38	27.0	NNW	-16.4	-6.8	-16.6	725.9	0.017	0.000	21.7	10	-11.3	18.9	2.51	 .0712	24	1	100.0	1
11/26/24	23:31	-6.5	-6.5	-6.6	72	-10.7	22.6	NW	0.38	25.2	NW	-16.2	-6.7	-16.4	725.9	0.017	0.000	21.7	10	-11.3	18.9	2.51	 .0712	23	1	100.0	1
11/26/24	23:32	-6.5	-6.5	-6.5	72	-10.7	22.6	NW	0.38	25.2	NW	-16.2	-6.7	-16.4	725.9	0.017	0.000	21.7	10	-11.3	18.9	2.51	 .0712	24	1	100.0	1
11/26/24	23:33	-6.5	-6.5	-6.5	72	-10.7	23.5	NW	0.39	25.2	NW	-16.4	-6.7	-16.6	725.9	0.017	0.000	21.7	10	-11.3	18.9	2.51	 .0712	23	1	100.0	1
11/26/24	23:34	-6.6	-6.5	-6.6	72	-10.8	22.6	NW	0.38	24.3	NW	-16.3	-6.7	-16.5	726.0	0.017	0.000	21.7	10	-11.3	18.9	2.51	 .0712	23	1	100.0	1
11/26/24	23:35	-6.5	-6.5	-6.5	72	-10.7	22.6	NW	0.38	23.5	NW	-16.2	-6.7	-16.4	726.0	0.017	0.000	21.7	10	-11.3	18.9	2.51	 .0712	24	1	100.0	1
11/26/24	23:36	-6.5	-6.5	-6.5	72	-10.7	21.7	NW	0.36	25.2	NW	-16.1	-6.7	-16.3	726.0	0.017	0.000	21.6	10	-11.4	18.8	2.51	 .0713	23	1	100.0	1
11/26/24	23:37	-6.5	-6.5	-6.5	72	-10.7	21.7	NW	0.36	23.5	NW	-16.1	-6.7	-16.3	726.0	0.017	0.000	21.7	10	-11.3	18.9	2.51	 .0712	24	1	100.0	1
11/26/24	23:38	-6.5	-6.5	-6.5	71	-10.9	21.7	NW	0.36	23.5	NW	-16.1	-6.7	-16.3	726.0	0.017	0.000	21.7	10	-11.3	18.9	2.51	 .0712	23	1	100.0	1
11/26/24	23:39	-6.5	-6.5	-6.5	71	-10.9	20.9	NW	0.35	23.5	NW	-15.9	-6.7	-16.1	726.0	0.017	0.000	21.6	10	-11.4	18.8	2.51	 .0713	23	1	100.0	1
11/26/24	23:40	-6.4	-6.4	-6.4	71	-10.8	22.6	NW	0.38	25.2	NNW	-16.2	-6.6	-16.3	726.1	0.017	0.000	21.6	10	-11.4	18.8	2.51	 .0713	24	1	100.0	1
11/26/24	23:41	-6.4	-6.4	-6.4	71	-10.8	21.7	NW	0.36	23.5	NW	-15.9	-6.6	-16.1	726.1	0.017	0.000	21.6	10	-11.4	18.8	2.51	 .0713	23	1	100.0	1
11/26/24	23:42	-6.4	-6.4	-6.4	71	-10.8	21.7	NW	0.36	23.5	NW	-15.9	-6.6	-16.1	726.1	0.017	0.000	21.6	10	-11.4	18.8	2.51	 .0713	24	1	100.0	1
11/26/24	23:43	-6.3	-6.3	-6.4	71	-10.7	21.7	NW	0.36	24.3	NW	-15.9	-6.5	-16.1	726.1	0.017	0.000	21.6	10	-11.4	18.8	2.51	 .0713	23	1	100.0	1
11/26/24	23:44	-6.3	-6.3	-6.3	71	-10.7	20.9	NW	0.35	22.6	N	-15.6	-6.4	-15.8	726.1	0.017	0.000	21.6	10	-11.4	18.8	2.51	 .0713	24	1	100.0	1
11/26/24	23:45	-6.3	-6.3	-6.3	71	-10.7	20.9	NW	0.35	22.6	NW	-15.6	-6.4	-15.8	726.1	0.017	0.000	21.6	10	-11.4	18.8	2.51	 .0713	23	1	100.0	1
11/26/24	23:46	-6.3	-6.3	-6.3	71	-10.7	21.7	NW	0.36	23.5	NW	-15.9	-6.5	-16.1	726.1	0.017	0.000	21.6	10	-11.4	18.7	2.52	 .0713	23	1	100.0	1
11/26/24	23:47	-6.4	-6.3	-6.4	71	-10.8	21.7	NW	0.36	23.5	NW	-15.9	-6.6	-16.1	726.1	0.017	0.000	21.6	10	-11.4	18.7	2.52	 .0713	24	1	100.0	1
11/26/24	23:48	-6.4	-6.4	-6.4	71	-10.8	20.9	NW	0.35	22.6	NNW	-15.8	-6.6	-15.9	726.2	0.017	0.000	21.6	10	-11.4	18.7	2.52	 .0713	23	1	100.0	1
11/26/24	23:49	-6.3	-6.3	-6.4	71	-10.7	20.9	NW	0.35	22.6	NW	-15.7	-6.5	-15.9	726.1	0.017	0.000	21.6	10	-11.4	18.7	2.52	 .0713	24	1	100.0	1
11/26/24	23:50	-6.4	-6.3	-6.4	71	-10.8	20.9	NW	0.35	22.6	NW	-15.8	-6.6	-15.9	726.2	0.017	0.000	21.6	10	-11.4	18.7	2.52	 .0713	23	1	100.0	1
11/26/24	23:51	-6.4	-6.3	-6.4	71	-10.8	21.7	NW	0.36	24.3	NW	-15.9	-6.6	-16.1	726.2	0.017	0.000	21.6	10	-11.4	18.7	2.52	 .0713	23	1	100.0	1
11/26/24	23:52	-6.4	-6.4	-6.4	71	-10.8	21.7	NW	0.36	22.6	NW	-16.0	-6.6	-16.2	726.2	0.017	0.000	21.6	10	-11.4	18.7	2.52	 .0713	24	1	100.0	1
11/26/24	23:53	-6.4	-6.4	-6.4	71	-10.8	21.7	NW	0.36	23.5	NW	-15.9	-6.6	-16.1	726.2	0.017	0.000	21.5	10	-11.5	18.6	2.52	 .0713	23	1	100.0	1
11/26/24	23:54	-6.4	-6.4	-6.4	71	-10.8	21.7	NW	0.36	22.6	NW	-16.0	-6.6	-16.2	726.2	0.017	0.000	21.5	10	-11.5	18.6	2.52	 .0713	24	1	100.0	1
11/26/24	23:55	-6.4	-6.4	-6.4	71	-10.8	20.9	NW	0.35	23.5	NW	-15.8	-6.6	-16.0	726.2	0.017	0.000	21.5	10	-11.5	18.6	2.52	 .0713	23	1	100.0	1
11/26/24	23:56	-6.4	-6.4	-6.4	71	-10.8	21.7	NW	0.36	23.5	NW	-16.0	-6.6	-16.2	726.2	0.017	0.000	21.5	10	-11.5	18.6	2.52	 .0713	24	1	100.0	1
11/26/24	23:57	-6.4	-6.4	-6.4	71	-10.8	21.7	NW	0.36	24.3	NW	-16.0	-6.6	-16.2	726.2	0.017	0.000	21.4	10	-11.5	18.6	2.53	 .0713	23	1	100.0	1
11/26/24	23:58	-6.4	-6.4	-6.5	71	-10.8	21.7	NW	0.36	22.6	NW	-16.0	-6.6	-16.2	726.2	0.017	0.000	21.4	10	-11.5	18.6	2.53	 .0713	23	1	100.0	1
11/26/24	23:59	-6.4	-6.4	-6.4	71	-10.8	20.9	NW	0.35	23.5	NW	-15.8	-6.6	-15.9	726.2	0.017	0.000	21.4	10	-11.5	18.6	2.53	 .0713	24	1	100.0	1
11/27/24	00:00	-6.3	-6.3	-6.4	71	-10.7	20.9	NW	0.35	23.5	NW	-15.7	-6.5	-15.9	726.2	0.017	0.000	21.4	10	-11.5	18.6	2.53	 .0713	23	1	100.0	1
11/27/24	0:01	-6.4	-6.3	-6.4	71	-10.8	20.0	NW	0.33	21.7	NW	-15.6	-6.6	-15.8	726.3	0.017	0.000	21.4	10	-11.5	18.6	2.53	 .0713	22	1	95.7	1
11/27/24	0:02	-6.3	-6.3	-6.4	71	-10.7	20.9	NW	0.35	22.6	NW	-15.7	-6.5	-15.9	726.3	0.017	0.000	21.4	10	-11.5	18.6	2.53	 .0713	23	1	100.0	1
11/27/24	0:03	-6.3	-6.3	-6.3	71	-10.7	22.6	NW	0.38	24.3	NW	-16.0	-6.5	-16.2	726.3	0.017	0.000	21.4	10	-11.5	18.6	2.53	 .0713	24	1	100.0	1
11/27/24	0:04	-6.3	-6.3	-6.3	71	-10.7	21.7	NW	0.36	23.5	NNW	-15.8	-6.4	-15.9	726.3	0.017	0.000	21.4	10	-11.5	18.6	2.53	 .0713	23	1	100.0	1
11/27/24	0:05	-6.3	-6.3	-6.3	70	-10.9	21.7	NW	0.36	23.5	NW	-15.8	-6.4	-15.9	726.3	0.017	0.000	21.4	10	-11.5	18.6	2.53	 .0713	24	1	100.0	1
11/27/24	0:06	-6.3	-6.3	-6.3	70	-10.9	21.7	NW	0.36	24.3	NW	-15.8	-6.4	-15.9	726.3	0.017	0.000	21.4	10	-11.5	18.6	2.53	 .0713	23	1	100.0	1
11/27/24	0:07	-6.2	-6.2	-6.3	70	-10.8	20.9	NW	0.35	21.7	NW	-15.6	-6.4	-15.7	726.3	0.017	0.000	21.4	10	-11.5	18.6	2.53	 .0713	23	1	100.0	1
11/27/24	0:08	-6.2	-6.2	-6.2	70	-10.8	20.9	NW	0.35	21.7	NW	-15.6	-6.4	-15.7	726.3	0.017	0.000	21.5	10	-11.5	18.6	2.52	 .0713	24	1	100.0	1
11/27/24	0:09	-6.2	-6.2	-6.2	70	-10.8	21.7	NW	0.36	23.5	NW	-15.7	-6.4	-15.9	726.4	0.017	0.000	21.5	10	-11.5	18.6	2.52	 .0713	23	1	100.0	1
11/27/24	0:10	-6.2	-6.2	-6.2	70	-10.8	22.6	NW	0.38	24.3	NW	-15.9	-6.4	-16.1	726.3	0.017	0.000	21.5	10	-11.5	18.6	2.52	 .0713	24	1	100.0	1
11/27/24	0:11	-6.3	-6.2	-6.3	70	-10.9	21.7	NW	0.36	24.3	NW	-15.8	-6.4	-15.9	726.3	0.017	0.000	21.5	10	-11.5	18.6	2.52	 .0713	23	1	100.0	1
11/27/24	0:12	-6.3	-6.3	-6.3	70	-10.9	20.9	NW	0.35	22.6	NW	-15.6	-6.4	-15.8	726.3	0.017	0.000	21.5	10	-11.5	18.6	2.52	 .0713	23	1	100.0	1
11/27/24	0:13	-6.3	-6.3	-6.3	70	-10.9	20.9	NW	0.35	21.7	NW	-15.6	-6.4	-15.8	726.4	0.017	0.000	21.6	10	-11.4	18.7	2.52	 .0713	24	1	100.0	1
11/27/24	0:14	-6.3	-6.3	-6.3	70	-10.9	21.7	NW	0.36	23.5	NW	-15.8	-6.4	-15.9	726.4	0.017	0.000	21.6	10	-11.4	18.7	2.52	 .0713	23	1	100.0	1
11/27/24	0:15	-6.2	-6.2	-6.3	70	-10.8	22.6	NW	0.38	24.3	NW	-15.9	-6.4	-16.1	726.4	0.017	0.000	21.6	10	-11.4	18.7	2.52	 .0713	24	1	100.0	1
11/27/24	0:16	-6.3	-6.2	-6.3	70	-10.9	21.7	NW	0.36	23.5	NW	-15.8	-6.4	-15.9	726.4	0.017	0.000	21.6	10	-11.4	18.8	2.51	 .0713	23	1	100.0	1
11/27/24	0:17	-6.3	-6.3	-6.3	69	-11.0	21.7	NW	0.36	24.3	NW	-15.8	-6.4	-15.9	726.3	0.017	0.000	21.6	10	-11.4	18.8	2.51	 .0713	24	1	100.0	1
11/27/24	0:18	-6.2	-6.2	-6.3	70	-10.8	22.6	NW	0.38	25.2	NW	-15.9	-6.4	-16.1	726.4	0.017	0.000	21.6	10	-11.4	18.8	2.51	 .0713	23	1	100.0	1
11/27/24	0:19	-6.2	-6.2	-6.2	69	-11.0	22.6	NW	0.38	24.3	NNW	-15.9	-6.4	-16.1	726.4	0.017	0.000	21.6	10	-11.4	18.8	2.51	 .0713	23	1	100.0	1
11/27/24	0:20	-6.2	-6.2	-6.2	70	-10.8	22.6	NW	0.38	25.2	NNW	-15.8	-6.3	-15.9	726.4	0.017	0.000	21.7	10	-11.3	18.9	2.51	 .0713	24	1	100.0	1
11/27/24	0:21	-6.2	-6.2	-6.2	69	-11.0	22.6	NW	0.38	24.3	NW	-15.9	-6.4	-16.1	726.4	0.017	0.000	21.7	10	-11.3	18.9	2.51	 .0713	23	1	100.0	1
11/27/24	0:22	-6.2	-6.2	-6.2	69	-11.0	23.5	NW	0.39	25.2	NW	-16.0	-6.4	-16.2	726.4	0.017	0.000	21.7	10	-11.3	18.9	2.51	 .0713	24	1	100.0	1
11/27/24	0:23	-6.2	-6.2	-6.2	69	-11.0	23.5	NW	0.39	25.2	NW	-16.0	-6.4	-16.2	726.4	0.017	0.000	21.7	10	-11.3	18.9	2.51	 .0713	23	1	100.0	1
11/27/24	0:24	-6.2	-6.2	-6.2	69	-10.9	23.5	NW	0.39	25.2	NW	-15.9	-6.3	-16.1	726.4	0.017	0.000	21.7	10	-11.3	18.9	2.51	 .0713	23	1	100.0	1
11/27/24	0:25	-6.2	-6.2	-6.2	69	-10.9	22.6	NW	0.38	25.2	NW	-15.8	-6.3	-15.9	726.4	0.017	0.000	21.7	10	-11.3	18.9	2.51	 .0713	24	1	100.0	1
11/27/24	0:26	-6.2	-6.2	-6.2	69	-10.9	23.5	NW	0.39	27.0	NW	-15.9	-6.3	-16.1	726.4	0.017	0.000	21.7	10	-11.3	18.9	2.51	 .0713	23	1	100.0	1
11/27/24	0:27	-6.1	-6.1	-6.2	69	-10.9	23.5	NW	0.39	27.0	NNW	-15.9	-6.3	-16.1	726.4	0.017	0.000	21.7	10	-11.3	18.9	2.51	 .0713	24	1	100.0	1
11/27/24	0:28	-6.1	-6.1	-6.1	69	-10.8	22.6	NW	0.38	24.3	NW	-15.7	-6.2	-15.8	726.4	0.017	0.000	21.7	10	-11.3	18.9	2.51	 .0713	23	1	100.0	1
11/27/24	0:29	-6.1	-6.1	-6.1	68	-11.0	23.5	NW	0.39	25.2	NW	-15.8	-6.2	-15.9	726.4	0.017	0.000	21.7	10	-11.3	18.9	2.51	 .0713	24	1	100.0	1
11/27/24	0:30	-6.0	-6.0	-6.1	69	-10.8	21.7	NW	0.36	23.5	NW	-15.4	-6.2	-15.6	726.5	0.017	0.000	21.7	10	-11.3	18.9	2.51	 .0713	23	1	100.0	1
11/27/24	0:31	-6.1	-6.0	-6.1	69	-10.8	22.6	NW	0.38	23.5	NW	-15.7	-6.2	-15.8	726.5	0.017	0.000	21.7	10	-11.3	18.9	2.51	 .0713	23	1	100.0	1
11/27/24	0:32	-6.1	-6.1	-6.1	69	-10.9	20.9	NW	0.35	22.6	NW	-15.4	-6.3	-15.6	726.5	0.017	0.000	21.7	10	-11.3	18.9	2.51	 .0713	24	1	100.0	1
11/27/24	0:33	-6.1	-6.1	-6.1	69	-10.8	20.9	NW	0.35	23.5	NW	-15.3	-6.2	-15.5	726.5	0.017	0.000	21.7	10	-11.3	18.9	2.51	 .0713	23	1	100.0	1
11/27/24	0:34	-6.1	-6.1	-6.1	69	-10.8	20.9	NW	0.35	22.6	NW	-15.3	-6.2	-15.5	726.5	0.017	0.000	21.7	10	-11.3	18.9	2.51	 .0713	24	1	100.0	1
11/27/24	0:35	-6.1	-6.1	-6.1	69	-10.8	21.7	NW	0.36	23.5	NW	-15.5	-6.2	-15.7	726.5	0.017	0.000	21.6	10	-11.4	18.8	2.51	 .0713	23	1	100.0	1
11/27/24	0:36	-5.9	-5.9	-6.0	69	-10.7	20.9	NW	0.35	25.2	NW	-15.2	-6.1	-15.3	726.6	0.017	0.000	21.6	10	-11.4	18.8	2.51	 .0713	23	1	100.0	1
11/27/24	0:37	-6.0	-5.9	-6.0	69	-10.8	23.5	NW	0.39	25.2	NW	-15.7	-6.2	-15.9	726.5	0.017	0.000	21.6	10	-11.4	18.8	2.51	 .0713	24	1	100.0	1
11/27/24	0:38	-6.0	-6.0	-6.0	69	-10.8	20.9	NW	0.35	22.6	NW	-15.3	-6.2	-15.4	726.6	0.017	0.000	21.6	10	-11.4	18.8	2.51	 .0713	23	1	100.0	1
11/27/24	0:39	-5.9	-5.9	-6.0	69	-10.7	20.0	NW	0.33	22.6	NW	-15.0	-6.1	-15.2	726.6	0.017	0.000	21.6	10	-11.4	18.8	2.51	 .0713	24	1	100.0	1
11/27/24	0:40	-5.8	-5.8	-5.9	70	-10.4	20.9	NW	0.35	23.5	NW	-15.1	-6.0	-15.2	726.6	0.017	0.000	21.6	10	-11.4	18.8	2.51	 .0713	23	1	100.0	1
11/27/24	0:41	-5.9	-5.8	-5.9	69	-10.7	21.7	NW	0.36	23.5	NW	-15.3	-6.1	-15.5	726.6	0.017	0.000	21.6	10	-11.4	18.7	2.52	 .0713	24	1	100.0	1
11/27/24	0:42	-5.9	-5.9	-5.9	69	-10.7	20.0	NW	0.33	21.7	NW	-14.9	-6.1	-15.2	726.6	0.017	0.000	21.6	10	-11.4	18.7	2.52	 .0713	23	1	100.0	1
11/27/24	0:43	-5.9	-5.9	-5.9	69	-10.7	20.9	NW	0.35	22.6	NW	-15.1	-6.1	-15.3	726.7	0.017	0.000	21.6	10	-11.4	18.7	2.52	 .0713	23	1	100.0	1
11/27/24	0:44	-5.9	-5.9	-5.9	69	-10.7	21.7	NW	0.36	23.5	NW	-15.3	-6.1	-15.5	726.6	0.017	0.000	21.6	10	-11.4	18.7	2.52	 .0713	24	1	100.0	1
11/27/24	0:45	-5.9	-5.9	-5.9	69	-10.7	21.7	NW	0.36	24.3	NW	-15.3	-6.1	-15.5	726.6	0.017	0.000	21.6	10	-11.4	18.7	2.52	 .0713	23	1	100.0	1
11/27/24	0:46	-6.0	-5.9	-6.0	69	-10.8	22.6	NW	0.38	24.3	NW	-15.6	-6.2	-15.7	726.6	0.017	0.000	21.6	10	-11.4	18.7	2.52	 .0713	24	1	100.0	1
11/27/24	0:47	-6.0	-6.0	-6.0	69	-10.8	20.9	NW	0.35	22.6	NW	-15.3	-6.2	-15.4	726.7	0.017	0.000	21.5	10	-11.5	18.6	2.52	 .0714	23	1	100.0	1
11/27/24	0:48	-5.9	-5.9	-5.9	70	-10.5	20.9	NW	0.35	21.7	NW	-15.1	-6.1	-15.3	726.7	0.017	0.000	21.5	10	-11.5	18.6	2.52	 .0714	23	1	100.0	1
11/27/24	0:49	-5.9	-5.9	-5.9	70	-10.5	20.9	NW	0.35	22.6	NW	-15.2	-6.1	-15.3	726.7	0.017	0.000	21.5	10	-11.5	18.6	2.52	 .0714	24	1	100.0	1
11/27/24	0:50	-5.9	-5.9	-5.9	70	-10.5	20.9	NW	0.35	22.6	NW	-15.2	-6.1	-15.3	726.8	0.017	0.000	21.5	10	-11.5	18.6	2.52	 .0714	23	1	100.0	1
11/27/24	0:51	-6.0	-5.9	-6.0	70	-10.6	20.9	NW	0.35	22.6	NW	-15.3	-6.2	-15.4	726.8	0.017	0.000	21.5	10	-11.5	18.6	2.52	 .0714	24	1	100.0	1
11/27/24	0:52	-6.0	-6.0	-6.1	69	-10.8	20.9	NW	0.35	21.7	NW	-15.3	-6.2	-15.4	726.8	0.017	0.000	21.4	10	-11.5	18.6	2.53	 .0714	23	1	100.0	1
11/27/24	0:53	-5.9	-5.9	-6.0	69	-10.7	20.9	NW	0.35	22.6	NW	-15.2	-6.1	-15.3	726.8	0.017	0.000	21.4	10	-11.5	18.6	2.53	 .0714	24	1	100.0	1
11/27/24	0:54	-5.9	-5.9	-5.9	69	-10.7	21.7	NW	0.36	22.6	NW	-15.3	-6.1	-15.5	726.8	0.017	0.000	21.4	10	-11.5	18.6	2.53	 .0714	23	1	100.0	1
11/27/24	0:55	-5.9	-5.9	-6.0	69	-10.7	21.7	NW	0.36	23.5	NW	-15.3	-6.1	-15.5	726.8	0.017	0.000	21.4	10	-11.5	18.6	2.53	 .0714	23	1	100.0	1
11/27/24	0:56	-5.9	-5.9	-6.0	69	-10.7	20.0	NW	0.33	22.6	NW	-15.0	-6.1	-15.2	726.8	0.017	0.000	21.4	10	-11.5	18.6	2.53	 .0714	24	1	100.0	1
11/27/24	0:57	-5.9	-5.9	-5.9	69	-10.7	20.0	NW	0.33	21.7	NW	-14.9	-6.1	-15.2	726.8	0.017	0.000	21.4	10	-11.5	18.6	2.53	 .0714	23	1	100.0	1
11/27/24	0:58	-5.8	-5.8	-5.8	69	-10.6	20.9	NW	0.35	23.5	NW	-15.1	-6.1	-15.3	726.9	0.017	0.000	21.4	10	-11.5	18.6	2.53	 .0714	24	1	100.0	1
11/27/24	0:59	-5.8	-5.8	-5.8	69	-10.6	20.9	NW	0.35	22.6	NW	-14.9	-6.0	-15.2	726.9	0.017	0.000	21.4	10	-11.5	18.6	2.53	 .0714	23	1	100.0	1
11/27/24	1:00	-5.7	-5.7	-5.8	69	-10.5	20.9	NW	0.35	22.6	NW	-14.9	-5.9	-15.1	726.9	0.017	0.000	21.5	10	-11.5	18.6	2.52	 .0714	23	1	100.0	1
11/27/24	1:01	-5.7	-5.7	-5.8	68	-10.7	20.9	NW	0.35	23.5	NW	-14.9	-5.9	-15.1	726.9	0.017	0.000	21.5	10	-11.5	18.6	2.52	 .0714	24	1	100.0	1
11/27/24	1:02	-5.8	-5.7	-5.8	69	-10.6	22.6	NW	0.38	25.2	NW	-15.3	-6.0	-15.5	726.9	0.017	0.000	21.5	10	-11.5	18.6	2.52	 .0714	23	1	100.0	1
11/27/24	1:03	-5.8	-5.8	-5.8	69	-10.6	21.7	NW	0.36	23.5	NW	-15.1	-6.0	-15.3	726.9	0.017	0.000	21.5	10	-11.5	18.6	2.52	 .0714	24	1	100.0	1
11/27/24	1:04	-5.8	-5.8	-5.8	69	-10.6	20.0	NW	0.33	22.6	NW	-14.8	-6.0	-15.0	726.9	0.017	0.000	21.5	10	-11.5	18.6	2.52	 .0714	23	1	100.0	1
11/27/24	1:05	-5.7	-5.7	-5.8	69	-10.5	19.1	NW	0.32	20.9	NW	-14.6	-5.9	-14.8	727.0	0.017	0.000	21.6	10	-11.4	18.7	2.52	 .0714	24	1	100.0	1
11/27/24	1:06	-5.7	-5.7	-5.7	70	-10.3	20.0	NW	0.33	21.7	NW	-14.7	-5.9	-14.9	727.0	0.017	0.000	21.6	10	-11.4	18.7	2.52	 .0714	23	1	100.0	1
11/27/24	1:07	-5.7	-5.7	-5.7	70	-10.3	20.0	NW	0.33	20.9	NW	-14.7	-5.9	-14.9	727.0	0.017	0.000	21.6	10	-11.4	18.7	2.52	 .0714	23	1	100.0	1
11/27/24	1:08	-5.8	-5.8	-5.8	70	-10.4	20.0	NW	0.33	22.6	NW	-14.9	-6.0	-15.1	727.1	0.017	0.000	21.6	10	-11.4	18.8	2.51	 .0714	24	1	100.0	1
11/27/24	1:09	-5.8	-5.8	-5.8	70	-10.4	19.1	NW	0.32	20.9	NW	-14.7	-6.0	-14.8	727.0	0.017	0.000	21.6	10	-11.4	18.8	2.51	 .0714	23	1	100.0	1
11/27/24	1:10	-5.8	-5.8	-5.8	70	-10.4	20.0	NW	0.33	21.7	NW	-14.9	-6.0	-15.1	727.0	0.017	0.000	21.6	10	-11.4	18.8	2.51	 .0714	24	1	100.0	1
11/27/24	1:11	-5.8	-5.8	-5.8	70	-10.4	18.3	NW	0.30	20.0	NW	-14.4	-6.0	-14.7	727.1	0.017	0.000	21.6	10	-11.4	18.8	2.51	 .0714	23	1	100.0	1
11/27/24	1:12	-5.7	-5.7	-5.8	70	-10.3	18.3	NW	0.30	20.9	NW	-14.4	-5.9	-14.6	727.1	0.017	0.000	21.6	10	-11.4	18.8	2.51	 .0714	23	1	100.0	1
11/27/24	1:13	-5.7	-5.7	-5.7	70	-10.3	20.0	NW	0.33	20.9	NW	-14.7	-5.9	-14.9	727.1	0.017	0.000	21.6	10	-11.4	18.8	2.51	 .0714	24	1	100.0	1
11/27/24	1:14	-5.8	-5.7	-5.8	70	-10.4	20.0	NW	0.33	20.9	NW	-14.9	-6.0	-15.1	727.1	0.017	0.000	21.6	10	-11.4	18.8	2.51	 .0714	23	1	100.0	1
11/27/24	1:15	-5.9	-5.9	-5.9	69	-10.7	20.9	NW	0.35	22.6	NW	-15.2	-6.1	-15.3	727.1	0.017	0.000	21.6	10	-11.4	18.8	2.51	 .0714	24	1	100.0	1
11/27/24	1:16	-6.0	-6.0	-6.0	69	-10.8	20.0	NW	0.33	21.7	NW	-15.1	-6.2	-15.3	727.1	0.017	0.000	21.7	10	-11.3	18.9	2.51	 .0714	23	1	100.0	1
11/27/24	1:17	-6.0	-6.0	-6.1	69	-10.8	19.1	NW	0.32	21.7	NW	-14.9	-6.2	-15.1	727.1	0.017	0.000	21.7	10	-11.3	18.9	2.51	 .0714	23	1	100.0	1
11/27/24	1:18	-5.9	-5.9	-6.0	70	-10.5	19.1	NW	0.32	21.7	NW	-14.8	-6.1	-14.9	727.2	0.017	0.000	21.7	10	-11.3	18.9	2.51	 .0714	24	1	100.0	1
11/27/24	1:19	-5.8	-5.8	-5.9	70	-10.4	20.0	NW	0.33	22.6	NW	-14.9	-6.0	-15.1	727.2	0.017	0.000	21.7	10	-11.3	18.9	2.51	 .0714	23	1	100.0	1
11/27/24	1:20	-5.8	-5.8	-5.9	70	-10.4	19.1	NW	0.32	21.7	NW	-14.7	-6.0	-14.8	727.2	0.017	0.000	21.7	10	-11.3	18.9	2.51	 .0714	24	1	100.0	1
11/27/24	1:21	-5.7	-5.7	-5.8	71	-10.1	19.1	NW	0.32	21.7	NW	-14.5	-5.9	-14.7	727.2	0.017	0.000	21.7	10	-11.3	18.9	2.51	 .0714	23	1	100.0	1
11/27/24	1:22	-5.7	-5.7	-5.7	70	-10.3	20.0	NW	0.33	21.7	NW	-14.7	-5.9	-14.9	727.2	0.017	0.000	21.6	10	-11.4	18.8	2.51	 .0714	24	1	100.0	1
11/27/24	1:23	-5.7	-5.7	-5.7	70	-10.3	19.1	NW	0.32	20.9	NW	-14.6	-5.9	-14.8	727.2	0.017	0.000	21.7	10	-11.3	18.9	2.51	 .0714	23	1	100.0	1
11/27/24	1:24	-5.7	-5.7	-5.7	70	-10.3	19.1	NW	0.32	21.7	NW	-14.5	-5.9	-14.7	727.2	0.017	0.000	21.7	10	-11.3	18.9	2.51	 .0714	23	1	100.0	1
11/27/24	1:25	-5.7	-5.6	-5.7	70	-10.3	20.0	NW	0.33	20.9	NW	-14.7	-5.9	-14.9	727.2	0.017	0.000	21.6	10	-11.4	18.8	2.51	 .0714	24	1	100.0	1
11/27/24	1:26	-5.7	-5.7	-5.7	70	-10.3	20.0	NW	0.33	21.7	NW	-14.7	-5.9	-14.9	727.2	0.017	0.000	21.6	10	-11.4	18.8	2.51	 .0714	23	1	100.0	1
11/27/24	1:27	-5.8	-5.7	-5.8	70	-10.4	20.0	NW	0.33	21.7	NW	-14.8	-6.0	-15.0	727.3	0.017	0.000	21.6	10	-11.4	18.8	2.51	 .0714	24	1	100.0	1
11/27/24	1:28	-5.7	-5.7	-5.8	70	-10.3	19.1	NW	0.32	21.7	NW	-14.6	-5.9	-14.8	727.3	0.017	0.000	21.7	10	-11.3	18.9	2.51	 .0714	23	1	100.0	1
11/27/24	1:29	-5.7	-5.7	-5.7	70	-10.3	18.3	NW	0.30	20.0	NW	-14.3	-5.9	-14.5	727.3	0.017	0.000	21.6	10	-11.4	18.8	2.51	 .0714	23	1	100.0	1
11/27/24	1:30	-5.6	-5.6	-5.7	70	-10.2	18.3	NW	0.30	19.1	NNW	-14.2	-5.8	-14.4	727.3	0.017	0.000	21.6	10	-11.4	18.8	2.51	 .0714	24	1	100.0	1
11/27/24	1:31	-5.7	-5.6	-5.7	70	-10.3	19.1	NW	0.32	20.0	NW	-14.5	-5.9	-14.7	727.4	0.017	0.000	21.6	10	-11.4	18.8	2.51	 .0714	23	1	100.0	1
11/27/24	1:32	-5.8	-5.7	-5.8	70	-10.4	18.3	NW	0.30	20.0	NW	-14.4	-6.0	-14.7	727.4	0.017	0.000	21.6	10	-11.4	18.8	2.51	 .0714	24	1	100.0	1
11/27/24	1:33	-5.8	-5.8	-5.8	70	-10.4	18.3	NW	0.30	20.9	NW	-14.4	-6.0	-14.7	727.4	0.017	0.000	21.6	10	-11.4	18.8	2.51	 .0714	23	1	100.0	1
11/27/24	1:34	-5.8	-5.8	-5.8	70	-10.4	18.3	NW	0.30	19.1	NW	-14.4	-6.0	-14.7	727.4	0.017	0.000	21.6	10	-11.4	18.8	2.51	 .0714	24	1	100.0	1
11/27/24	1:35	-5.8	-5.8	-5.8	70	-10.4	18.3	NW	0.30	19.1	NW	-14.4	-6.0	-14.7	727.4	0.017	0.000	21.6	10	-11.4	18.8	2.51	 .0714	23	1	100.0	1
11/27/24	1:36	-5.8	-5.8	-5.8	70	-10.4	17.4	NW	0.29	19.1	NW	-14.3	-6.0	-14.5	727.5	0.017	0.000	21.6	10	-11.4	18.7	2.52	 .0714	23	1	100.0	1
11/27/24	1:37	-5.8	-5.8	-5.8	70	-10.4	18.3	NW	0.30	20.0	NW	-14.4	-6.0	-14.7	727.5	0.017	0.000	21.6	10	-11.4	18.7	2.52	 .0714	24	1	100.0	1
11/27/24	1:38	-5.8	-5.8	-5.8	70	-10.4	17.4	NW	0.29	19.1	NW	-14.3	-6.0	-14.5	727.5	0.017	0.000	21.6	10	-11.4	18.7	2.52	 .0714	23	1	100.0	1
11/27/24	1:39	-5.8	-5.8	-5.8	70	-10.4	18.3	NW	0.30	20.0	NW	-14.4	-6.0	-14.7	727.5	0.017	0.000	21.6	10	-11.4	18.7	2.52	 .0714	24	1	100.0	1
11/27/24	1:40	-5.7	-5.7	-5.8	70	-10.3	17.4	NW	0.29	19.1	NW	-14.2	-5.9	-14.4	727.5	0.017	0.000	21.6	10	-11.4	18.7	2.52	 .0714	23	1	100.0	1
11/27/24	1:41	-5.7	-5.7	-5.7	70	-10.3	18.3	NW	0.30	19.1	NW	-14.4	-5.9	-14.6	727.5	0.017	0.000	21.6	10	-11.4	18.7	2.52	 .0714	23	1	100.0	1
11/27/24	1:42	-5.8	-5.7	-5.8	70	-10.4	18.3	NW	0.30	19.1	NW	-14.4	-6.0	-14.7	727.5	0.017	0.000	21.6	10	-11.4	18.7	2.52	 .0714	24	1	100.0	1
11/27/24	1:43	-5.8	-5.8	-5.8	70	-10.4	16.5	NW	0.28	18.3	NW	-14.1	-6.0	-14.3	727.5	0.017	0.000	21.6	10	-11.4	18.7	2.52	 .0714	23	1	100.0	1
11/27/24	1:44	-5.7	-5.7	-5.8	70	-10.3	16.5	NW	0.28	19.1	NW	-14.0	-5.9	-14.2	727.5	0.017	0.000	21.5	10	-11.5	18.6	2.52	 .0714	24	1	100.0	1
11/27/24	1:45	-5.7	-5.7	-5.7	70	-10.3	16.5	NW	0.28	17.4	NW	-13.9	-5.9	-14.1	727.5	0.017	0.000	21.5	10	-11.5	18.6	2.52	 .0714	23	1	100.0	1
11/27/24	1:46	-5.6	-5.6	-5.7	70	-10.2	16.5	NW	0.28	19.1	NW	-13.8	-5.8	-14.1	727.6	0.017	0.000	21.6	10	-11.4	18.7	2.52	 .0714	24	1	100.0	1
11/27/24	1:47	-5.6	-5.6	-5.6	70	-10.2	17.4	NW	0.29	18.3	NW	-14.1	-5.8	-14.3	727.6	0.017	0.000	21.5	10	-11.5	18.6	2.52	 .0714	23	1	100.0	1
11/27/24	1:48	-5.7	-5.6	-5.7	70	-10.3	16.5	NW	0.28	18.3	NW	-13.9	-5.9	-14.1	727.6	0.017	0.000	21.5	10	-11.5	18.6	2.52	 .0714	23	1	100.0	1
11/27/24	1:49	-5.7	-5.6	-5.7	70	-10.3	17.4	NW	0.29	19.1	NW	-14.1	-5.9	-14.3	727.6	0.017	0.000	21.5	10	-11.5	18.6	2.52	 .0714	24	1	100.0	1
11/27/24	1:50	-5.7	-5.7	-5.7	70	-10.3	17.4	NW	0.29	19.1	NW	-14.1	-5.9	-14.3	727.6	0.017	0.000	21.5	10	-11.5	18.6	2.52	 .0714	23	1	100.0	1
11/27/24	1:51	-5.7	-5.7	-5.7	70	-10.3	17.4	NW	0.29	19.1	NW	-14.2	-5.9	-14.4	727.6	0.017	0.000	21.5	10	-11.5	18.6	2.52	 .0714	24	1	100.0	1
11/27/24	1:52	-5.7	-5.7	-5.7	70	-10.3	16.5	NW	0.28	18.3	NW	-14.0	-5.9	-14.2	727.6	0.017	0.000	21.5	10	-11.5	18.6	2.52	 .0714	23	1	100.0	1
11/27/24	1:53	-5.7	-5.7	-5.7	69	-10.5	17.4	NW	0.29	19.1	NW	-14.1	-5.9	-14.3	727.6	0.017	0.000	21.4	10	-11.5	18.6	2.53	 .0715	23	1	100.0	1
11/27/24	1:54	-5.6	-5.6	-5.7	69	-10.4	17.4	NW	0.29	19.1	NW	-14.1	-5.8	-14.3	727.6	0.017	0.000	21.5	10	-11.5	18.6	2.52	 .0715	24	1	100.0	1
11/27/24	1:55	-5.6	-5.6	-5.6	69	-10.4	17.4	NW	0.29	18.3	NW	-14.1	-5.8	-14.3	727.7	0.017	0.000	21.4	10	-11.5	18.6	2.53	 .0715	23	1	100.0	1
11/27/24	1:56	-5.6	-5.6	-5.7	69	-10.4	16.5	NW	0.28	18.3	NW	-13.8	-5.8	-14.1	727.7	0.017	0.000	21.5	10	-11.5	18.6	2.52	 .0715	24	1	100.0	1
11/27/24	1:57	-5.7	-5.6	-5.7	69	-10.5	17.4	NW	0.29	18.3	NW	-14.1	-5.9	-14.3	727.7	0.017	0.000	21.5	10	-11.5	18.6	2.52	 .0715	23	1	100.0	1
11/27/24	1:58	-5.7	-5.7	-5.7	69	-10.5	16.5	NW	0.28	18.3	NW	-14.0	-5.9	-14.2	727.7	0.017	0.000	21.5	10	-11.5	18.6	2.52	 .0715	24	1	100.0	1
11/27/24	1:59	-5.8	-5.7	-5.8	69	-10.6	17.4	NW	0.29	18.3	NW	-14.3	-6.0	-14.5	727.7	0.017	0.000	21.5	10	-11.5	18.6	2.52	 .0715	23	1	100.0	1
11/27/24	2:00	-5.8	-5.8	-5.8	69	-10.6	16.5	NW	0.28	18.3	NW	-14.1	-6.1	-14.3	727.8	0.017	0.000	21.6	10	-11.4	18.7	2.52	 .0714	23	1	100.0	1
11/27/24	2:01	-5.8	-5.8	-5.8	70	-10.4	15.7	NW	0.26	18.3	NW	-13.8	-6.0	-14.1	727.8	0.017	0.000	21.6	10	-11.4	18.7	2.52	 .0715	24	1	100.0	1
11/27/24	2:02	-5.8	-5.8	-5.8	70	-10.4	15.7	NW	0.26	16.5	NW	-13.8	-6.0	-14.1	727.8	0.017	0.000	21.6	10	-11.4	18.7	2.52	 .0715	23	1	100.0	1
11/27/24	2:03	-5.7	-5.7	-5.8	70	-10.3	16.5	NW	0.28	17.4	NW	-14.0	-5.9	-14.2	727.8	0.017	0.000	21.6	10	-11.4	18.7	2.52	 .0715	24	1	100.0	1
11/27/24	2:04	-5.7	-5.7	-5.7	70	-10.3	15.7	NW	0.26	17.4	NW	-13.8	-5.9	-14.0	727.8	0.017	0.000	21.6	10	-11.4	18.8	2.51	 .0714	23	1	100.0	1
11/27/24	2:05	-5.6	-5.6	-5.7	70	-10.2	15.7	NW	0.26	16.5	NW	-13.7	-5.8	-13.9	727.9	0.017	0.000	21.6	10	-11.4	18.8	2.51	 .0714	23	1	100.0	1
11/27/24	2:06	-5.6	-5.6	-5.6	69	-10.4	14.8	NW	0.25	16.5	NNW	-13.4	-5.8	-13.7	727.8	0.017	0.000	21.6	10	-11.4	18.8	2.51	 .0714	24	1	100.0	1
11/27/24	2:07	-5.6	-5.6	-5.6	69	-10.4	15.7	NW	0.26	17.4	NW	-13.7	-5.8	-13.9	727.9	0.017	0.000	21.7	10	-11.3	18.9	2.51	 .0714	23	1	100.0	1
11/27/24	2:08	-5.7	-5.6	-5.7	69	-10.5	15.7	NW	0.26	17.4	NW	-13.7	-5.9	-13.9	727.9	0.017	0.000	21.7	10	-11.3	18.9	2.51	 .0714	24	1	100.0	1
11/27/24	2:09	-5.7	-5.7	-5.7	69	-10.5	15.7	NW	0.26	17.4	NW	-13.8	-5.9	-14.0	727.9	0.017	0.000	21.7	10	-11.3	18.9	2.51	 .0714	23	1	100.0	1
11/27/24	2:10	-5.7	-5.7	-5.7	69	-10.5	14.8	NW	0.25	16.5	NW	-13.6	-5.9	-13.8	728.0	0.017	0.000	21.7	10	-11.3	18.9	2.51	 .0714	23	1	100.0	1
11/27/24	2:11	-5.7	-5.7	-5.7	69	-10.5	14.8	NW	0.25	15.7	NW	-13.6	-5.9	-13.8	727.9	0.017	0.000	21.7	10	-11.3	18.9	2.51	 .0714	24	1	100.0	1
11/27/24	2:12	-5.7	-5.7	-5.7	69	-10.5	14.8	NW	0.25	16.5	NW	-13.6	-5.9	-13.8	728.0	0.017	0.000	21.7	10	-11.3	18.9	2.51	 .0714	23	1	100.0	1
11/27/24	2:13	-5.7	-5.7	-5.7	69	-10.5	14.8	NW	0.25	16.5	NW	-13.5	-5.9	-13.7	728.0	0.017	0.000	21.7	10	-11.3	18.9	2.51	 .0714	24	1	100.0	1
11/27/24	2:14	-5.7	-5.7	-5.7	69	-10.5	14.8	NW	0.25	16.5	NW	-13.5	-5.9	-13.7	728.0	0.017	0.000	21.7	10	-11.3	18.9	2.51	 .0714	23	1	100.0	1
11/27/24	2:15	-5.7	-5.7	-5.7	69	-10.5	14.8	NW	0.25	15.7	NW	-13.6	-5.9	-13.8	728.0	0.017	0.000	21.7	10	-11.3	18.9	2.51	 .0714	24	1	100.0	1
11/27/24	2:16	-5.7	-5.7	-5.7	69	-10.5	14.8	NW	0.25	16.5	NW	-13.6	-5.9	-13.8	728.0	0.017	0.000	21.7	10	-11.3	18.9	2.51	 .0714	23	1	100.0	1
11/27/24	2:17	-5.7	-5.7	-5.7	69	-10.5	14.8	NW	0.25	15.7	NW	-13.6	-5.9	-13.8	728.0	0.017	0.000	21.7	10	-11.3	18.9	2.51	 .0714	23	1	100.0	1
11/27/24	2:18	-5.7	-5.7	-5.7	69	-10.5	15.7	NW	0.26	16.5	NW	-13.7	-5.9	-13.9	728.0	0.017	0.000	21.7	10	-11.3	18.9	2.51	 .0714	24	1	100.0	1
11/27/24	2:19	-5.7	-5.7	-5.7	69	-10.5	16.5	NW	0.28	17.4	NW	-13.9	-5.9	-14.1	728.0	0.017	0.000	21.7	10	-11.3	18.9	2.51	 .0714	23	1	100.0	1
11/27/24	2:20	-5.7	-5.7	-5.7	68	-10.6	15.7	NW	0.26	16.5	NW	-13.7	-5.9	-13.9	728.0	0.017	0.000	21.7	10	-11.3	18.9	2.51	 .0714	24	1	100.0	1
11/27/24	2:21	-5.7	-5.7	-5.7	68	-10.7	15.7	NW	0.26	17.4	NW	-13.8	-5.9	-14.0	728.0	0.017	0.000	21.7	10	-11.3	18.9	2.51	 .0714	23	1	100.0	1
11/27/24	2:22	-5.7	-5.7	-5.7	69	-10.5	15.7	NW	0.26	17.4	NW	-13.7	-5.9	-13.9	728.1	0.017	0.000	21.7	10	-11.3	18.9	2.51	 .0714	23	1	100.0	1
11/27/24	2:23	-5.7	-5.7	-5.7	69	-10.5	16.5	NW	0.28	17.4	NW	-14.0	-5.9	-14.2	728.0	0.017	0.000	21.7	10	-11.3	18.9	2.51	 .0714	24	1	100.0	1
11/27/24	2:24	-5.7	-5.7	-5.7	68	-10.7	15.7	NW	0.26	16.5	NW	-13.8	-5.9	-14.0	728.1	0.017	0.000	21.7	10	-11.3	18.9	2.51	 .0714	23	1	100.0	1
11/27/24	2:25	-5.7	-5.7	-5.7	69	-10.5	15.7	NW	0.26	16.5	NW	-13.8	-5.9	-14.0	728.1	0.017	0.000	21.7	10	-11.3	18.9	2.51	 .0714	24	1	100.0	1
11/27/24	2:26	-5.7	-5.7	-5.7	69	-10.5	15.7	NW	0.26	16.5	NW	-13.7	-5.9	-13.9	728.1	0.017	0.000	21.7	10	-11.3	18.9	2.51	 .0714	23	1	100.0	1
11/27/24	2:27	-5.7	-5.7	-5.7	69	-10.5	14.8	NW	0.25	16.5	NW	-13.5	-5.9	-13.7	728.1	0.017	0.000	21.7	10	-11.3	18.9	2.51	 .0714	24	1	100.0	1
11/27/24	2:28	-5.7	-5.7	-5.7	69	-10.5	15.7	NW	0.26	16.5	NW	-13.7	-5.9	-13.9	728.1	0.017	0.000	21.7	10	-11.3	18.9	2.51	 .0714	23	1	100.0	1
11/27/24	2:29	-5.7	-5.7	-5.7	69	-10.5	15.7	NW	0.26	16.5	NW	-13.8	-5.9	-14.0	728.1	0.017	0.000	21.7	10	-11.3	18.9	2.51	 .0714	23	1	100.0	1
11/27/24	2:30	-5.7	-5.7	-5.7	69	-10.5	15.7	NW	0.26	16.5	NW	-13.8	-5.9	-14.0	728.1	0.017	0.000	21.7	10	-11.3	18.9	2.51	 .0714	24	1	100.0	1
11/27/24	2:31	-5.7	-5.7	-5.7	69	-10.5	15.7	NW	0.26	16.5	NW	-13.8	-5.9	-14.0	728.2	0.017	0.000	21.7	10	-11.3	18.9	2.51	 .0714	23	1	100.0	1
11/27/24	2:32	-5.7	-5.7	-5.7	69	-10.5	14.8	NW	0.25	16.5	NW	-13.6	-5.9	-13.8	728.1	0.017	0.000	21.7	10	-11.3	18.9	2.51	 .0714	24	1	100.0	1
11/27/24	2:33	-5.7	-5.7	-5.7	69	-10.5	14.8	NW	0.25	15.7	NW	-13.6	-5.9	-13.8	728.2	0.017	0.000	21.7	11	-10.1	19.0	2.73	 .0714	23	1	100.0	1
11/27/24	2:34	-5.7	-5.7	-5.7	69	-10.5	14.8	NW	0.25	15.7	NW	-13.6	-5.9	-13.8	728.2	0.017	0.000	21.7	10	-11.3	18.9	2.51	 .0715	23	1	100.0	1
11/27/24	2:35	-5.7	-5.7	-5.7	69	-10.5	14.8	NW	0.25	15.7	NW	-13.5	-5.9	-13.7	728.2	0.017	0.000	21.7	11	-10.1	19.0	2.73	 .0714	24	1	100.0	1
11/27/24	2:36	-5.7	-5.7	-5.7	69	-10.5	14.8	NW	0.25	16.5	NW	-13.5	-5.9	-13.7	728.2	0.017	0.000	21.7	11	-10.1	19.0	2.73	 .0714	23	1	100.0	1
11/27/24	2:37	-5.7	-5.7	-5.7	69	-10.5	15.7	NW	0.26	16.5	NW	-13.7	-5.9	-13.9	728.2	0.017	0.000	21.7	11	-10.1	19.0	2.73	 .0714	24	1	100.0	1
11/27/24	2:38	-5.7	-5.7	-5.7	69	-10.5	14.8	NW	0.25	16.5	NW	-13.5	-5.9	-13.7	728.2	0.017	0.000	21.7	11	-10.1	19.0	2.73	 .0714	23	1	100.0	1
11/27/24	2:39	-5.7	-5.6	-5.7	69	-10.5	14.8	NW	0.25	16.5	NW	-13.5	-5.9	-13.7	728.3	0.017	0.000	21.7	11	-10.1	19.0	2.73	 .0714	24	1	100.0	1
11/27/24	2:40	-5.6	-5.6	-5.6	69	-10.4	14.8	NW	0.25	16.5	NW	-13.4	-5.8	-13.7	728.3	0.017	0.000	21.7	11	-10.1	19.0	2.73	 .0714	23	1	100.0	1
11/27/24	2:41	-5.6	-5.6	-5.6	69	-10.4	14.8	NW	0.25	17.4	NW	-13.4	-5.8	-13.7	728.3	0.017	0.000	21.8	11	-10.0	19.1	2.73	 .0714	23	1	100.0	1
11/27/24	2:42	-5.6	-5.6	-5.6	69	-10.4	14.8	NW	0.25	16.5	NW	-13.4	-5.8	-13.7	728.3	0.017	0.000	21.8	11	-10.0	19.1	2.73	 .0714	24	1	100.0	1
11/27/24	2:43	-5.5	-5.5	-5.6	70	-10.1	13.9	NW	0.23	14.8	NW	-13.1	-5.7	-13.3	728.3	0.017	0.000	21.8	11	-10.0	19.1	2.73	 .0714	23	1	100.0	1
11/27/24	2:44	-5.4	-5.4	-5.5	70	-10.0	14.8	NW	0.25	16.5	NW	-13.2	-5.6	-13.4	728.3	0.016	0.000	21.8	11	-10.0	19.1	2.73	 .0714	24	1	100.0	1
11/27/24	2:45	-5.3	-5.3	-5.4	70	-9.9	14.8	NW	0.25	16.5	NW	-13.1	-5.6	-13.3	728.3	0.016	0.000	21.8	11	-10.0	19.2	2.72	 .0714	23	1	100.0	1
11/27/24	2:46	-5.4	-5.3	-5.4	70	-10.0	15.7	NW	0.26	16.5	NW	-13.3	-5.6	-13.6	728.4	0.016	0.000	21.8	11	-10.0	19.2	2.72	 .0714	23	1	100.0	1
11/27/24	2:47	-5.4	-5.4	-5.4	69	-10.2	15.7	NW	0.26	17.4	NW	-13.4	-5.7	-13.7	728.4	0.017	0.000	21.8	11	-10.0	19.2	2.72	 .0714	24	1	100.0	1
11/27/24	2:48	-5.5	-5.4	-5.5	69	-10.3	16.5	NW	0.28	17.4	NW	-13.7	-5.7	-13.9	728.4	0.017	0.000	21.8	11	-10.0	19.2	2.72	 .0714	23	1	100.0	1
11/27/24	2:49	-5.6	-5.6	-5.6	69	-10.3	14.8	NW	0.25	16.5	NW	-13.3	-5.8	-13.6	728.4	0.017	0.000	21.9	11	-9.9	19.2	2.72	 .0714	24	1	100.0	1
11/27/24	2:50	-5.4	-5.4	-5.5	70	-10.1	15.7	NW	0.26	17.4	NW	-13.4	-5.7	-13.7	728.4	0.017	0.000	21.9	11	-9.9	19.2	2.72	 .0714	23	1	100.0	1
11/27/24	2:51	-5.4	-5.4	-5.4	69	-10.2	15.7	NW	0.26	17.4	NW	-13.4	-5.7	-13.7	728.4	0.017	0.000	21.9	11	-9.9	19.2	2.72	 .0714	24	1	100.0	1
11/27/24	2:52	-5.4	-5.4	-5.4	69	-10.2	15.7	NW	0.26	17.4	NW	-13.4	-5.7	-13.7	728.4	0.017	0.000	21.9	11	-9.9	19.3	2.72	 .0714	23	1	100.0	1
11/27/24	2:53	-5.4	-5.4	-5.4	69	-10.2	16.5	NW	0.28	18.3	NW	-13.6	-5.7	-13.8	728.4	0.017	0.000	21.9	11	-9.9	19.3	2.72	 .0714	23	1	100.0	1
11/27/24	2:54	-5.4	-5.4	-5.5	69	-10.2	15.7	NW	0.26	17.4	NW	-13.4	-5.7	-13.7	728.4	0.017	0.000	21.9	11	-9.9	19.3	2.72	 .0714	24	1	100.0	1
11/27/24	2:55	-5.4	-5.4	-5.5	69	-10.2	16.5	NW	0.28	18.3	NW	-13.6	-5.7	-13.8	728.4	0.017	0.000	21.9	11	-9.9	19.3	2.72	 .0714	23	1	100.0	1
11/27/24	2:56	-5.5	-5.4	-5.5	68	-10.5	16.5	NW	0.28	18.3	NW	-13.7	-5.7	-13.9	728.5	0.017	0.000	22.0	11	-9.9	19.4	2.72	 .0714	24	1	100.0	1
11/27/24	2:57	-5.5	-5.5	-5.5	69	-10.3	16.5	NW	0.28	18.3	NW	-13.7	-5.7	-13.9	728.5	0.017	0.000	22.0	11	-9.9	19.4	2.72	 .0714	23	1	100.0	1
11/27/24	2:58	-5.5	-5.5	-5.5	68	-10.5	15.7	NW	0.26	17.4	NW	-13.5	-5.7	-13.7	728.5	0.017	0.000	22.1	11	-9.8	19.4	2.72	 .0714	23	1	100.0	1
11/27/24	2:59	-5.6	-5.5	-5.6	69	-10.3	15.7	NW	0.26	17.4	NW	-13.6	-5.8	-13.8	728.5	0.017	0.000	22.1	11	-9.8	19.4	2.72	 .0714	24	1	100.0	1
11/27/24	3:00	-5.5	-5.5	-5.5	69	-10.3	15.7	NW	0.26	16.5	NW	-13.5	-5.7	-13.7	728.5	0.017	0.000	22.1	11	-9.8	19.6	2.71	 .0714	23	1	100.0	1
11/27/24	3:01	-5.6	-5.5	-5.6	69	-10.3	16.5	NW	0.28	17.4	NW	-13.8	-5.8	-14.0	728.5	0.017	0.000	22.1	11	-9.8	19.6	2.71	 .0714	24	1	100.0	1
11/27/24	3:02	-5.5	-5.5	-5.6	69	-10.3	15.7	NW	0.26	17.4	NW	-13.5	-5.7	-13.7	728.5	0.017	0.000	22.2	11	-9.7	19.6	2.71	 .0714	23	1	100.0	1
11/27/24	3:03	-5.6	-5.5	-5.6	69	-10.3	16.5	NW	0.28	17.4	NW	-13.8	-5.8	-14.0	728.6	0.017	0.000	22.2	11	-9.7	19.6	2.71	 .0714	24	1	100.0	1
11/27/24	3:04	-5.6	-5.6	-5.6	69	-10.3	15.7	NW	0.26	16.5	NW	-13.6	-5.8	-13.8	728.6	0.017	0.000	22.2	11	-9.7	19.6	2.71	 .0714	23	1	100.0	1
11/27/24	3:05	-5.6	-5.6	-5.6	69	-10.3	15.7	NW	0.26	17.4	NW	-13.6	-5.8	-13.8	728.6	0.017	0.000	22.2	11	-9.7	19.7	2.71	 .0713	23	1	100.0	1
11/27/24	3:06	-5.5	-5.5	-5.6	70	-10.1	14.8	NW	0.25	16.5	NW	-13.3	-5.7	-13.5	728.6	0.017	0.000	22.2	11	-9.7	19.7	2.71	 .0713	24	1	100.0	1
11/27/24	3:07	-5.4	-5.4	-5.5	70	-10.1	15.7	NW	0.26	16.5	NW	-13.4	-5.7	-13.7	728.6	0.017	0.000	22.2	11	-9.7	19.7	2.71	 .0713	23	1	100.0	1
11/27/24	3:08	-5.4	-5.4	-5.4	70	-10.1	14.8	NW	0.25	16.5	NW	-13.2	-5.7	-13.4	728.6	0.017	0.000	22.3	11	-9.6	19.8	2.71	 .0713	24	1	100.0	1
11/27/24	3:09	-5.4	-5.4	-5.4	70	-10.0	14.8	NW	0.25	17.4	NW	-13.2	-5.6	-13.4	728.6	0.016	0.000	22.3	11	-9.6	19.8	2.71	 .0713	23	1	100.0	1
11/27/24	3:10	-5.4	-5.4	-5.4	70	-10.0	15.7	NW	0.26	16.5	NW	-13.3	-5.6	-13.6	728.7	0.016	0.000	22.3	11	-9.6	19.8	2.71	 .0713	23	1	100.0	1
11/27/24	3:11	-5.4	-5.4	-5.4	70	-10.0	15.7	NW	0.26	16.5	NW	-13.3	-5.6	-13.6	728.6	0.016	0.000	22.3	11	-9.6	19.8	2.71	 .0713	24	1	100.0	1
11/27/24	3:12	-5.4	-5.4	-5.4	69	-10.2	15.7	NW	0.26	16.5	NW	-13.4	-5.7	-13.7	728.7	0.017	0.000	22.3	11	-9.6	19.8	2.71	 .0713	23	1	100.0	1
11/27/24	3:13	-5.4	-5.4	-5.4	69	-10.2	14.8	NW	0.25	16.5	NW	-13.2	-5.7	-13.4	728.7	0.017	0.000	22.3	11	-9.6	19.8	2.71	 .0713	24	1	100.0	1
11/27/24	3:14	-5.4	-5.4	-5.4	70	-10.1	14.8	NW	0.25	15.7	NW	-13.2	-5.7	-13.4	728.7	0.017	0.000	22.3	11	-9.6	19.8	2.71	 .0713	23	1	100.0	1
11/27/24	3:15	-5.4	-5.4	-5.4	69	-10.2	13.9	NW	0.23	15.7	NW	-13.0	-5.7	-13.2	728.7	0.017	0.000	22.3	11	-9.6	19.8	2.71	 .0713	23	1	100.0	1
11/27/24	3:16	-5.4	-5.4	-5.4	70	-10.0	14.8	NW	0.25	15.7	NW	-13.2	-5.6	-13.4	728.7	0.016	0.000	22.4	11	-9.6	19.9	2.70	 .0713	24	1	100.0	1
11/27/24	3:17	-5.4	-5.4	-5.4	70	-10.0	14.8	NW	0.25	15.7	NW	-13.2	-5.6	-13.4	728.8	0.016	0.000	22.4	11	-9.6	19.9	2.70	 .0713	23	1	100.0	1
11/27/24	3:18	-5.4	-5.4	-5.4	69	-10.2	13.9	NW	0.23	15.7	NW	-12.9	-5.6	-13.2	728.8	0.016	0.000	22.4	11	-9.6	19.9	2.70	 .0713	24	1	100.0	1
11/27/24	3:19	-5.4	-5.4	-5.4	69	-10.2	14.8	NW	0.25	15.7	NW	-13.2	-5.6	-13.4	728.8	0.016	0.000	22.4	11	-9.6	19.9	2.70	 .0713	23	1	100.0	1
11/27/24	3:20	-5.4	-5.3	-5.4	69	-10.2	13.9	NW	0.23	14.8	NW	-12.9	-5.6	-13.2	728.8	0.016	0.000	22.4	11	-9.5	20.0	2.70	 .0713	24	1	100.0	1
11/27/24	3:21	-5.4	-5.3	-5.4	69	-10.2	13.9	NW	0.23	14.8	NW	-12.9	-5.6	-13.2	728.8	0.016	0.000	22.4	11	-9.5	20.0	2.70	 .0713	23	1	100.0	1
11/27/24	3:22	-5.3	-5.3	-5.4	69	-10.1	13.9	NW	0.23	14.8	NW	-12.8	-5.6	-13.1	728.8	0.016	0.000	22.4	11	-9.5	20.0	2.70	 .0713	23	1	100.0	1
11/27/24	3:23	-5.3	-5.3	-5.3	69	-10.1	13.9	NW	0.23	14.8	NW	-12.8	-5.6	-13.1	728.9	0.016	0.000	22.4	11	-9.5	20.0	2.70	 .0713	24	1	100.0	1
11/27/24	3:24	-5.3	-5.3	-5.3	69	-10.1	13.9	NW	0.23	14.8	NW	-12.8	-5.6	-13.1	728.9	0.016	0.000	22.4	11	-9.5	20.0	2.70	 .0713	23	1	100.0	1
11/27/24	3:25	-5.3	-5.3	-5.3	69	-10.1	13.0	NW	0.22	14.8	NW	-12.6	-5.6	-12.8	728.9	0.016	0.000	22.4	11	-9.5	20.0	2.70	 .0713	24	1	100.0	1
11/27/24	3:26	-5.3	-5.3	-5.3	69	-10.1	12.2	NW	0.20	13.9	NW	-12.4	-5.6	-12.6	728.9	0.016	0.000	22.5	11	-9.5	20.1	2.70	 .0713	23	1	100.0	1
11/27/24	3:27	-5.3	-5.3	-5.3	69	-10.1	13.9	NW	0.23	14.8	NW	-12.8	-5.5	-13.0	728.9	0.016	0.000	22.5	11	-9.5	20.1	2.70	 .0713	23	1	100.0	1
11/27/24	3:28	-5.3	-5.3	-5.3	69	-10.1	13.0	NW	0.22	13.9	NW	-12.6	-5.5	-12.8	728.9	0.016	0.000	22.5	11	-9.5	20.1	2.70	 .0713	24	1	100.0	1
11/27/24	3:29	-5.3	-5.3	-5.3	69	-10.1	12.2	NW	0.20	13.9	NW	-12.3	-5.5	-12.5	729.0	0.016	0.000	22.6	11	-9.4	20.2	2.70	 .0713	23	1	100.0	1
11/27/24	3:30	-5.2	-5.2	-5.2	70	-9.8	13.0	NW	0.22	14.8	NW	-12.4	-5.4	-12.6	729.0	0.016	0.000	22.6	11	-9.4	20.2	2.70	 .0713	24	1	100.0	1
11/27/24	3:31	-5.2	-5.2	-5.2	69	-10.0	13.9	NW	0.23	14.8	NW	-12.6	-5.4	-12.8	729.0	0.016	0.000	22.6	11	-9.4	20.2	2.70	 .0713	23	1	100.0	1
11/27/24	3:32	-5.2	-5.2	-5.2	69	-10.0	13.0	NW	0.22	13.9	NW	-12.5	-5.4	-12.7	729.0	0.016	0.000	22.6	11	-9.4	20.2	2.70	 .0713	24	1	100.0	1
11/27/24	3:33	-5.2	-5.2	-5.2	69	-10.0	13.0	NW	0.22	13.9	NW	-12.5	-5.4	-12.7	729.0	0.016	0.000	22.6	11	-9.4	20.2	2.70	 .0713	23	1	100.0	1
11/27/24	3:34	-5.2	-5.2	-5.2	69	-10.0	12.2	NW	0.20	13.9	NW	-12.2	-5.4	-12.4	729.0	0.016	0.000	22.6	11	-9.4	20.2	2.70	 .0713	23	1	100.0	1
11/27/24	3:35	-5.2	-5.2	-5.2	69	-10.0	13.9	NW	0.23	14.8	NW	-12.7	-5.4	-12.9	729.0	0.016	0.000	22.6	11	-9.4	20.2	2.70	 .0713	24	1	100.0	1
11/27/24	3:36	-5.2	-5.2	-5.2	68	-10.2	13.9	NW	0.23	14.8	NW	-12.7	-5.4	-12.9	729.1	0.016	0.000	22.6	11	-9.4	20.2	2.70	 .0713	23	1	100.0	1
11/27/24	3:37	-5.3	-5.2	-5.3	68	-10.3	13.0	NW	0.22	14.8	NW	-12.6	-5.5	-12.8	729.1	0.016	0.000	22.6	11	-9.4	20.2	2.70	 .0713	24	1	100.0	1
11/27/24	3:38	-5.3	-5.3	-5.3	69	-10.1	13.9	NW	0.23	14.8	NW	-12.8	-5.6	-13.1	729.1	0.016	0.000	22.6	11	-9.4	20.2	2.70	 .0713	23	1	100.0	1
11/27/24	3:39	-5.3	-5.3	-5.3	69	-10.1	13.9	NW	0.23	14.8	NW	-12.8	-5.6	-13.1	729.1	0.016	0.000	22.6	11	-9.4	20.2	2.70	 .0713	23	1	100.0	1
11/27/24	3:40	-5.4	-5.3	-5.4	68	-10.4	13.0	NW	0.22	13.9	NW	-12.7	-5.6	-12.9	729.2	0.016	0.000	22.6	11	-9.4	20.2	2.70	 .0713	24	1	100.0	1
11/27/24	3:41	-5.3	-5.3	-5.4	69	-10.1	12.2	NW	0.20	14.8	NW	-12.4	-5.6	-12.6	729.2	0.016	0.000	22.6	11	-9.4	20.2	2.70	 .0713	23	1	100.0	1
11/27/24	3:42	-5.3	-5.3	-5.3	69	-10.1	12.2	NW	0.20	14.8	NW	-12.4	-5.6	-12.6	729.2	0.016	0.000	22.6	11	-9.4	20.2	2.70	 .0713	24	1	100.0	1
11/27/24	3:43	-5.3	-5.3	-5.4	69	-10.1	12.2	NW	0.20	13.9	NW	-12.4	-5.6	-12.6	729.2	0.016	0.000	22.6	11	-9.4	20.2	2.70	 .0713	23	1	100.0	1
11/27/24	3:44	-5.3	-5.3	-5.3	69	-10.1	13.9	NW	0.23	14.8	NW	-12.8	-5.6	-13.1	729.2	0.016	0.000	22.6	11	-9.4	20.2	2.70	 .0713	24	1	100.0	1
11/27/24	3:45	-5.3	-5.3	-5.3	69	-10.1	13.0	NW	0.22	14.8	NW	-12.6	-5.6	-12.8	729.2	0.016	0.000	22.6	11	-9.4	20.2	2.70	 .0713	23	1	100.0	1
11/27/24	3:46	-5.3	-5.3	-5.3	69	-10.1	13.0	NW	0.22	13.9	NW	-12.6	-5.6	-12.8	729.2	0.016	0.000	22.6	11	-9.4	20.2	2.70	 .0713	23	1	100.0	1
11/27/24	3:47	-5.3	-5.3	-5.3	68	-10.3	13.0	NW	0.22	13.9	NW	-12.6	-5.6	-12.8	729.2	0.016	0.000	22.6	11	-9.4	20.2	2.70	 .0713	24	1	100.0	1
11/27/24	3:48	-5.3	-5.3	-5.3	68	-10.3	12.2	NW	0.20	13.0	NW	-12.4	-5.6	-12.6	729.3	0.016	0.000	22.6	11	-9.4	20.2	2.70	 .0713	23	1	100.0	1
11/27/24	3:49	-5.3	-5.3	-5.3	69	-10.1	12.2	NW	0.20	13.0	NW	-12.3	-5.5	-12.5	729.2	0.016	0.000	22.6	11	-9.4	20.2	2.70	 .0713	24	1	100.0	1
11/27/24	3:50	-5.3	-5.3	-5.3	69	-10.1	12.2	NW	0.20	13.9	NW	-12.3	-5.5	-12.5	729.3	0.016	0.000	22.6	11	-9.4	20.2	2.70	 .0713	23	1	100.0	1
11/27/24	3:51	-5.3	-5.3	-5.3	68	-10.3	12.2	NW	0.20	13.9	NW	-12.3	-5.5	-12.5	729.3	0.016	0.000	22.6	11	-9.4	20.2	2.70	 .0713	23	1	100.0	1
11/27/24	3:52	-5.2	-5.2	-5.3	68	-10.2	12.2	NW	0.20	15.7	NNW	-12.2	-5.4	-12.4	729.3	0.016	0.000	22.6	11	-9.4	20.2	2.70	 .0713	24	1	100.0	1
11/27/24	3:53	-5.2	-5.2	-5.2	68	-10.2	13.0	NW	0.22	14.8	NW	-12.5	-5.4	-12.7	729.3	0.016	0.000	22.6	11	-9.4	20.2	2.70	 .0713	23	1	100.0	1
11/27/24	3:54	-5.2	-5.2	-5.2	67	-10.4	12.2	NW	0.20	13.0	NW	-12.2	-5.4	-12.4	729.3	0.016	0.000	22.6	11	-9.4	20.2	2.70	 .0713	24	1	100.0	1
11/27/24	3:55	-5.2	-5.2	-5.2	67	-10.4	12.2	NW	0.20	13.9	NW	-12.2	-5.4	-12.4	729.3	0.016	0.000	22.6	11	-9.4	20.2	2.70	 .0713	23	1	100.0	1
11/27/24	3:56	-5.2	-5.2	-5.2	67	-10.4	11.3	NW	0.19	12.2	NW	-11.9	-5.4	-12.2	729.3	0.016	0.000	22.6	11	-9.4	20.2	2.70	 .0713	24	1	100.0	1
11/27/24	3:57	-5.2	-5.2	-5.2	67	-10.4	10.4	NW	0.17	11.3	NW	-11.7	-5.4	-11.9	729.4	0.016	0.000	22.6	11	-9.4	20.2	2.70	 .0713	23	1	100.0	1
11/27/24	3:58	-5.2	-5.2	-5.2	67	-10.4	12.2	NW	0.20	13.9	NW	-12.2	-5.4	-12.4	729.4	0.016	0.000	22.6	11	-9.4	20.2	2.70	 .0713	23	1	100.0	1
11/27/24	3:59	-5.2	-5.2	-5.2	67	-10.4	12.2	NW	0.20	13.0	NW	-12.2	-5.4	-12.4	729.3	0.016	0.000	22.6	11	-9.4	20.2	2.70	 .0713	24	1	100.0	1
11/27/24	4:00	-5.2	-5.2	-5.2	67	-10.4	12.2	NW	0.20	13.0	NW	-12.2	-5.4	-12.4	729.4	0.016	0.000	22.6	11	-9.4	20.2	2.70	 .0713	23	1	100.0	1
11/27/24	4:01	-5.2	-5.2	-5.2	68	-10.2	12.2	NW	0.20	13.9	NW	-12.2	-5.4	-12.4	729.4	0.016	0.000	22.6	11	-9.4	20.2	2.70	 .0713	24	1	100.0	1
11/27/24	4:02	-5.2	-5.2	-5.2	67	-10.3	12.2	NW	0.20	13.9	NW	-12.2	-5.4	-12.4	729.4	0.016	0.000	22.6	11	-9.4	20.2	2.70	 .0713	23	1	100.0	1
11/27/24	4:03	-5.2	-5.2	-5.2	67	-10.3	11.3	NW	0.19	13.0	NW	-11.9	-5.4	-12.1	729.4	0.016	0.000	22.6	11	-9.4	20.2	2.70	 .0713	23	1	100.0	1
11/27/24	4:04	-5.2	-5.2	-5.2	67	-10.4	11.3	NW	0.19	13.0	NW	-11.9	-5.4	-12.2	729.4	0.016	0.000	22.6	11	-9.4	20.2	2.70	 .0713	24	1	100.0	1
11/27/24	4:05	-5.2	-5.2	-5.2	67	-10.4	12.2	NW	0.20	13.9	NW	-12.2	-5.4	-12.4	729.4	0.016	0.000	22.5	11	-9.5	20.1	2.70	 .0714	23	1	100.0	1
11/27/24	4:06	-5.2	-5.2	-5.2	67	-10.3	12.2	NW	0.20	13.0	NW	-12.2	-5.4	-12.4	729.5	0.016	0.000	22.5	11	-9.5	20.1	2.70	 .0714	24	1	100.0	1
11/27/24	4:07	-5.2	-5.2	-5.2	67	-10.3	11.3	NW	0.19	12.2	NW	-11.9	-5.4	-12.1	729.5	0.016	0.000	22.5	11	-9.5	20.1	2.70	 .0714	23	1	100.0	1
11/27/24	4:08	-5.2	-5.2	-5.2	67	-10.3	10.4	NW	0.17	11.3	NW	-11.6	-5.4	-11.8	729.5	0.016	0.000	22.5	11	-9.5	20.1	2.70	 .0714	23	1	100.0	1
11/27/24	4:09	-5.2	-5.2	-5.2	67	-10.3	11.3	NW	0.19	12.2	NW	-11.9	-5.4	-12.1	729.5	0.016	0.000	22.5	11	-9.5	20.1	2.70	 .0714	24	1	100.0	1
11/27/24	4:10	-5.2	-5.2	-5.2	68	-10.2	11.3	NW	0.19	12.2	NW	-11.9	-5.4	-12.2	729.5	0.016	0.000	22.5	11	-9.5	20.1	2.70	 .0714	23	1	100.0	1
11/27/24	4:11	-5.3	-5.2	-5.3	67	-10.5	11.3	NW	0.19	12.2	NW	-12.1	-5.5	-12.3	729.5	0.016	0.000	22.5	11	-9.5	20.1	2.70	 .0714	24	1	100.0	1
11/27/24	4:12	-5.3	-5.3	-5.3	68	-10.3	11.3	NW	0.19	12.2	NW	-12.1	-5.5	-12.3	729.6	0.016	0.000	22.5	11	-9.5	20.1	2.70	 .0714	23	1	100.0	1
11/27/24	4:13	-5.2	-5.2	-5.3	68	-10.2	11.3	NW	0.19	13.0	NW	-11.9	-5.4	-12.2	729.6	0.016	0.000	22.5	11	-9.5	20.1	2.70	 .0714	24	1	100.0	1
11/27/24	4:14	-5.2	-5.2	-5.2	68	-10.2	10.4	NW	0.17	12.2	NNW	-11.7	-5.4	-11.9	729.6	0.016	0.000	22.5	11	-9.5	20.1	2.70	 .0714	23	1	100.0	1
11/27/24	4:15	-5.2	-5.2	-5.2	68	-10.2	11.3	NW	0.19	13.0	NW	-11.9	-5.4	-12.2	729.6	0.016	0.000	22.4	11	-9.5	20.0	2.70	 .0714	23	1	100.0	1
11/27/24	4:16	-5.2	-5.2	-5.2	68	-10.2	11.3	NNW	0.19	11.3	NW	-11.9	-5.4	-12.2	729.6	0.016	0.000	22.4	11	-9.5	20.0	2.70	 .0714	24	1	100.0	1
11/27/24	4:17	-5.2	-5.2	-5.3	68	-10.2	11.3	NW	0.19	13.0	NW	-11.9	-5.4	-12.2	729.6	0.016	0.000	22.4	11	-9.5	20.0	2.70	 .0714	23	1	100.0	1
11/27/24	4:18	-5.2	-5.2	-5.3	67	-10.4	10.4	NW	0.17	12.2	NW	-11.7	-5.4	-11.9	729.6	0.016	0.000	22.4	11	-9.5	20.0	2.70	 .0714	24	1	100.0	1
11/27/24	4:19	-5.2	-5.2	-5.2	67	-10.4	11.3	NW	0.19	12.2	NW	-11.9	-5.4	-12.2	729.7	0.016	0.000	22.4	11	-9.5	20.0	2.70	 .0714	23	1	100.0	1
11/27/24	4:20	-5.2	-5.2	-5.2	67	-10.4	10.4	NW	0.17	12.2	NW	-11.7	-5.4	-11.9	729.7	0.016	0.000	22.4	11	-9.5	20.0	2.70	 .0714	23	1	100.0	1
11/27/24	4:21	-5.2	-5.2	-5.2	67	-10.4	11.3	NW	0.19	12.2	NW	-11.9	-5.4	-12.2	729.7	0.016	0.000	22.4	11	-9.5	20.0	2.70	 .0714	24	1	100.0	1
11/27/24	4:22	-5.3	-5.2	-5.3	67	-10.5	10.4	NW	0.17	12.2	NW	-11.8	-5.5	-12.0	729.7	0.016	0.000	22.4	11	-9.5	20.0	2.70	 .0714	23	1	100.0	1
11/27/24	4:23	-5.3	-5.3	-5.3	67	-10.5	9.6	NNW	0.16	11.3	NNW	-11.6	-5.6	-11.8	729.7	0.016	0.000	22.4	11	-9.5	20.0	2.70	 .0714	24	1	100.0	1
11/27/24	4:24	-5.4	-5.3	-5.4	67	-10.6	9.6	NNW	0.16	10.4	NNW	-11.6	-5.6	-11.8	729.7	0.016	0.000	22.4	11	-9.5	20.0	2.70	 .0714	23	1	100.0	1
11/27/24	4:25	-5.4	-5.4	-5.4	67	-10.6	11.3	NW	0.19	12.2	NW	-12.2	-5.7	-12.4	729.8	0.017	0.000	22.4	11	-9.6	19.9	2.70	 .0714	24	1	100.0	1
11/27/24	4:26	-5.4	-5.4	-5.4	67	-10.6	11.3	NW	0.19	12.2	NW	-12.2	-5.6	-12.4	729.8	0.016	0.000	22.4	11	-9.5	20.0	2.70	 .0714	23	1	100.0	1
11/27/24	4:27	-5.3	-5.3	-5.4	68	-10.3	10.4	NW	0.17	12.2	NW	-11.8	-5.6	-12.1	729.8	0.016	0.000	22.4	11	-9.5	20.0	2.70	 .0714	23	1	100.0	1
11/27/24	4:28	-5.2	-5.2	-5.3	68	-10.2	11.3	NW	0.19	12.2	NW	-11.9	-5.4	-12.2	729.8	0.016	0.000	22.4	11	-9.5	20.0	2.70	 .0714	24	1	100.0	1
11/27/24	4:29	-5.2	-5.2	-5.2	68	-10.2	9.6	NW	0.16	10.4	NW	-11.3	-5.4	-11.6	729.8	0.016	0.000	22.4	11	-9.5	20.0	2.70	 .0714	23	1	100.0	1
11/27/24	4:30	-5.2	-5.2	-5.2	67	-10.3	8.7	NW	0.14	11.3	NW	-11.0	-5.4	-11.2	729.9	0.016	0.000	22.4	11	-9.5	20.0	2.70	 .0714	24	1	100.0	1
11/27/24	4:31	-5.1	-5.1	-5.2	67	-10.3	9.6	NW	0.16	10.4	NW	-11.3	-5.3	-11.5	729.9	0.016	0.000	22.4	11	-9.5	20.0	2.70	 .0714	23	1	100.0	1
11/27/24	4:32	-5.1	-5.1	-5.1	67	-10.3	9.6	NW	0.16	10.4	NW	-11.3	-5.3	-11.5	729.9	0.016	0.000	22.4	11	-9.6	19.9	2.70	 .0714	23	1	100.0	1
11/27/24	4:33	-5.1	-5.1	-5.1	67	-10.3	9.6	NW	0.16	10.4	NW	-11.3	-5.3	-11.5	729.9	0.016	0.000	22.4	11	-9.5	20.0	2.70	 .0714	24	1	100.0	1
11/27/24	4:34	-5.1	-5.1	-5.1	67	-10.3	9.6	WNW	0.16	10.4	WNW	-11.3	-5.3	-11.5	729.9	0.016	0.000	22.4	11	-9.6	19.9	2.70	 .0714	23	1	100.0	1
11/27/24	4:35	-5.2	-5.1	-5.2	67	-10.3	9.6	NW	0.16	9.6	WNW	-11.3	-5.4	-11.6	730.0	0.016	0.000	22.4	11	-9.6	19.9	2.70	 .0714	24	1	100.0	1
11/27/24	4:36	-5.1	-5.1	-5.2	67	-10.3	8.7	WNW	0.14	9.6	WNW	-10.9	-5.3	-11.2	730.0	0.016	0.000	22.4	11	-9.6	19.9	2.70	 .0714	23	1	100.0	1
11/27/24	4:37	-5.1	-5.1	-5.1	67	-10.3	8.7	NW	0.14	9.6	WNW	-10.9	-5.3	-11.2	730.0	0.016	0.000	22.4	11	-9.6	19.9	2.70	 .0714	24	1	100.0	1
11/27/24	4:38	-5.1	-5.1	-5.1	67	-10.3	8.7	WNW	0.14	10.4	WNW	-10.9	-5.3	-11.2	730.0	0.016	0.000	22.4	11	-9.6	19.9	2.70	 .0714	23	1	100.0	1
11/27/24	4:39	-5.2	-5.1	-5.2	67	-10.3	9.6	WNW	0.16	10.4	WNW	-11.3	-5.4	-11.6	730.0	0.016	0.000	22.4	11	-9.6	19.9	2.70	 .0714	23	1	100.0	1
11/27/24	4:40	-5.2	-5.2	-5.2	67	-10.3	8.7	WNW	0.14	10.4	WNW	-11.0	-5.4	-11.2	730.0	0.016	0.000	22.4	11	-9.6	19.9	2.70	 .0714	24	1	100.0	1
11/27/24	4:41	-5.2	-5.2	-5.2	67	-10.4	8.7	WNW	0.14	9.6	NW	-11.1	-5.4	-11.3	730.0	0.016	0.000	22.4	11	-9.6	19.9	2.70	 .0714	23	1	100.0	1
11/27/24	4:42	-5.2	-5.2	-5.2	67	-10.4	8.7	WNW	0.14	9.6	WNW	-11.1	-5.4	-11.3	730.0	0.016	0.000	22.4	11	-9.6	19.9	2.70	 .0714	24	1	100.0	1
11/27/24	4:43	-5.2	-5.2	-5.2	67	-10.4	8.7	WNW	0.14	9.6	NW	-11.1	-5.4	-11.3	730.0	0.016	0.000	22.4	11	-9.6	19.9	2.70	 .0714	23	1	100.0	1
11/27/24	4:44	-5.2	-5.2	-5.2	67	-10.4	8.7	WNW	0.14	9.6	WNW	-11.1	-5.4	-11.3	730.1	0.016	0.000	22.4	11	-9.6	19.9	2.70	 .0714	23	1	100.0	1
11/27/24	4:45	-5.3	-5.2	-5.3	67	-10.5	8.7	WNW	0.14	9.6	WNW	-11.1	-5.5	-11.3	730.1	0.016	0.000	22.3	11	-9.6	19.8	2.71	 .0715	24	1	100.0	1
11/27/24	4:46	-5.3	-5.3	-5.3	67	-10.5	8.7	WNW	0.14	9.6	WNW	-11.2	-5.6	-11.4	730.2	0.016	0.000	22.3	11	-9.6	19.8	2.71	 .0715	23	1	100.0	1
11/27/24	4:47	-5.3	-5.3	-5.3	67	-10.5	7.8	WNW	0.13	8.7	WNW	-10.8	-5.6	-11.1	730.2	0.016	0.000	22.3	11	-9.6	19.8	2.71	 .0715	24	1	100.0	1
11/27/24	4:48	-5.3	-5.3	-5.4	68	-10.3	7.8	WNW	0.13	8.7	NW	-10.8	-5.6	-11.1	730.2	0.016	0.000	22.3	11	-9.6	19.8	2.71	 .0715	23	1	100.0	1
11/27/24	4:49	-5.3	-5.3	-5.3	68	-10.3	7.8	WNW	0.13	8.7	WNW	-10.8	-5.6	-11.1	730.2	0.016	0.000	22.3	11	-9.6	19.8	2.71	 .0715	24	1	100.0	1
11/27/24	4:50	-5.3	-5.3	-5.3	68	-10.3	7.8	WNW	0.13	8.7	WNW	-10.8	-5.6	-11.1	730.2	0.016	0.000	22.3	11	-9.6	19.8	2.71	 .0715	23	1	100.0	1
11/27/24	4:51	-5.3	-5.3	-5.3	68	-10.3	7.8	WNW	0.13	9.6	WNW	-10.8	-5.6	-11.1	730.2	0.016	0.000	22.3	11	-9.6	19.8	2.71	 .0715	23	1	100.0	1
11/27/24	4:52	-5.3	-5.3	-5.3	68	-10.3	7.0	WNW	0.12	8.7	WNW	-10.4	-5.5	-10.6	730.3	0.016	0.000	22.3	11	-9.6	19.8	2.71	 .0715	24	1	100.0	1
11/27/24	4:53	-5.2	-5.2	-5.3	69	-10.0	7.0	WNW	0.12	9.6	WNW	-10.3	-5.4	-10.6	730.3	0.016	0.000	22.3	11	-9.6	19.8	2.71	 .0715	23	1	100.0	1
11/27/24	4:54	-5.2	-5.2	-5.2	69	-10.0	7.8	W	0.13	8.7	W	-10.7	-5.4	-10.9	730.3	0.016	0.000	22.3	11	-9.6	19.8	2.71	 .0715	24	1	100.0	1
11/27/24	4:55	-5.2	-5.2	-5.2	69	-10.0	6.1	WNW	0.10	7.8	WNW	-9.8	-5.4	-10.1	730.3	0.016	0.000	22.3	11	-9.6	19.8	2.71	 .0715	23	1	100.0	1
11/27/24	4:56	-5.2	-5.2	-5.2	69	-10.0	7.0	WNW	0.12	8.7	WNW	-10.3	-5.4	-10.5	730.3	0.016	0.000	22.3	11	-9.6	19.8	2.71	 .0715	23	1	100.0	1
11/27/24	4:57	-5.2	-5.2	-5.2	69	-10.0	7.0	WNW	0.12	8.7	WNW	-10.3	-5.4	-10.5	730.3	0.016	0.000	22.3	11	-9.6	19.8	2.71	 .0715	24	1	100.0	1
11/27/24	4:58	-5.2	-5.2	-5.2	69	-10.0	7.0	WNW	0.12	8.7	W	-10.3	-5.4	-10.6	730.3	0.016	0.000	22.3	11	-9.6	19.8	2.71	 .0715	23	1	100.0	1
11/27/24	4:59	-5.2	-5.2	-5.2	69	-10.0	7.0	W	0.12	7.8	WNW	-10.3	-5.4	-10.5	730.3	0.016	0.000	22.3	11	-9.6	19.8	2.71	 .0715	24	1	100.0	1
11/27/24	5:00	-5.1	-5.1	-5.2	70	-9.7	7.0	WNW	0.12	7.8	WNW	-10.2	-5.3	-10.4	730.3	0.016	0.000	22.3	11	-9.6	19.8	2.71	 .0715	23	1	100.0	1
11/27/24	5:01	-5.1	-5.1	-5.1	70	-9.7	6.1	WNW	0.10	7.8	WNW	-9.8	-5.3	-10.0	730.4	0.016	0.000	22.3	11	-9.6	19.8	2.71	 .0715	24	1	100.0	1
11/27/24	5:02	-5.1	-5.1	-5.1	70	-9.7	7.0	WSW	0.12	9.6	W	-10.2	-5.3	-10.4	730.4	0.016	0.000	22.3	11	-9.6	19.8	2.71	 .0715	23	1	100.0	1
11/27/24	5:03	-5.1	-5.1	-5.1	69	-9.9	7.0	W	0.12	7.8	WSW	-10.2	-5.3	-10.4	730.4	0.016	0.000	22.3	11	-9.6	19.8	2.71	 .0715	23	1	100.0	1
11/27/24	5:04	-5.2	-5.1	-5.2	69	-10.0	6.1	W	0.10	7.0	W	-9.8	-5.4	-10.1	730.4	0.016	0.000	22.3	11	-9.6	19.8	2.71	 .0715	24	1	100.0	1
11/27/24	5:05	-5.2	-5.2	-5.2	69	-10.0	6.1	W	0.10	7.0	WSW	-9.8	-5.4	-10.1	730.4	0.016	0.000	22.3	11	-9.6	19.8	2.71	 .0715	23	1	100.0	1
11/27/24	5:06	-5.2	-5.2	-5.2	69	-10.0	6.1	W	0.10	7.8	W	-9.8	-5.4	-10.1	730.4	0.016	0.000	22.3	11	-9.6	19.8	2.71	 .0715	24	1	100.0	1
11/27/24	5:07	-5.2	-5.2	-5.2	69	-10.0	6.1	W	0.10	7.0	W	-9.8	-5.4	-10.1	730.4	0.016	0.000	22.3	11	-9.6	19.8	2.71	 .0715	23	1	100.0	1
11/27/24	5:08	-5.2	-5.2	-5.2	69	-10.0	6.1	W	0.10	6.1	W	-9.8	-5.4	-10.1	730.4	0.016	0.000	22.3	11	-9.6	19.8	2.71	 .0715	23	1	100.0	1
11/27/24	5:09	-5.2	-5.2	-5.2	69	-10.0	6.1	W	0.10	7.0	W	-9.8	-5.4	-10.1	730.5	0.016	0.000	22.3	11	-9.6	19.8	2.71	 .0715	24	1	100.0	1
11/27/24	5:10	-5.2	-5.2	-5.2	69	-10.0	6.1	W	0.10	7.0	W	-9.8	-5.4	-10.1	730.5	0.016	0.000	22.3	11	-9.6	19.8	2.71	 .0715	23	1	100.0	1
11/27/24	5:11	-5.1	-5.1	-5.2	69	-9.9	5.2	W	0.09	7.0	WSW	-9.3	-5.3	-9.5	730.5	0.016	0.000	22.3	11	-9.6	19.8	2.71	 .0715	24	1	100.0	1
11/27/24	5:12	-5.1	-5.1	-5.1	69	-9.9	5.2	W	0.09	7.8	W	-9.3	-5.3	-9.5	730.5	0.016	0.000	22.3	11	-9.6	19.8	2.71	 .0715	23	1	100.0	1
11/27/24	5:13	-5.1	-5.1	-5.1	69	-9.9	6.1	WSW	0.10	7.8	WSW	-9.7	-5.3	-9.9	730.5	0.016	0.000	22.3	11	-9.6	19.8	2.71	 .0715	23	1	100.0	1
11/27/24	5:14	-5.1	-5.1	-5.1	69	-9.9	5.2	WSW	0.09	7.0	WSW	-9.3	-5.3	-9.5	730.5	0.016	0.000	22.3	11	-9.6	19.8	2.71	 .0715	24	1	100.0	1
11/27/24	5:15	-5.1	-5.1	-5.1	69	-9.9	6.1	WSW	0.10	7.8	WSW	-9.8	-5.3	-10.0	730.6	0.016	0.000	22.3	11	-9.6	19.8	2.71	 .0715	23	1	100.0	1
11/27/24	5:16	-5.1	-5.1	-5.1	69	-9.9	5.2	W	0.09	7.0	W	-9.2	-5.3	-9.4	730.5	0.016	0.000	22.3	11	-9.6	19.8	2.71	 .0715	24	1	100.0	1
11/27/24	5:17	-5.1	-5.1	-5.1	69	-9.9	4.3	SW	0.07	7.0	WSW	-8.7	-5.3	-8.9	730.6	0.016	0.000	22.3	11	-9.6	19.8	2.71	 .0715	23	1	100.0	1
11/27/24	5:18	-5.1	-5.1	-5.1	68	-10.1	4.3	SW	0.07	5.2	SW	-8.7	-5.3	-8.9	730.6	0.016	0.000	22.3	11	-9.6	19.8	2.71	 .0715	24	1	100.0	1
11/27/24	5:19	-5.1	-5.1	-5.1	69	-9.9	6.1	WSW	0.10	7.0	WSW	-9.8	-5.3	-10.0	730.6	0.016	0.000	22.3	11	-9.6	19.8	2.71	 .0715	23	1	100.0	1
11/27/24	5:20	-5.2	-5.1	-5.2	69	-10.0	3.5	WSW	0.06	5.2	WSW	-8.2	-5.4	-8.4	730.6	0.016	0.000	22.3	11	-9.6	19.8	2.71	 .0715	23	1	100.0	1
11/27/24	5:21	-5.2	-5.2	-5.2	69	-10.0	4.3	WSW	0.07	7.0	WSW	-8.8	-5.4	-9.0	730.6	0.016	0.000	22.3	11	-9.6	19.8	2.71	 .0715	24	1	100.0	1
11/27/24	5:22	-5.2	-5.2	-5.2	69	-10.0	4.3	WSW	0.07	7.8	WSW	-8.8	-5.4	-9.0	730.7	0.016	0.000	22.3	11	-9.6	19.8	2.71	 .0715	23	1	100.0	1
11/27/24	5:23	-5.2	-5.2	-5.2	69	-10.0	5.2	WSW	0.09	8.7	WSW	-9.3	-5.4	-9.6	730.7	0.016	0.000	22.3	11	-9.6	19.8	2.71	 .0715	24	1	100.0	1
11/27/24	5:24	-5.2	-5.2	-5.2	69	-10.0	5.2	WSW	0.09	7.8	WSW	-9.3	-5.4	-9.6	730.7	0.016	0.000	22.3	11	-9.6	19.8	2.71	 .0715	23	1	100.0	1
11/27/24	5:25	-5.1	-5.1	-5.2	69	-9.9	6.1	WSW	0.10	7.8	WSW	-9.8	-5.3	-10.0	730.7	0.016	0.000	22.3	11	-9.6	19.8	2.71	 .0715	23	1	100.0	1
11/27/24	5:26	-5.1	-5.1	-5.1	69	-9.9	7.8	WSW	0.13	8.7	WSW	-10.5	-5.3	-10.7	730.7	0.016	0.000	22.3	11	-9.6	19.8	2.71	 .0715	24	1	100.0	1
11/27/24	5:27	-5.0	-5.0	-5.1	69	-9.8	5.2	SW	0.09	7.0	SW	-9.2	-5.2	-9.4	730.7	0.016	0.000	22.3	11	-9.6	19.8	2.71	 .0715	23	1	100.0	1
11/27/24	5:28	-4.9	-4.9	-5.0	69	-9.8	5.2	SW	0.09	7.8	WSW	-9.1	-5.2	-9.3	730.7	0.016	0.000	22.3	11	-9.6	19.8	2.71	 .0715	24	1	100.0	1
11/27/24	5:29	-4.9	-4.9	-4.9	68	-9.9	4.3	SW	0.07	6.1	W	-8.6	-5.2	-8.8	730.7	0.016	0.000	22.3	11	-9.6	19.8	2.71	 .0715	23	1	100.0	1
11/27/24	5:30	-4.9	-4.9	-4.9	68	-9.9	7.0	W	0.12	7.8	W	-9.9	-5.1	-10.2	730.7	0.016	0.000	22.3	11	-9.6	19.8	2.71	 .0715	24	1	100.0	1
11/27/24	5:31	-4.8	-4.8	-4.9	68	-9.8	6.1	W	0.10	7.8	WSW	-9.4	-5.1	-9.7	730.7	0.016	0.000	22.3	11	-9.6	19.8	2.71	 .0715	23	1	100.0	1
11/27/24	5:32	-4.8	-4.8	-4.8	67	-10.0	4.3	WSW	0.07	7.0	WSW	-8.4	-5.1	-8.6	730.7	0.016	0.000	22.3	11	-9.6	19.8	2.71	 .0715	23	1	100.0	1
11/27/24	5:33	-4.8	-4.8	-4.8	67	-10.0	1.7	W	0.03	2.6	W	-5.8	-5.0	-6.1	730.7	0.016	0.000	22.3	11	-9.6	19.8	2.71	 .0715	24	1	100.0	1
11/27/24	5:34	-4.8	-4.8	-4.8	67	-10.0	3.5	W	0.06	5.2	W	-7.7	-5.0	-7.9	730.7	0.016	0.000	22.3	11	-9.6	19.8	2.71	 .0715	23	1	100.0	1
11/27/24	5:35	-4.7	-4.7	-4.7	67	-9.9	2.6	W	0.04	5.2	W	-6.8	-4.9	-7.0	730.7	0.016	0.000	22.3	11	-9.6	19.8	2.71	 .0715	24	1	100.0	1
11/27/24	5:36	-4.6	-4.6	-4.7	66	-10.0	4.3	SSW	0.07	5.2	SW	-8.2	-4.9	-8.4	730.7	0.016	0.000	22.3	11	-9.6	19.8	2.71	 .0715	23	1	100.0	1
11/27/24	5:37	-4.6	-4.6	-4.6	65	-10.1	6.1	SSW	0.10	7.8	SSW	-9.1	-4.8	-9.4	730.7	0.016	0.000	22.3	11	-9.6	19.8	2.71	 .0715	23	1	100.0	1
11/27/24	5:38	-4.6	-4.6	-4.6	66	-10.0	6.1	SSW	0.10	7.8	S	-9.1	-4.8	-9.4	730.7	0.016	0.000	22.3	11	-9.6	19.8	2.71	 .0715	24	1	100.0	1
11/27/24	5:39	-4.6	-4.5	-4.6	66	-10.0	3.5	SSW	0.06	5.2	SSW	-7.4	-4.8	-7.7	730.8	0.016	0.000	22.3	11	-9.6	19.8	2.71	 .0715	23	1	100.0	1
11/27/24	5:40	-4.6	-4.6	-4.6	66	-10.0	3.5	SSW	0.06	5.2	SSW	-7.4	-4.8	-7.7	730.8	0.016	0.000	22.3	11	-9.6	19.8	2.71	 .0715	24	1	100.0	1
11/27/24	5:41	-4.6	-4.6	-4.6	67	-9.8	4.3	SSW	0.07	6.1	S	-8.1	-4.8	-8.3	730.8	0.016	0.000	22.3	11	-9.6	19.8	2.71	 .0715	23	1	100.0	1
11/27/24	5:42	-4.5	-4.5	-4.6	67	-9.7	4.3	SSW	0.07	5.2	SSW	-8.0	-4.8	-8.3	730.8	0.016	0.000	22.3	11	-9.6	19.8	2.71	 .0715	24	1	100.0	1
11/27/24	5:43	-4.6	-4.6	-4.6	66	-10.0	3.5	S	0.06	6.1	S	-7.4	-4.8	-7.7	730.8	0.016	0.000	22.3	11	-9.6	19.8	2.71	 .0715	23	1	100.0	1
11/27/24	5:44	-4.6	-4.6	-4.6	66	-10.0	4.3	SSW	0.07	7.0	S	-8.2	-4.9	-8.4	730.8	0.016	0.000	22.3	11	-9.6	19.8	2.71	 .0715	23	1	100.0	1
11/27/24	5:45	-4.6	-4.6	-4.6	66	-10.0	5.2	S	0.09	8.7	S	-8.7	-4.9	-9.0	730.8	0.016	0.000	22.3	11	-9.6	19.8	2.71	 .0715	24	1	100.0	1
11/27/24	5:46	-4.6	-4.6	-4.6	66	-10.0	6.1	S	0.10	8.7	S	-9.2	-4.9	-9.4	730.8	0.016	0.000	22.3	11	-9.6	19.8	2.71	 .0715	23	1	100.0	1
11/27/24	5:47	-4.6	-4.6	-4.7	66	-10.0	6.1	S	0.10	7.0	SSW	-9.2	-4.9	-9.4	730.8	0.016	0.000	22.3	11	-9.6	19.8	2.71	 .0715	24	1	100.0	1
11/27/24	5:48	-4.6	-4.6	-4.7	66	-10.0	5.2	SSW	0.09	6.1	SW	-8.7	-4.9	-9.0	730.8	0.016	0.000	22.3	11	-9.6	19.8	2.71	 .0715	23	1	100.0	1
11/27/24	5:49	-4.7	-4.6	-4.7	65	-10.3	3.5	SW	0.06	4.3	SW	-7.6	-4.9	-7.8	730.9	0.016	0.000	22.3	11	-9.6	19.8	2.71	 .0715	23	1	100.0	1
11/27/24	5:50	-4.7	-4.7	-4.7	65	-10.3	1.7	SW	0.03	2.6	SW	-5.7	-4.9	-6.0	730.9	0.016	0.000	22.3	11	-9.6	19.8	2.71	 .0715	24	1	100.0	1
11/27/24	5:51	-4.7	-4.7	-4.7	65	-10.3	4.3	SSW	0.07	6.1	S	-8.2	-4.9	-8.5	730.9	0.016	0.000	22.3	11	-9.6	19.8	2.71	 .0715	23	1	100.0	1
11/27/24	5:52	-4.7	-4.7	-4.7	65	-10.3	5.2	SSW	0.09	7.0	SSW	-8.8	-5.0	-9.1	730.9	0.016	0.000	22.3	11	-9.6	19.8	2.71	 .0716	24	1	100.0	1
11/27/24	5:53	-4.8	-4.7	-4.8	64	-10.6	4.3	SW	0.07	6.1	SSW	-8.3	-5.1	-8.6	730.9	0.016	0.000	22.3	11	-9.6	19.8	2.71	 .0715	23	1	100.0	1
11/27/24	5:54	-4.8	-4.8	-4.8	64	-10.6	4.3	S	0.07	5.2	SSW	-8.3	-5.1	-8.6	730.9	0.016	0.000	22.3	11	-9.6	19.8	2.71	 .0716	24	1	100.0	1
11/27/24	5:55	-4.8	-4.8	-4.8	64	-10.6	4.3	SSW	0.07	5.2	S	-8.4	-5.1	-8.6	730.9	0.016	0.000	22.3	11	-9.6	19.8	2.71	 .0716	23	1	100.0	1
11/27/24	5:56	-4.8	-4.8	-4.8	64	-10.6	4.3	SSW	0.07	6.1	SSW	-8.3	-5.1	-8.6	730.9	0.016	0.000	22.3	11	-9.6	19.8	2.71	 .0716	23	1	100.0	1
11/27/24	5:57	-4.8	-4.8	-4.8	64	-10.6	4.3	SSW	0.07	5.2	SSW	-8.4	-5.1	-8.6	731.0	0.016	0.000	22.3	11	-9.6	19.8	2.71	 .0716	24	1	100.0	1
11/27/24	5:58	-4.8	-4.8	-4.8	64	-10.6	2.6	SSW	0.04	4.3	SSW	-6.9	-5.1	-7.2	731.0	0.016	0.000	22.3	11	-9.6	19.8	2.71	 .0716	23	1	100.0	1
11/27/24	5:59	-4.8	-4.8	-4.8	64	-10.6	4.3	SSW	0.07	6.1	S	-8.3	-5.1	-8.6	731.0	0.016	0.000	22.3	11	-9.6	19.8	2.71	 .0716	24	1	100.0	1
11/27/24	6:00	-4.8	-4.8	-4.8	64	-10.6	7.0	S	0.12	9.6	SSE	-9.8	-5.1	-10.1	731.0	0.016	0.000	22.3	11	-9.6	19.8	2.71	 .0716	23	1	100.0	1
11/27/24	6:01	-4.7	-4.7	-4.8	63	-10.7	7.0	SE	0.12	8.7	SE	-9.7	-5.0	-10.0	731.0	0.016	0.000	22.3	11	-9.6	19.8	2.71	 .0716	23	1	100.0	1
11/27/24	6:02	-4.7	-4.7	-4.7	61	-11.1	8.7	SE	0.14	10.4	SSE	-10.4	-4.9	-10.7	731.0	0.016	0.000	22.3	11	-9.6	19.8	2.71	 .0716	24	1	100.0	1
11/27/24	6:03	-4.7	-4.7	-4.7	61	-11.1	9.6	SE	0.16	11.3	SE	-10.7	-4.9	-11.0	731.0	0.016	0.000	22.3	11	-9.6	19.8	2.71	 .0716	23	1	100.0	1
11/27/24	6:04	-4.7	-4.7	-4.7	61	-11.1	12.2	SE	0.20	14.8	SSE	-11.5	-4.9	-11.8	731.0	0.016	0.000	22.3	11	-9.6	19.8	2.71	 .0716	24	1	100.0	1
11/27/24	6:05	-4.8	-4.7	-4.8	59	-11.6	14.8	SSE	0.25	18.3	SSE	-12.3	-5.1	-12.6	731.0	0.016	0.000	22.3	11	-9.6	19.8	2.71	 .0716	23	1	100.0	1
11/27/24	6:06	-5.1	-4.8	-5.1	56	-12.5	12.2	SE	0.20	13.9	SSE	-12.0	-5.4	-12.3	731.0	0.016	0.000	22.3	11	-9.6	19.8	2.71	 .0716	24	1	100.0	1
11/27/24	6:07	-5.1	-5.1	-5.1	56	-12.5	13.9	SE	0.23	18.3	SSE	-12.6	-5.4	-12.9	731.0	0.016	0.000	22.3	11	-9.6	19.8	2.71	 .0716	23	1	100.0	1
11/27/24	6:08	-5.2	-5.1	-5.2	56	-12.6	16.5	SSE	0.28	19.1	SSE	-13.3	-5.5	-13.6	731.0	0.016	0.000	22.3	11	-9.6	19.8	2.71	 .0716	23	1	100.0	1
11/27/24	6:09	-5.3	-5.2	-5.3	46	-15.1	18.3	SSE	0.30	20.9	SE	-13.8	-5.7	-14.2	731.0	0.016	0.000	22.3	11	-9.6	19.8	2.71	 .0716	24	1	100.0	1
11/27/24	6:10	-5.3	-5.3	-5.3	45	-15.4	19.1	SSE	0.32	21.7	SSE	-14.1	-5.7	-14.4	731.0	0.016	0.000	22.3	11	-9.6	19.8	2.71	 .0716	23	1	100.0	1
11/27/24	6:11	-5.3	-5.3	-5.3	46	-15.2	21.7	SSE	0.36	26.1	SSE	-14.5	-5.7	-14.9	730.9	0.016	0.000	22.3	11	-9.6	19.8	2.71	 .0716	24	1	100.0	1
11/27/24	6:12	-5.6	-5.3	-5.6	48	-14.8	25.2	SE	0.42	27.0	SE	-15.4	-5.9	-15.7	730.9	0.017	0.000	22.3	11	-9.6	19.8	2.71	 .0716	23	1	100.0	1
11/27/24	6:13	-6.0	-5.7	-6.0	50	-14.8	24.3	SE	0.41	27.0	SSE	-15.9	-6.3	-16.2	730.9	0.017	0.000	22.3	11	-9.6	19.8	2.71	 .0716	23	1	100.0	1
11/27/24	6:14	-6.4	-6.1	-6.4	52	-14.7	24.3	SE	0.41	27.8	SE	-16.4	-6.8	-16.8	730.9	0.017	0.000	22.3	11	-9.6	19.8	2.71	 .0716	24	1	100.0	1
11/27/24	6:15	-6.7	-6.5	-6.7	60	-13.2	23.5	SE	0.39	27.8	SE	-16.7	-6.9	-16.9	730.9	0.017	0.000	22.3	11	-9.6	19.8	2.71	 .0715	23	1	100.0	1
11/27/24	6:16	-6.9	-6.8	-6.9	63	-12.8	24.3	SE	0.41	27.0	SE	-17.2	-7.2	-17.4	730.9	0.018	0.000	22.3	11	-9.6	19.8	2.71	 .0716	24	1	100.0	1
11/27/24	6:17	-7.2	-7.0	-7.2	64	-12.8	23.5	SE	0.39	25.2	SE	-17.3	-7.4	-17.5	730.9	0.018	0.000	22.2	11	-9.7	19.7	2.71	 .0716	23	1	100.0	1
11/27/24	6:18	-7.2	-7.2	-7.2	65	-12.7	22.6	SE	0.38	26.1	SE	-17.2	-7.4	-17.4	730.9	0.018	0.000	22.2	11	-9.7	19.7	2.71	 .0716	23	1	100.0	1
11/27/24	6:19	-7.3	-7.2	-7.3	66	-12.6	21.7	SE	0.36	24.3	SSE	-17.1	-7.5	-17.3	730.9	0.018	0.000	22.3	11	-9.6	19.8	2.71	 .0716	24	1	100.0	1
11/27/24	6:20	-7.3	-7.3	-7.3	67	-12.4	22.6	SE	0.38	24.3	SE	-17.4	-7.6	-17.6	730.9	0.018	0.000	22.3	11	-9.6	19.8	2.71	 .0716	23	1	100.0	1
11/27/24	6:21	-7.4	-7.3	-7.4	67	-12.5	20.9	SE	0.35	23.5	SE	-17.2	-7.7	-17.4	730.9	0.018	0.000	22.3	11	-9.6	19.8	2.71	 .0716	24	1	100.0	1
11/27/24	6:22	-7.6	-7.4	-7.6	68	-12.4	21.7	SE	0.36	26.1	SE	-17.5	-7.7	-17.7	730.9	0.018	0.000	22.3	11	-9.6	19.8	2.71	 .0716	23	1	100.0	1
11/27/24	6:23	-7.6	-7.6	-7.6	68	-12.4	20.9	SE	0.35	23.5	SE	-17.3	-7.7	-17.5	730.9	0.018	0.000	22.3	11	-9.6	19.8	2.71	 .0716	24	1	100.0	1
11/27/24	6:24	-7.7	-7.6	-7.7	69	-12.4	22.6	SE	0.38	24.3	SE	-17.8	-7.8	-17.9	730.9	0.018	0.000	22.3	11	-9.6	19.8	2.71	 .0716	23	1	100.0	1
11/27/24	6:25	-7.9	-7.7	-7.9	69	-12.6	20.9	SE	0.35	23.5	SE	-17.8	-8.1	-17.9	730.9	0.018	0.000	22.3	11	-9.6	19.8	2.71	 .0716	23	1	100.0	1
11/27/24	6:26	-8.0	-7.9	-8.0	70	-12.5	20.9	SE	0.35	23.5	ESE	-17.9	-8.2	-18.1	730.9	0.018	0.000	22.3	11	-9.6	19.8	2.71	 .0716	24	1	100.0	1
11/27/24	6:27	-8.1	-8.0	-8.1	70	-12.6	19.1	SE	0.32	23.5	ESE	-17.7	-8.3	-17.9	730.9	0.018	0.000	22.3	11	-9.6	19.8	2.71	 .0716	23	1	100.0	1
11/27/24	6:28	-8.2	-8.1	-8.2	70	-12.7	19.1	ESE	0.32	25.2	ESE	-17.8	-8.3	-17.9	731.0	0.018	0.000	22.3	11	-9.6	19.8	2.71	 .0716	24	1	100.0	1
11/27/24	6:29	-8.2	-8.2	-8.2	70	-12.7	20.0	ESE	0.33	22.6	ESE	-17.9	-8.3	-18.1	731.0	0.018	0.000	22.3	11	-9.6	19.8	2.71	 .0716	23	1	100.0	1
11/27/24	6:30	-8.3	-8.2	-8.3	71	-12.6	20.9	SE	0.35	22.6	SE	-18.2	-8.4	-18.4	731.0	0.018	0.000	22.3	11	-9.6	19.8	2.71	 .0716	23	1	100.0	1
11/27/24	6:31	-8.4	-8.3	-8.4	71	-12.7	19.1	SE	0.32	21.7	SE	-18.0	-8.6	-18.2	731.0	0.019	0.000	22.3	11	-9.6	19.8	2.71	 .0716	24	1	100.0	1
11/27/24	6:32	-8.4	-8.4	-8.4	71	-12.8	18.3	ESE	0.30	20.0	SE	-17.9	-8.6	-18.1	731.0	0.019	0.000	22.3	11	-9.6	19.8	2.71	 .0716	23	1	100.0	1
11/27/24	6:33	-8.4	-8.4	-8.4	72	-12.6	20.0	ESE	0.33	24.3	ESE	-18.3	-8.6	-18.4	731.0	0.019	0.000	22.2	11	-9.7	19.7	2.71	 .0716	24	1	100.0	1
11/27/24	6:34	-8.4	-8.4	-8.4	72	-12.5	17.4	ESE	0.29	20.9	SE	-17.7	-8.6	-17.8	731.0	0.019	0.000	22.2	11	-9.7	19.7	2.71	 .0716	23	1	100.0	1
11/27/24	6:35	-8.5	-8.4	-8.5	72	-12.6	18.3	SE	0.30	20.9	SE	-17.9	-8.7	-18.1	731.1	0.019	0.000	22.3	11	-9.6	19.8	2.71	 .0716	24	1	100.0	1
11/27/24	6:36	-8.6	-8.5	-8.6	72	-12.8	17.4	SE	0.29	19.1	SE	-17.9	-8.8	-18.1	731.0	0.019	0.000	22.3	11	-9.6	19.8	2.71	 .0716	23	1	100.0	1
11/27/24	6:37	-8.7	-8.6	-8.7	73	-12.6	17.4	SE	0.29	19.1	SE	-18.0	-8.8	-18.1	731.1	0.019	0.000	22.2	11	-9.7	19.7	2.71	 .0716	23	1	100.0	1
11/27/24	6:38	-8.7	-8.7	-8.7	73	-12.6	14.8	SE	0.25	17.4	SE	-17.4	-8.8	-17.5	731.1	0.019	0.000	22.3	11	-9.6	19.8	2.71	 .0716	24	1	100.0	1
11/27/24	6:39	-8.7	-8.7	-8.7	73	-12.6	16.5	SE	0.28	18.3	SE	-17.8	-8.8	-17.9	731.1	0.019	0.000	22.2	11	-9.7	19.7	2.71	 .0716	23	1	100.0	1
11/27/24	6:40	-8.6	-8.6	-8.7	73	-12.5	16.5	SE	0.28	19.1	SSE	-17.7	-8.7	-17.8	731.1	0.019	0.000	22.2	11	-9.7	19.7	2.71	 .0716	24	1	100.0	1
11/27/24	6:41	-8.5	-8.5	-8.6	73	-12.5	16.5	SE	0.28	19.1	SE	-17.6	-8.6	-17.7	731.1	0.019	0.000	22.2	11	-9.7	19.7	2.71	 .0716	23	1	100.0	1
11/27/24	6:42	-8.5	-8.5	-8.5	74	-12.3	15.7	SSE	0.26	16.5	SE	-17.4	-8.6	-17.5	731.1	0.019	0.000	22.2	11	-9.7	19.7	2.71	 .0716	23	1	100.0	1
11/27/24	6:43	-8.4	-8.4	-8.5	74	-12.3	14.8	SE	0.25	16.5	SE	-17.1	-8.6	-17.2	731.1	0.019	0.000	22.2	11	-9.7	19.7	2.71	 .0716	24	1	100.0	1
11/27/24	6:44	-8.4	-8.4	-8.4	74	-12.3	13.9	SE	0.23	15.7	SE	-16.8	-8.6	-16.9	731.1	0.019	0.000	22.2	11	-9.7	19.7	2.71	 .0716	23	1	100.0	1
11/27/24	6:45	-8.4	-8.4	-8.4	74	-12.3	14.8	SSE	0.25	16.5	SSE	-17.1	-8.6	-17.2	731.1	0.019	0.000	22.2	11	-9.7	19.7	2.71	 .0716	24	1	100.0	1
11/27/24	6:46	-8.4	-8.4	-8.4	74	-12.3	13.9	SSE	0.23	14.8	SE	-16.8	-8.6	-16.9	731.1	0.019	0.000	22.2	11	-9.7	19.7	2.71	 .0716	23	1	100.0	1
11/27/24	6:47	-8.4	-8.4	-8.4	74	-12.2	12.2	SSE	0.20	13.9	SSE	-16.3	-8.5	-16.4	731.2	0.019	0.000	22.2	11	-9.7	19.7	2.71	 .0716	24	1	100.0	1
11/27/24	6:48	-8.3	-8.3	-8.3	74	-12.1	12.2	SSE	0.20	13.0	SSE	-16.1	-8.4	-16.2	731.3	0.018	0.000	22.2	11	-9.7	19.7	2.71	 .0716	23	1	100.0	1
11/27/24	6:49	-8.2	-8.2	-8.2	74	-12.0	11.3	SSE	0.19	12.2	SSE	-15.7	-8.3	-15.8	731.3	0.018	0.000	22.2	11	-9.7	19.7	2.71	 .0716	23	1	100.0	1
11/27/24	6:50	-8.1	-8.1	-8.2	74	-11.9	10.4	SE	0.17	12.2	SSE	-15.3	-8.3	-15.5	731.3	0.018	0.000	22.2	11	-9.7	19.7	2.71	 .0716	24	1	100.0	1
11/27/24	6:51	-8.1	-8.1	-8.1	74	-11.9	10.4	SSE	0.17	12.2	SE	-15.3	-8.3	-15.5	731.3	0.018	0.000	22.2	11	-9.7	19.7	2.71	 .0716	23	1	100.0	1
11/27/24	6:52	-8.1	-8.1	-8.1	74	-11.9	10.4	SSE	0.17	12.2	SSE	-15.3	-8.3	-15.5	731.4	0.018	0.000	22.2	11	-9.7	19.7	2.71	 .0716	24	1	100.0	1
11/27/24	6:53	-8.1	-8.1	-8.1	74	-11.9	9.6	SSE	0.16	11.3	SSE	-15.0	-8.3	-15.2	731.4	0.018	0.000	22.2	11	-9.7	19.7	2.71	 .0716	23	1	100.0	1
11/27/24	6:54	-8.0	-8.0	-8.1	74	-11.8	9.6	SSE	0.16	10.4	SSE	-14.8	-8.2	-15.0	731.4	0.018	0.000	22.2	11	-9.7	19.7	2.71	 .0716	23	1	100.0	1
11/27/24	6:55	-8.0	-8.0	-8.0	73	-12.0	9.6	SSE	0.16	10.4	SSE	-14.8	-8.2	-15.0	731.4	0.018	0.000	22.2	11	-9.7	19.7	2.71	 .0716	24	1	100.0	1
11/27/24	6:56	-7.9	-7.9	-8.0	73	-11.9	7.0	S	0.12	8.7	SSE	-13.7	-8.1	-13.8	731.4	0.018	0.000	22.2	11	-9.7	19.7	2.71	 .0716	23	1	100.0	1
11/27/24	6:57	-7.9	-7.9	-7.9	73	-11.9	7.8	SSE	0.13	9.6	SSE	-14.0	-8.1	-14.2	731.5	0.018	0.000	22.2	11	-9.7	19.7	2.71	 .0716	24	1	100.0	1
11/27/24	6:58	-7.8	-7.8	-7.9	73	-11.8	7.0	SSE	0.12	8.7	SSE	-13.5	-8.0	-13.7	731.4	0.018	0.000	22.2	11	-9.7	19.7	2.71	 .0716	23	1	100.0	1
11/27/24	6:59	-7.7	-7.7	-7.8	73	-11.7	6.1	S	0.10	7.8	S	-12.9	-7.9	-13.1	731.5	0.018	0.000	22.2	11	-9.7	19.7	2.71	 .0716	24	1	100.0	1
11/27/24	7:00	-7.7	-7.7	-7.7	73	-11.7	6.1	S	0.10	8.7	S	-12.8	-7.8	-13.0	731.4	0.018	0.000	22.2	11	-9.7	19.7	2.71	 .0716	23	1	100.0	1
11/27/24	7:01	-7.6	-7.6	-7.7	72	-11.8	5.2	S	0.09	7.0	S	-12.3	-7.8	-12.4	731.5	0.018	0.000	22.2	11	-9.7	19.7	2.71	 .0716	23	1	100.0	1
11/27/24	7:02	-7.5	-7.5	-7.6	72	-11.7	3.5	S	0.06	5.2	S	-10.8	-7.7	-11.0	731.5	0.018	0.000	22.2	11	-9.7	19.7	2.71	 .0716	24	1	100.0	1
11/27/24	7:03	-7.4	-7.4	-7.5	72	-11.6	4.3	SSW	0.07	6.1	SSW	-11.4	-7.6	-11.6	731.5	0.018	0.000	22.2	11	-9.7	19.7	2.71	 .0716	23	1	100.0	1
11/27/24	7:04	-7.3	-7.3	-7.4	71	-11.6	5.2	SSW	0.09	8.7	S	-11.9	-7.4	-12.1	731.5	0.018	0.000	22.2	11	-9.7	19.7	2.71	 .0716	24	1	100.0	1
11/27/24	7:05	-7.2	-7.2	-7.2	71	-11.5	7.0	S	0.12	8.7	S	-12.7	-7.3	-12.9	731.6	0.018	0.000	22.2	11	-9.7	19.7	2.71	 .0716	23	1	100.0	1
11/27/24	7:06	-7.1	-7.1	-7.2	71	-11.5	7.8	S	0.13	9.6	S	-13.1	-7.3	-13.2	731.6	0.018	0.000	22.2	11	-9.7	19.7	2.71	 .0716	23	1	100.0	1
11/27/24	7:07	-7.0	-7.0	-7.1	70	-11.6	5.2	S	0.09	7.0	S	-11.6	-7.2	-11.7	731.7	0.018	0.000	22.2	11	-9.7	19.7	2.71	 .0716	24	1	100.0	1
11/27/24	7:08	-6.9	-6.9	-7.0	70	-11.5	7.8	S	0.13	9.6	S	-12.8	-7.1	-13.0	731.6	0.018	0.000	22.2	11	-9.7	19.7	2.71	 .0716	23	1	100.0	1
11/27/24	7:09	-6.9	-6.9	-6.9	69	-11.7	9.6	S	0.16	13.0	S	-13.6	-7.1	-13.7	731.7	0.018	0.000	22.2	11	-9.7	19.7	2.71	 .0716	24	1	100.0	1
11/27/24	7:10	-6.9	-6.9	-6.9	69	-11.7	9.6	S	0.16	11.3	S	-13.6	-7.1	-13.7	731.7	0.018	0.000	22.3	11	-9.6	19.8	2.71	 .0716	23	1	100.0	1
11/27/24	7:11	-6.9	-6.9	-7.0	69	-11.7	8.7	S	0.14	9.6	S	-13.2	-7.1	-13.4	731.8	0.018	0.000	22.2	11	-9.7	19.7	2.71	 .0717	23	1	100.0	1
11/27/24	7:12	-7.0	-7.0	-7.0	67	-12.1	8.7	S	0.14	10.4	S	-13.3	-7.2	-13.5	731.7	0.018	0.000	22.2	11	-9.7	19.7	2.71	 .0717	24	1	100.0	1
11/27/24	7:13	-6.9	-6.9	-6.9	67	-12.0	11.3	S	0.19	14.8	S	-14.1	-7.1	-14.3	731.7	0.018	0.000	22.2	11	-9.7	19.7	2.71	 .0716	23	1	100.0	1
11/27/24	7:14	-6.8	-6.8	-6.9	67	-11.9	10.4	S	0.17	13.0	S	-13.7	-7.0	-13.9	731.7	0.017	0.000	22.2	11	-9.7	19.7	2.71	 .0716	24	1	100.0	1
11/27/24	7:15	-6.7	-6.7	-6.8	67	-11.8	11.3	S	0.19	13.9	S	-13.8	-6.9	-14.0	731.7	0.017	0.000	22.2	11	-9.7	19.7	2.71	 .0716	23	1	100.0	1
11/27/24	7:16	-6.6	-6.6	-6.7	67	-11.7	11.3	S	0.19	15.7	S	-13.7	-6.8	-13.9	731.7	0.017	0.000	22.2	11	-9.7	19.7	2.71	 .0717	24	1	100.0	1
11/27/24	7:17	-6.5	-6.5	-6.6	67	-11.6	11.3	S	0.19	14.8	S	-13.6	-6.7	-13.8	731.7	0.017	0.000	22.2	11	-9.7	19.7	2.71	 .0717	23	1	100.0	1
11/27/24	7:18	-6.4	-6.4	-6.5	66	-11.8	10.4	S	0.17	12.2	S	-13.2	-6.7	-13.4	731.8	0.017	0.000	22.2	11	-9.7	19.7	2.71	 .0717	23	1	100.0	1
11/27/24	7:19	-6.4	-6.4	-6.4	66	-11.8	10.4	S	0.17	13.9	S	-13.2	-6.7	-13.4	731.9	0.017	0.000	22.2	11	-9.7	19.7	2.71	 .0717	24	1	100.0	1
11/27/24	7:20	-6.4	-6.4	-6.4	66	-11.8	11.3	S	0.19	13.9	S	-13.5	-6.7	-13.7	731.8	0.017	0.000	22.2	11	-9.7	19.7	2.71	 .0717	23	1	100.0	1
11/27/24	7:21	-6.4	-6.4	-6.4	66	-11.7	13.9	S	0.23	16.5	S	-14.2	-6.6	-14.4	731.9	0.017	0.000	22.2	11	-9.7	19.7	2.71	 .0717	24	1	100.0	1
11/27/24	7:22	-6.4	-6.4	-6.4	66	-11.7	12.2	S	0.20	16.5	S	-13.7	-6.6	-13.9	731.9	0.017	0.000	22.2	11	-9.7	19.7	2.71	 .0717	23	1	100.0	1
11/27/24	7:23	-6.4	-6.4	-6.4	66	-11.7	13.9	S	0.23	18.3	SSE	-14.2	-6.6	-14.4	731.9	0.017	0.000	22.2	11	-9.7	19.7	2.71	 .0717	24	1	100.0	1
11/27/24	7:24	-6.4	-6.4	-6.4	66	-11.8	12.2	S	0.20	15.7	S	-13.8	-6.7	-14.0	731.9	0.017	0.000	22.2	11	-9.7	19.7	2.71	 .0717	23	1	100.0	1
11/27/24	7:25	-6.5	-6.4	-6.5	66	-11.8	14.8	S	0.25	18.3	S	-14.6	-6.7	-14.8	731.9	0.017	0.000	22.2	11	-9.7	19.7	2.71	 .0717	23	1	100.0	1
11/27/24	7:26	-6.6	-6.6	-6.6	67	-11.7	14.8	S	0.25	18.3	S	-14.7	-6.8	-14.9	731.9	0.017	0.000	22.2	11	-9.7	19.7	2.71	 .0717	24	1	100.0	1
11/27/24	7:27	-6.7	-6.7	-6.7	67	-11.8	15.7	S	0.26	20.0	S	-15.1	-6.9	-15.3	732.0	0.017	0.000	22.2	11	-9.7	19.7	2.71	 .0717	23	1	100.0	1
11/27/24	7:28	-6.8	-6.7	-6.8	67	-11.9	12.2	S	0.20	15.7	S	-14.2	-7.0	-14.4	732.0	0.017	0.000	22.2	11	-9.7	19.7	2.71	 .0717	24	1	100.0	1
11/27/24	7:29	-6.8	-6.8	-6.8	67	-11.9	12.2	SSW	0.20	15.7	SSW	-14.2	-7.0	-14.4	732.0	0.017	0.000	22.2	11	-9.7	19.7	2.71	 .0717	23	1	100.0	1
11/27/24	7:30	-6.9	-6.8	-6.9	67	-12.0	12.2	SSW	0.20	18.3	S	-14.3	-7.1	-14.6	732.0	0.018	0.000	22.2	11	-9.7	19.7	2.71	 .0717	23	1	100.0	1
11/27/24	7:31	-6.9	-6.9	-6.9	68	-11.8	16.5	S	0.28	22.6	S	-15.5	-7.1	-15.7	732.0	0.018	0.000	22.2	11	-9.7	19.7	2.71	 .0717	24	1	100.0	1
11/27/24	7:32	-7.0	-6.9	-7.0	68	-11.9	18.3	SSE	0.30	23.5	SSE	-16.1	-7.2	-16.2	732.0	0.018	0.000	22.2	11	-9.7	19.7	2.71	 .0717	23	1	100.0	1
11/27/24	7:33	-7.1	-7.1	-7.1	68	-12.0	12.2	S	0.20	19.1	SSE	-14.6	-7.3	-14.8	732.1	0.018	0.000	22.2	11	-9.7	19.7	2.71	 .0717	24	1	100.0	1
11/27/24	7:34	-7.2	-7.1	-7.2	68	-12.1	16.5	SSE	0.28	21.7	SSE	-15.9	-7.3	-16.1	732.1	0.018	0.000	22.2	11	-9.7	19.7	2.71	 .0717	23	1	100.0	1
11/27/24	7:35	-7.3	-7.2	-7.3	69	-12.0	13.0	SSE	0.22	15.7	S	-15.1	-7.4	-15.3	732.1	0.018	0.000	22.2	11	-9.7	19.7	2.71	 .0717	23	1	100.0	1
11/27/24	7:36	-7.4	-7.3	-7.4	70	-12.0	7.8	SSE	0.13	11.3	SSE	-13.4	-7.6	-13.6	732.1	0.018	0.000	22.2	11	-9.7	19.7	2.71	 .0717	24	1	100.0	1
11/27/24	7:37	-7.4	-7.4	-7.4	70	-12.0	4.3	S	0.07	6.1	S	-11.5	-7.6	-11.7	732.1	0.018	0.000	22.2	11	-9.7	19.7	2.71	 .0717	23	1	100.0	1
11/27/24	7:38	-7.4	-7.4	-7.4	70	-12.0	12.2	S	0.20	20.9	SSE	-15.1	-7.6	-15.2	732.1	0.018	0.000	22.2	11	-9.7	19.7	2.71	 .0717	24	1	100.0	1
11/27/24	7:39	-7.5	-7.4	-7.5	71	-11.9	16.5	S	0.28	20.9	SSE	-16.3	-7.7	-16.5	732.1	0.018	0.000	22.2	11	-9.7	19.7	2.71	 .0717	23	1	100.0	1
11/27/24	7:40	-7.7	-7.6	-7.7	71	-12.0	13.9	SE	0.23	16.5	SSE	-15.8	-7.8	-16.0	732.1	0.018	0.000	22.2	11	-9.7	19.7	2.71	 .0717	24	1	100.0	1
11/27/24	7:41	-7.7	-7.7	-7.7	71	-12.1	13.0	SE	0.22	14.8	SE	-15.7	-7.9	-15.8	732.1	0.018	0.000	22.2	11	-9.7	19.7	2.71	 .0717	23	1	100.0	1
11/27/24	7:42	-7.8	-7.7	-7.8	72	-11.9	13.9	SE	0.23	20.0	SE	-16.0	-7.9	-16.2	732.1	0.018	0.000	22.2	11	-9.7	19.7	2.71	 .0717	23	1	100.0	1
11/27/24	7:43	-7.8	-7.8	-7.8	72	-12.0	16.5	SE	0.28	20.0	SSE	-16.7	-8.0	-16.9	732.0	0.018	0.000	22.2	11	-9.7	19.7	2.71	 .0717	24	1	100.0	1
11/27/24	7:44	-7.8	-7.8	-7.8	72	-12.0	17.4	SSE	0.29	22.6	SSE	-16.9	-8.0	-17.1	732.1	0.018	0.000	22.2	11	-9.7	19.7	2.71	 .0717	23	1	100.0	1
11/27/24	7:45	-7.7	-7.7	-7.8	72	-11.9	21.7	SSE	0.36	29.6	SSE	-17.7	-7.9	-17.9	732.1	0.018	0.000	22.2	11	-9.7	19.7	2.71	 .0717	24	1	100.0	1
11/27/24	7:46	-7.8	-7.7	-7.8	72	-11.9	22.6	SSE	0.38	27.8	SE	-17.9	-7.9	-18.1	732.0	0.018	0.000	22.2	11	-9.7	19.7	2.71	 .0717	23	1	100.0	1
11/27/24	7:47	-7.8	-7.8	-7.8	72	-11.9	19.1	SE	0.32	23.5	SE	-17.3	-7.9	-17.4	732.1	0.018	0.000	22.2	11	-9.7	19.6	2.71	 .0717	23	1	100.0	1
11/27/24	7:48	-7.8	-7.8	-7.8	72	-12.0	19.1	SE	0.32	23.5	SSE	-17.3	-8.0	-17.5	732.0	0.018	0.000	22.2	11	-9.7	19.7	2.71	 .0717	24	1	100.0	1
11/27/24	7:49	-7.9	-7.8	-7.9	72	-12.1	16.5	SE	0.28	22.6	SSE	-16.8	-8.1	-17.0	732.0	0.018	0.000	22.2	11	-9.7	19.7	2.71	 .0717	23	1	100.0	1
11/27/24	7:50	-7.9	-7.9	-7.9	72	-12.1	22.6	SSE	0.38	27.8	SE	-18.1	-8.1	-18.3	732.1	0.018	0.000	22.2	11	-9.7	19.6	2.71	 .0717	24	1	100.0	1
11/27/24	7:51	-8.1	-7.9	-8.1	72	-12.2	22.6	SE	0.38	27.8	SSE	-18.3	-8.2	-18.4	732.0	0.018	0.000	22.2	11	-9.7	19.6	2.71	 .0717	23	1	100.0	1
11/27/24	7:52	-8.2	-8.1	-8.2	72	-12.4	21.7	SE	0.36	26.1	SE	-18.3	-8.4	-18.5	732.1	0.018	0.000	22.2	11	-9.7	19.6	2.71	 .0717	24	1	100.0	1
11/27/24	7:53	-8.4	-8.3	-8.4	73	-12.4	19.1	SE	0.32	25.2	SE	-18.0	-8.5	-18.1	732.1	0.019	0.000	22.2	11	-9.7	19.6	2.71	 .0717	23	1	100.0	1
11/27/24	7:54	-8.5	-8.4	-8.5	73	-12.5	24.3	SSE	0.41	29.6	SSE	-19.2	-8.6	-19.3	732.1	0.019	0.000	22.2	11	-9.7	19.6	2.71	 .0717	23	1	100.0	1
11/27/24	7:55	-8.7	-8.6	-8.7	73	-12.6	26.1	SSE	0.43	30.4	SSE	-19.7	-8.8	-19.8	732.1	0.019	0.000	22.2	11	-9.7	19.6	2.71	 .0717	24	1	100.0	1
11/27/24	7:56	-8.7	-8.7	-8.7	73	-12.7	25.2	S	0.42	29.6	SSE	-19.7	-8.8	-19.8	732.1	0.019	0.000	22.2	11	-9.7	19.6	2.71	 .0717	23	1	100.0	1
11/27/24	7:57	-8.8	-8.7	-8.8	74	-12.6	27.8	SSE	0.46	34.8	SSE	-20.2	-8.9	-20.3	732.1	0.019	0.000	22.2	11	-9.7	19.6	2.71	 .0717	24	1	100.0	1
11/27/24	7:58	-8.8	-8.8	-8.8	74	-12.6	27.0	S	0.45	33.9	SSE	-20.1	-8.9	-20.2	732.1	0.019	0.000	22.2	11	-9.7	19.6	2.71	 .0717	23	1	100.0	1
11/27/24	7:59	-8.8	-8.8	-8.8	74	-12.6	28.7	SSE	0.48	34.8	SSE	-20.4	-8.9	-20.5	732.1	0.019	0.000	22.2	11	-9.7	19.6	2.71	 .0717	23	1	100.0	1
11/27/24	8:00	-8.8	-8.8	-8.8	74	-12.6	27.0	S	0.45	36.5	S	-20.0	-8.9	-20.1	732.1	0.019	0.000	22.2	12	-8.6	19.7	2.95	 .0717	24	1	100.0	1
11/27/24	8:01	-8.7	-8.7	-8.7	74	-12.5	27.8	S	0.46	33.0	S	-20.0	-8.8	-20.1	732.1	0.019	0.000	22.2	12	-8.6	19.7	2.95	 .0717	23	1	100.0	1
11/27/24	8:02	-8.6	-8.6	-8.7	74	-12.4	27.0	S	0.45	33.0	S	-19.8	-8.7	-19.9	732.1	0.019	0.000	22.2	12	-8.6	19.7	2.95	 .0717	24	1	100.0	1
11/27/24	8:03	-8.7	-8.6	-8.7	74	-12.5	27.8	S	0.46	33.9	S	-20.0	-8.8	-20.1	732.1	0.019	0.000	22.2	12	-8.6	19.7	2.95	 .0717	23	1	100.0	1
11/27/24	8:04	-8.7	-8.7	-8.7	73	-12.7	29.6	S	0.49	33.9	S	-20.3	-8.8	-20.4	732.1	0.019	0.000	22.2	12	-8.6	19.7	2.95	 .0717	23	1	100.0	1
11/27/24	8:05	-8.8	-8.8	-8.8	74	-12.6	28.7	S	0.48	33.0	S	-20.4	-8.9	-20.5	732.2	0.019	0.000	22.2	12	-8.6	19.7	2.95	 .0717	24	1	100.0	1
11/27/24	8:06	-8.9	-8.8	-8.9	74	-12.7	25.2	SSE	0.42	28.7	SSE	-19.9	-9.0	-20.0	732.2	0.019	0.000	22.2	12	-8.6	19.7	2.95	 .0717	23	1	100.0	1
11/27/24	8:07	-8.9	-8.9	-8.9	74	-12.7	27.8	SSE	0.46	32.2	SSE	-20.3	-9.0	-20.4	732.3	0.019	0.000	22.2	12	-8.6	19.7	2.95	 .0717	24	1	100.0	1
11/27/24	8:08	-8.9	-8.9	-8.9	74	-12.7	31.3	SSE	0.52	40.0	SSE	-20.9	-9.1	-21.0	732.2	0.019	0.000	22.2	12	-8.6	19.7	2.95	 .0717	23	1	100.0	1
11/27/24	8:09	-9.0	-9.0	-9.0	74	-12.8	29.6	SSE	0.49	36.5	SSE	-20.7	-9.1	-20.8	732.2	0.019	0.000	22.2	12	-8.6	19.7	2.95	 .0717	24	1	100.0	1
11/27/24	8:10	-9.1	-9.0	-9.1	74	-12.8	28.7	SSE	0.48	38.3	SSE	-20.7	-9.2	-20.8	732.2	0.019	0.000	22.2	12	-8.6	19.7	2.95	 .0717	23	1	100.0	1
11/27/24	8:11	-9.1	-9.1	-9.1	74	-12.8	27.0	SSE	0.45	29.6	SSE	-20.4	-9.2	-20.5	732.2	0.019	0.000	22.2	12	-8.6	19.7	2.95	 .0717	23	1	100.0	1
11/27/24	8:12	-9.1	-9.1	-9.1	74	-12.8	29.6	SSE	0.49	36.5	SSE	-20.8	-9.2	-20.9	732.4	0.019	0.000	22.2	12	-8.6	19.7	2.95	 .0717	24	1	100.0	1
11/27/24	8:13	-9.0	-9.0	-9.1	74	-12.8	26.1	SSE	0.43	30.4	SSE	-20.2	-9.1	-20.3	732.2	0.019	0.000	22.2	12	-8.6	19.7	2.95	 .0717	23	1	100.0	1
11/27/24	8:14	-9.1	-9.0	-9.1	74	-12.9	26.1	SSE	0.43	27.8	SSE	-20.3	-9.2	-20.4	732.3	0.019	0.000	22.2	12	-8.6	19.7	2.95	 .0717	24	1	100.0	1
11/27/24	8:15	-9.3	-9.1	-9.3	74	-13.1	30.4	SSE	0.51	33.9	SSE	-21.2	-9.4	-21.3	732.3	0.019	0.000	22.2	12	-8.6	19.7	2.95	 .0717	23	1	100.0	1
11/27/24	8:16	-9.5	-9.3	-9.5	74	-13.3	27.8	SSE	0.46	33.0	SSE	-21.2	-9.6	-21.3	732.3	0.019	0.000	22.2	12	-8.6	19.7	2.95	 .0717	23	1	100.0	1
11/27/24	8:17	-9.6	-9.5	-9.6	75	-13.2	27.8	S	0.46	32.2	SSE	-21.2	-9.7	-21.3	732.4	0.019	0.000	22.2	12	-8.6	19.7	2.95	 .0717	24	1	100.0	1
11/27/24	8:18	-9.6	-9.6	-9.6	75	-13.2	27.8	S	0.46	39.1	S	-21.2	-9.7	-21.3	732.4	0.019	0.000	22.2	12	-8.6	19.7	2.95	 .0717	23	1	100.0	1
11/27/24	8:19	-9.6	-9.6	-9.6	75	-13.2	27.8	S	0.46	35.7	S	-21.3	-9.7	-21.4	732.3	0.019	0.000	22.2	12	-8.6	19.7	2.95	 .0717	24	1	100.0	1
11/27/24	8:20	-9.6	-9.6	-9.6	75	-13.2	27.8	SSE	0.46	33.9	SSE	-21.3	-9.7	-21.4	732.5	0.019	0.000	22.2	12	-8.6	19.7	2.95	 .0717	23	1	100.0	1
11/27/24	8:21	-9.6	-9.6	-9.6	75	-13.2	25.2	S	0.42	28.7	S	-20.8	-9.7	-20.9	732.5	0.019	0.000	22.2	12	-8.6	19.7	2.95	 .0717	24	1	100.0	1
11/27/24	8:22	-9.6	-9.6	-9.6	75	-13.2	27.0	S	0.45	32.2	SSE	-21.1	-9.7	-21.2	732.5	0.019	0.000	22.2	12	-8.6	19.7	2.95	 .0717	23	1	100.0	1
11/27/24	8:23	-9.6	-9.6	-9.6	75	-13.2	33.9	S	0.57	46.1	S	-22.2	-9.7	-22.3	732.5	0.019	0.000	22.2	12	-8.6	19.7	2.95	 .0717	23	1	100.0	1
11/27/24	8:24	-9.7	-9.6	-9.7	75	-13.3	31.3	S	0.52	39.1	S	-21.9	-9.8	-22.0	732.4	0.019	0.000	22.2	12	-8.6	19.7	2.95	 .0717	24	1	100.0	1
11/27/24	8:25	-9.8	-9.7	-9.8	75	-13.4	28.7	S	0.48	36.5	S	-21.7	-9.9	-21.8	732.5	0.020	0.000	22.2	12	-8.6	19.7	2.95	 .0717	23	1	100.0	1
11/27/24	8:26	-9.9	-9.8	-9.9	75	-13.5	27.8	S	0.46	36.5	S	-21.7	-10.0	-21.8	732.6	0.020	0.000	22.2	12	-8.6	19.7	2.95	 .0717	24	1	100.0	1
11/27/24	8:27	-10.0	-9.9	-10.0	75	-13.6	35.7	SSE	0.59	43.5	SSE	-23.0	-10.1	-23.1	732.5	0.020	0.000	22.2	12	-8.6	19.7	2.95	 .0717	23	1	100.0	1
11/27/24	8:28	-10.1	-10.0	-10.1	75	-13.6	33.0	S	0.55	42.6	SSE	-22.7	-10.2	-22.8	732.5	0.020	0.000	22.2	12	-8.6	19.7	2.95	 .0717	23	1	100.0	1
11/27/24	8:29	-10.2	-10.1	-10.2	76	-13.6	32.2	S	0.54	41.7	SSE	-22.7	-10.3	-22.8	732.5	0.020	0.000	22.2	12	-8.6	19.7	2.95	 .0717	24	1	100.0	1
11/27/24	8:30	-10.2	-10.2	-10.2	76	-13.6	33.0	S	0.55	37.4	SSE	-22.9	-10.3	-23.1	732.7	0.020	0.000	22.2	12	-8.6	19.7	2.95	 .0717	23	1	100.0	1
11/27/24	8:31	-10.3	-10.2	-10.3	76	-13.7	31.3	S	0.52	35.7	S	-22.8	-10.4	-22.9	732.7	0.020	0.000	22.2	12	-8.6	19.7	2.95	 .0717	24	1	100.0	1
11/27/24	8:32	-10.3	-10.2	-10.3	76	-13.7	33.9	S	0.57	44.3	SSE	-23.1	-10.4	-23.2	732.6	0.020	0.000	22.2	12	-8.6	19.7	2.95	 .0717	23	1	100.0	1
11/27/24	8:33	-10.3	-10.3	-10.3	76	-13.8	34.8	SSE	0.58	40.0	SSE	-23.3	-10.4	-23.4	732.6	0.020	0.000	22.2	12	-8.6	19.7	2.95	 .0717	24	1	100.0	1
11/27/24	8:34	-10.4	-10.3	-10.4	76	-13.8	33.0	SSE	0.55	40.0	SSE	-23.2	-10.5	-23.3	732.7	0.020	0.000	22.2	12	-8.6	19.7	2.95	 .0717	23	1	100.0	1
11/27/24	8:35	-10.4	-10.4	-10.4	76	-13.8	37.4	S	0.62	42.6	SSE	-23.8	-10.5	-23.9	732.6	0.020	0.000	22.2	12	-8.6	19.7	2.95	 .0717	23	1	100.0	1
11/27/24	8:36	-10.4	-10.4	-10.4	76	-13.8	37.4	SSE	0.62	47.0	SSE	-23.8	-10.5	-23.9	732.6	0.020	0.000	22.2	12	-8.6	19.7	2.95	 .0717	24	1	100.0	1
11/27/24	8:37	-10.4	-10.4	-10.4	76	-13.9	40.0	S	0.67	47.8	SSE	-24.2	-10.6	-24.3	732.7	0.020	0.000	22.2	12	-8.6	19.7	2.95	 .0717	23	1	100.0	1
11/27/24	8:38	-10.5	-10.4	-10.5	76	-13.9	40.0	S	0.67	46.1	SSE	-24.3	-10.6	-24.4	732.6	0.020	0.000	22.2	12	-8.6	19.7	2.95	 .0717	24	1	100.0	1
11/27/24	8:39	-10.6	-10.5	-10.6	77	-13.8	42.6	S	0.71	53.9	S	-24.7	-10.7	-24.8	732.6	0.020	0.000	22.2	12	-8.6	19.7	2.95	 .0717	23	1	100.0	1
11/27/24	8:40	-10.6	-10.6	-10.6	76	-14.0	45.2	S	0.75	51.3	S	-25.0	-10.7	-25.1	732.4	0.020	0.000	22.2	12	-8.6	19.7	2.95	 .0717	23	1	100.0	1
11/27/24	8:41	-10.7	-10.6	-10.7	76	-14.1	43.5	SSE	0.72	51.3	SSE	-24.9	-10.8	-25.0	732.5	0.020	0.000	22.2	12	-8.6	19.7	2.95	 .0717	24	1	100.0	1
11/27/24	8:42	-10.7	-10.7	-10.7	77	-13.9	41.7	SSE	0.70	49.6	SSE	-24.7	-10.8	-24.8	732.6	0.020	0.000	22.2	12	-8.6	19.7	2.95	 .0717	23	1	100.0	1
11/27/24	8:43	-10.7	-10.7	-10.7	77	-13.9	38.3	SSE	0.64	47.8	SSE	-24.3	-10.8	-24.4	732.6	0.020	0.000	22.2	12	-8.6	19.7	2.95	 .0717	24	1	100.0	1
11/27/24	8:44	-10.6	-10.6	-10.7	77	-13.8	33.0	S	0.55	40.0	S	-23.4	-10.7	-23.5	732.7	0.020	0.000	22.2	12	-8.6	19.7	2.95	 .0717	23	1	100.0	1
11/27/24	8:45	-10.5	-10.5	-10.6	77	-13.8	33.0	S	0.55	41.7	S	-23.3	-10.6	-23.4	732.8	0.020	0.000	22.2	12	-8.6	19.7	2.95	 .0717	23	1	100.0	1
11/27/24	8:46	-10.5	-10.5	-10.5	77	-13.8	33.0	S	0.55	40.9	S	-23.3	-10.6	-23.4	732.8	0.020	0.000	22.2	12	-8.6	19.7	2.95	 .0717	24	1	100.0	1
11/27/24	8:47	-10.5	-10.4	-10.5	77	-13.8	37.4	S	0.62	49.6	SSE	-23.9	-10.6	-24.1	732.8	0.020	0.000	22.2	12	-8.6	19.7	2.95	 .0718	23	1	100.0	1
11/27/24	8:48	-10.5	-10.5	-10.5	77	-13.8	38.3	S	0.64	45.2	S	-24.1	-10.6	-24.2	732.8	0.020	0.000	22.2	12	-8.6	19.7	2.95	 .0717	24	1	100.0	1
11/27/24	8:49	-10.5	-10.5	-10.5	76	-13.9	36.5	S	0.61	46.1	SSE	-23.8	-10.6	-23.9	732.7	0.020	0.000	22.2	12	-8.6	19.7	2.95	 .0717	23	1	100.0	1
11/27/24	8:50	-10.5	-10.5	-10.5	76	-13.9	38.3	SSE	0.64	47.8	SSE	-24.1	-10.6	-24.2	732.8	0.020	0.000	22.2	12	-8.6	19.7	2.95	 .0717	24	1	100.0	1
11/27/24	8:51	-10.5	-10.5	-10.5	76	-13.9	35.7	S	0.59	44.3	SSE	-23.7	-10.6	-23.8	732.8	0.020	0.000	22.2	12	-8.6	19.7	2.95	 .0717	23	1	100.0	1
11/27/24	8:52	-10.4	-10.4	-10.5	76	-13.9	36.5	S	0.61	41.7	S	-23.7	-10.6	-23.8	732.7	0.020	0.000	22.1	12	-8.7	19.6	2.95	 .0718	23	1	100.0	1
11/27/24	8:53	-10.4	-10.4	-10.4	76	-13.8	37.4	S	0.62	47.8	SSE	-23.8	-10.5	-23.9	732.8	0.020	0.000	22.1	12	-8.7	19.6	2.95	 .0718	24	1	100.0	1
11/27/24	8:54	-10.3	-10.3	-10.4	76	-13.8	33.9	S	0.57	40.0	S	-23.2	-10.4	-23.3	732.8	0.020	0.000	22.2	12	-8.6	19.7	2.95	 .0717	23	1	100.0	1
11/27/24	8:55	-10.3	-10.3	-10.3	76	-13.7	37.4	SSE	0.62	42.6	SSE	-23.6	-10.4	-23.7	732.8	0.020	0.000	22.1	12	-8.7	19.6	2.95	 .0718	24	1	100.0	1
11/27/24	8:56	-10.3	-10.3	-10.3	76	-13.8	33.0	SSE	0.55	38.3	SSE	-23.1	-10.4	-23.2	732.8	0.020	0.000	22.2	12	-8.6	19.7	2.95	 .0718	23	1	100.0	1
11/27/24	8:57	-10.4	-10.3	-10.4	76	-13.9	33.9	SSE	0.57	40.9	SSE	-23.4	-10.6	-23.5	732.8	0.020	0.000	22.1	12	-8.7	19.6	2.95	 .0718	23	1	100.0	1
11/27/24	8:58	-10.6	-10.4	-10.6	76	-14.0	33.0	SSE	0.55	38.3	SSE	-23.5	-10.7	-23.6	732.8	0.020	0.000	22.1	12	-8.7	19.6	2.95	 .0718	24	1	100.0	1
11/27/24	8:59	-10.7	-10.6	-10.7	76	-14.1	34.8	SSE	0.58	39.1	SSE	-23.8	-10.8	-23.9	732.8	0.020	0.000	22.1	12	-8.7	19.6	2.95	 .0718	23	1	100.0	1
11/27/24	9:00	-10.7	-10.7	-10.7	76	-14.1	37.4	SSE	0.62	40.9	SSE	-24.2	-10.8	-24.3	732.8	0.020	0.000	22.1	12	-8.7	19.6	2.95	 .0718	24	1	100.0	1
11/27/24	9:01	-10.7	-10.7	-10.7	76	-14.1	33.9	SSE	0.57	40.9	SSE	-23.8	-10.8	-23.9	732.7	0.020	0.000	22.1	12	-8.7	19.6	2.95	 .0718	9	1	39.1	1
11/27/24	9:02	-10.8	-10.8	-10.8	76	-14.2	35.7	SSE	0.59	40.0	SSE	-24.1	-10.9	-24.2	732.9	0.020	0.000	22.1	12	-8.7	19.6	2.95	 .0718	10	1	43.5	1
11/27/24	9:03	-10.8	-10.8	-10.8	77	-14.0	33.0	SSE	0.55	36.5	SSE	-23.7	-10.9	-23.8	732.9	0.020	0.000	22.1	12	-8.7	19.6	2.95	 .0718	23	1	100.0	1
11/27/24	9:04	-10.8	-10.8	-10.8	77	-14.0	33.0	SSE	0.55	40.0	SSE	-23.7	-10.9	-23.8	733.0	0.020	0.000	22.1	12	-8.7	19.6	2.95	 .0718	23	1	100.0	1
11/27/24	9:05	-10.7	-10.7	-10.8	77	-14.0	35.7	SSE	0.59	39.1	S	-24.0	-10.8	-24.1	732.9	0.020	0.000	22.1	12	-8.7	19.6	2.95	 .0718	24	1	100.0	1
11/27/24	9:06	-10.7	-10.7	-10.7	77	-13.9	37.4	SSE	0.62	42.6	SSE	-24.2	-10.8	-24.3	732.9	0.020	0.000	22.1	12	-8.7	19.6	2.95	 .0718	23	1	100.0	1
11/27/24	9:07	-10.7	-10.7	-10.7	77	-13.9	38.3	SSE	0.64	43.5	SSE	-24.3	-10.8	-24.4	732.9	0.020	0.000	22.1	12	-8.7	19.6	2.95	 .0718	24	1	100.0	1
11/27/24	9:08	-10.7	-10.7	-10.7	77	-13.9	35.7	SSE	0.59	43.5	SSE	-23.9	-10.8	-24.1	732.9	0.020	0.000	22.1	12	-8.7	19.6	2.95	 .0718	23	1	100.0	1
11/27/24	9:09	-10.5	-10.5	-10.6	77	-13.8	38.3	SSE	0.64	45.2	SSE	-24.1	-10.6	-24.2	733.0	0.020	0.000	22.1	12	-8.7	19.6	2.95	 .0718	24	1	100.0	1
11/27/24	9:10	-10.4	-10.4	-10.5	77	-13.7	36.5	SSE	0.61	40.0	SSE	-23.7	-10.6	-23.8	732.9	0.020	0.000	22.1	12	-8.7	19.6	2.95	 .0718	23	1	100.0	1
11/27/24	9:11	-10.5	-10.4	-10.5	77	-13.8	40.0	SSE	0.67	46.1	SSE	-24.3	-10.6	-24.4	732.9	0.020	0.000	22.1	12	-8.7	19.6	2.95	 .0718	23	1	100.0	1
11/27/24	9:12	-10.5	-10.5	-10.5	77	-13.8	38.3	SSE	0.64	41.7	SSE	-24.1	-10.6	-24.2	733.1	0.020	0.000	22.1	12	-8.7	19.6	2.95	 .0718	24	1	100.0	1
11/27/24	9:13	-10.5	-10.5	-10.5	77	-13.8	38.3	SSE	0.64	42.6	SSE	-24.1	-10.6	-24.2	733.1	0.020	0.000	22.1	12	-8.7	19.6	2.95	 .0718	23	1	100.0	1
11/27/24	9:14	-10.5	-10.5	-10.5	77	-13.8	38.3	SSE	0.64	40.9	SSE	-24.1	-10.6	-24.2	733.0	0.020	0.000	22.1	12	-8.7	19.6	2.95	 .0718	24	1	100.0	1
11/27/24	9:15	-10.4	-10.4	-10.4	76	-13.9	39.1	SSE	0.65	44.3	SSE	-24.1	-10.6	-24.2	733.1	0.020	0.000	22.2	12	-8.6	19.7	2.95	 .0718	23	1	100.0	1
11/27/24	9:16	-10.4	-10.4	-10.4	76	-13.8	43.5	SSE	0.72	51.3	S	-24.5	-10.5	-24.6	732.9	0.020	0.000	22.1	12	-8.7	19.6	2.95	 .0718	23	1	100.0	1
11/27/24	9:17	-10.4	-10.4	-10.4	76	-13.8	39.1	SSE	0.65	43.5	S	-24.0	-10.5	-24.1	733.0	0.020	0.000	22.1	12	-8.7	19.6	2.95	 .0718	24	1	100.0	1
11/27/24	9:18	-10.4	-10.4	-10.4	76	-13.9	40.0	SSE	0.67	47.0	SSE	-24.2	-10.6	-24.3	733.0	0.020	0.000	22.1	12	-8.7	19.6	2.95	 .0718	23	1	100.0	1
11/27/24	9:19	-10.5	-10.4	-10.5	76	-13.9	41.7	SSE	0.70	49.6	SSE	-24.4	-10.6	-24.6	732.9	0.020	0.000	22.1	12	-8.7	19.6	2.95	 .0718	24	1	100.0	1
11/27/24	9:20	-10.5	-10.5	-10.5	76	-13.9	42.6	SSE	0.71	49.6	SSE	-24.6	-10.6	-24.7	732.9	0.020	0.000	22.1	12	-8.7	19.6	2.95	 .0718	23	1	100.0	1
11/27/24	9:21	-10.5	-10.5	-10.5	76	-13.9	39.1	SSE	0.65	51.3	SSE	-24.2	-10.6	-24.3	732.9	0.020	0.000	22.1	12	-8.7	19.6	2.95	 .0718	23	1	100.0	1
11/27/24	9:22	-10.5	-10.5	-10.5	76	-13.9	41.7	SSE	0.70	47.8	SSE	-24.4	-10.6	-24.6	732.9	0.020	0.000	22.2	12	-8.6	19.7	2.95	 .0718	24	1	100.0	1
11/27/24	9:23	-10.4	-10.4	-10.5	76	-13.9	44.3	SSE	0.74	49.6	SSE	-24.7	-10.6	-24.8	732.9	0.020	0.000	22.1	12	-8.7	19.6	2.95	 .0718	23	1	100.0	1
11/27/24	9:24	-10.4	-10.4	-10.4	76	-13.8	40.0	SSE	0.67	50.4	SSE	-24.1	-10.5	-24.2	732.9	0.020	0.000	22.2	12	-8.6	19.7	2.95	 .0718	24	1	100.0	1
11/27/24	9:25	-10.4	-10.4	-10.4	76	-13.8	47.0	SSE	0.78	57.4	SSE	-24.9	-10.5	-25.0	732.9	0.020	0.000	22.2	12	-8.6	19.7	2.95	 .0718	23	1	100.0	1
11/27/24	9:26	-10.4	-10.4	-10.4	76	-13.8	41.7	SSE	0.70	53.9	SSE	-24.3	-10.5	-24.4	732.9	0.020	0.000	22.1	12	-8.7	19.6	2.95	 .0718	24	1	100.0	1
11/27/24	9:27	-10.4	-10.4	-10.4	76	-13.8	36.5	SSE	0.61	41.7	SSE	-23.7	-10.5	-23.8	733.0	0.020	0.000	22.1	12	-8.7	19.6	2.95	 .0718	23	1	100.0	1
11/27/24	9:28	-10.3	-10.3	-10.4	76	-13.8	45.2	SSE	0.75	53.9	SSE	-24.6	-10.4	-24.7	733.0	0.020	0.000	22.1	12	-8.7	19.6	2.95	 .0718	23	1	100.0	1
11/27/24	9:29	-10.3	-10.3	-10.3	76	-13.7	47.8	SSE	0.80	56.5	S	-24.8	-10.4	-24.9	732.8	0.020	0.000	22.2	12	-8.6	19.7	2.95	 .0717	24	1	100.0	1
11/27/24	9:30	-10.3	-10.3	-10.3	75	-13.9	46.1	SSE	0.77	51.3	SSE	-24.7	-10.4	-24.8	732.9	0.020	0.000	22.1	12	-8.7	19.6	2.95	 .0718	23	1	100.0	1
11/27/24	9:31	-10.3	-10.3	-10.3	75	-13.9	46.1	SSE	0.77	53.9	SSE	-24.7	-10.4	-24.8	732.9	0.020	0.000	22.2	12	-8.6	19.7	2.95	 .0718	24	1	100.0	1
11/27/24	9:32	-10.3	-10.3	-10.3	75	-13.9	41.7	SSE	0.70	50.4	SSE	-24.2	-10.4	-24.3	733.1	0.020	0.000	22.1	12	-8.7	19.6	2.95	 .0718	23	1	100.0	1
11/27/24	9:33	-10.3	-10.3	-10.3	75	-13.9	48.7	SSE	0.81	56.5	SSE	-25.0	-10.4	-25.1	733.0	0.020	0.000	22.1	12	-8.7	19.6	2.95	 .0718	23	1	100.0	1
11/27/24	9:34	-10.4	-10.3	-10.4	75	-14.0	41.7	SSE	0.70	55.7	SSE	-24.3	-10.5	-24.4	733.1	0.020	0.000	22.1	12	-8.7	19.6	2.95	 .0718	24	1	100.0	1
11/27/24	9:35	-10.4	-10.4	-10.4	75	-14.0	42.6	SSE	0.71	51.3	SSE	-24.4	-10.5	-24.5	733.1	0.020	0.000	22.1	12	-8.7	19.6	2.95	 .0718	23	1	100.0	1
11/27/24	9:36	-10.3	-10.3	-10.4	75	-13.9	47.0	SSE	0.78	57.4	SSE	-24.8	-10.4	-24.9	733.0	0.020	0.000	22.1	12	-8.7	19.6	2.95	 .0718	24	1	100.0	1
11/27/24	9:37	-10.4	-10.3	-10.4	75	-14.0	43.5	SSE	0.72	50.4	SSE	-24.5	-10.5	-24.6	733.2	0.020	0.000	22.1	12	-8.7	19.6	2.95	 .0718	23	1	100.0	1
11/27/24	9:38	-10.4	-10.4	-10.4	75	-14.0	38.3	SSE	0.64	43.5	SSE	-23.9	-10.6	-24.1	733.2	0.020	0.000	22.1	12	-8.7	19.6	2.95	 .0718	23	1	100.0	1
11/27/24	9:39	-10.5	-10.4	-10.5	76	-13.9	38.3	SSE	0.64	44.3	SSE	-24.1	-10.6	-24.2	733.2	0.020	0.000	22.1	12	-8.7	19.6	2.95	 .0718	24	1	100.0	1
11/27/24	9:40	-10.5	-10.5	-10.6	76	-13.9	42.6	SSE	0.71	49.6	SSE	-24.6	-10.6	-24.7	733.3	0.020	0.000	22.1	12	-8.7	19.6	2.95	 .0718	23	1	100.0	1
11/27/24	9:41	-10.5	-10.5	-10.6	76	-13.9	40.9	SSE	0.68	45.2	SSE	-24.3	-10.6	-24.4	733.3	0.020	0.000	22.1	12	-8.7	19.6	2.95	 .0718	24	1	100.0	1
11/27/24	9:42	-10.5	-10.5	-10.6	76	-13.9	38.3	SSE	0.64	43.5	SSE	-24.1	-10.6	-24.2	733.3	0.020	0.000	22.1	12	-8.7	19.6	2.95	 .0718	23	1	100.0	1
11/27/24	9:43	-10.6	-10.5	-10.6	76	-14.0	37.4	SSE	0.62	45.2	SSE	-24.0	-10.7	-24.1	733.3	0.020	0.000	22.1	12	-8.7	19.6	2.95	 .0718	24	1	100.0	1
11/27/24	9:44	-10.6	-10.6	-10.6	76	-14.0	40.0	SSE	0.67	46.1	SSE	-24.3	-10.7	-24.4	733.3	0.020	0.000	22.1	12	-8.7	19.6	2.95	 .0718	23	1	100.0	1
11/27/24	9:45	-10.6	-10.6	-10.6	76	-14.0	41.7	SSE	0.70	47.8	SSE	-24.6	-10.7	-24.7	733.1	0.020	0.000	22.1	12	-8.7	19.6	2.95	 .0718	23	1	100.0	1
11/27/24	9:46	-10.6	-10.6	-10.6	76	-14.0	40.0	SSE	0.67	43.5	SSE	-24.4	-10.7	-24.5	733.3	0.020	0.000	22.1	12	-8.7	19.6	2.95	 .0718	24	1	100.0	1
11/27/24	9:47	-10.6	-10.6	-10.6	76	-14.0	39.1	SSE	0.65	45.2	SSE	-24.3	-10.7	-24.4	733.2	0.020	0.000	22.1	12	-8.7	19.5	2.95	 .0718	23	1	100.0	1
11/27/24	9:48	-10.7	-10.7	-10.7	76	-14.1	38.3	SSE	0.64	43.5	SSE	-24.3	-10.8	-24.4	733.3	0.020	0.000	22.1	12	-8.7	19.5	2.95	 .0718	24	1	100.0	1
11/27/24	9:49	-10.7	-10.7	-10.7	76	-14.1	40.0	SSE	0.67	49.6	SSE	-24.5	-10.8	-24.6	733.3	0.020	0.000	22.1	12	-8.7	19.5	2.95	 .0718	23	1	100.0	1
11/27/24	9:50	-10.7	-10.7	-10.7	76	-14.1	37.4	SSE	0.62	41.7	SSE	-24.2	-10.8	-24.3	733.5	0.020	0.000	22.1	12	-8.7	19.5	2.95	 .0718	23	1	100.0	1
11/27/24	9:51	-10.7	-10.7	-10.7	76	-14.1	39.1	SSE	0.65	45.2	SSE	-24.4	-10.8	-24.6	733.5	0.020	0.000	22.1	12	-8.7	19.5	2.95	 .0718	24	1	100.0	1
11/27/24	9:52	-10.7	-10.7	-10.7	77	-14.0	38.3	SSE	0.64	44.3	SSE	-24.3	-10.8	-24.4	733.5	0.020	0.000	22.1	12	-8.7	19.5	2.95	 .0718	23	1	100.0	1
11/27/24	9:53	-10.7	-10.7	-10.7	77	-14.0	36.5	SSE	0.61	44.3	SSE	-24.1	-10.8	-24.2	733.4	0.020	0.000	22.1	12	-8.7	19.5	2.95	 .0718	24	1	100.0	1
11/27/24	9:54	-10.8	-10.7	-10.8	77	-14.0	34.8	SSE	0.58	40.0	SSE	-23.9	-10.9	-24.1	733.5	0.020	0.000	22.1	12	-8.7	19.5	2.95	 .0718	23	1	100.0	1
11/27/24	9:55	-10.8	-10.8	-10.8	77	-14.0	33.9	SSE	0.57	39.1	SSE	-23.8	-10.9	-23.9	733.6	0.020	0.000	22.1	12	-8.7	19.5	2.95	 .0719	24	1	100.0	1
11/27/24	9:56	-10.8	-10.8	-10.8	77	-14.0	39.1	SSE	0.65	45.2	SSE	-24.6	-10.9	-24.7	733.6	0.020	0.000	22.1	12	-8.7	19.5	2.95	 .0719	23	1	100.0	1
11/27/24	9:57	-10.8	-10.8	-10.8	77	-14.0	38.3	SSE	0.64	43.5	SSE	-24.4	-10.9	-24.6	733.5	0.020	0.000	22.1	12	-8.7	19.5	2.95	 .0718	23	1	100.0	1
11/27/24	9:58	-10.8	-10.8	-10.8	77	-14.0	36.5	SSE	0.61	45.2	SSE	-24.2	-10.9	-24.3	733.6	0.020	0.000	22.1	12	-8.7	19.5	2.95	 .0719	24	1	100.0	1
11/27/24	9:59	-10.8	-10.8	-10.8	77	-14.0	33.0	SSE	0.55	37.4	SSE	-23.7	-10.9	-23.8	733.7	0.020	0.000	22.1	12	-8.7	19.5	2.95	 .0719	23	1	100.0	1
11/27/24	10:00	-10.8	-10.8	-10.8	77	-14.0	35.7	SSE	0.59	44.3	SSE	-24.1	-10.9	-24.2	733.7	0.020	0.000	22.1	12	-8.7	19.5	2.95	 .0719	24	1	100.0	1
11/27/24	10:01	-10.8	-10.8	-10.8	77	-14.0	35.7	SSE	0.59	42.6	SSE	-24.1	-10.9	-24.2	733.7	0.020	0.000	22.1	12	-8.7	19.5	2.95	 .0719	23	1	100.0	1
11/27/24	10:02	-10.8	-10.8	-10.8	77	-14.1	37.4	SSE	0.62	45.2	SSE	-24.4	-10.9	-24.5	733.6	0.020	0.000	22.1	12	-8.7	19.5	2.95	 .0719	23	1	100.0	1
11/27/24	10:03	-10.8	-10.8	-10.8	77	-14.1	38.3	SSE	0.64	51.3	SSE	-24.5	-10.9	-24.6	733.6	0.020	0.000	22.0	12	-8.8	19.4	2.95	 .0719	24	1	100.0	1
11/27/24	10:04	-10.8	-10.8	-10.8	77	-14.0	38.3	SSE	0.64	43.5	SSE	-24.4	-10.9	-24.6	733.8	0.020	0.000	22.0	12	-8.8	19.4	2.95	 .0719	23	1	100.0	1
11/27/24	10:05	-10.8	-10.8	-10.8	77	-14.0	39.1	SSE	0.65	44.3	SSE	-24.6	-10.9	-24.7	733.7	0.020	0.000	22.0	12	-8.8	19.4	2.95	 .0719	24	1	100.0	1
11/27/24	10:06	-10.8	-10.8	-10.8	77	-14.0	39.1	SSE	0.65	46.1	SSE	-24.6	-10.9	-24.7	733.8	0.020	0.000	22.0	12	-8.8	19.4	2.95	 .0719	23	1	100.0	1
11/27/24	10:07	-10.7	-10.7	-10.8	77	-14.0	38.3	SSE	0.64	45.2	SSE	-24.3	-10.8	-24.4	733.7	0.020	0.000	22.0	12	-8.8	19.4	2.95	 .0719	24	1	100.0	1
11/27/24	10:08	-10.7	-10.7	-10.7	76	-14.1	40.0	SSE	0.67	46.1	SSE	-24.6	-10.8	-24.7	733.7	0.020	0.000	22.0	12	-8.8	19.4	2.95	 .0719	23	1	100.0	1
11/27/24	10:09	-10.7	-10.7	-10.7	76	-14.1	40.0	SSE	0.67	45.2	SSE	-24.6	-10.8	-24.7	733.7	0.020	0.000	22.0	12	-8.8	19.4	2.95	 .0719	23	1	100.0	1
11/27/24	10:10	-10.7	-10.7	-10.7	76	-14.1	40.9	SSE	0.68	46.1	SSE	-24.7	-10.8	-24.8	733.7	0.020	0.000	22.0	12	-8.8	19.4	2.95	 .0719	24	1	100.0	1
11/27/24	10:11	-10.8	-10.7	-10.8	76	-14.2	38.3	SSE	0.64	42.6	SSE	-24.4	-10.9	-24.6	733.7	0.020	0.000	22.0	12	-8.8	19.4	2.95	 .0719	23	1	100.0	1
11/27/24	10:12	-10.8	-10.8	-10.8	76	-14.2	39.1	SSE	0.65	48.7	SSE	-24.6	-10.9	-24.7	733.6	0.020	0.000	22.0	12	-8.8	19.4	2.95	 .0719	24	1	100.0	1
11/27/24	10:13	-10.8	-10.8	-10.8	76	-14.2	38.3	SSE	0.64	44.3	SSE	-24.4	-10.9	-24.6	733.7	0.020	0.000	22.0	12	-8.8	19.4	2.95	 .0719	23	1	100.0	1
11/27/24	10:14	-10.8	-10.7	-10.8	76	-14.2	33.9	SSE	0.57	39.1	SSE	-23.8	-10.9	-23.9	733.7	0.020	0.000	22.0	12	-8.8	19.4	2.95	 .0719	23	1	100.0	1
11/27/24	10:15	-10.8	-10.7	-10.8	76	-14.2	37.4	SSE	0.62	43.5	SSE	-24.3	-10.9	-24.4	733.8	0.020	0.000	22.0	12	-8.8	19.4	2.95	 .0719	24	1	100.0	1
11/27/24	10:16	-10.7	-10.7	-10.7	76	-14.1	33.9	SSE	0.57	40.0	SSE	-23.8	-10.8	-23.9	733.9	0.020	0.000	22.0	12	-8.8	19.4	2.95	 .0719	23	1	100.0	1
11/27/24	10:17	-10.7	-10.7	-10.7	76	-14.1	34.8	SSE	0.58	38.3	SSE	-23.9	-10.8	-24.0	733.8	0.020	0.000	22.0	12	-8.8	19.4	2.95	 .0719	24	1	100.0	1
11/27/24	10:18	-10.8	-10.8	-10.8	76	-14.2	33.9	SSE	0.57	42.6	SSE	-23.8	-10.9	-23.9	733.8	0.020	0.000	22.0	12	-8.8	19.4	2.95	 .0719	23	1	100.0	1
11/27/24	10:19	-10.8	-10.8	-10.8	76	-14.2	33.9	SSE	0.57	42.6	SSE	-23.8	-10.9	-23.9	733.9	0.020	0.000	22.0	12	-8.8	19.4	2.95	 .0719	24	1	100.0	1
11/27/24	10:20	-10.8	-10.8	-10.8	76	-14.2	33.9	SSE	0.57	40.9	SSE	-23.8	-10.9	-23.9	733.9	0.020	0.000	22.0	12	-8.8	19.4	2.95	 .0719	23	1	100.0	1
11/27/24	10:21	-10.8	-10.8	-10.8	76	-14.2	34.8	SSE	0.58	40.0	SSE	-24.1	-10.9	-24.2	734.0	0.020	0.000	22.0	12	-8.8	19.4	2.95	 .0719	23	1	100.0	1
11/27/24	10:22	-10.8	-10.8	-10.8	76	-14.2	37.4	SSE	0.62	41.7	SSE	-24.3	-10.9	-24.4	733.9	0.020	0.000	22.0	12	-8.8	19.4	2.95	 .0719	24	1	100.0	1
11/27/24	10:23	-10.7	-10.7	-10.8	76	-14.1	37.4	SSE	0.62	44.3	SSE	-24.2	-10.8	-24.3	734.0	0.020	0.000	22.0	12	-8.8	19.4	2.95	 .0719	23	1	100.0	1
11/27/24	10:24	-10.7	-10.7	-10.7	76	-14.1	34.8	SSE	0.58	38.3	SSE	-23.9	-10.8	-24.0	734.0	0.020	0.000	22.0	12	-8.8	19.4	2.95	 .0719	24	1	100.0	1
11/27/24	10:25	-10.7	-10.7	-10.7	76	-14.1	34.8	SSE	0.58	41.7	SSE	-23.9	-10.8	-24.0	734.1	0.020	0.000	22.0	12	-8.8	19.4	2.95	 .0719	23	1	100.0	1
11/27/24	10:26	-10.7	-10.7	-10.7	76	-14.1	36.5	SSE	0.61	42.6	SSE	-24.1	-10.8	-24.2	734.1	0.020	0.000	22.0	12	-8.8	19.4	2.95	 .0719	23	1	100.0	1
11/27/24	10:27	-10.8	-10.7	-10.8	76	-14.2	33.9	SSE	0.57	40.0	SSE	-23.8	-10.9	-23.9	734.1	0.020	0.000	22.0	12	-8.8	19.4	2.95	 .0719	24	1	100.0	1
11/27/24	10:28	-10.8	-10.8	-10.8	76	-14.2	33.0	SSE	0.55	39.1	SSE	-23.7	-10.9	-23.8	734.1	0.020	0.000	22.0	12	-8.8	19.4	2.95	 .0719	23	1	100.0	1
11/27/24	10:29	-10.8	-10.8	-10.8	76	-14.2	34.8	SSE	0.58	41.7	SSE	-23.9	-10.9	-24.1	734.1	0.020	0.000	22.0	12	-8.8	19.4	2.95	 .0719	24	1	100.0	1
11/27/24	10:30	-10.8	-10.8	-10.8	76	-14.2	34.8	SSE	0.58	40.9	SSE	-24.1	-10.9	-24.2	734.2	0.020	0.000	22.0	12	-8.8	19.4	2.95	 .0719	23	1	100.0	1
11/27/24	10:31	-10.8	-10.8	-10.8	76	-14.2	32.2	SSE	0.54	34.8	SSE	-23.7	-10.9	-23.8	734.2	0.020	0.000	22.0	12	-8.8	19.4	2.95	 .0719	24	1	100.0	1
11/27/24	10:32	-10.8	-10.8	-10.8	77	-14.1	32.2	SSE	0.54	37.4	SSE	-23.7	-10.9	-23.8	734.3	0.020	0.000	22.0	12	-8.8	19.4	2.95	 .0719	23	1	100.0	1
11/27/24	10:33	-10.8	-10.8	-10.8	77	-14.1	28.7	SSE	0.48	33.9	SSE	-23.1	-10.9	-23.2	734.3	0.020	0.000	22.0	12	-8.8	19.4	2.95	 .0719	23	1	100.0	1
11/27/24	10:34	-10.8	-10.8	-10.8	77	-14.1	28.7	SSE	0.48	33.9	SSE	-23.1	-10.9	-23.2	734.3	0.020	0.000	22.0	12	-8.8	19.4	2.95	 .0719	24	1	100.0	1
11/27/24	10:35	-10.8	-10.8	-10.8	77	-14.1	28.7	SE	0.48	31.3	SE	-23.1	-10.9	-23.2	734.3	0.020	0.000	22.0	12	-8.8	19.4	2.95	 .0719	23	1	100.0	1
11/27/24	10:36	-10.8	-10.8	-10.9	77	-14.1	27.8	SE	0.46	31.3	SE	-22.9	-10.9	-23.1	734.3	0.020	0.000	22.0	12	-8.8	19.4	2.95	 .0719	24	1	100.0	1
11/27/24	10:37	-10.9	-10.9	-10.9	77	-14.1	29.6	SE	0.49	31.3	SE	-23.3	-11.0	-23.4	734.4	0.020	0.000	22.0	12	-8.8	19.4	2.95	 .0719	23	1	100.0	1
11/27/24	10:38	-10.9	-10.9	-10.9	77	-14.1	30.4	SE	0.51	32.2	SE	-23.4	-11.0	-23.6	734.3	0.020	0.000	22.0	12	-8.8	19.4	2.95	 .0719	23	1	100.0	1
11/27/24	10:39	-10.9	-10.8	-10.9	77	-14.1	29.6	SE	0.49	33.9	SE	-23.3	-11.0	-23.4	734.4	0.020	0.000	22.0	12	-8.8	19.4	2.95	 .0719	24	1	100.0	1
11/27/24	10:40	-10.9	-10.8	-10.9	77	-14.1	31.3	SE	0.52	35.7	SE	-23.6	-11.0	-23.7	734.4	0.020	0.000	22.0	12	-8.8	19.4	2.95	 .0719	23	1	100.0	1
11/27/24	10:41	-10.9	-10.9	-10.9	77	-14.1	27.8	SE	0.46	33.0	SE	-23.1	-11.0	-23.2	734.4	0.020	0.000	22.1	12	-8.7	19.5	2.95	 .0719	24	1	100.0	1
11/27/24	10:42	-10.9	-10.8	-10.9	77	-14.1	27.0	SE	0.45	29.6	SE	-22.9	-11.0	-23.0	734.5	0.020	0.000	22.1	12	-8.7	19.5	2.95	 .0719	23	1	100.0	1
11/27/24	10:43	-10.9	-10.9	-10.9	77	-14.1	27.8	SE	0.46	32.2	ESE	-23.1	-11.0	-23.2	734.5	0.020	0.000	22.1	12	-8.7	19.5	2.95	 .0719	23	1	100.0	1
11/27/24	10:44	-11.0	-10.9	-11.0	77	-14.2	26.1	ESE	0.43	28.7	ESE	-22.9	-11.1	-23.0	734.5	0.020	0.000	22.1	12	-8.7	19.5	2.95	 .0719	24	1	100.0	1
11/27/24	10:45	-11.1	-11.0	-11.1	77	-14.3	24.3	ESE	0.41	27.0	ESE	-22.7	-11.2	-22.8	734.6	0.020	0.000	22.1	12	-8.7	19.5	2.95	 .0720	23	1	100.0	1
11/27/24	10:46	-11.1	-11.1	-11.1	77	-14.3	25.2	ESE	0.42	29.6	ESE	-22.9	-11.2	-23.0	734.6	0.020	0.000	22.1	12	-8.7	19.6	2.95	 .0719	24	1	100.0	1
11/27/24	10:47	-11.1	-11.1	-11.2	77	-14.3	27.8	ESE	0.46	30.4	ESE	-23.3	-11.2	-23.4	734.6	0.020	0.000	22.1	12	-8.7	19.5	2.95	 .0720	23	1	100.0	1
11/27/24	10:48	-11.1	-11.1	-11.1	77	-14.3	27.0	ESE	0.45	31.3	ESE	-23.2	-11.2	-23.3	734.6	0.020	0.000	22.1	12	-8.7	19.6	2.95	 .0719	24	1	100.0	1
11/27/24	10:49	-11.1	-11.1	-11.1	77	-14.3	29.6	ESE	0.49	34.8	E	-23.6	-11.2	-23.7	734.5	0.020	0.000	22.1	12	-8.7	19.6	2.95	 .0719	23	1	100.0	1
11/27/24	10:50	-11.0	-11.0	-11.1	77	-14.2	27.8	ESE	0.46	35.7	ESE	-23.2	-11.1	-23.3	734.5	0.020	0.000	22.1	12	-8.7	19.6	2.95	 .0719	23	1	100.0	1
11/27/24	10:51	-11.0	-11.0	-11.0	77	-14.2	27.8	ESE	0.46	29.6	ESE	-23.2	-11.1	-23.3	734.6	0.020	0.000	22.1	12	-8.7	19.6	2.95	 .0719	24	1	100.0	1
11/27/24	10:52	-10.9	-10.9	-10.9	77	-14.2	27.8	ESE	0.46	33.0	ESE	-23.1	-11.1	-23.2	734.6	0.020	0.000	22.1	12	-8.7	19.6	2.95	 .0719	23	1	100.0	1
11/27/24	10:53	-10.9	-10.9	-10.9	77	-14.2	28.7	ESE	0.48	33.0	SE	-23.3	-11.1	-23.4	734.6	0.020	0.000	22.1	12	-8.7	19.6	2.95	 .0719	24	1	100.0	1
11/27/24	10:54	-10.9	-10.9	-10.9	77	-14.2	30.4	ESE	0.51	35.7	SE	-23.6	-11.1	-23.7	734.6	0.020	0.000	22.1	12	-8.7	19.6	2.95	 .0719	23	1	100.0	1
11/27/24	10:55	-10.9	-10.9	-11.0	77	-14.2	28.7	ESE	0.48	33.0	ESE	-23.3	-11.1	-23.4	734.6	0.020	0.000	22.1	12	-8.7	19.6	2.95	 .0719	23	1	100.0	1
11/27/24	10:56	-10.9	-10.9	-10.9	77	-14.2	27.0	SE	0.45	31.3	SE	-22.9	-11.1	-23.1	734.6	0.020	0.000	22.1	12	-8.7	19.6	2.95	 .0719	24	1	100.0	1
11/27/24	10:57	-10.9	-10.9	-11.0	77	-14.2	27.8	SE	0.46	33.0	SE	-23.1	-11.1	-23.2	734.6	0.020	0.000	22.1	12	-8.7	19.6	2.95	 .0719	23	1	100.0	1
11/27/24	10:58	-11.0	-11.0	-11.0	77	-14.2	26.1	SE	0.43	27.8	SE	-22.9	-11.1	-23.0	734.6	0.020	0.000	22.1	12	-8.7	19.6	2.95	 .0719	24	1	100.0	1
11/27/24	10:59	-11.0	-10.9	-11.0	77	-14.2	25.2	SE	0.42	27.8	SE	-22.7	-11.1	-22.8	734.7	0.020	0.000	22.1	12	-8.7	19.6	2.95	 .0719	23	1	100.0	1
11/27/24	11:00	-11.0	-11.0	-11.0	77	-14.2	26.1	SE	0.43	30.4	SE	-22.9	-11.1	-23.0	734.6	0.020	0.000	22.1	12	-8.7	19.6	2.95	 .0719	24	1	100.0	1
11/27/24	11:01	-11.0	-10.9	-11.0	77	-14.2	27.0	SE	0.45	31.3	SE	-23.1	-11.1	-23.2	734.6	0.020	0.000	22.1	12	-8.7	19.6	2.95	 .0719	23	1	100.0	1
11/27/24	11:02	-10.9	-10.9	-11.0	77	-14.2	25.2	SE	0.42	33.0	SE	-22.7	-11.1	-22.8	734.6	0.020	0.000	22.1	12	-8.7	19.6	2.95	 .0719	23	1	100.0	1
11/27/24	11:03	-10.9	-10.9	-10.9	77	-14.2	27.8	SE	0.46	30.4	SE	-23.1	-11.1	-23.2	734.5	0.020	0.000	22.1	12	-8.7	19.6	2.95	 .0719	24	1	100.0	1
11/27/24	11:04	-10.9	-10.9	-10.9	77	-14.1	23.5	SE	0.39	26.1	SE	-22.2	-11.0	-22.3	734.7	0.020	0.000	22.1	12	-8.7	19.6	2.95	 .0719	23	1	100.0	1
11/27/24	11:05	-10.9	-10.9	-10.9	77	-14.1	28.7	SE	0.48	33.0	SE	-23.2	-11.0	-23.3	734.6	0.020	0.000	22.1	12	-8.7	19.5	2.95	 .0720	24	1	100.0	1
11/27/24	11:06	-10.9	-10.9	-10.9	77	-14.1	27.8	SE	0.46	30.4	SE	-23.1	-11.0	-23.2	734.6	0.020	0.000	22.1	12	-8.7	19.5	2.95	 .0720	23	1	100.0	1
11/27/24	11:07	-10.8	-10.8	-10.9	77	-14.1	27.0	SE	0.45	28.7	SE	-22.8	-10.9	-22.9	734.7	0.020	0.000	22.1	12	-8.7	19.5	2.95	 .0720	23	1	100.0	1
11/27/24	11:08	-10.8	-10.8	-10.8	77	-14.1	27.0	SE	0.45	29.6	SE	-22.8	-10.9	-22.9	734.6	0.020	0.000	22.1	12	-8.7	19.5	2.95	 .0720	24	1	100.0	1
11/27/24	11:09	-10.8	-10.8	-10.8	77	-14.1	27.8	SE	0.46	33.0	SSE	-22.9	-10.9	-23.1	734.6	0.020	0.000	22.1	12	-8.7	19.5	2.95	 .0720	23	1	100.0	1
11/27/24	11:10	-10.8	-10.8	-10.8	77	-14.0	30.4	SE	0.51	33.9	SE	-23.3	-10.9	-23.4	734.6	0.020	0.000	22.1	12	-8.7	19.5	2.95	 .0720	24	1	100.0	1
11/27/24	11:11	-10.7	-10.7	-10.8	77	-14.0	28.7	SE	0.48	32.2	SE	-22.9	-10.8	-23.1	734.7	0.020	0.000	22.1	12	-8.7	19.5	2.95	 .0720	23	1	100.0	1
11/27/24	11:12	-10.7	-10.7	-10.7	77	-14.0	27.0	SE	0.45	31.3	SSE	-22.7	-10.8	-22.8	734.6	0.020	0.000	22.1	12	-8.7	19.5	2.95	 .0720	23	1	100.0	1
11/27/24	11:13	-10.7	-10.7	-10.7	76	-14.1	27.8	SE	0.46	30.4	SE	-22.8	-10.8	-22.9	734.7	0.020	0.000	22.0	12	-8.8	19.4	2.95	 .0720	24	1	100.0	1
11/27/24	11:14	-10.7	-10.7	-10.7	76	-14.1	27.8	SE	0.46	30.4	SE	-22.8	-10.8	-22.9	734.6	0.020	0.000	22.0	12	-8.8	19.4	2.95	 .0720	23	1	100.0	1
11/27/24	11:15	-10.7	-10.7	-10.7	76	-14.1	27.0	SE	0.45	30.4	SE	-22.7	-10.8	-22.8	734.7	0.020	0.000	22.1	12	-8.7	19.5	2.95	 .0720	24	1	100.0	1
11/27/24	11:16	-10.7	-10.7	-10.7	76	-14.1	25.2	SE	0.42	29.6	SE	-22.3	-10.8	-22.4	734.8	0.020	0.000	22.0	12	-8.8	19.4	2.95	 .0720	23	1	100.0	1
11/27/24	11:17	-10.8	-10.7	-10.8	76	-14.2	29.6	SE	0.49	34.8	SE	-23.2	-10.9	-23.3	734.7	0.020	0.000	22.1	12	-8.7	19.5	2.95	 .0720	24	1	100.0	1
11/27/24	11:18	-10.8	-10.8	-10.8	76	-14.2	27.8	SE	0.46	30.4	SE	-22.9	-10.9	-23.0	734.8	0.020	0.000	22.0	12	-8.8	19.4	2.95	 .0720	23	1	100.0	1
11/27/24	11:19	-10.8	-10.8	-10.8	76	-14.2	25.2	SE	0.42	27.8	SE	-22.5	-10.9	-22.6	734.9	0.020	0.000	22.0	12	-8.8	19.4	2.95	 .0720	23	1	100.0	1
11/27/24	11:20	-10.8	-10.8	-10.8	76	-14.2	24.3	SE	0.41	26.1	SE	-22.3	-10.9	-22.4	734.9	0.020	0.000	22.0	12	-8.8	19.4	2.95	 .0720	24	1	100.0	1
11/27/24	11:21	-10.8	-10.8	-10.8	76	-14.2	26.1	SE	0.43	29.6	SE	-22.6	-10.9	-22.7	734.9	0.020	0.000	22.0	12	-8.8	19.4	2.95	 .0720	23	1	100.0	1
11/27/24	11:22	-10.8	-10.8	-10.8	76	-14.2	27.0	SE	0.45	31.3	SE	-22.7	-10.9	-22.8	734.9	0.020	0.000	22.0	12	-8.8	19.4	2.95	 .0720	24	1	100.0	1
11/27/24	11:23	-10.8	-10.8	-10.8	76	-14.2	25.2	SE	0.42	27.8	SE	-22.5	-10.9	-22.6	734.9	0.020	0.000	22.0	12	-8.8	19.4	2.95	 .0720	23	1	100.0	1
11/27/24	11:24	-10.8	-10.8	-10.9	76	-14.2	26.1	SE	0.43	29.6	SE	-22.7	-10.9	-22.8	735.0	0.020	0.000	22.0	12	-8.8	19.4	2.95	 .0720	23	1	100.0	1
11/27/24	11:25	-10.8	-10.8	-10.9	76	-14.2	24.3	SE	0.41	28.7	SE	-22.3	-10.9	-22.4	735.0	0.020	0.000	22.0	12	-8.8	19.4	2.95	 .0720	24	1	100.0	1
11/27/24	11:26	-10.8	-10.8	-10.8	76	-14.2	24.3	SE	0.41	26.1	ESE	-22.3	-10.9	-22.4	734.9	0.020	0.000	21.9	12	-8.8	19.4	2.95	 .0720	23	1	100.0	1
11/27/24	11:27	-10.8	-10.8	-10.8	76	-14.2	26.1	SE	0.43	28.7	SE	-22.7	-10.9	-22.8	734.9	0.020	0.000	22.0	12	-8.8	19.4	2.95	 .0720	24	1	100.0	1
11/27/24	11:28	-10.8	-10.8	-10.8	76	-14.2	25.2	SE	0.42	29.6	ESE	-22.5	-10.9	-22.6	734.8	0.020	0.000	22.0	12	-8.8	19.4	2.95	 .0720	23	1	100.0	1
11/27/24	11:29	-10.8	-10.8	-10.8	76	-14.2	25.2	SE	0.42	30.4	SE	-22.4	-10.9	-22.6	734.9	0.020	0.000	21.9	12	-8.8	19.4	2.95	 .0720	24	1	100.0	1
11/27/24	11:30	-10.8	-10.8	-10.8	76	-14.2	24.3	SE	0.41	26.1	SE	-22.3	-10.9	-22.4	734.9	0.020	0.000	21.9	12	-8.8	19.4	2.95	 .0720	23	1	100.0	1
11/27/24	11:31	-10.8	-10.8	-10.8	76	-14.2	26.1	ESE	0.43	27.8	ESE	-22.6	-10.9	-22.7	734.9	0.020	0.000	21.9	12	-8.8	19.4	2.95	 .0720	23	1	100.0	1
11/27/24	11:32	-10.8	-10.8	-10.8	76	-14.2	25.2	SE	0.42	27.8	ESE	-22.4	-10.9	-22.6	734.9	0.020	0.000	22.0	12	-8.8	19.4	2.95	 .0720	24	1	100.0	1
11/27/24	11:33	-10.8	-10.8	-10.8	76	-14.2	22.6	SE	0.38	26.1	ESE	-21.9	-10.9	-22.1	734.9	0.020	0.000	21.9	12	-8.8	19.4	2.95	 .0720	23	1	100.0	1
11/27/24	11:34	-10.8	-10.8	-10.8	76	-14.2	26.1	ESE	0.43	27.8	ESE	-22.6	-10.9	-22.7	734.9	0.020	0.000	21.9	12	-8.8	19.4	2.95	 .0720	24	1	100.0	1
11/27/24	11:35	-10.8	-10.8	-10.8	76	-14.2	26.1	ESE	0.43	27.8	ESE	-22.6	-10.9	-22.7	734.8	0.020	0.000	21.9	12	-8.8	19.4	2.95	 .0720	23	1	100.0	1
11/27/24	11:36	-10.8	-10.8	-10.8	76	-14.2	24.3	ESE	0.41	26.1	ESE	-22.3	-10.9	-22.4	734.9	0.020	0.000	21.9	12	-8.8	19.4	2.95	 .0720	23	1	100.0	1
11/27/24	11:37	-10.9	-10.8	-10.9	76	-14.3	23.5	ESE	0.39	25.2	ESE	-22.2	-11.0	-22.3	735.1	0.020	0.000	21.9	12	-8.8	19.4	2.95	 .0720	24	1	100.0	1
11/27/24	11:38	-10.9	-10.9	-10.9	76	-14.3	21.7	ESE	0.36	25.2	ESE	-21.9	-11.1	-22.1	735.1	0.020	0.000	21.9	12	-8.8	19.4	2.95	 .0720	23	1	100.0	1
11/27/24	11:39	-11.0	-10.9	-11.0	76	-14.4	22.6	ESE	0.38	24.3	ESE	-22.2	-11.1	-22.3	735.1	0.020	0.000	21.9	12	-8.8	19.4	2.95	 .0720	24	1	100.0	1
11/27/24	11:40	-11.1	-11.0	-11.1	76	-14.5	21.7	ESE	0.36	24.3	ESE	-22.2	-11.2	-22.3	735.1	0.020	0.000	21.9	12	-8.8	19.4	2.95	 .0720	23	1	100.0	1
11/27/24	11:41	-11.2	-11.1	-11.2	76	-14.6	22.6	ESE	0.38	24.3	ESE	-22.4	-11.3	-22.6	735.1	0.020	0.000	21.9	12	-8.8	19.4	2.95	 .0720	24	1	100.0	1
11/27/24	11:42	-11.2	-11.2	-11.2	77	-14.5	21.7	ESE	0.36	23.5	ESE	-22.3	-11.3	-22.4	735.1	0.021	0.000	21.9	12	-8.8	19.4	2.95	 .0720	23	1	100.0	1
11/27/24	11:43	-11.2	-11.2	-11.2	77	-14.5	24.3	ESE	0.41	30.4	ESE	-22.9	-11.3	-23.0	735.1	0.021	0.000	21.9	12	-8.8	19.3	2.95	 .0720	23	1	100.0	1
11/27/24	11:44	-11.2	-11.2	-11.2	77	-14.4	22.6	ESE	0.38	27.0	ESE	-22.4	-11.3	-22.6	735.0	0.020	0.000	21.9	12	-8.8	19.4	2.95	 .0720	24	1	100.0	1
11/27/24	11:45	-11.2	-11.2	-11.2	77	-14.4	21.7	ESE	0.36	22.6	ESE	-22.3	-11.3	-22.4	735.1	0.020	0.000	21.9	12	-8.8	19.3	2.95	 .0720	23	1	100.0	1
11/27/24	11:46	-11.2	-11.2	-11.2	77	-14.4	23.5	ESE	0.39	27.8	ESE	-22.6	-11.3	-22.7	735.1	0.020	0.000	21.9	12	-8.8	19.4	2.95	 .0720	24	1	100.0	1
11/27/24	11:47	-11.2	-11.2	-11.2	77	-14.5	23.5	ESE	0.39	28.7	ESE	-22.7	-11.3	-22.8	735.1	0.021	0.000	21.9	12	-8.8	19.4	2.95	 .0720	23	1	100.0	1
11/27/24	11:48	-11.2	-11.2	-11.2	77	-14.4	23.5	ESE	0.39	27.0	SE	-22.6	-11.3	-22.7	735.0	0.020	0.000	21.9	12	-8.8	19.4	2.95	 .0720	23	1	100.0	1
11/27/24	11:49	-11.1	-11.1	-11.2	77	-14.3	26.1	ESE	0.43	28.7	E	-23.1	-11.2	-23.2	735.1	0.020	0.000	21.9	12	-8.8	19.4	2.95	 .0720	24	1	100.0	1
11/27/24	11:50	-11.1	-11.1	-11.1	77	-14.3	24.3	ESE	0.41	28.7	E	-22.7	-11.2	-22.8	735.0	0.020	0.000	21.9	12	-8.8	19.4	2.95	 .0720	23	1	100.0	1
11/27/24	11:51	-11.2	-11.1	-11.2	77	-14.4	24.3	ESE	0.41	28.7	ESE	-22.8	-11.3	-22.9	735.1	0.020	0.000	21.9	11	-9.9	19.3	2.72	 .0720	24	1	100.0	1
11/27/24	11:52	-11.3	-11.2	-11.3	77	-14.5	25.2	ESE	0.42	27.0	E	-23.1	-11.4	-23.2	735.1	0.021	0.000	22.0	11	-9.9	19.4	2.72	 .0720	23	1	100.0	1
11/27/24	11:53	-11.3	-11.3	-11.3	77	-14.6	24.3	ESE	0.41	27.0	ESE	-23.0	-11.4	-23.1	735.0	0.021	0.000	22.0	12	-8.8	19.4	2.95	 .0720	24	1	100.0	1
11/27/24	11:54	-11.3	-11.3	-11.3	77	-14.6	23.5	ESE	0.39	30.4	ESE	-22.8	-11.4	-22.9	735.1	0.021	0.000	22.0	11	-9.9	19.4	2.72	 .0720	23	1	100.0	1
11/27/24	11:55	-11.3	-11.3	-11.3	77	-14.5	22.6	ESE	0.38	25.2	ESE	-22.6	-11.4	-22.7	735.1	0.021	0.000	22.0	11	-9.9	19.4	2.72	 .0720	23	1	100.0	1
11/27/24	11:56	-11.3	-11.3	-11.3	77	-14.6	24.3	ESE	0.41	26.1	ESE	-23.0	-11.4	-23.1	735.1	0.021	0.000	22.0	11	-9.9	19.4	2.72	 .0720	24	1	100.0	1
11/27/24	11:57	-11.3	-11.3	-11.3	77	-14.5	24.3	ESE	0.41	27.0	ESE	-22.9	-11.4	-23.1	735.1	0.021	0.000	22.0	11	-9.9	19.4	2.72	 .0720	23	1	100.0	1
11/27/24	11:58	-11.3	-11.3	-11.3	77	-14.5	23.5	ESE	0.39	27.8	ESE	-22.8	-11.4	-22.9	735.1	0.021	0.000	22.0	11	-9.9	19.4	2.72	 .0720	24	1	100.0	1
11/27/24	11:59	-11.3	-11.3	-11.3	77	-14.5	25.2	ESE	0.42	29.6	ESE	-23.1	-11.4	-23.2	735.2	0.021	0.000	22.1	11	-9.8	19.4	2.72	 .0720	23	1	100.0	1
11/27/24	12:00	-11.3	-11.3	-11.3	77	-14.5	25.2	ESE	0.42	27.8	ESE	-23.1	-11.4	-23.2	735.1	0.021	0.000	22.1	11	-9.8	19.4	2.72	 .0720	24	1	100.0	1
11/27/24	12:01	-11.3	-11.3	-11.3	77	-14.5	24.3	ESE	0.41	28.7	ESE	-22.9	-11.4	-23.1	735.1	0.021	0.000	22.1	11	-9.8	19.4	2.72	 .0720	23	1	100.0	1
11/27/24	12:02	-11.2	-11.2	-11.3	77	-14.5	26.1	ESE	0.43	28.7	SE	-23.2	-11.3	-23.3	735.0	0.021	0.000	22.1	11	-9.8	19.4	2.72	 .0720	23	1	100.0	1
11/27/24	12:03	-11.2	-11.2	-11.2	77	-14.4	26.1	ESE	0.43	30.4	ESE	-23.1	-11.3	-23.2	734.9	0.020	0.000	22.1	11	-9.8	19.4	2.72	 .0720	24	1	100.0	1
11/27/24	12:04	-11.2	-11.2	-11.2	77	-14.4	23.5	SE	0.39	28.7	SE	-22.6	-11.3	-22.7	735.0	0.020	0.000	22.1	11	-9.8	19.4	2.72	 .0720	23	1	100.0	1
11/27/24	12:05	-11.2	-11.1	-11.2	77	-14.4	24.3	ESE	0.41	27.0	ESE	-22.8	-11.3	-22.9	735.2	0.020	0.000	22.1	11	-9.8	19.4	2.72	 .0720	23	1	100.0	1
11/27/24	12:06	-11.1	-11.1	-11.1	77	-14.3	22.6	ESE	0.38	24.3	ESE	-22.4	-11.2	-22.5	735.1	0.020	0.000	22.1	11	-9.8	19.4	2.72	 .0720	24	1	100.0	1
11/27/24	12:07	-11.1	-11.1	-11.1	77	-14.3	23.5	ESE	0.39	26.1	ESE	-22.6	-11.2	-22.7	735.1	0.020	0.000	22.1	11	-9.8	19.4	2.72	 .0720	23	1	100.0	1
11/27/24	12:08	-11.1	-11.1	-11.1	77	-14.3	25.2	SE	0.42	27.0	SE	-22.9	-11.2	-23.0	735.1	0.020	0.000	22.0	11	-9.9	19.4	2.72	 .0720	24	1	100.0	1
11/27/24	12:09	-11.1	-11.1	-11.1	77	-14.3	25.2	ESE	0.42	31.3	ESE	-22.9	-11.2	-23.0	735.1	0.020	0.000	22.1	11	-9.8	19.4	2.72	 .0720	23	1	100.0	1
11/27/24	12:10	-11.1	-11.1	-11.1	77	-14.3	27.0	SE	0.45	31.3	SE	-23.1	-11.2	-23.2	735.1	0.020	0.000	22.0	11	-9.9	19.4	2.72	 .0720	24	1	100.0	1
11/27/24	12:11	-11.1	-11.1	-11.1	77	-14.3	28.7	SE	0.48	33.9	SE	-23.4	-11.2	-23.5	735.0	0.020	0.000	22.0	11	-9.9	19.4	2.72	 .0720	23	1	100.0	1
11/27/24	12:12	-11.0	-11.0	-11.0	76	-14.4	22.6	SE	0.38	25.2	ESE	-22.2	-11.1	-22.3	735.1	0.020	0.000	22.0	11	-9.9	19.4	2.72	 .0720	23	1	100.0	1
11/27/24	12:13	-11.1	-11.0	-11.1	76	-14.5	26.1	ESE	0.43	28.7	SE	-22.9	-11.2	-23.1	735.1	0.020	0.000	22.0	11	-9.9	19.4	2.72	 .0720	24	1	100.0	1
11/27/24	12:14	-11.1	-11.1	-11.1	76	-14.5	26.1	SE	0.43	31.3	SE	-23.1	-11.2	-23.2	735.1	0.020	0.000	22.0	11	-9.9	19.4	2.72	 .0720	23	1	100.0	1
11/27/24	12:15	-11.1	-11.1	-11.1	76	-14.5	22.6	SE	0.38	25.2	ESE	-22.4	-11.2	-22.5	735.2	0.020	0.000	22.0	11	-9.9	19.4	2.72	 .0720	24	1	100.0	1
11/27/24	12:16	-11.1	-11.1	-11.1	76	-14.5	26.1	SE	0.43	27.8	ESE	-23.1	-11.2	-23.2	735.1	0.020	0.000	22.0	11	-9.9	19.4	2.72	 .0720	23	1	100.0	1
11/27/24	12:17	-11.1	-11.1	-11.1	76	-14.5	27.0	SE	0.45	30.4	ESE	-23.2	-11.2	-23.3	735.1	0.020	0.000	22.0	11	-9.9	19.4	2.72	 .0720	23	1	100.0	1
11/27/24	12:18	-11.1	-11.1	-11.1	76	-14.5	25.2	SE	0.42	28.7	ESE	-22.9	-11.2	-23.0	735.1	0.020	0.000	22.0	11	-9.9	19.4	2.72	 .0720	24	1	100.0	1
11/27/24	12:19	-11.1	-11.1	-11.1	76	-14.5	27.0	SE	0.45	29.6	SE	-23.2	-11.2	-23.3	735.0	0.020	0.000	22.0	11	-9.9	19.4	2.72	 .0720	23	1	100.0	1
11/27/24	12:20	-11.1	-11.1	-11.1	76	-14.5	25.2	SE	0.42	28.7	SE	-22.9	-11.2	-23.0	735.1	0.020	0.000	21.9	11	-9.9	19.3	2.72	 .0720	24	1	100.0	1
11/27/24	12:21	-11.1	-11.1	-11.1	76	-14.5	27.8	SE	0.46	31.3	SSE	-23.3	-11.2	-23.4	734.9	0.020	0.000	21.9	11	-9.9	19.3	2.72	 .0720	23	1	100.0	1
11/27/24	12:22	-11.0	-11.0	-11.0	76	-14.4	27.8	SE	0.46	31.3	SE	-23.2	-11.1	-23.3	734.9	0.020	0.000	21.9	11	-9.9	19.3	2.72	 .0720	24	1	100.0	1
11/27/24	12:23	-11.0	-11.0	-11.0	76	-14.4	28.7	SE	0.48	33.0	SE	-23.3	-11.1	-23.4	734.9	0.020	0.000	21.9	11	-9.9	19.3	2.72	 .0720	23	1	100.0	1
11/27/24	12:24	-10.9	-10.9	-11.0	76	-14.3	26.1	SE	0.43	28.7	SE	-22.8	-11.1	-22.9	735.0	0.020	0.000	21.9	11	-9.9	19.3	2.72	 .0720	23	1	100.0	1
11/27/24	12:25	-11.0	-10.9	-11.0	76	-14.4	26.1	SE	0.43	27.8	SE	-22.9	-11.1	-23.0	735.1	0.020	0.000	21.9	11	-9.9	19.3	2.72	 .0720	24	1	100.0	1
11/27/24	12:26	-10.9	-10.9	-10.9	76	-14.3	26.1	SE	0.43	27.8	SE	-22.8	-11.1	-22.9	735.0	0.020	0.000	21.9	11	-9.9	19.3	2.72	 .0720	23	1	100.0	1
11/27/24	12:27	-10.9	-10.9	-10.9	76	-14.3	27.8	SSE	0.46	32.2	SSE	-23.1	-11.0	-23.2	735.0	0.020	0.000	21.9	11	-9.9	19.3	2.72	 .0720	24	1	100.0	1
11/27/24	12:28	-10.9	-10.9	-10.9	76	-14.3	26.1	SE	0.43	32.2	SE	-22.7	-11.0	-22.8	734.9	0.020	0.000	21.9	11	-9.9	19.3	2.72	 .0720	23	1	100.0	1
11/27/24	12:29	-10.9	-10.9	-10.9	76	-14.3	27.0	SE	0.45	31.3	SE	-22.9	-11.0	-23.0	735.0	0.020	0.000	21.9	11	-9.9	19.3	2.72	 .0720	23	1	100.0	1
11/27/24	12:30	-10.9	-10.9	-10.9	76	-14.3	27.8	SE	0.46	31.3	SE	-23.1	-11.0	-23.2	734.8	0.020	0.000	21.9	11	-9.9	19.3	2.72	 .0720	24	1	100.0	1
11/27/24	12:31	-10.8	-10.8	-10.9	76	-14.2	27.8	SE	0.46	31.3	SE	-22.9	-10.9	-23.1	734.9	0.020	0.000	21.9	11	-9.9	19.3	2.72	 .0720	23	1	100.0	1
11/27/24	12:32	-10.8	-10.8	-10.8	76	-14.2	28.7	SE	0.48	31.3	SE	-23.1	-10.9	-23.2	734.9	0.020	0.000	21.9	11	-9.9	19.3	2.72	 .0720	24	1	100.0	1
11/27/24	12:33	-10.8	-10.8	-10.8	76	-14.2	31.3	SE	0.52	35.7	SE	-23.4	-10.9	-23.6	734.9	0.020	0.000	21.9	11	-9.9	19.3	2.72	 .0720	23	1	100.0	1
11/27/24	12:34	-10.8	-10.8	-10.8	75	-14.3	32.2	SE	0.54	36.5	SE	-23.6	-10.9	-23.7	734.8	0.020	0.000	21.9	11	-9.9	19.3	2.72	 .0720	24	1	100.0	1
11/27/24	12:35	-10.8	-10.8	-10.8	75	-14.4	28.7	SE	0.48	30.4	SE	-23.1	-10.9	-23.2	734.9	0.020	0.000	21.9	11	-9.9	19.3	2.72	 .0720	23	1	100.0	1
11/27/24	12:36	-10.8	-10.8	-10.8	75	-14.4	27.0	SE	0.45	29.6	SE	-22.8	-10.9	-22.9	735.0	0.020	0.000	21.9	11	-9.9	19.2	2.72	 .0721	23	1	100.0	1
11/27/24	12:37	-10.8	-10.8	-10.8	75	-14.4	27.8	SE	0.46	30.4	SE	-22.9	-10.9	-23.1	735.0	0.020	0.000	21.9	11	-9.9	19.2	2.72	 .0721	24	1	100.0	1
11/27/24	12:38	-10.8	-10.8	-10.8	75	-14.4	27.0	SE	0.45	28.7	SE	-22.8	-10.9	-22.9	734.9	0.020	0.000	21.9	11	-9.9	19.2	2.72	 .0721	23	1	100.0	1
11/27/24	12:39	-10.9	-10.8	-10.9	76	-14.3	28.7	SE	0.48	31.3	SE	-23.2	-11.0	-23.3	734.9	0.020	0.000	21.9	11	-9.9	19.2	2.72	 .0720	24	1	100.0	1
11/27/24	12:40	-10.9	-10.9	-10.9	76	-14.3	30.4	SE	0.51	34.8	SE	-23.6	-11.1	-23.7	734.8	0.020	0.000	21.9	11	-9.9	19.2	2.72	 .0720	23	1	100.0	1
11/27/24	12:41	-10.9	-10.9	-10.9	76	-14.3	29.6	SE	0.49	31.3	SE	-23.3	-11.0	-23.4	734.8	0.020	0.000	21.9	11	-9.9	19.2	2.72	 .0720	23	1	100.0	1
11/27/24	12:42	-10.9	-10.9	-10.9	76	-14.3	28.7	SE	0.48	31.3	SE	-23.3	-11.1	-23.4	734.9	0.020	0.000	21.9	11	-9.9	19.2	2.72	 .0720	24	1	100.0	1
11/27/24	12:43	-10.9	-10.9	-10.9	76	-14.3	31.3	SE	0.52	33.9	SE	-23.6	-11.0	-23.7	734.8	0.020	0.000	21.9	11	-9.9	19.2	2.72	 .0720	23	1	100.0	1
11/27/24	12:44	-10.9	-10.9	-10.9	76	-14.3	29.6	SE	0.49	32.2	SE	-23.4	-11.1	-23.5	734.8	0.020	0.000	21.9	11	-9.9	19.2	2.72	 .0720	24	1	100.0	1
11/27/24	12:45	-10.9	-10.9	-10.9	76	-14.3	29.6	SE	0.49	31.3	SE	-23.4	-11.1	-23.5	734.9	0.020	0.000	21.8	11	-10.0	19.2	2.72	 .0721	23	1	100.0	1
11/27/24	12:46	-10.9	-10.9	-10.9	76	-14.3	28.7	SE	0.48	32.2	SSE	-23.3	-11.1	-23.4	734.9	0.020	0.000	21.8	11	-10.0	19.2	2.72	 .0721	23	1	100.0	1
11/27/24	12:47	-10.9	-10.9	-10.9	76	-14.3	29.6	SE	0.49	31.3	SE	-23.3	-11.0	-23.4	734.9	0.020	0.000	21.9	11	-9.9	19.2	2.72	 .0720	24	1	100.0	1
11/27/24	12:48	-10.9	-10.9	-10.9	76	-14.3	28.7	SE	0.48	31.3	SE	-23.2	-11.0	-23.3	734.9	0.020	0.000	21.8	11	-10.0	19.2	2.72	 .0721	23	1	100.0	1
11/27/24	12:49	-10.9	-10.9	-10.9	76	-14.3	27.8	SE	0.46	30.4	SE	-23.1	-11.0	-23.2	734.9	0.020	0.000	21.9	11	-9.9	19.2	2.72	 .0720	24	1	100.0	1
11/27/24	12:50	-10.9	-10.9	-10.9	76	-14.3	30.4	SE	0.51	33.9	SE	-23.4	-11.0	-23.6	734.9	0.020	0.000	21.8	11	-10.0	19.2	2.72	 .0721	23	1	100.0	1
11/27/24	12:51	-10.9	-10.8	-10.9	76	-14.3	29.6	SE	0.49	33.0	ESE	-23.3	-11.0	-23.4	734.9	0.020	0.000	21.9	11	-9.9	19.2	2.72	 .0720	24	1	100.0	1
11/27/24	12:52	-10.9	-10.8	-10.9	76	-14.3	27.8	SE	0.46	30.4	SE	-23.1	-11.0	-23.2	735.0	0.020	0.000	21.9	11	-9.9	19.2	2.72	 .0721	23	1	100.0	1
11/27/24	12:53	-10.9	-10.9	-10.9	76	-14.3	29.6	SE	0.49	32.2	SE	-23.3	-11.0	-23.4	734.9	0.020	0.000	21.9	11	-9.9	19.2	2.72	 .0721	23	1	100.0	1
11/27/24	12:54	-10.9	-10.9	-10.9	76	-14.3	27.8	SE	0.46	34.8	SE	-23.1	-11.0	-23.2	735.0	0.020	0.000	21.9	11	-9.9	19.2	2.72	 .0721	24	1	100.0	1
11/27/24	12:55	-10.8	-10.8	-10.9	76	-14.2	29.6	SE	0.49	32.2	SE	-23.2	-10.9	-23.3	735.0	0.020	0.000	21.9	11	-9.9	19.2	2.72	 .0721	23	1	100.0	1
11/27/24	12:56	-10.8	-10.8	-10.8	76	-14.2	29.6	SE	0.49	32.2	SE	-23.2	-10.9	-23.3	735.0	0.020	0.000	21.9	11	-9.9	19.2	2.72	 .0721	24	1	100.0	1
11/27/24	12:57	-10.8	-10.8	-10.8	75	-14.3	28.7	SE	0.48	31.3	SE	-23.1	-10.9	-23.2	735.0	0.020	0.000	21.9	11	-9.9	19.3	2.72	 .0720	23	1	100.0	1
11/27/24	12:58	-10.8	-10.8	-10.8	75	-14.3	27.8	SE	0.46	32.2	SE	-22.9	-10.9	-23.0	735.0	0.020	0.000	21.9	11	-9.9	19.3	2.72	 .0720	24	1	100.0	1
11/27/24	12:59	-10.8	-10.8	-10.8	75	-14.3	27.0	SE	0.45	30.4	SE	-22.7	-10.9	-22.8	735.0	0.020	0.000	21.9	11	-9.9	19.3	2.72	 .0720	23	1	100.0	1
11/27/24	13:00	-10.8	-10.8	-10.8	75	-14.4	30.4	SE	0.51	33.0	SE	-23.4	-10.9	-23.5	734.9	0.020	0.000	21.9	11	-9.9	19.3	2.72	 .0720	23	1	100.0	1
11/27/24	13:01	-10.8	-10.8	-10.8	75	-14.4	29.6	SE	0.49	31.3	SE	-23.2	-10.9	-23.3	734.9	0.020	0.000	22.0	11	-9.9	19.4	2.72	 .0720	24	1	100.0	1
11/27/24	13:02	-10.9	-10.8	-10.9	75	-14.5	31.3	SE	0.52	33.0	SE	-23.6	-11.0	-23.7	734.9	0.020	0.000	22.0	11	-9.9	19.4	2.72	 .0720	23	1	100.0	1
11/27/24	13:03	-10.8	-10.8	-10.9	75	-14.4	27.8	SE	0.46	31.3	SE	-22.9	-10.9	-23.1	735.0	0.020	0.000	22.0	11	-9.9	19.4	2.72	 .0720	24	1	100.0	1
11/27/24	13:04	-10.8	-10.8	-10.8	75	-14.4	27.0	SE	0.45	28.7	SE	-22.8	-10.9	-22.9	735.1	0.020	0.000	22.0	11	-9.9	19.4	2.72	 .0720	23	1	100.0	1
11/27/24	13:05	-10.8	-10.8	-10.8	75	-14.4	29.6	SE	0.49	31.3	SE	-23.2	-10.9	-23.3	735.1	0.020	0.000	22.0	11	-9.9	19.4	2.72	 .0720	23	1	100.0	1
11/27/24	13:06	-10.9	-10.8	-10.9	75	-14.5	27.8	SE	0.46	29.6	SE	-23.1	-11.0	-23.2	735.0	0.020	0.000	22.1	11	-9.8	19.4	2.72	 .0720	24	1	100.0	1
11/27/24	13:07	-10.8	-10.8	-10.9	75	-14.4	29.6	SE	0.49	32.2	SE	-23.2	-10.9	-23.3	735.0	0.020	0.000	22.1	11	-9.8	19.4	2.72	 .0720	23	1	100.0	1
11/27/24	13:08	-10.8	-10.8	-10.8	75	-14.4	28.7	SE	0.48	33.9	SE	-23.1	-10.9	-23.2	735.0	0.020	0.000	22.0	11	-9.9	19.4	2.72	 .0720	24	1	100.0	1
11/27/24	13:09	-10.8	-10.8	-10.8	75	-14.3	28.7	SE	0.48	32.2	SE	-23.1	-10.9	-23.2	735.0	0.020	0.000	22.1	11	-9.8	19.4	2.72	 .0720	23	1	100.0	1
11/27/24	13:10	-10.8	-10.8	-10.8	76	-14.2	28.7	SE	0.48	32.2	SE	-23.1	-10.9	-23.2	734.9	0.020	0.000	22.1	11	-9.8	19.4	2.72	 .0720	23	1	100.0	1
11/27/24	13:11	-10.8	-10.8	-10.8	75	-14.3	29.6	SE	0.49	34.8	SE	-23.2	-10.9	-23.3	735.1	0.020	0.000	22.1	11	-9.8	19.4	2.72	 .0720	24	1	100.0	1
11/27/24	13:12	-10.8	-10.8	-10.8	75	-14.3	30.4	SE	0.51	33.9	SE	-23.3	-10.9	-23.4	734.9	0.020	0.000	22.1	11	-9.8	19.4	2.72	 .0720	23	1	100.0	1
11/27/24	13:13	-10.7	-10.7	-10.8	75	-14.3	30.4	SE	0.51	33.0	SE	-23.2	-10.8	-23.3	735.0	0.020	0.000	22.1	11	-9.8	19.4	2.72	 .0720	24	1	100.0	1
11/27/24	13:14	-10.7	-10.7	-10.7	75	-14.3	28.7	SE	0.48	32.2	SE	-22.9	-10.8	-23.1	734.9	0.020	0.000	22.1	11	-9.8	19.4	2.72	 .0720	23	1	100.0	1
11/27/24	13:15	-10.7	-10.7	-10.7	75	-14.2	29.6	SE	0.49	33.0	SSE	-23.0	-10.8	-23.1	735.0	0.020	0.000	22.1	11	-9.8	19.4	2.72	 .0720	24	1	100.0	1
11/27/24	13:16	-10.7	-10.7	-10.7	75	-14.2	29.6	SE	0.49	35.7	SE	-23.0	-10.8	-23.1	735.0	0.020	0.000	22.1	11	-9.8	19.4	2.72	 .0720	23	1	100.0	1
11/27/24	13:17	-10.6	-10.6	-10.7	75	-14.2	30.4	SE	0.51	32.2	SE	-23.1	-10.7	-23.2	734.9	0.020	0.000	22.1	11	-9.8	19.6	2.71	 .0720	23	1	100.0	1
11/27/24	13:18	-10.6	-10.6	-10.6	75	-14.2	28.7	SE	0.48	32.2	SE	-22.8	-10.7	-22.9	735.0	0.020	0.000	22.1	11	-9.8	19.4	2.72	 .0720	24	1	100.0	1
11/27/24	13:19	-10.6	-10.6	-10.6	75	-14.2	27.8	SE	0.46	29.6	SE	-22.7	-10.7	-22.8	734.9	0.020	0.000	22.1	11	-9.8	19.6	2.71	 .0720	23	1	100.0	1
11/27/24	13:20	-10.6	-10.6	-10.6	75	-14.2	29.6	SE	0.49	33.0	SE	-22.9	-10.7	-23.1	734.9	0.020	0.000	22.1	11	-9.8	19.6	2.71	 .0720	24	1	100.0	1
11/27/24	13:21	-10.6	-10.6	-10.6	75	-14.1	29.6	SE	0.49	33.9	SE	-22.9	-10.7	-23.0	734.9	0.020	0.000	22.1	11	-9.8	19.6	2.71	 .0720	23	1	100.0	1
11/27/24	13:22	-10.5	-10.5	-10.6	74	-14.2	29.6	SE	0.49	34.8	SE	-22.8	-10.6	-22.9	735.0	0.020	0.000	22.1	11	-9.8	19.6	2.71	 .0720	23	1	100.0	1
11/27/24	13:23	-10.4	-10.4	-10.5	74	-14.2	28.7	SE	0.48	33.0	SE	-22.6	-10.6	-22.7	734.9	0.020	0.000	22.1	11	-9.8	19.6	2.71	 .0720	24	1	100.0	1
11/27/24	13:24	-10.5	-10.5	-10.5	74	-14.2	25.2	SE	0.42	27.0	SE	-22.1	-10.6	-22.2	735.1	0.020	0.000	22.1	11	-9.8	19.6	2.71	 .0720	23	1	100.0	1
11/27/24	13:25	-10.5	-10.5	-10.5	74	-14.2	26.1	SE	0.43	28.7	SE	-22.2	-10.6	-22.3	735.1	0.020	0.000	22.1	11	-9.8	19.6	2.71	 .0720	24	1	100.0	1
11/27/24	13:26	-10.5	-10.5	-10.5	74	-14.2	27.0	SE	0.45	30.4	SE	-22.3	-10.6	-22.4	735.2	0.020	0.000	22.2	11	-9.7	19.6	2.71	 .0720	23	1	100.0	1
11/27/24	13:27	-10.5	-10.5	-10.5	74	-14.2	25.2	SE	0.42	27.8	SE	-22.1	-10.6	-22.2	735.1	0.020	0.000	22.1	11	-9.8	19.6	2.71	 .0720	24	1	100.0	1
11/27/24	13:28	-10.5	-10.5	-10.5	74	-14.2	23.5	SE	0.39	25.2	SE	-21.7	-10.6	-21.8	735.2	0.020	0.000	22.2	11	-9.7	19.6	2.71	 .0720	23	1	100.0	1
11/27/24	13:29	-10.6	-10.5	-10.6	74	-14.3	24.3	SE	0.41	28.7	SE	-21.9	-10.7	-22.1	735.3	0.020	0.000	22.2	11	-9.7	19.6	2.71	 .0720	23	1	100.0	1
11/27/24	13:30	-10.6	-10.5	-10.6	74	-14.3	27.0	SE	0.45	31.3	SE	-22.4	-10.7	-22.6	735.2	0.020	0.000	22.2	11	-9.7	19.6	2.71	 .0720	24	1	100.0	1
11/27/24	13:31	-10.5	-10.5	-10.6	74	-14.2	27.0	SE	0.45	33.9	SE	-22.3	-10.6	-22.4	735.1	0.020	0.000	22.2	11	-9.7	19.6	2.71	 .0720	23	1	100.0	1
11/27/24	13:32	-10.4	-10.4	-10.5	74	-14.2	22.6	SE	0.38	25.2	SE	-21.5	-10.6	-21.6	735.3	0.020	0.000	22.2	11	-9.7	19.6	2.71	 .0720	24	1	100.0	1
11/27/24	13:33	-10.4	-10.4	-10.4	74	-14.2	21.7	SE	0.36	23.5	SSE	-21.3	-10.6	-21.4	735.3	0.020	0.000	22.2	11	-9.7	19.6	2.71	 .0720	23	1	100.0	1
11/27/24	13:34	-10.4	-10.4	-10.4	74	-14.2	20.9	SE	0.35	24.3	SE	-21.1	-10.6	-21.2	735.4	0.020	0.000	22.2	11	-9.7	19.6	2.71	 .0720	23	1	100.0	1
11/27/24	13:35	-10.4	-10.4	-10.4	74	-14.2	23.5	SE	0.39	27.0	SE	-21.7	-10.6	-21.8	735.4	0.020	0.000	22.2	11	-9.7	19.6	2.71	 .0720	24	1	100.0	1
11/27/24	13:36	-10.4	-10.4	-10.4	74	-14.2	23.5	SE	0.39	25.2	SE	-21.7	-10.6	-21.8	735.3	0.020	0.000	22.2	11	-9.7	19.6	2.71	 .0720	23	1	100.0	1
11/27/24	13:37	-10.4	-10.4	-10.4	74	-14.2	21.7	SE	0.36	23.5	SE	-21.3	-10.6	-21.4	735.4	0.020	0.000	22.2	11	-9.7	19.6	2.71	 .0720	24	1	100.0	1
11/27/24	13:38	-10.4	-10.4	-10.4	74	-14.2	22.6	ESE	0.38	25.2	ESE	-21.5	-10.6	-21.6	735.4	0.020	0.000	22.2	11	-9.7	19.6	2.71	 .0720	23	1	100.0	1
11/27/24	13:39	-10.5	-10.4	-10.5	74	-14.2	25.2	ESE	0.42	27.0	ESE	-22.1	-10.6	-22.2	735.4	0.020	0.000	22.2	11	-9.7	19.6	2.71	 .0720	23	1	100.0	1
11/27/24	13:40	-10.5	-10.5	-10.5	74	-14.2	25.2	SE	0.42	26.1	ESE	-22.1	-10.6	-22.2	735.4	0.020	0.000	22.2	11	-9.7	19.6	2.71	 .0720	24	1	100.0	1
11/27/24	13:41	-10.5	-10.5	-10.5	74	-14.2	23.5	SE	0.39	25.2	SE	-21.7	-10.6	-21.8	735.4	0.020	0.000	22.2	11	-9.7	19.6	2.71	 .0720	23	1	100.0	1
11/27/24	13:42	-10.5	-10.4	-10.5	74	-14.2	22.6	SE	0.38	25.2	SE	-21.6	-10.6	-21.7	735.5	0.020	0.000	22.2	11	-9.7	19.6	2.71	 .0720	24	1	100.0	1
11/27/24	13:43	-10.4	-10.4	-10.5	74	-14.2	23.5	SE	0.39	26.1	ESE	-21.7	-10.6	-21.8	735.5	0.020	0.000	22.2	11	-9.7	19.6	2.71	 .0720	23	1	100.0	1
11/27/24	13:44	-10.4	-10.4	-10.4	74	-14.2	27.0	SE	0.45	28.7	SE	-22.3	-10.6	-22.4	735.4	0.020	0.000	22.2	11	-9.7	19.6	2.71	 .0720	24	1	100.0	1
11/27/24	13:45	-10.4	-10.4	-10.4	74	-14.1	25.2	SE	0.42	27.0	SE	-21.9	-10.5	-22.0	735.4	0.020	0.000	22.2	11	-9.7	19.6	2.71	 .0720	23	1	100.0	1
11/27/24	13:46	-10.4	-10.4	-10.4	74	-14.1	25.2	SE	0.42	29.6	ESE	-21.9	-10.5	-22.0	735.4	0.020	0.000	22.2	11	-9.7	19.6	2.71	 .0720	23	1	100.0	1
11/27/24	13:47	-10.4	-10.4	-10.4	74	-14.1	26.1	SE	0.43	29.6	SE	-22.1	-10.5	-22.2	735.4	0.020	0.000	22.2	11	-9.7	19.6	2.71	 .0720	24	1	100.0	1
11/27/24	13:48	-10.4	-10.4	-10.4	74	-14.1	23.5	SE	0.39	25.2	SE	-21.6	-10.5	-21.7	735.4	0.020	0.000	22.2	11	-9.7	19.6	2.71	 .0720	23	1	100.0	1
11/27/24	13:49	-10.4	-10.4	-10.4	74	-14.2	21.7	SE	0.36	23.5	SE	-21.3	-10.6	-21.4	735.4	0.020	0.000	22.2	11	-9.7	19.6	2.71	 .0720	24	1	100.0	1
11/27/24	13:50	-10.4	-10.4	-10.4	74	-14.1	22.6	SE	0.38	25.2	SE	-21.4	-10.5	-21.5	735.4	0.020	0.000	22.2	11	-9.7	19.6	2.71	 .0720	23	1	100.0	1
11/27/24	13:51	-10.4	-10.4	-10.4	74	-14.1	24.3	SE	0.41	27.0	SE	-21.7	-10.5	-21.8	735.3	0.020	0.000	22.2	11	-9.7	19.6	2.71	 .0720	23	1	100.0	1
11/27/24	13:52	-10.3	-10.3	-10.4	74	-14.1	24.3	SE	0.41	27.8	SE	-21.7	-10.4	-21.8	735.3	0.020	0.000	22.2	11	-9.7	19.6	2.71	 .0720	24	1	100.0	1
11/27/24	13:53	-10.3	-10.3	-10.3	74	-14.0	24.3	SE	0.41	26.1	SE	-21.6	-10.4	-21.7	735.3	0.020	0.000	22.2	11	-9.7	19.6	2.71	 .0720	23	1	100.0	1
11/27/24	13:54	-10.3	-10.3	-10.3	74	-14.0	23.5	SE	0.39	25.2	SE	-21.4	-10.4	-21.6	735.4	0.020	0.000	22.2	11	-9.7	19.6	2.71	 .0720	24	1	100.0	1
11/27/24	13:55	-10.2	-10.2	-10.3	74	-14.0	23.5	SE	0.39	27.0	SE	-21.3	-10.3	-21.4	735.4	0.020	0.000	22.2	11	-9.7	19.6	2.71	 .0720	23	1	100.0	1
11/27/24	13:56	-10.2	-10.2	-10.2	73	-14.1	23.5	SE	0.39	27.0	SE	-21.3	-10.3	-21.4	735.3	0.020	0.000	22.2	11	-9.7	19.6	2.71	 .0720	24	1	100.0	1
11/27/24	13:57	-10.3	-10.2	-10.3	73	-14.2	27.0	ESE	0.45	30.4	ESE	-22.1	-10.4	-22.2	735.3	0.020	0.000	22.1	11	-9.8	19.6	2.71	 .0720	23	1	100.0	1
11/27/24	13:58	-10.3	-10.3	-10.3	73	-14.2	27.0	SE	0.45	32.2	ESE	-22.1	-10.4	-22.2	735.2	0.020	0.000	22.1	11	-9.8	19.6	2.71	 .0720	23	1	100.0	1
11/27/24	13:59	-10.2	-10.2	-10.3	73	-14.1	27.8	SE	0.46	31.3	SE	-22.1	-10.3	-22.2	735.2	0.020	0.000	22.1	11	-9.8	19.6	2.71	 .0720	24	1	100.0	1
11/27/24	14:00	-10.2	-10.2	-10.2	73	-14.1	23.5	SE	0.39	28.7	SE	-21.3	-10.3	-21.4	735.3	0.020	0.000	22.1	11	-9.8	19.6	2.71	 .0720	23	1	100.0	1
11/27/24	14:01	-10.2	-10.2	-10.2	73	-14.1	23.5	SE	0.39	25.2	SSE	-21.3	-10.3	-21.4	735.4	0.020	0.000	22.1	11	-9.8	19.6	2.71	 .0720	24	1	100.0	1
11/27/24	14:02	-10.2	-10.2	-10.2	73	-14.1	22.6	SE	0.38	25.2	SE	-21.2	-10.3	-21.3	735.4	0.020	0.000	22.1	11	-9.8	19.6	2.71	 .0720	23	1	100.0	1
11/27/24	14:03	-10.2	-10.2	-10.2	73	-14.1	24.3	SE	0.41	27.8	ESE	-21.5	-10.3	-21.6	735.4	0.020	0.000	22.1	11	-9.8	19.6	2.71	 .0720	23	1	100.0	1
11/27/24	14:04	-10.3	-10.3	-10.3	73	-14.2	27.0	ESE	0.45	29.6	ESE	-22.1	-10.4	-22.2	735.4	0.020	0.000	22.1	11	-9.8	19.4	2.72	 .0720	24	1	100.0	1
11/27/24	14:05	-10.3	-10.3	-10.3	73	-14.2	24.3	SE	0.41	27.8	SE	-21.7	-10.4	-21.8	735.3	0.020	0.000	22.1	11	-9.8	19.4	2.72	 .0720	23	1	100.0	1
11/27/24	14:06	-10.3	-10.3	-10.3	73	-14.2	22.6	SE	0.38	24.3	SE	-21.3	-10.4	-21.4	735.4	0.020	0.000	22.1	11	-9.8	19.4	2.72	 .0720	24	1	100.0	1
11/27/24	14:07	-10.3	-10.3	-10.3	73	-14.2	20.9	SE	0.35	23.5	SE	-20.9	-10.4	-21.0	735.4	0.020	0.000	22.1	11	-9.8	19.4	2.72	 .0721	23	1	100.0	1
11/27/24	14:08	-10.4	-10.3	-10.4	73	-14.3	22.6	SE	0.38	27.0	SE	-21.4	-10.5	-21.5	735.5	0.020	0.000	22.1	11	-9.8	19.4	2.72	 .0721	24	1	100.0	1
11/27/24	14:09	-10.5	-10.4	-10.5	73	-14.4	21.7	SE	0.36	23.5	SE	-21.4	-10.6	-21.5	735.5	0.020	0.000	22.1	11	-9.8	19.4	2.72	 .0721	23	1	100.0	1
11/27/24	14:10	-10.6	-10.5	-10.6	73	-14.5	23.5	SE	0.39	27.0	SE	-21.8	-10.7	-21.9	735.5	0.020	0.000	22.1	11	-9.8	19.4	2.72	 .0721	23	1	100.0	1
11/27/24	14:11	-10.5	-10.4	-10.5	74	-14.2	23.5	SE	0.39	27.0	SE	-21.7	-10.6	-21.8	735.4	0.020	0.000	22.0	11	-9.9	19.4	2.72	 .0721	24	1	100.0	1
11/27/24	14:12	-10.4	-10.4	-10.4	74	-14.2	21.7	SE	0.36	23.5	SE	-21.3	-10.6	-21.4	735.5	0.020	0.000	22.0	11	-9.9	19.4	2.72	 .0721	23	1	100.0	1
11/27/24	14:13	-10.5	-10.4	-10.5	74	-14.2	21.7	SE	0.36	24.3	SE	-21.4	-10.6	-21.5	735.5	0.020	0.000	22.1	11	-9.8	19.4	2.72	 .0721	24	1	100.0	1
11/27/24	14:14	-10.4	-10.4	-10.5	74	-14.2	25.2	SE	0.42	27.8	SE	-22.0	-10.6	-22.1	735.5	0.020	0.000	22.0	11	-9.9	19.4	2.72	 .0721	23	1	100.0	1
11/27/24	14:15	-10.4	-10.4	-10.4	74	-14.1	21.7	SE	0.36	24.3	SE	-21.2	-10.5	-21.3	735.4	0.020	0.000	22.0	11	-9.9	19.4	2.72	 .0721	23	1	100.0	1
11/27/24	14:16	-10.3	-10.3	-10.4	74	-14.0	22.6	SE	0.38	26.1	SE	-21.3	-10.4	-21.4	735.5	0.020	0.000	22.0	11	-9.9	19.4	2.72	 .0721	24	1	100.0	1
11/27/24	14:17	-10.3	-10.3	-10.3	74	-14.0	24.3	SE	0.41	26.1	SE	-21.6	-10.4	-21.7	735.4	0.020	0.000	22.0	11	-9.9	19.4	2.72	 .0721	23	1	100.0	1
11/27/24	14:18	-10.3	-10.3	-10.3	74	-14.1	22.6	SE	0.38	26.1	SSE	-21.3	-10.4	-21.4	735.4	0.020	0.000	22.1	11	-9.8	19.4	2.72	 .0721	24	1	100.0	1
11/27/24	14:19	-10.3	-10.3	-10.4	73	-14.2	24.3	SE	0.41	32.2	SE	-21.7	-10.4	-21.8	735.5	0.020	0.000	22.1	11	-9.8	19.4	2.72	 .0721	23	1	100.0	1
11/27/24	14:20	-10.3	-10.3	-10.3	73	-14.2	22.6	SE	0.38	29.6	SE	-21.3	-10.4	-21.4	735.3	0.020	0.000	22.1	11	-9.8	19.4	2.72	 .0720	24	1	100.0	1
11/27/24	14:21	-10.2	-10.2	-10.3	73	-14.1	27.0	SE	0.45	29.6	ESE	-22.0	-10.3	-22.1	735.4	0.020	0.000	22.1	11	-9.8	19.4	2.72	 .0720	23	1	100.0	1
11/27/24	14:22	-10.2	-10.2	-10.2	73	-14.1	25.2	SE	0.42	27.8	SE	-21.7	-10.3	-21.8	735.3	0.020	0.000	22.1	11	-9.8	19.4	2.72	 .0720	23	1	100.0	1
11/27/24	14:23	-10.3	-10.2	-10.3	73	-14.2	22.6	SE	0.38	24.3	ESE	-21.3	-10.4	-21.4	735.3	0.020	0.000	22.1	11	-9.8	19.4	2.72	 .0720	24	1	100.0	1
11/27/24	14:24	-10.5	-10.4	-10.5	73	-14.4	25.2	ESE	0.42	32.2	SE	-22.1	-10.6	-22.2	735.4	0.020	0.000	22.1	11	-9.8	19.6	2.71	 .0720	23	1	100.0	1
11/27/24	14:25	-10.6	-10.6	-10.6	73	-14.5	27.0	SE	0.45	29.6	SE	-22.4	-10.7	-22.6	735.3	0.020	0.000	22.1	11	-9.8	19.4	2.72	 .0720	24	1	100.0	1
11/27/24	14:26	-10.5	-10.5	-10.6	74	-14.2	26.1	SE	0.43	27.8	SE	-22.2	-10.6	-22.3	735.3	0.020	0.000	22.1	11	-9.8	19.6	2.71	 .0720	23	1	100.0	1
11/27/24	14:27	-10.5	-10.5	-10.5	74	-14.2	23.5	SE	0.39	27.0	SE	-21.7	-10.6	-21.8	735.4	0.020	0.000	22.1	11	-9.8	19.6	2.71	 .0720	23	1	100.0	1
11/27/24	14:28	-10.5	-10.4	-10.5	74	-14.2	23.5	SE	0.39	25.2	SE	-21.7	-10.6	-21.8	735.4	0.020	0.000	22.2	11	-9.7	19.6	2.71	 .0720	24	1	100.0	1
11/27/24	14:29	-10.5	-10.4	-10.5	74	-14.2	23.5	SE	0.39	25.2	SE	-21.7	-10.6	-21.8	735.4	0.020	0.000	22.2	11	-9.7	19.6	2.71	 .0720	23	1	100.0	1
11/27/24	14:30	-10.5	-10.5	-10.5	74	-14.2	24.3	SE	0.41	27.8	SE	-21.9	-10.6	-22.0	735.4	0.020	0.000	22.2	11	-9.7	19.6	2.71	 .0720	24	1	100.0	1
11/27/24	14:31	-10.5	-10.5	-10.5	74	-14.2	23.5	SE	0.39	27.8	SE	-21.7	-10.6	-21.8	735.4	0.020	0.000	22.2	11	-9.7	19.6	2.71	 .0720	23	1	100.0	1
11/27/24	14:32	-10.6	-10.5	-10.6	74	-14.3	26.1	SE	0.43	30.4	SE	-22.3	-10.7	-22.4	735.4	0.020	0.000	22.2	11	-9.7	19.6	2.71	 .0720	23	1	100.0	1
11/27/24	14:33	-10.6	-10.6	-10.6	74	-14.3	22.6	SE	0.38	26.1	SE	-21.7	-10.7	-21.8	735.4	0.020	0.000	22.2	11	-9.7	19.6	2.71	 .0720	24	1	100.0	1
11/27/24	14:34	-10.6	-10.6	-10.6	74	-14.3	24.3	SE	0.41	27.0	SE	-22.1	-10.7	-22.2	735.4	0.020	0.000	22.2	11	-9.7	19.6	2.71	 .0720	23	1	100.0	1
11/27/24	14:35	-10.6	-10.6	-10.7	74	-14.3	26.1	SE	0.43	31.3	SE	-22.3	-10.7	-22.4	735.3	0.020	0.000	22.2	11	-9.7	19.6	2.71	 .0720	24	1	100.0	1
11/27/24	14:36	-10.6	-10.6	-10.6	74	-14.3	26.1	SE	0.43	28.7	SE	-22.3	-10.7	-22.4	735.4	0.020	0.000	22.2	11	-9.7	19.6	2.71	 .0720	23	1	100.0	1
11/27/24	14:37	-10.6	-10.6	-10.6	75	-14.1	24.3	SE	0.41	29.6	SE	-21.9	-10.7	-22.1	735.3	0.020	0.000	22.2	11	-9.7	19.6	2.71	 .0720	24	1	100.0	1
11/27/24	14:38	-10.6	-10.6	-10.6	74	-14.3	23.5	SE	0.39	25.2	SE	-21.8	-10.7	-21.9	735.4	0.020	0.000	22.2	11	-9.7	19.6	2.71	 .0720	23	1	100.0	1
11/27/24	14:39	-10.6	-10.6	-10.6	75	-14.2	24.3	SE	0.41	27.0	SE	-22.1	-10.7	-22.2	735.4	0.020	0.000	22.2	11	-9.7	19.6	2.71	 .0720	23	1	100.0	1
11/27/24	14:40	-10.7	-10.6	-10.7	75	-14.2	25.2	SE	0.42	27.8	SE	-22.3	-10.8	-22.4	735.4	0.020	0.000	22.2	11	-9.7	19.6	2.71	 .0720	24	1	100.0	1
11/27/24	14:41	-10.7	-10.7	-10.7	75	-14.2	23.5	SE	0.39	25.2	SE	-21.9	-10.8	-22.1	735.4	0.020	0.000	22.2	11	-9.7	19.6	2.71	 .0720	23	1	100.0	1
11/27/24	14:42	-10.7	-10.7	-10.7	75	-14.3	22.6	SE	0.38	24.3	SE	-21.8	-10.8	-21.9	735.4	0.020	0.000	22.2	11	-9.7	19.6	2.71	 .0720	24	1	100.0	1
11/27/24	14:43	-10.7	-10.7	-10.7	75	-14.3	24.3	SE	0.41	26.1	SE	-22.2	-10.8	-22.3	735.4	0.020	0.000	22.1	11	-9.8	19.6	2.71	 .0720	23	1	100.0	1
11/27/24	14:44	-10.8	-10.7	-10.8	75	-14.3	25.2	SE	0.42	27.8	SE	-22.4	-10.9	-22.6	735.3	0.020	0.000	22.1	11	-9.8	19.6	2.71	 .0720	23	1	100.0	1
11/27/24	14:45	-10.8	-10.8	-10.8	75	-14.3	25.2	SE	0.42	30.4	SE	-22.4	-10.9	-22.6	735.3	0.020	0.000	22.1	11	-9.8	19.6	2.71	 .0720	24	1	100.0	1
11/27/24	14:46	-10.7	-10.7	-10.8	75	-14.3	24.3	SE	0.41	27.8	SE	-22.2	-10.8	-22.3	735.3	0.020	0.000	22.1	11	-9.8	19.6	2.71	 .0720	23	1	100.0	1
11/27/24	14:47	-10.7	-10.7	-10.7	75	-14.2	23.5	SE	0.39	25.2	SE	-21.9	-10.8	-22.1	735.3	0.020	0.000	22.1	11	-9.8	19.6	2.71	 .0720	24	1	100.0	1
11/27/24	14:48	-10.7	-10.7	-10.7	75	-14.2	22.6	SE	0.38	24.3	SE	-21.8	-10.8	-21.9	735.4	0.020	0.000	22.1	11	-9.8	19.6	2.71	 .0720	23	1	100.0	1
11/27/24	14:49	-10.7	-10.7	-10.7	75	-14.2	23.5	SE	0.39	24.3	SE	-21.9	-10.8	-22.1	735.4	0.020	0.000	22.1	11	-9.8	19.4	2.72	 .0721	24	1	100.0	1
11/27/24	14:50	-10.7	-10.7	-10.7	75	-14.3	24.3	SE	0.41	27.0	ESE	-22.2	-10.8	-22.3	735.3	0.020	0.000	22.1	11	-9.8	19.4	2.72	 .0720	23	1	100.0	1
11/27/24	14:51	-10.7	-10.7	-10.7	75	-14.3	26.1	ESE	0.43	29.6	SE	-22.5	-10.8	-22.6	735.4	0.020	0.000	22.1	11	-9.8	19.4	2.72	 .0721	23	1	100.0	1
11/27/24	14:52	-10.7	-10.7	-10.7	75	-14.3	25.2	SE	0.42	28.7	SE	-22.3	-10.8	-22.4	735.3	0.020	0.000	22.1	11	-9.8	19.4	2.72	 .0720	24	1	100.0	1
11/27/24	14:53	-10.8	-10.7	-10.8	75	-14.3	24.3	SE	0.41	27.8	SE	-22.3	-10.9	-22.4	735.4	0.020	0.000	22.1	11	-9.8	19.4	2.72	 .0721	23	1	100.0	1
11/27/24	14:54	-10.8	-10.7	-10.8	75	-14.3	23.5	ESE	0.39	25.2	ESE	-22.1	-10.9	-22.2	735.4	0.020	0.000	22.0	11	-9.9	19.4	2.72	 .0721	24	1	100.0	1
11/27/24	14:55	-10.8	-10.8	-10.8	75	-14.3	25.2	SE	0.42	28.7	SE	-22.4	-10.9	-22.6	735.4	0.020	0.000	22.0	11	-9.9	19.4	2.72	 .0721	23	1	100.0	1
11/27/24	14:56	-10.8	-10.8	-10.8	75	-14.3	24.3	SE	0.41	28.7	SE	-22.3	-10.9	-22.4	735.4	0.020	0.000	22.0	11	-9.9	19.4	2.72	 .0721	23	1	100.0	1
11/27/24	14:57	-10.7	-10.7	-10.8	75	-14.3	26.1	SE	0.43	27.8	SE	-22.5	-10.8	-22.6	735.3	0.020	0.000	22.0	11	-9.9	19.4	2.72	 .0721	24	1	100.0	1
11/27/24	14:58	-10.7	-10.7	-10.7	75	-14.3	25.2	SE	0.42	27.0	SE	-22.3	-10.8	-22.4	735.3	0.020	0.000	21.9	11	-9.9	19.3	2.72	 .0721	23	1	100.0	1
11/27/24	14:59	-10.7	-10.7	-10.7	75	-14.3	24.3	SE	0.41	26.1	SE	-22.2	-10.8	-22.3	735.4	0.020	0.000	21.9	11	-9.9	19.3	2.72	 .0721	24	1	100.0	1
11/27/24	15:00	-10.7	-10.7	-10.7	75	-14.2	24.3	SE	0.41	26.1	SE	-22.1	-10.8	-22.2	735.4	0.020	0.000	21.9	11	-9.9	19.3	2.72	 .0721	23	1	100.0	1
11/27/24	15:01	-10.7	-10.7	-10.7	75	-14.3	26.1	SE	0.43	27.0	SE	-22.5	-10.8	-22.6	735.3	0.020	0.000	21.9	11	-9.9	19.3	2.72	 .0721	24	1	100.0	1
11/27/24	15:02	-10.8	-10.7	-10.8	75	-14.3	25.2	SE	0.42	27.0	SE	-22.4	-10.9	-22.6	735.3	0.020	0.000	21.9	11	-9.9	19.3	2.72	 .0721	23	1	100.0	1
11/27/24	15:03	-10.8	-10.8	-10.8	75	-14.3	27.8	SE	0.46	28.7	SE	-22.9	-10.9	-23.0	735.4	0.020	0.000	21.9	11	-9.9	19.3	2.72	 .0721	23	1	100.0	1
11/27/24	15:04	-10.8	-10.8	-10.8	75	-14.3	26.1	SE	0.43	27.8	SE	-22.6	-10.9	-22.7	735.3	0.020	0.000	21.9	11	-9.9	19.2	2.72	 .0721	24	1	100.0	1
11/27/24	15:05	-10.8	-10.8	-10.8	75	-14.4	27.0	SE	0.45	29.6	SE	-22.8	-10.9	-22.9	735.3	0.020	0.000	21.9	11	-9.9	19.2	2.72	 .0721	23	1	100.0	1
11/27/24	15:06	-10.8	-10.8	-10.8	75	-14.3	24.3	SE	0.41	27.8	SE	-22.3	-10.9	-22.4	735.4	0.020	0.000	21.9	11	-9.9	19.2	2.72	 .0721	24	1	100.0	1
11/27/24	15:07	-10.8	-10.8	-10.8	75	-14.3	23.5	SSE	0.39	28.7	SSE	-22.1	-10.9	-22.2	735.5	0.020	0.000	21.9	11	-9.9	19.2	2.72	 .0721	23	1	100.0	1
11/27/24	15:08	-10.8	-10.8	-10.8	75	-14.3	26.1	SE	0.43	27.8	SE	-22.6	-10.9	-22.7	735.4	0.020	0.000	21.9	11	-9.9	19.2	2.72	 .0721	23	1	100.0	1
11/27/24	15:09	-10.8	-10.8	-10.8	75	-14.4	26.1	SE	0.43	28.7	SE	-22.7	-10.9	-22.8	735.3	0.020	0.000	21.9	11	-9.9	19.2	2.72	 .0721	24	1	100.0	1
11/27/24	15:10	-10.9	-10.8	-10.9	75	-14.5	26.1	SE	0.43	28.7	SSE	-22.7	-11.0	-22.8	735.3	0.020	0.000	21.8	11	-10.0	19.2	2.72	 .0721	23	1	100.0	1
11/27/24	15:11	-10.9	-10.8	-10.9	75	-14.5	27.8	SE	0.46	33.9	SSE	-23.1	-11.0	-23.2	735.3	0.020	0.000	21.9	11	-9.9	19.2	2.72	 .0721	24	1	100.0	1
11/27/24	15:12	-10.8	-10.8	-10.9	75	-14.4	28.7	SE	0.48	32.2	SSE	-23.1	-10.9	-23.2	735.2	0.020	0.000	21.9	11	-9.9	19.2	2.72	 .0721	23	1	100.0	1
11/27/24	15:13	-10.7	-10.7	-10.8	76	-14.1	30.4	SSE	0.51	33.0	SSE	-23.2	-10.8	-23.3	735.2	0.020	0.000	21.9	11	-9.9	19.2	2.72	 .0721	24	1	100.0	1
11/27/24	15:14	-10.7	-10.7	-10.7	75	-14.3	28.7	SE	0.48	31.3	SSE	-22.9	-10.8	-23.1	735.2	0.020	0.000	21.9	11	-9.9	19.2	2.72	 .0721	23	1	100.0	1
11/27/24	15:15	-10.8	-10.7	-10.8	75	-14.3	27.8	SE	0.46	31.3	SE	-22.9	-10.9	-23.0	735.3	0.020	0.000	21.9	11	-9.9	19.2	2.72	 .0721	23	1	100.0	1
11/27/24	15:16	-10.8	-10.8	-10.8	75	-14.4	29.6	SE	0.49	31.3	SE	-23.2	-10.9	-23.3	735.2	0.020	0.000	21.9	11	-9.9	19.2	2.72	 .0721	24	1	100.0	1
11/27/24	15:17	-10.8	-10.8	-10.8	75	-14.4	29.6	SE	0.49	31.3	SE	-23.2	-10.9	-23.3	735.2	0.020	0.000	21.9	11	-9.9	19.2	2.72	 .0721	23	1	100.0	1
11/27/24	15:18	-10.8	-10.8	-10.8	75	-14.3	27.8	SSE	0.46	31.3	SSE	-22.9	-10.9	-23.0	735.2	0.020	0.000	21.9	11	-9.9	19.2	2.72	 .0721	24	1	100.0	1
11/27/24	15:19	-10.8	-10.8	-10.8	75	-14.4	27.8	SSE	0.46	30.4	SSE	-22.9	-10.9	-23.1	735.3	0.020	0.000	21.9	11	-9.9	19.3	2.72	 .0721	23	1	100.0	1
11/27/24	15:20	-10.8	-10.8	-10.8	76	-14.2	27.8	SE	0.46	28.7	SE	-22.9	-10.9	-23.1	735.3	0.020	0.000	21.9	11	-9.9	19.3	2.72	 .0721	23	1	100.0	1
11/27/24	15:21	-10.8	-10.8	-10.8	76	-14.2	27.8	SE	0.46	29.6	SSE	-22.9	-10.9	-23.1	735.3	0.020	0.000	22.0	11	-9.9	19.4	2.72	 .0721	24	1	100.0	1
11/27/24	15:22	-10.8	-10.8	-10.8	76	-14.2	30.4	SSE	0.51	34.8	SSE	-23.3	-10.9	-23.4	735.2	0.020	0.000	21.9	11	-9.9	19.3	2.72	 .0721	23	1	100.0	1
11/27/24	15:23	-10.7	-10.7	-10.8	76	-14.1	27.0	SE	0.45	28.7	SE	-22.7	-10.8	-22.8	735.3	0.020	0.000	22.0	11	-9.9	19.4	2.72	 .0721	24	1	100.0	1
11/27/24	15:24	-10.7	-10.7	-10.7	75	-14.3	27.8	SE	0.46	29.6	SE	-22.8	-10.8	-22.9	735.3	0.020	0.000	22.0	11	-9.9	19.4	2.72	 .0721	23	1	100.0	1
11/27/24	15:25	-10.7	-10.7	-10.7	75	-14.3	28.7	SE	0.48	29.6	SE	-22.9	-10.8	-23.1	735.3	0.020	0.000	22.0	11	-9.9	19.4	2.72	 .0721	23	1	100.0	1
11/27/24	15:26	-10.7	-10.7	-10.7	75	-14.3	28.7	SSE	0.48	30.4	SE	-22.9	-10.8	-23.1	735.3	0.020	0.000	22.0	11	-9.9	19.4	2.72	 .0721	24	1	100.0	1
11/27/24	15:27	-10.7	-10.7	-10.7	75	-14.3	27.0	SE	0.45	29.6	SSE	-22.7	-10.8	-22.8	735.3	0.020	0.000	22.1	11	-9.8	19.4	2.72	 .0720	23	1	100.0	1
11/27/24	15:28	-10.7	-10.7	-10.7	75	-14.3	27.0	SSE	0.45	28.7	SSE	-22.7	-10.8	-22.8	735.4	0.020	0.000	22.1	11	-9.8	19.4	2.72	 .0720	24	1	100.0	1
11/27/24	15:29	-10.7	-10.7	-10.7	75	-14.3	27.8	SSE	0.46	29.6	SSE	-22.8	-10.8	-22.9	735.3	0.020	0.000	22.1	11	-9.8	19.4	2.72	 .0720	23	1	100.0	1
11/27/24	15:30	-10.7	-10.7	-10.7	75	-14.2	27.8	SE	0.46	31.3	SSE	-22.7	-10.8	-22.8	735.3	0.020	0.000	22.1	11	-9.8	19.4	2.72	 .0720	24	1	100.0	1
11/27/24	15:31	-10.6	-10.6	-10.7	76	-14.0	27.8	SSE	0.46	31.3	SE	-22.7	-10.7	-22.8	735.3	0.020	0.000	22.1	11	-9.8	19.4	2.72	 .0720	23	1	100.0	1
11/27/24	15:32	-10.6	-10.6	-10.6	75	-14.1	27.8	SE	0.46	33.0	SSE	-22.6	-10.7	-22.7	735.3	0.020	0.000	22.1	11	-9.8	19.4	2.72	 .0720	23	1	100.0	1
11/27/24	15:33	-10.6	-10.6	-10.6	75	-14.1	28.7	SSE	0.48	31.3	SSE	-22.7	-10.7	-22.8	735.3	0.020	0.000	22.1	11	-9.8	19.4	2.72	 .0720	24	1	100.0	1
11/27/24	15:34	-10.5	-10.5	-10.6	75	-14.1	27.8	SSE	0.46	31.3	SSE	-22.5	-10.6	-22.6	735.4	0.020	0.000	22.1	11	-9.8	19.4	2.72	 .0721	23	1	100.0	1
11/27/24	15:35	-10.5	-10.5	-10.5	75	-14.1	29.6	SE	0.49	31.3	SSE	-22.8	-10.6	-22.9	735.3	0.020	0.000	22.1	11	-9.8	19.4	2.72	 .0720	24	1	100.0	1
11/27/24	15:36	-10.4	-10.4	-10.5	75	-14.0	29.6	SE	0.49	32.2	SSE	-22.7	-10.6	-22.8	735.3	0.020	0.000	22.1	11	-9.8	19.4	2.72	 .0720	23	1	100.0	1
11/27/24	15:37	-10.4	-10.4	-10.4	75	-14.0	27.0	SE	0.45	29.6	SE	-22.3	-10.6	-22.4	735.3	0.020	0.000	22.1	11	-9.8	19.4	2.72	 .0720	23	1	100.0	1
11/27/24	15:38	-10.4	-10.4	-10.4	75	-14.0	27.8	SE	0.46	29.6	SE	-22.3	-10.5	-22.4	735.4	0.020	0.000	22.1	11	-9.8	19.4	2.72	 .0721	24	1	100.0	1
11/27/24	15:39	-10.4	-10.4	-10.4	75	-14.0	27.8	SE	0.46	31.3	SE	-22.3	-10.5	-22.4	735.4	0.020	0.000	22.0	11	-9.9	19.4	2.72	 .0721	23	1	100.0	1
11/27/24	15:40	-10.4	-10.4	-10.4	75	-14.0	27.8	SE	0.46	30.4	SE	-22.3	-10.5	-22.4	735.4	0.020	0.000	22.0	11	-9.9	19.4	2.72	 .0721	24	1	100.0	1
11/27/24	15:41	-10.4	-10.4	-10.4	75	-14.0	28.7	SE	0.48	32.2	SE	-22.6	-10.6	-22.7	735.4	0.020	0.000	22.0	11	-9.9	19.4	2.72	 .0721	23	1	100.0	1
11/27/24	15:42	-10.4	-10.4	-10.5	75	-14.0	27.8	SE	0.46	29.6	SE	-22.4	-10.6	-22.6	735.4	0.020	0.000	22.0	11	-9.9	19.4	2.72	 .0721	24	1	100.0	1
11/27/24	15:43	-10.4	-10.4	-10.5	74	-14.2	29.6	SE	0.49	32.2	SE	-22.7	-10.6	-22.8	735.4	0.020	0.000	22.0	11	-9.9	19.4	2.72	 .0721	23	1	100.0	1
11/27/24	15:44	-10.5	-10.5	-10.5	75	-14.1	28.7	SE	0.48	32.2	SE	-22.7	-10.6	-22.8	735.4	0.020	0.000	22.0	11	-9.9	19.4	2.72	 .0721	23	1	100.0	1
11/27/24	15:45	-10.4	-10.4	-10.5	74	-14.2	27.8	SE	0.46	30.4	SE	-22.4	-10.6	-22.6	735.4	0.020	0.000	21.9	11	-9.9	19.3	2.72	 .0721	24	1	100.0	1
11/27/24	15:46	-10.4	-10.4	-10.4	75	-14.0	27.8	SE	0.46	32.2	ESE	-22.4	-10.6	-22.6	735.4	0.020	0.000	21.9	11	-9.9	19.3	2.72	 .0721	23	1	100.0	1
11/27/24	15:47	-10.4	-10.4	-10.4	75	-14.0	27.8	SE	0.46	32.2	SE	-22.4	-10.6	-22.6	735.4	0.020	0.000	21.9	11	-9.9	19.3	2.72	 .0721	24	1	100.0	1
11/27/24	15:48	-10.4	-10.4	-10.4	74	-14.1	27.8	SE	0.46	31.3	SE	-22.3	-10.5	-22.4	735.5	0.020	0.000	21.9	11	-9.9	19.3	2.72	 .0721	23	1	100.0	1
11/27/24	15:49	-10.4	-10.4	-10.4	74	-14.1	28.7	SE	0.48	31.3	SE	-22.5	-10.5	-22.6	735.4	0.020	0.000	21.9	11	-9.9	19.3	2.72	 .0721	23	1	100.0	1
11/27/24	15:50	-10.3	-10.3	-10.4	74	-14.1	28.7	SE	0.48	31.3	SE	-22.4	-10.4	-22.6	735.4	0.020	0.000	21.9	11	-9.9	19.3	2.72	 .0721	24	1	100.0	1
11/27/24	15:51	-10.3	-10.3	-10.3	74	-14.0	27.8	SE	0.46	30.4	SE	-22.2	-10.4	-22.3	735.4	0.020	0.000	21.9	11	-9.9	19.3	2.72	 .0721	23	1	100.0	1
11/27/24	15:52	-10.3	-10.3	-10.3	74	-14.0	29.6	SE	0.49	32.2	SE	-22.5	-10.4	-22.6	735.4	0.020	0.000	21.9	11	-9.9	19.2	2.72	 .0721	24	1	100.0	1
11/27/24	15:53	-10.3	-10.3	-10.3	74	-14.0	28.7	SE	0.48	34.8	SE	-22.3	-10.4	-22.4	735.5	0.020	0.000	21.9	11	-9.9	19.2	2.72	 .0721	23	1	100.0	1
11/27/24	15:54	-10.2	-10.2	-10.3	74	-14.0	29.6	SE	0.49	33.0	SE	-22.4	-10.3	-22.5	735.4	0.020	0.000	21.9	11	-9.9	19.2	2.72	 .0721	24	1	100.0	1
11/27/24	15:55	-10.2	-10.2	-10.2	74	-13.9	27.8	SE	0.46	29.6	SE	-22.1	-10.3	-22.2	735.5	0.020	0.000	21.9	11	-9.9	19.2	2.72	 .0721	23	1	100.0	1
11/27/24	15:56	-10.2	-10.2	-10.2	74	-14.0	27.0	SE	0.45	30.4	ESE	-22.0	-10.3	-22.1	735.5	0.020	0.000	21.9	11	-9.9	19.2	2.72	 .0721	23	1	100.0	1
11/27/24	15:57	-10.2	-10.2	-10.2	74	-13.9	26.1	ESE	0.43	30.4	ESE	-21.8	-10.3	-21.9	735.5	0.020	0.000	21.9	11	-9.9	19.2	2.72	 .0721	24	1	100.0	1
11/27/24	15:58	-10.2	-10.2	-10.2	74	-13.9	27.8	SE	0.46	31.3	SE	-22.1	-10.3	-22.2	735.4	0.020	0.000	21.9	11	-9.9	19.2	2.72	 .0721	23	1	100.0	1
11/27/24	15:59	-10.2	-10.2	-10.2	74	-13.9	27.8	SE	0.46	30.4	SE	-22.1	-10.3	-22.2	735.4	0.020	0.000	21.8	11	-10.0	19.2	2.72	 .0721	24	1	100.0	1
11/27/24	16:00	-10.1	-10.1	-10.2	74	-13.9	28.7	SE	0.48	31.3	SE	-22.1	-10.2	-22.2	735.4	0.020	0.000	21.8	11	-10.0	19.2	2.72	 .0721	23	1	100.0	1
11/27/24	16:01	-10.1	-10.1	-10.1	74	-13.8	27.0	SE	0.45	29.6	ESE	-21.8	-10.2	-21.9	735.5	0.020	0.000	21.8	11	-10.0	19.2	2.72	 .0721	23	1	100.0	1
11/27/24	16:02	-10.0	-10.0	-10.1	74	-13.8	27.0	ESE	0.45	32.2	ESE	-21.7	-10.1	-21.8	735.5	0.020	0.000	21.8	11	-10.0	19.2	2.72	 .0721	24	1	100.0	1
11/27/24	16:03	-10.0	-10.0	-10.0	74	-13.8	27.0	ESE	0.45	29.6	ESE	-21.7	-10.1	-21.8	735.5	0.020	0.000	21.8	11	-10.0	19.2	2.72	 .0721	23	1	100.0	1
11/27/24	16:04	-10.1	-10.0	-10.1	74	-13.8	27.0	ESE	0.45	30.4	SE	-21.8	-10.2	-21.9	735.5	0.020	0.000	21.8	11	-10.0	19.2	2.72	 .0721	24	1	100.0	1
11/27/24	16:05	-10.1	-10.0	-10.1	73	-14.0	26.1	SE	0.43	27.8	ESE	-21.6	-10.2	-21.7	735.5	0.020	0.000	21.8	11	-10.0	19.2	2.72	 .0721	23	1	100.0	1
11/27/24	16:06	-10.0	-10.0	-10.1	73	-13.9	22.6	SE	0.38	26.1	SE	-20.9	-10.1	-21.0	735.5	0.020	0.000	21.8	11	-10.0	19.2	2.72	 .0721	23	1	100.0	1
11/27/24	16:07	-10.0	-10.0	-10.0	73	-13.9	23.5	SE	0.39	27.0	SE	-21.1	-10.1	-21.2	735.5	0.020	0.000	21.8	11	-10.0	19.2	2.72	 .0721	24	1	100.0	1
11/27/24	16:08	-9.9	-9.9	-10.0	73	-13.9	26.1	SE	0.43	28.7	ESE	-21.4	-10.1	-21.6	735.6	0.020	0.000	21.9	11	-9.9	19.2	2.72	 .0721	23	1	100.0	1
11/27/24	16:09	-9.8	-9.8	-9.9	73	-13.8	26.1	SE	0.43	30.4	SE	-21.3	-9.9	-21.4	735.5	0.020	0.000	21.9	11	-9.9	19.2	2.72	 .0721	24	1	100.0	1
11/27/24	16:10	-9.8	-9.8	-9.8	73	-13.7	27.0	SE	0.45	30.4	SE	-21.4	-9.9	-21.5	735.5	0.020	0.000	21.9	11	-9.9	19.2	2.72	 .0721	23	1	100.0	1
11/27/24	16:11	-9.7	-9.7	-9.8	72	-13.8	27.8	ESE	0.46	32.2	ESE	-21.4	-9.8	-21.6	735.4	0.019	0.000	21.9	11	-9.9	19.2	2.72	 .0721	24	1	100.0	1
11/27/24	16:12	-9.6	-9.6	-9.7	72	-13.7	27.8	ESE	0.46	29.6	SE	-21.3	-9.8	-21.4	735.5	0.019	0.000	21.9	11	-9.9	19.3	2.72	 .0721	23	1	100.0	1
11/27/24	16:13	-9.6	-9.6	-9.6	72	-13.7	25.2	SE	0.42	27.8	ESE	-20.8	-9.7	-20.9	735.5	0.019	0.000	21.9	11	-9.9	19.3	2.72	 .0721	23	1	100.0	1
11/27/24	16:14	-9.5	-9.5	-9.6	72	-13.6	26.1	SE	0.43	27.8	SE	-20.8	-9.7	-21.0	735.5	0.019	0.000	21.9	11	-9.9	19.3	2.72	 .0721	24	1	100.0	1
11/27/24	16:15	-9.4	-9.4	-9.5	71	-13.7	25.2	SE	0.42	27.8	SE	-20.6	-9.6	-20.8	735.5	0.019	0.000	21.9	11	-9.9	19.3	2.72	 .0721	23	1	100.0	1
11/27/24	16:16	-9.4	-9.4	-9.4	71	-13.7	24.3	SE	0.41	27.0	SE	-20.4	-9.6	-20.6	735.6	0.019	0.000	22.0	11	-9.9	19.4	2.72	 .0721	24	1	100.0	1
11/27/24	16:17	-9.4	-9.4	-9.4	71	-13.7	25.2	SE	0.42	28.7	ESE	-20.6	-9.6	-20.8	735.5	0.019	0.000	22.0	11	-9.9	19.4	2.72	 .0721	23	1	100.0	1
11/27/24	16:18	-9.4	-9.4	-9.4	71	-13.7	26.1	SE	0.43	29.6	SE	-20.7	-9.6	-20.9	735.5	0.019	0.000	22.0	11	-9.9	19.4	2.72	 .0721	24	1	100.0	1
11/27/24	16:19	-9.4	-9.4	-9.4	71	-13.7	24.3	SE	0.41	25.2	SE	-20.4	-9.6	-20.6	735.6	0.019	0.000	22.0	11	-9.9	19.4	2.72	 .0721	23	1	100.0	1
11/27/24	16:20	-9.4	-9.4	-9.4	71	-13.7	24.3	SE	0.41	27.0	ESE	-20.4	-9.6	-20.6	735.6	0.019	0.000	22.1	11	-9.8	19.4	2.72	 .0721	23	1	100.0	1
11/27/24	16:21	-9.4	-9.4	-9.4	71	-13.7	26.1	SE	0.43	27.8	E	-20.8	-9.6	-20.9	735.6	0.019	0.000	22.1	11	-9.8	19.4	2.72	 .0721	24	1	100.0	1
11/27/24	16:22	-9.4	-9.4	-9.4	71	-13.7	25.2	SE	0.42	27.0	SE	-20.6	-9.6	-20.8	735.5	0.019	0.000	22.0	11	-9.9	19.4	2.72	 .0721	23	1	100.0	1
11/27/24	16:23	-9.6	-9.5	-9.6	71	-13.8	23.5	ESE	0.39	26.1	ESE	-20.4	-9.7	-20.6	735.6	0.019	0.000	22.1	11	-9.8	19.4	2.72	 .0721	24	1	100.0	1
11/27/24	16:24	-9.6	-9.6	-9.6	71	-13.9	24.3	ESE	0.41	25.2	ESE	-20.7	-9.8	-20.8	735.5	0.019	0.000	22.1	11	-9.8	19.4	2.72	 .0721	23	1	100.0	1
11/27/24	16:25	-9.7	-9.6	-9.7	71	-13.9	23.5	ESE	0.39	24.3	ESE	-20.6	-9.8	-20.8	735.5	0.019	0.000	22.1	11	-9.8	19.4	2.72	 .0721	23	1	100.0	1
11/27/24	16:26	-9.7	-9.7	-9.7	71	-14.0	23.5	ESE	0.39	24.3	ESE	-20.7	-9.9	-20.8	735.6	0.019	0.000	22.0	11	-9.9	19.4	2.72	 .0721	24	1	100.0	1
11/27/24	16:27	-9.8	-9.7	-9.8	71	-14.1	23.5	ESE	0.39	25.2	ESE	-20.8	-10.0	-21.0	735.6	0.020	0.000	22.0	11	-9.9	19.4	2.72	 .0721	23	1	100.0	1
11/27/24	16:28	-9.9	-9.8	-9.9	72	-14.0	21.7	ESE	0.36	23.5	ESE	-20.6	-10.1	-20.7	735.6	0.020	0.000	22.0	11	-9.9	19.4	2.72	 .0721	24	1	100.0	1
11/27/24	16:29	-9.9	-9.9	-9.9	72	-14.0	23.5	ESE	0.39	25.2	ESE	-20.9	-10.1	-21.1	735.6	0.020	0.000	22.0	11	-9.9	19.4	2.72	 .0721	23	1	100.0	1
11/27/24	16:30	-9.8	-9.8	-9.9	72	-13.9	21.7	ESE	0.36	24.3	ESE	-20.4	-9.9	-20.6	735.6	0.020	0.000	22.0	11	-9.9	19.4	2.72	 .0721	23	1	100.0	1
11/27/24	16:31	-9.7	-9.7	-9.8	72	-13.8	22.6	ESE	0.38	23.5	ESE	-20.5	-9.9	-20.7	735.6	0.019	0.000	22.0	11	-9.9	19.4	2.72	 .0721	24	1	100.0	1
11/27/24	16:32	-9.7	-9.7	-9.7	72	-13.8	21.7	ESE	0.36	23.5	ESE	-20.3	-9.9	-20.5	735.6	0.019	0.000	22.0	11	-9.9	19.4	2.72	 .0721	23	1	100.0	1
11/27/24	16:33	-9.7	-9.7	-9.7	72	-13.8	20.9	ESE	0.35	22.6	ESE	-20.1	-9.8	-20.3	735.6	0.019	0.000	22.0	11	-9.9	19.4	2.72	 .0721	24	1	100.0	1
11/27/24	16:34	-9.8	-9.7	-9.8	72	-13.9	20.0	ESE	0.33	21.7	ESE	-20.1	-9.9	-20.2	735.7	0.020	0.000	22.0	11	-9.9	19.4	2.72	 .0721	23	1	100.0	1
11/27/24	16:35	-9.8	-9.8	-9.8	71	-14.1	20.9	ESE	0.35	22.6	ESE	-20.2	-9.9	-20.4	735.7	0.020	0.000	22.0	11	-9.9	19.4	2.72	 .0721	24	1	100.0	1
11/27/24	16:36	-9.8	-9.8	-9.8	72	-13.9	21.7	ESE	0.36	22.6	ESE	-20.4	-9.9	-20.6	735.7	0.020	0.000	21.9	11	-9.9	19.3	2.72	 .0721	23	1	100.0	1
11/27/24	16:37	-9.7	-9.7	-9.8	72	-13.8	20.9	ESE	0.35	24.3	ESE	-20.2	-9.9	-20.3	735.7	0.019	0.000	21.9	11	-9.9	19.3	2.72	 .0721	23	1	100.0	1
11/27/24	16:38	-9.7	-9.7	-9.7	72	-13.8	19.1	ESE	0.32	22.6	ESE	-19.7	-9.8	-19.9	735.7	0.019	0.000	21.9	11	-9.9	19.3	2.72	 .0721	24	1	100.0	1
11/27/24	16:39	-9.6	-9.6	-9.7	72	-13.7	19.1	ESE	0.32	20.9	ESE	-19.6	-9.8	-19.8	735.7	0.019	0.000	21.9	11	-9.9	19.3	2.72	 .0721	23	1	100.0	1
11/27/24	16:40	-9.6	-9.6	-9.6	72	-13.7	20.0	ESE	0.33	20.9	ESE	-19.8	-9.8	-20.0	735.6	0.019	0.000	21.9	11	-9.9	19.3	2.72	 .0721	24	1	100.0	1
11/27/24	16:41	-9.6	-9.6	-9.6	72	-13.7	20.0	ESE	0.33	21.7	ESE	-19.8	-9.7	-19.9	735.6	0.019	0.000	21.9	11	-9.9	19.3	2.72	 .0721	23	1	100.0	1
11/27/24	16:42	-9.6	-9.6	-9.6	72	-13.7	19.1	ESE	0.32	20.9	ESE	-19.6	-9.8	-19.8	735.6	0.019	0.000	21.9	11	-9.9	19.2	2.72	 .0721	23	1	100.0	1
11/27/24	16:43	-9.6	-9.6	-9.6	71	-13.8	20.0	ESE	0.33	22.6	ESE	-19.8	-9.7	-19.9	735.6	0.019	0.000	21.9	11	-9.9	19.2	2.72	 .0721	24	1	100.0	1
11/27/24	16:44	-9.6	-9.6	-9.6	71	-13.8	19.1	ESE	0.32	20.9	ESE	-19.6	-9.7	-19.7	735.7	0.019	0.000	21.9	10	-11.2	19.2	2.49	 .0721	23	1	100.0	1
11/27/24	16:45	-9.5	-9.5	-9.6	71	-13.8	20.9	ESE	0.35	24.3	ESE	-19.9	-9.7	-20.1	735.6	0.019	0.000	21.9	11	-9.9	19.2	2.72	 .0721	24	1	100.0	1
11/27/24	16:46	-9.5	-9.5	-9.5	71	-13.8	20.0	ESE	0.33	23.5	ESE	-19.7	-9.7	-19.8	735.6	0.019	0.000	21.9	10	-11.2	19.2	2.49	 .0721	23	1	100.0	1
11/27/24	16:47	-9.4	-9.4	-9.4	71	-13.7	20.9	ESE	0.35	22.6	ESE	-19.8	-9.6	-19.9	735.6	0.019	0.000	21.9	11	-9.9	19.2	2.72	 .0721	24	1	100.0	1
11/27/24	16:48	-9.4	-9.4	-9.4	70	-13.9	20.0	ESE	0.33	21.7	ESE	-19.6	-9.6	-19.7	735.6	0.019	0.000	21.8	11	-10.0	19.2	2.72	 .0721	23	1	100.0	1
11/27/24	16:49	-9.3	-9.3	-9.4	70	-13.8	20.0	ESE	0.33	22.6	ESE	-19.4	-9.5	-19.6	735.6	0.019	0.000	21.8	11	-10.0	19.2	2.72	 .0721	23	1	100.0	1
11/27/24	16:50	-9.3	-9.3	-9.3	70	-13.8	20.0	ESE	0.33	21.7	ESE	-19.4	-9.5	-19.6	735.6	0.019	0.000	21.8	11	-10.0	19.2	2.72	 .0721	24	1	100.0	1
11/27/24	16:51	-9.4	-9.3	-9.4	70	-13.9	21.7	ESE	0.36	24.3	ESE	-19.9	-9.6	-20.1	735.6	0.019	0.000	21.8	11	-10.0	19.2	2.72	 .0721	23	1	100.0	1
11/27/24	16:52	-9.4	-9.4	-9.4	70	-13.9	20.9	ESE	0.35	22.6	ESE	-19.7	-9.6	-19.9	735.6	0.019	0.000	21.8	11	-10.0	19.2	2.72	 .0721	24	1	100.0	1
11/27/24	16:53	-9.3	-9.3	-9.4	70	-13.8	20.9	ESE	0.35	22.6	ESE	-19.7	-9.5	-19.8	735.6	0.019	0.000	21.8	11	-10.0	19.2	2.72	 .0721	23	1	100.0	1
11/27/24	16:54	-9.3	-9.3	-9.3	70	-13.8	20.9	ESE	0.35	23.5	ESE	-19.7	-9.5	-19.8	735.6	0.019	0.000	21.8	11	-10.0	19.1	2.73	 .0721	23	1	100.0	1
11/27/24	16:55	-9.3	-9.3	-9.4	70	-13.8	22.6	ESE	0.38	25.2	ESE	-20.0	-9.5	-20.2	735.6	0.019	0.000	21.8	11	-10.0	19.2	2.72	 .0721	24	1	100.0	1
11/27/24	16:56	-9.3	-9.3	-9.4	70	-13.8	20.0	ESE	0.33	21.7	ESE	-19.4	-9.5	-19.6	735.6	0.019	0.000	21.8	11	-10.0	19.1	2.73	 .0721	23	1	100.0	1
11/27/24	16:57	-9.2	-9.2	-9.3	70	-13.7	18.3	ESE	0.30	20.9	ESE	-18.9	-9.4	-19.1	735.6	0.019	0.000	21.8	11	-10.0	19.2	2.72	 .0721	24	1	100.0	1
11/27/24	16:58	-9.3	-9.2	-9.3	70	-13.7	19.1	ESE	0.32	22.6	ESE	-19.2	-9.4	-19.3	735.6	0.019	0.000	21.8	11	-10.0	19.2	2.72	 .0721	23	1	100.0	1
11/27/24	16:59	-9.3	-9.3	-9.3	70	-13.8	19.1	SE	0.32	21.7	SE	-19.3	-9.5	-19.4	735.6	0.019	0.000	21.8	11	-10.0	19.2	2.72	 .0721	23	1	100.0	1
11/27/24	17:00	-9.4	-9.3	-9.4	70	-13.9	19.1	SE	0.32	21.7	SE	-19.3	-9.6	-19.5	735.6	0.019	0.000	21.8	11	-10.0	19.2	2.72	 .0721	24	1	100.0	1
11/27/24	17:01	-9.4	-9.3	-9.4	70	-13.9	19.1	SE	0.32	20.0	SE	-19.3	-9.6	-19.5	735.6	0.019	0.000	21.8	11	-10.0	19.2	2.72	 .0721	23	1	100.0	1
11/27/24	17:02	-9.4	-9.4	-9.4	70	-13.9	20.0	SE	0.33	24.3	ESE	-19.6	-9.6	-19.7	735.6	0.019	0.000	21.8	11	-10.0	19.2	2.72	 .0721	24	1	100.0	1
11/27/24	17:03	-9.4	-9.4	-9.4	70	-13.9	21.7	ESE	0.36	24.3	ESE	-19.9	-9.6	-20.1	735.6	0.019	0.000	21.9	11	-9.9	19.2	2.72	 .0721	23	1	100.0	1
11/27/24	17:04	-9.3	-9.3	-9.4	70	-13.7	18.3	ESE	0.30	21.7	ESE	-19.0	-9.4	-19.2	735.6	0.019	0.000	21.9	11	-9.9	19.2	2.72	 .0721	24	1	100.0	1
11/27/24	17:05	-9.3	-9.3	-9.3	70	-13.7	21.7	ESE	0.36	24.3	ESE	-19.7	-9.4	-19.9	735.6	0.019	0.000	21.9	11	-9.9	19.2	2.72	 .0721	23	1	100.0	1
11/27/24	17:06	-9.3	-9.2	-9.3	70	-13.7	21.7	ESE	0.36	24.3	ESE	-19.7	-9.4	-19.9	735.6	0.019	0.000	21.9	11	-9.9	19.2	2.72	 .0721	23	1	100.0	1
11/27/24	17:07	-9.3	-9.2	-9.3	70	-13.7	20.9	ESE	0.35	23.5	ESE	-19.6	-9.4	-19.7	735.5	0.019	0.000	21.9	11	-9.9	19.3	2.72	 .0721	24	1	100.0	1
11/27/24	17:08	-9.3	-9.3	-9.3	69	-13.9	20.9	ESE	0.35	21.7	ESE	-19.6	-9.4	-19.7	735.6	0.019	0.000	21.9	11	-9.9	19.3	2.72	 .0721	23	1	100.0	1
11/27/24	17:09	-9.3	-9.3	-9.3	69	-13.9	20.0	ESE	0.33	23.5	ESE	-19.4	-9.4	-19.6	735.6	0.019	0.000	21.9	11	-9.9	19.3	2.72	 .0721	24	1	100.0	1
11/27/24	17:10	-9.3	-9.3	-9.3	69	-13.9	20.0	SE	0.33	20.9	SE	-19.4	-9.4	-19.6	735.6	0.019	0.000	21.9	11	-9.9	19.3	2.72	 .0721	23	1	100.0	1
11/27/24	17:11	-9.3	-9.3	-9.3	70	-13.7	20.9	ESE	0.35	22.6	ESE	-19.6	-9.4	-19.7	735.6	0.019	0.000	22.0	11	-9.9	19.4	2.72	 .0721	24	1	100.0	1
11/27/24	17:12	-9.3	-9.3	-9.3	69	-14.0	20.0	ESE	0.33	23.5	ESE	-19.4	-9.5	-19.6	735.6	0.019	0.000	22.0	11	-9.9	19.4	2.72	 .0721	23	1	100.0	1
11/27/24	17:13	-9.3	-9.3	-9.3	69	-14.0	21.7	SE	0.36	24.3	ESE	-19.8	-9.5	-20.0	735.6	0.019	0.000	22.0	11	-9.9	19.4	2.72	 .0721	23	1	100.0	1
11/27/24	17:14	-9.4	-9.4	-9.4	69	-14.0	22.6	SE	0.38	23.5	SE	-20.1	-9.6	-20.2	735.5	0.019	0.000	22.0	10	-11.1	19.3	2.49	 .0721	24	1	100.0	1
11/27/24	17:15	-9.4	-9.4	-9.4	69	-14.0	20.9	ESE	0.35	23.5	ESE	-19.7	-9.6	-19.9	735.5	0.019	0.000	22.0	10	-11.1	19.3	2.49	 .0721	23	1	100.0	1
11/27/24	17:16	-9.4	-9.4	-9.4	70	-13.9	20.0	ESE	0.33	21.7	ESE	-19.6	-9.6	-19.7	735.6	0.019	0.000	22.0	10	-11.1	19.3	2.49	 .0721	24	1	100.0	1
11/27/24	17:17	-9.4	-9.4	-9.4	70	-13.9	20.0	SE	0.33	21.7	SE	-19.6	-9.6	-19.8	735.6	0.019	0.000	22.0	10	-11.1	19.3	2.49	 .0721	23	1	100.0	1
11/27/24	17:18	-9.4	-9.4	-9.4	70	-13.9	19.1	SE	0.32	20.9	SE	-19.4	-9.6	-19.6	735.6	0.019	0.000	22.0	10	-11.1	19.3	2.49	 .0721	23	1	100.0	1
11/27/24	17:19	-9.4	-9.4	-9.4	70	-13.9	19.1	SE	0.32	20.0	ESE	-19.4	-9.6	-19.6	735.6	0.019	0.000	22.0	10	-11.1	19.3	2.49	 .0721	24	1	100.0	1
11/27/24	17:20	-9.4	-9.4	-9.4	70	-13.9	19.1	ESE	0.32	21.7	ESE	-19.4	-9.6	-19.6	735.6	0.019	0.000	21.9	10	-11.1	19.3	2.49	 .0721	23	1	100.0	1
11/27/24	17:21	-9.5	-9.4	-9.5	70	-14.0	19.1	ESE	0.32	20.9	ESE	-19.5	-9.7	-19.7	735.6	0.019	0.000	21.9	10	-11.1	19.3	2.49	 .0721	24	1	100.0	1
11/27/24	17:22	-9.5	-9.4	-9.5	70	-14.0	19.1	ESE	0.32	20.0	ESE	-19.5	-9.7	-19.7	735.7	0.019	0.000	21.9	10	-11.1	19.3	2.49	 .0721	23	1	100.0	1
11/27/24	17:23	-9.6	-9.5	-9.6	70	-14.0	18.3	ESE	0.30	20.0	ESE	-19.4	-9.7	-19.6	735.7	0.019	0.000	21.9	10	-11.1	19.3	2.49	 .0721	23	1	100.0	1
11/27/24	17:24	-9.6	-9.6	-9.6	71	-13.9	19.1	ESE	0.32	22.6	ESE	-19.6	-9.8	-19.8	735.6	0.019	0.000	21.9	10	-11.1	19.3	2.49	 .0721	24	1	100.0	1
11/27/24	17:25	-9.6	-9.6	-9.6	70	-14.1	20.0	ESE	0.33	22.6	ESE	-19.8	-9.8	-20.0	735.6	0.019	0.000	21.9	10	-11.1	19.3	2.49	 .0721	23	1	100.0	1
11/27/24	17:26	-9.6	-9.6	-9.6	70	-14.0	20.0	ESE	0.33	21.7	ESE	-19.8	-9.7	-19.9	735.6	0.019	0.000	21.9	10	-11.1	19.3	2.49	 .0721	24	1	100.0	1
11/27/24	17:27	-9.5	-9.5	-9.5	70	-14.0	19.1	ESE	0.32	21.7	ESE	-19.5	-9.7	-19.7	735.6	0.019	0.000	21.9	10	-11.1	19.3	2.49	 .0721	23	1	100.0	1
11/27/24	17:28	-9.5	-9.5	-9.5	70	-14.0	19.1	ESE	0.32	20.9	ESE	-19.5	-9.7	-19.7	735.6	0.019	0.000	21.9	10	-11.1	19.3	2.49	 .0721	24	1	100.0	1
11/27/24	17:29	-9.4	-9.4	-9.5	70	-13.9	19.1	ESE	0.32	21.7	ESE	-19.4	-9.6	-19.6	735.6	0.019	0.000	21.9	10	-11.2	19.2	2.49	 .0721	23	1	100.0	1
11/27/24	17:30	-9.4	-9.4	-9.4	71	-13.7	19.1	ESE	0.32	21.7	ESE	-19.4	-9.6	-19.6	735.6	0.019	0.000	21.9	10	-11.2	19.2	2.49	 .0721	23	1	100.0	1
11/27/24	17:31	-9.4	-9.4	-9.4	71	-13.7	18.3	ESE	0.30	20.0	ESE	-19.2	-9.6	-19.3	735.6	0.019	0.000	21.9	10	-11.2	19.2	2.49	 .0721	24	1	100.0	1
11/27/24	17:32	-9.4	-9.4	-9.4	71	-13.7	16.5	ESE	0.28	18.3	ESE	-18.7	-9.6	-18.9	735.7	0.019	0.000	21.9	10	-11.2	19.2	2.49	 .0721	23	1	100.0	1
11/27/24	17:33	-9.4	-9.4	-9.4	71	-13.7	17.4	ESE	0.29	18.3	ESE	-18.9	-9.6	-19.1	735.7	0.019	0.000	21.9	10	-11.2	19.2	2.49	 .0721	24	1	100.0	1
11/27/24	17:34	-9.4	-9.4	-9.4	71	-13.7	16.5	ESE	0.28	18.3	ESE	-18.7	-9.6	-18.9	735.7	0.019	0.000	21.8	10	-11.2	19.1	2.50	 .0722	23	1	100.0	1
11/27/24	17:35	-9.4	-9.4	-9.4	71	-13.7	18.3	ESE	0.30	20.9	SE	-19.2	-9.6	-19.3	735.6	0.019	0.000	21.8	10	-11.2	19.1	2.50	 .0722	23	1	100.0	1
11/27/24	17:36	-9.4	-9.4	-9.4	70	-13.9	16.5	ESE	0.28	18.3	ESE	-18.7	-9.6	-18.9	735.6	0.019	0.000	21.8	10	-11.2	19.1	2.50	 .0721	24	1	100.0	1
11/27/24	17:37	-9.4	-9.4	-9.4	70	-13.9	17.4	ESE	0.29	19.1	ESE	-18.9	-9.6	-19.1	735.6	0.019	0.000	21.8	10	-11.2	19.1	2.50	 .0721	23	1	100.0	1
11/27/24	17:38	-9.4	-9.4	-9.4	70	-13.9	17.4	ESE	0.29	19.1	ESE	-18.9	-9.6	-19.1	735.6	0.019	0.000	21.8	10	-11.2	19.1	2.50	 .0721	24	1	100.0	1
11/27/24	17:39	-9.3	-9.3	-9.4	70	-13.7	19.1	ESE	0.32	20.0	ESE	-19.2	-9.4	-19.3	735.6	0.019	0.000	21.8	10	-11.2	19.1	2.50	 .0722	23	1	100.0	1
11/27/24	17:40	-9.2	-9.2	-9.3	70	-13.7	18.3	ESE	0.30	20.0	SE	-18.9	-9.4	-19.1	735.6	0.019	0.000	21.8	10	-11.2	19.1	2.50	 .0721	24	1	100.0	1
11/27/24	17:41	-9.2	-9.2	-9.2	69	-13.8	18.3	SE	0.30	20.0	ESE	-18.8	-9.3	-19.0	735.6	0.019	0.000	21.8	10	-11.2	19.1	2.50	 .0722	23	1	100.0	1
11/27/24	17:42	-9.2	-9.2	-9.2	69	-13.8	19.1	SE	0.32	22.6	SE	-19.1	-9.3	-19.2	735.6	0.019	0.000	21.8	10	-11.2	19.1	2.50	 .0722	23	1	100.0	1
11/27/24	17:43	-9.2	-9.2	-9.2	69	-13.8	17.4	ESE	0.29	19.1	SE	-18.7	-9.3	-18.8	735.6	0.019	0.000	21.8	10	-11.2	19.1	2.50	 .0722	24	1	100.0	1
11/27/24	17:44	-9.2	-9.2	-9.2	69	-13.9	15.7	ESE	0.26	18.3	SE	-18.3	-9.4	-18.4	735.6	0.019	0.000	21.8	10	-11.2	19.1	2.50	 .0722	23	1	100.0	1
11/27/24	17:45	-9.2	-9.2	-9.2	69	-13.8	17.4	ESE	0.29	19.1	SE	-18.7	-9.3	-18.8	735.6	0.019	0.000	21.8	10	-11.2	19.1	2.50	 .0722	24	1	100.0	1
11/27/24	17:46	-9.2	-9.2	-9.2	69	-13.8	18.3	SE	0.30	20.9	SE	-18.8	-9.3	-19.0	735.6	0.019	0.000	21.8	10	-11.2	19.1	2.50	 .0722	23	1	100.0	1
11/27/24	17:47	-9.1	-9.1	-9.2	69	-13.8	18.3	SE	0.30	20.9	SE	-18.8	-9.3	-18.9	735.6	0.019	0.000	21.8	10	-11.2	19.1	2.50	 .0722	23	1	100.0	1
11/27/24	17:48	-9.1	-9.1	-9.1	69	-13.8	18.3	SE	0.30	19.1	SE	-18.8	-9.3	-18.9	735.6	0.019	0.000	21.8	10	-11.2	19.1	2.50	 .0722	24	1	100.0	1
11/27/24	17:49	-9.0	-9.0	-9.1	69	-13.7	16.5	SE	0.28	20.0	SE	-18.2	-9.2	-18.4	735.6	0.019	0.000	21.8	10	-11.2	19.1	2.50	 .0722	23	1	100.0	1
11/27/24	17:50	-8.9	-8.9	-9.0	68	-13.8	20.0	SE	0.33	22.6	SE	-18.9	-9.1	-19.1	735.6	0.019	0.000	21.8	11	-10.0	19.1	2.73	 .0721	24	1	100.0	1
11/27/24	17:51	-8.9	-8.9	-8.9	68	-13.8	18.3	SE	0.30	20.9	SE	-18.6	-9.1	-18.7	735.6	0.019	0.000	21.8	10	-11.2	19.1	2.50	 .0722	23	1	100.0	1
11/27/24	17:52	-8.9	-8.9	-8.9	68	-13.8	17.4	SE	0.29	19.1	SE	-18.3	-9.1	-18.5	735.6	0.019	0.000	21.8	11	-10.0	19.1	2.73	 .0721	24	1	100.0	1
11/27/24	17:53	-9.0	-8.9	-9.0	68	-13.8	17.4	SE	0.29	20.9	SE	-18.4	-9.2	-18.6	735.6	0.019	0.000	21.8	11	-10.0	19.2	2.72	 .0721	23	1	100.0	1
11/27/24	17:54	-9.0	-9.0	-9.0	68	-13.8	17.4	SE	0.29	19.1	SE	-18.4	-9.2	-18.6	735.6	0.019	0.000	21.8	11	-10.0	19.2	2.72	 .0721	23	1	100.0	1
11/27/24	17:55	-9.0	-8.9	-9.0	68	-13.8	18.3	SE	0.30	21.7	SE	-18.6	-9.2	-18.8	735.5	0.019	0.000	21.8	10	-11.2	19.1	2.50	 .0721	24	1	100.0	1
11/27/24	17:56	-8.9	-8.9	-9.0	68	-13.8	16.5	SE	0.28	18.3	SE	-18.2	-9.1	-18.3	735.5	0.019	0.000	21.8	11	-10.0	19.2	2.72	 .0721	23	1	100.0	1
11/27/24	17:57	-8.9	-8.9	-8.9	68	-13.8	18.3	SE	0.30	20.9	SE	-18.6	-9.1	-18.7	735.5	0.019	0.000	21.9	11	-9.9	19.2	2.72	 .0721	24	1	100.0	1
11/27/24	17:58	-9.0	-8.9	-9.0	68	-13.8	19.1	SE	0.32	20.9	SE	-18.8	-9.2	-19.0	735.5	0.019	0.000	21.9	11	-9.9	19.2	2.72	 .0721	23	1	100.0	1
11/27/24	17:59	-9.0	-9.0	-9.0	68	-13.8	17.4	SE	0.29	20.9	SE	-18.4	-9.2	-18.6	735.5	0.019	0.000	21.9	11	-9.9	19.2	2.72	 .0721	23	1	100.0	1
11/27/24	18:00	-9.0	-9.0	-9.0	69	-13.7	19.1	SE	0.32	22.6	SE	-18.8	-9.2	-19.0	735.5	0.019	0.000	21.9	10	-11.1	19.3	2.49	 .0721	24	1	100.0	1
11/27/24	18:01	-9.0	-9.0	-9.0	68	-13.8	18.3	SE	0.30	20.0	SE	-18.6	-9.2	-18.8	735.5	0.019	0.000	21.9	10	-11.1	19.3	2.49	 .0721	23	1	100.0	1
11/27/24	18:02	-9.0	-9.0	-9.0	69	-13.7	19.1	SE	0.32	21.7	SE	-18.8	-9.2	-19.0	735.5	0.019	0.000	21.9	10	-11.1	19.3	2.49	 .0721	24	1	100.0	1
11/27/24	18:03	-9.0	-9.0	-9.0	69	-13.7	18.3	SE	0.30	19.1	SE	-18.6	-9.2	-18.8	735.5	0.019	0.000	21.9	10	-11.1	19.3	2.49	 .0721	23	1	100.0	1
11/27/24	18:04	-9.0	-9.0	-9.0	69	-13.7	20.0	SE	0.33	22.6	SE	-19.0	-9.2	-19.2	735.5	0.019	0.000	21.9	10	-11.1	19.3	2.49	 .0721	23	1	100.0	1
11/27/24	18:05	-8.9	-8.9	-9.0	68	-13.7	18.3	SE	0.30	19.1	SE	-18.5	-9.1	-18.7	735.5	0.019	0.000	21.9	10	-11.1	19.3	2.49	 .0721	24	1	100.0	1
11/27/24	18:06	-8.9	-8.9	-8.9	68	-13.7	18.3	SE	0.30	21.7	SE	-18.5	-9.1	-18.7	735.5	0.019	0.000	21.9	10	-11.1	19.3	2.49	 .0721	23	1	100.0	1
11/27/24	18:07	-8.9	-8.9	-8.9	69	-13.5	22.6	SSE	0.38	24.3	SSE	-19.4	-9.1	-19.6	735.4	0.019	0.000	22.0	10	-11.1	19.3	2.49	 .0721	24	1	100.0	1
11/27/24	18:08	-8.9	-8.9	-8.9	67	-13.9	19.1	SE	0.32	21.7	SE	-18.7	-9.1	-18.8	735.5	0.019	0.000	22.0	10	-11.1	19.3	2.49	 .0721	23	1	100.0	1
11/27/24	18:09	-8.8	-8.8	-8.9	67	-13.9	19.1	SE	0.32	20.9	SSE	-18.6	-9.0	-18.8	735.5	0.019	0.000	21.9	10	-11.1	19.3	2.49	 .0721	24	1	100.0	1
11/27/24	18:10	-8.8	-8.8	-8.8	66	-14.0	20.0	SE	0.33	22.6	SE	-18.8	-9.0	-18.9	735.5	0.019	0.000	21.9	10	-11.1	19.3	2.49	 .0721	23	1	100.0	1
11/27/24	18:11	-8.9	-8.8	-8.9	66	-14.1	20.0	SE	0.33	24.3	ESE	-18.9	-9.1	-19.1	735.5	0.019	0.000	21.9	10	-11.1	19.3	2.49	 .0721	23	1	100.0	1
11/27/24	18:12	-8.9	-8.9	-8.9	66	-14.1	19.1	SE	0.32	20.9	ENE	-18.7	-9.1	-18.8	735.4	0.019	0.000	21.9	10	-11.1	19.3	2.49	 .0721	24	1	100.0	1
11/27/24	18:13	-8.9	-8.9	-8.9	67	-13.9	20.0	SE	0.33	23.5	ESE	-18.9	-9.1	-19.1	735.5	0.019	0.000	21.9	10	-11.1	19.3	2.49	 .0721	23	1	100.0	1
11/27/24	18:14	-8.9	-8.9	-8.9	67	-14.0	19.1	SE	0.32	23.5	SE	-18.8	-9.1	-18.9	735.5	0.019	0.000	21.9	10	-11.1	19.3	2.49	 .0721	24	1	100.0	1
11/27/24	18:15	-8.9	-8.9	-8.9	67	-13.9	20.0	SE	0.33	22.6	SE	-18.9	-9.1	-19.1	735.5	0.019	0.000	21.9	10	-11.1	19.3	2.49	 .0721	23	1	100.0	1
11/27/24	18:16	-8.9	-8.9	-8.9	67	-13.9	20.0	SSE	0.33	24.3	SSE	-18.9	-9.1	-19.1	735.5	0.019	0.000	21.9	10	-11.1	19.3	2.49	 .0721	23	1	100.0	1
11/27/24	18:17	-8.9	-8.9	-8.9	67	-13.9	20.0	SE	0.33	22.6	SSE	-18.9	-9.1	-19.1	735.5	0.019	0.000	21.9	10	-11.1	19.3	2.49	 .0721	24	1	100.0	1
11/27/24	18:18	-8.9	-8.9	-8.9	66	-14.1	19.1	SE	0.32	21.7	SE	-18.7	-9.1	-18.8	735.5	0.019	0.000	21.9	10	-11.1	19.3	2.49	 .0721	23	1	100.0	1
11/27/24	18:19	-8.8	-8.8	-8.9	67	-13.9	20.0	SSE	0.33	21.7	SE	-18.8	-9.0	-18.9	735.4	0.019	0.000	21.9	10	-11.1	19.3	2.49	 .0721	24	1	100.0	1
11/27/24	18:20	-8.8	-8.8	-8.8	67	-13.9	20.0	SSE	0.33	23.5	SSE	-18.8	-9.0	-18.9	735.5	0.019	0.000	21.9	10	-11.2	19.2	2.49	 .0721	23	1	100.0	1
11/27/24	18:21	-8.8	-8.8	-8.8	67	-13.9	20.0	SSE	0.33	22.6	SSE	-18.8	-9.0	-18.9	735.4	0.019	0.000	21.9	10	-11.2	19.2	2.49	 .0721	24	1	100.0	1
11/27/24	18:22	-8.8	-8.8	-8.9	66	-14.0	19.1	SSE	0.32	21.7	SSE	-18.6	-9.0	-18.8	735.5	0.019	0.000	21.9	10	-11.2	19.2	2.49	 .0721	23	1	100.0	1
11/27/24	18:23	-8.8	-8.8	-8.8	67	-13.9	20.0	SSE	0.33	22.6	SSE	-18.8	-9.0	-18.9	735.5	0.019	0.000	21.9	10	-11.2	19.2	2.49	 .0721	23	1	100.0	1
11/27/24	18:24	-8.9	-8.8	-8.9	66	-14.1	20.9	SSE	0.35	25.2	SSE	-19.1	-9.1	-19.3	735.4	0.019	0.000	21.9	10	-11.2	19.2	2.49	 .0721	24	1	100.0	1
11/27/24	18:25	-8.9	-8.9	-8.9	66	-14.1	20.9	SSE	0.35	23.5	SSE	-19.1	-9.1	-19.3	735.4	0.019	0.000	21.9	10	-11.2	19.2	2.49	 .0721	23	1	100.0	1
11/27/24	18:26	-8.9	-8.9	-8.9	67	-14.0	21.7	SSE	0.36	23.5	SSE	-19.3	-9.1	-19.4	735.5	0.019	0.000	21.8	10	-11.2	19.1	2.50	 .0721	24	1	100.0	1
11/27/24	18:27	-9.0	-8.9	-9.0	67	-14.0	20.9	SSE	0.35	23.5	SSE	-19.2	-9.2	-19.4	735.5	0.019	0.000	21.8	10	-11.2	19.1	2.50	 .0721	23	1	100.0	1
11/27/24	18:28	-9.0	-9.0	-9.0	67	-14.0	20.9	SSE	0.35	23.5	S	-19.2	-9.2	-19.4	735.5	0.019	0.000	21.8	10	-11.2	19.1	2.50	 .0721	23	1	100.0	1
11/27/24	18:29	-9.0	-9.0	-9.1	66	-14.2	20.0	SSE	0.33	22.6	SSE	-19.0	-9.2	-19.2	735.4	0.019	0.000	21.8	10	-11.2	19.1	2.50	 .0721	24	1	100.0	1
11/27/24	18:30	-9.0	-9.0	-9.1	67	-14.0	19.1	SSE	0.32	22.6	SSE	-18.8	-9.2	-19.0	735.4	0.019	0.000	21.8	10	-11.2	19.1	2.50	 .0721	23	1	100.0	1
11/27/24	18:31	-9.0	-9.0	-9.0	67	-14.0	20.0	SSE	0.33	23.5	SSE	-19.0	-9.2	-19.2	735.4	0.019	0.000	21.8	10	-11.2	19.1	2.50	 .0721	24	1	100.0	1
11/27/24	18:32	-9.1	-9.0	-9.1	67	-14.1	18.3	SSE	0.30	21.7	SSE	-18.7	-9.2	-18.9	735.4	0.019	0.000	21.8	10	-11.2	19.1	2.50	 .0721	23	1	100.0	1
11/27/24	18:33	-9.0	-9.0	-9.1	67	-14.0	18.3	SSE	0.30	20.9	SSE	-18.6	-9.2	-18.8	735.5	0.019	0.000	21.8	10	-11.2	19.1	2.50	 .0721	24	1	100.0	1
11/27/24	18:34	-9.0	-9.0	-9.0	67	-14.0	15.7	SSE	0.26	17.4	SSE	-18.0	-9.2	-18.2	735.4	0.019	0.000	21.8	10	-11.2	19.1	2.50	 .0721	23	1	100.0	1
11/27/24	18:35	-9.0	-9.0	-9.0	67	-14.0	16.5	SSE	0.28	17.4	SSE	-18.2	-9.2	-18.4	735.4	0.019	0.000	21.8	10	-11.2	19.1	2.50	 .0721	23	1	100.0	1
11/27/24	18:36	-9.0	-9.0	-9.1	67	-14.0	16.5	SSE	0.28	18.3	SSE	-18.2	-9.2	-18.4	735.5	0.019	0.000	21.8	10	-11.2	19.1	2.50	 .0721	24	1	100.0	1
11/27/24	18:37	-9.0	-9.0	-9.0	68	-13.8	17.4	SE	0.29	20.0	SE	-18.4	-9.2	-18.6	735.5	0.019	0.000	21.8	10	-11.2	19.1	2.50	 .0721	23	1	100.0	1
11/27/24	18:38	-9.0	-9.0	-9.0	68	-13.8	17.4	SE	0.29	18.3	SE	-18.4	-9.2	-18.6	735.5	0.019	0.000	21.8	10	-11.2	19.1	2.50	 .0721	24	1	100.0	1
11/27/24	18:39	-9.0	-9.0	-9.0	68	-13.8	16.5	SE	0.28	20.0	SSE	-18.2	-9.2	-18.4	735.5	0.019	0.000	21.8	10	-11.2	19.1	2.50	 .0721	23	1	100.0	1
11/27/24	18:40	-9.0	-8.9	-9.0	68	-13.8	17.4	SE	0.29	19.1	SE	-18.4	-9.2	-18.6	735.4	0.019	0.000	21.8	10	-11.2	19.1	2.50	 .0721	23	1	100.0	1
11/27/24	18:41	-9.0	-8.9	-9.0	68	-13.8	18.3	SE	0.30	20.0	SE	-18.6	-9.2	-18.8	735.4	0.019	0.000	21.8	10	-11.2	19.1	2.50	 .0721	24	1	100.0	1
11/27/24	18:42	-9.0	-9.0	-9.0	67	-14.0	17.4	SE	0.29	18.3	SE	-18.4	-9.2	-18.6	735.4	0.019	0.000	21.8	10	-11.2	19.1	2.50	 .0721	23	1	100.0	1
11/27/24	18:43	-9.0	-9.0	-9.0	68	-13.8	16.5	SE	0.28	18.3	SE	-18.2	-9.2	-18.4	735.5	0.019	0.000	21.8	10	-11.2	19.1	2.50	 .0721	24	1	100.0	1
11/27/24	18:44	-9.0	-9.0	-9.0	68	-13.8	15.7	SE	0.26	17.4	SE	-18.0	-9.2	-18.2	735.4	0.019	0.000	21.8	10	-11.2	19.1	2.50	 .0721	23	1	100.0	1
11/27/24	18:45	-9.1	-9.0	-9.1	68	-13.9	17.4	SE	0.29	18.3	SE	-18.5	-9.2	-18.7	735.5	0.019	0.000	21.8	10	-11.2	19.1	2.50	 .0721	23	1	100.0	1
11/27/24	18:46	-9.1	-9.1	-9.1	68	-13.9	16.5	SE	0.28	18.3	SE	-18.3	-9.3	-18.5	735.4	0.019	0.000	21.8	10	-11.2	19.1	2.50	 .0721	24	1	100.0	1
11/27/24	18:47	-9.1	-9.1	-9.1	68	-13.9	17.4	SE	0.29	19.1	SE	-18.6	-9.3	-18.7	735.5	0.019	0.000	21.8	10	-11.2	19.1	2.50	 .0721	23	1	100.0	1
11/27/24	18:48	-9.1	-9.1	-9.1	68	-13.9	18.3	SE	0.30	20.0	SE	-18.8	-9.3	-18.9	735.4	0.019	0.000	21.9	10	-11.2	19.2	2.49	 .0721	24	1	100.0	1
11/27/24	18:49	-9.1	-9.1	-9.1	67	-14.1	17.4	SE	0.29	18.3	ESE	-18.6	-9.3	-18.7	735.5	0.019	0.000	21.9	10	-11.2	19.2	2.49	 .0721	23	1	100.0	1
11/27/24	18:50	-9.2	-9.1	-9.2	68	-14.0	16.5	SE	0.28	16.5	SE	-18.4	-9.3	-18.6	735.4	0.019	0.000	21.9	10	-11.2	19.2	2.49	 .0721	24	1	100.0	1
11/27/24	18:51	-9.2	-9.2	-9.2	68	-14.0	16.5	SE	0.28	17.4	SE	-18.5	-9.4	-18.7	735.5	0.019	0.000	21.9	10	-11.2	19.2	2.49	 .0721	23	1	100.0	1
11/27/24	18:52	-9.3	-9.3	-9.3	68	-14.1	17.4	SE	0.29	19.1	SE	-18.8	-9.4	-18.9	735.5	0.019	0.000	21.9	10	-11.1	19.3	2.49	 .0721	23	1	100.0	1
11/27/24	18:53	-9.3	-9.3	-9.3	69	-14.0	17.4	SE	0.29	19.1	SE	-18.9	-9.5	-19.1	735.5	0.019	0.000	21.9	10	-11.1	19.3	2.49	 .0721	24	1	100.0	1
11/27/24	18:54	-9.3	-9.3	-9.3	69	-14.0	16.5	SE	0.28	17.4	ESE	-18.7	-9.5	-18.8	735.5	0.019	0.000	21.9	10	-11.1	19.3	2.49	 .0721	23	1	100.0	1
11/27/24	18:55	-9.3	-9.3	-9.3	69	-14.0	16.5	SE	0.28	17.4	SE	-18.7	-9.5	-18.8	735.5	0.019	0.000	21.9	10	-11.1	19.3	2.49	 .0721	24	1	100.0	1
11/27/24	18:56	-9.3	-9.3	-9.3	69	-14.0	16.5	ESE	0.28	18.3	SE	-18.7	-9.5	-18.8	735.4	0.019	0.000	21.9	10	-11.1	19.3	2.49	 .0721	23	1	100.0	1
11/27/24	18:57	-9.3	-9.3	-9.3	69	-13.9	15.7	ESE	0.26	16.5	ESE	-18.3	-9.4	-18.5	735.5	0.019	0.000	21.9	10	-11.1	19.3	2.49	 .0721	23	1	100.0	1
11/27/24	18:58	-9.3	-9.2	-9.3	69	-13.9	15.7	SE	0.26	16.5	ESE	-18.3	-9.4	-18.5	735.5	0.019	0.000	21.9	10	-11.1	19.3	2.49	 .0721	24	1	100.0	1
11/27/24	18:59	-9.2	-9.2	-9.3	69	-13.9	16.5	SE	0.28	18.3	SE	-18.5	-9.4	-18.7	735.5	0.019	0.000	21.9	10	-11.1	19.3	2.49	 .0721	23	1	100.0	1
11/27/24	19:00	-9.2	-9.2	-9.2	69	-13.8	15.7	SE	0.26	16.5	SE	-18.2	-9.3	-18.4	735.5	0.019	0.000	21.9	10	-11.1	19.3	2.49	 .0721	24	1	100.0	1
11/27/24	19:01	-9.0	-9.0	-9.1	67	-14.0	16.5	ESE	0.28	18.3	SE	-18.2	-9.2	-18.4	735.6	0.019	0.000	21.9	10	-11.1	19.3	2.49	 .0721	23	1	100.0	1
11/27/24	19:02	-9.0	-9.0	-9.0	67	-14.0	14.8	SE	0.25	15.7	ESE	-17.8	-9.2	-17.9	735.5	0.019	0.000	21.9	10	-11.1	19.3	2.49	 .0721	24	1	100.0	1
11/27/24	19:03	-9.0	-9.0	-9.0	67	-14.0	14.8	SE	0.25	15.7	SE	-17.8	-9.2	-17.9	735.6	0.019	0.000	21.9	10	-11.1	19.3	2.49	 .0721	23	1	100.0	1
11/27/24	19:04	-9.0	-9.0	-9.0	68	-13.8	13.9	SE	0.23	15.7	ESE	-17.6	-9.2	-17.7	735.6	0.019	0.000	21.9	10	-11.1	19.3	2.49	 .0721	23	1	100.0	1
11/27/24	19:05	-9.0	-9.0	-9.0	67	-14.0	14.8	SE	0.25	16.5	SE	-17.8	-9.2	-17.9	735.6	0.019	0.000	21.9	10	-11.1	19.3	2.49	 .0721	24	1	100.0	1
11/27/24	19:06	-9.0	-9.0	-9.0	67	-14.0	13.9	SE	0.23	15.7	ESE	-17.6	-9.2	-17.7	735.6	0.019	0.000	21.9	10	-11.1	19.3	2.49	 .0721	23	1	100.0	1
11/27/24	19:07	-8.9	-8.9	-9.0	67	-14.0	13.9	ESE	0.23	15.7	SE	-17.5	-9.1	-17.7	735.6	0.019	0.000	21.9	10	-11.1	19.3	2.49	 .0721	24	1	100.0	1
11/27/24	19:08	-9.0	-8.9	-9.0	68	-13.8	13.0	SE	0.22	13.9	ESE	-17.3	-9.2	-17.5	735.6	0.019	0.000	21.9	10	-11.1	19.3	2.49	 .0721	23	1	100.0	1
11/27/24	19:09	-9.0	-9.0	-9.0	68	-13.8	13.9	SE	0.23	16.5	SE	-17.6	-9.2	-17.7	735.6	0.019	0.000	21.9	10	-11.1	19.3	2.49	 .0721	23	1	100.0	1
11/27/24	19:10	-9.1	-9.0	-9.1	68	-13.9	14.8	SE	0.25	16.5	SE	-17.8	-9.2	-18.0	735.6	0.019	0.000	21.9	10	-11.1	19.3	2.49	 .0721	24	1	100.0	1
11/27/24	19:11	-9.1	-9.1	-9.1	67	-14.1	14.8	SE	0.25	16.5	SE	-17.8	-9.2	-18.0	735.5	0.019	0.000	21.9	10	-11.1	19.3	2.49	 .0721	23	1	100.0	1
11/27/24	19:12	-9.1	-9.1	-9.1	67	-14.1	14.8	SE	0.25	16.5	SE	-17.8	-9.2	-18.0	735.5	0.019	0.000	21.9	10	-11.2	19.2	2.49	 .0721	24	1	100.0	1
11/27/24	19:13	-9.1	-9.0	-9.1	67	-14.1	13.9	SE	0.23	14.8	SE	-17.7	-9.2	-17.8	735.6	0.019	0.000	21.9	10	-11.2	19.2	2.49	 .0721	23	1	100.0	1
11/27/24	19:14	-9.0	-9.0	-9.1	68	-13.8	14.8	SE	0.25	15.7	SE	-17.8	-9.2	-17.9	735.5	0.019	0.000	21.9	10	-11.2	19.2	2.49	 .0721	24	1	100.0	1
11/27/24	19:15	-9.0	-9.0	-9.1	68	-13.8	13.9	SE	0.23	14.8	SE	-17.6	-9.2	-17.7	735.6	0.019	0.000	21.9	10	-11.2	19.2	2.49	 .0721	23	1	100.0	1
11/27/24	19:16	-9.0	-9.0	-9.1	68	-13.8	15.7	SE	0.26	16.5	SE	-18.0	-9.2	-18.2	735.6	0.019	0.000	21.9	10	-11.2	19.2	2.49	 .0721	23	1	100.0	1
11/27/24	19:17	-8.9	-8.9	-9.0	67	-13.9	14.8	SE	0.25	15.7	SE	-17.7	-9.1	-17.8	735.6	0.019	0.000	21.9	10	-11.2	19.2	2.49	 .0721	24	1	100.0	1
11/27/24	19:18	-8.9	-8.9	-8.9	67	-13.9	14.8	SE	0.25	16.5	SE	-17.7	-9.1	-17.8	735.5	0.019	0.000	21.9	10	-11.2	19.2	2.49	 .0721	23	1	100.0	1
11/27/24	19:19	-8.9	-8.9	-8.9	67	-13.9	14.8	SE	0.25	15.7	SE	-17.7	-9.1	-17.8	735.6	0.019	0.000	21.8	10	-11.2	19.1	2.50	 .0721	24	1	100.0	1
11/27/24	19:20	-8.9	-8.9	-8.9	68	-13.7	14.8	SE	0.25	16.5	SE	-17.7	-9.1	-17.8	735.6	0.019	0.000	21.8	10	-11.2	19.1	2.50	 .0721	23	1	100.0	1
11/27/24	19:21	-8.9	-8.9	-8.9	68	-13.7	14.8	SE	0.25	16.5	SE	-17.7	-9.1	-17.8	735.5	0.019	0.000	21.8	10	-11.2	19.1	2.50	 .0721	23	1	100.0	1
11/27/24	19:22	-8.8	-8.8	-8.9	67	-13.9	15.7	SE	0.26	16.5	SE	-17.8	-9.0	-17.9	735.5	0.019	0.000	21.8	10	-11.2	19.1	2.50	 .0721	24	1	100.0	1
11/27/24	19:23	-8.7	-8.7	-8.8	66	-13.9	13.9	SE	0.23	15.7	SE	-17.2	-8.9	-17.4	735.5	0.019	0.000	21.8	10	-11.2	19.1	2.50	 .0722	23	1	100.0	1
11/27/24	19:24	-8.7	-8.7	-8.7	65	-14.1	15.7	SE	0.26	16.5	SE	-17.6	-8.8	-17.8	735.5	0.019	0.000	21.8	10	-11.2	19.1	2.50	 .0721	24	1	100.0	1
11/27/24	19:25	-8.6	-8.6	-8.7	65	-14.0	13.9	SE	0.23	14.8	SE	-17.0	-8.7	-17.2	735.5	0.019	0.000	21.8	10	-11.2	19.1	2.50	 .0722	23	1	100.0	1
11/27/24	19:26	-8.4	-8.4	-8.5	65	-13.9	15.7	SE	0.26	16.5	SE	-17.3	-8.6	-17.5	735.5	0.019	0.000	21.8	10	-11.2	19.1	2.50	 .0722	24	1	100.0	1
11/27/24	19:27	-8.4	-8.4	-8.4	65	-13.8	16.5	SE	0.28	19.1	SE	-17.4	-8.6	-17.6	735.5	0.019	0.000	21.8	10	-11.2	19.1	2.50	 .0722	23	1	100.0	1
11/27/24	19:28	-8.4	-8.4	-8.4	64	-14.0	16.5	SE	0.28	18.3	SE	-17.4	-8.6	-17.6	735.5	0.019	0.000	21.8	10	-11.2	19.1	2.50	 .0722	23	1	100.0	1
11/27/24	19:29	-8.4	-8.4	-8.4	63	-14.2	15.7	SE	0.26	17.4	SE	-17.3	-8.6	-17.4	735.5	0.019	0.000	21.8	10	-11.2	19.1	2.50	 .0722	24	1	100.0	1
11/27/24	19:30	-8.4	-8.4	-8.4	63	-14.2	15.7	SE	0.26	16.5	SE	-17.3	-8.6	-17.4	735.5	0.019	0.000	21.8	10	-11.2	19.1	2.50	 .0722	23	1	100.0	1
11/27/24	19:31	-8.3	-8.3	-8.4	63	-14.1	16.5	SE	0.28	17.4	SE	-17.4	-8.5	-17.6	735.5	0.019	0.000	21.7	10	-11.3	18.9	2.51	 .0722	24	1	100.0	1
11/27/24	19:32	-8.3	-8.3	-8.3	63	-14.1	16.5	SE	0.28	18.3	SE	-17.4	-8.5	-17.6	735.5	0.019	0.000	21.8	10	-11.2	19.1	2.50	 .0722	23	1	100.0	1
11/27/24	19:33	-8.3	-8.3	-8.3	63	-14.1	16.5	SE	0.28	18.3	SE	-17.3	-8.4	-17.5	735.5	0.018	0.000	21.8	10	-11.2	19.1	2.50	 .0722	23	1	100.0	1
11/27/24	19:34	-8.3	-8.3	-8.3	62	-14.3	16.5	SE	0.28	17.4	SE	-17.3	-8.5	-17.6	735.5	0.018	0.000	21.8	10	-11.2	19.1	2.50	 .0722	24	1	100.0	1
11/27/24	19:35	-8.2	-8.2	-8.3	62	-14.2	17.4	SE	0.29	19.1	SE	-17.4	-8.4	-17.7	735.5	0.018	0.000	21.8	10	-11.2	19.1	2.50	 .0722	23	1	100.0	1
11/27/24	19:36	-8.2	-8.2	-8.2	62	-14.2	16.5	SE	0.28	19.1	SE	-17.3	-8.4	-17.5	735.5	0.018	0.000	21.8	10	-11.2	19.1	2.50	 .0722	24	1	100.0	1
11/27/24	19:37	-8.2	-8.2	-8.2	62	-14.2	17.4	SE	0.29	19.1	SE	-17.4	-8.4	-17.7	735.5	0.018	0.000	21.8	10	-11.2	19.1	2.50	 .0722	23	1	100.0	1
11/27/24	19:38	-8.2	-8.2	-8.2	61	-14.4	16.5	SE	0.28	17.4	SE	-17.3	-8.4	-17.5	735.5	0.018	0.000	21.8	10	-11.2	19.1	2.50	 .0721	23	1	100.0	1
11/27/24	19:39	-8.3	-8.2	-8.3	61	-14.5	17.4	SE	0.29	20.0	SE	-17.6	-8.5	-17.8	735.5	0.018	0.000	21.8	10	-11.2	19.1	2.50	 .0721	24	1	100.0	1
11/27/24	19:40	-8.3	-8.3	-8.3	61	-14.5	16.5	SE	0.28	20.0	SE	-17.3	-8.5	-17.6	735.5	0.018	0.000	21.8	10	-11.2	19.1	2.50	 .0721	23	1	100.0	1
11/27/24	19:41	-8.2	-8.2	-8.3	61	-14.4	17.4	SE	0.29	19.1	SE	-17.4	-8.4	-17.7	735.5	0.018	0.000	21.8	10	-11.2	19.1	2.50	 .0721	24	1	100.0	1
11/27/24	19:42	-8.2	-8.2	-8.2	61	-14.4	15.7	SE	0.26	17.4	SE	-17.1	-8.4	-17.3	735.5	0.018	0.000	21.8	10	-11.2	19.1	2.50	 .0721	23	1	100.0	1
11/27/24	19:43	-8.2	-8.2	-8.2	61	-14.4	16.5	SE	0.28	18.3	SE	-17.3	-8.4	-17.5	735.5	0.018	0.000	21.9	10	-11.2	19.2	2.49	 .0721	24	1	100.0	1
11/27/24	19:44	-8.2	-8.2	-8.2	60	-14.6	15.7	SE	0.26	17.4	SE	-16.9	-8.4	-17.2	735.5	0.018	0.000	21.9	10	-11.2	19.2	2.49	 .0721	23	1	100.0	1
11/27/24	19:45	-8.2	-8.2	-8.2	60	-14.6	17.4	SE	0.29	20.0	SE	-17.4	-8.4	-17.6	735.5	0.018	0.000	21.9	10	-11.2	19.2	2.49	 .0721	23	1	100.0	1
11/27/24	19:46	-8.2	-8.2	-8.2	59	-14.8	16.5	SE	0.28	18.3	SE	-17.2	-8.4	-17.4	735.5	0.018	0.000	21.9	10	-11.1	19.3	2.49	 .0721	24	1	100.0	1
11/27/24	19:47	-8.2	-8.2	-8.2	60	-14.6	14.8	SE	0.25	16.5	SE	-16.7	-8.4	-16.9	735.6	0.018	0.000	21.9	10	-11.1	19.3	2.49	 .0721	23	1	100.0	1
11/27/24	19:48	-8.2	-8.1	-8.2	60	-14.6	15.7	SE	0.26	17.4	SE	-16.9	-8.4	-17.2	735.6	0.018	0.000	21.9	10	-11.1	19.3	2.49	 .0721	24	1	100.0	1
11/27/24	19:49	-8.3	-8.2	-8.3	61	-14.5	15.7	SE	0.26	15.7	SE	-17.1	-8.5	-17.3	735.6	0.018	0.000	21.9	10	-11.1	19.3	2.49	 .0721	23	1	100.0	1
11/27/24	19:50	-8.3	-8.3	-8.3	62	-14.3	15.7	SE	0.26	16.5	SE	-17.2	-8.6	-17.4	735.6	0.019	0.000	21.9	10	-11.1	19.3	2.49	 .0721	23	1	100.0	1
11/27/24	19:51	-8.4	-8.4	-8.4	62	-14.4	15.7	SE	0.26	16.5	SE	-17.3	-8.6	-17.5	735.6	0.019	0.000	21.9	10	-11.1	19.3	2.49	 .0721	24	1	100.0	1
11/27/24	19:52	-8.4	-8.3	-8.4	63	-14.2	15.7	SE	0.26	16.5	SE	-17.3	-8.6	-17.4	735.6	0.019	0.000	22.0	10	-11.1	19.3	2.49	 .0721	23	1	100.0	1
11/27/24	19:53	-8.4	-8.4	-8.4	62	-14.4	14.8	SE	0.25	15.7	SE	-17.0	-8.6	-17.2	735.6	0.019	0.000	22.0	10	-11.1	19.3	2.49	 .0721	24	1	100.0	1
11/27/24	19:54	-8.3	-8.3	-8.4	62	-14.3	17.4	SE	0.29	20.0	SE	-17.6	-8.6	-17.8	735.6	0.019	0.000	22.0	10	-11.1	19.3	2.49	 .0721	23	1	100.0	1
11/27/24	19:55	-8.3	-8.3	-8.3	61	-14.5	17.4	SE	0.29	20.0	SE	-17.6	-8.5	-17.8	735.5	0.018	0.000	22.0	10	-11.1	19.3	2.49	 .0721	24	1	100.0	1
11/27/24	19:56	-8.2	-8.2	-8.3	61	-14.4	16.5	SE	0.28	17.4	SE	-17.3	-8.4	-17.5	735.6	0.018	0.000	21.9	10	-11.1	19.3	2.49	 .0721	23	1	100.0	1
11/27/24	19:57	-8.2	-8.2	-8.2	61	-14.4	15.7	SE	0.26	16.5	SE	-16.9	-8.4	-17.2	735.6	0.018	0.000	22.0	10	-11.1	19.3	2.49	 .0721	23	1	100.0	1
11/27/24	19:58	-8.1	-8.1	-8.2	61	-14.3	15.7	SE	0.26	17.4	SE	-16.9	-8.3	-17.1	735.6	0.018	0.000	22.0	10	-11.1	19.3	2.49	 .0721	24	1	100.0	1
11/27/24	19:59	-8.2	-8.1	-8.2	61	-14.4	15.7	SE	0.26	16.5	SE	-17.1	-8.4	-17.3	735.6	0.018	0.000	22.0	10	-11.1	19.3	2.49	 .0721	23	1	100.0	1
11/27/24	20:00	-8.3	-8.3	-8.3	62	-14.3	15.7	SE	0.26	16.5	SE	-17.2	-8.6	-17.4	735.6	0.019	0.000	21.9	10	-11.1	19.3	2.49	 .0721	24	1	100.0	1
11/27/24	20:01	-8.5	-8.4	-8.5	62	-14.5	15.7	SE	0.26	16.5	SE	-17.4	-8.7	-17.6	735.6	0.019	0.000	21.9	10	-11.1	19.3	2.49	 .0721	23	1	100.0	1
11/27/24	20:02	-8.5	-8.5	-8.5	63	-14.3	15.7	SE	0.26	16.5	SE	-17.4	-8.7	-17.6	735.6	0.019	0.000	21.9	10	-11.1	19.3	2.49	 .0721	23	1	100.0	1
11/27/24	20:03	-8.4	-8.4	-8.5	62	-14.4	14.8	SE	0.25	16.5	SE	-17.1	-8.7	-17.3	735.6	0.019	0.000	21.9	10	-11.1	19.3	2.49	 .0721	24	1	100.0	1
11/27/24	20:04	-8.4	-8.4	-8.4	62	-14.4	15.7	SE	0.26	16.5	ESE	-17.3	-8.7	-17.6	735.6	0.019	0.000	21.9	10	-11.1	19.3	2.49	 .0721	23	1	100.0	1
11/27/24	20:05	-8.4	-8.4	-8.4	63	-14.2	15.7	SE	0.26	16.5	SE	-17.3	-8.6	-17.5	735.6	0.019	0.000	21.9	10	-11.1	19.3	2.49	 .0721	24	1	100.0	1
11/27/24	20:06	-8.5	-8.4	-8.5	63	-14.3	15.7	SE	0.26	16.5	ESE	-17.4	-8.7	-17.6	735.6	0.019	0.000	21.9	10	-11.1	19.3	2.49	 .0721	23	1	100.0	1
11/27/24	20:07	-8.6	-8.5	-8.6	64	-14.2	15.7	SE	0.26	18.3	SE	-17.4	-8.7	-17.6	735.6	0.019	0.000	21.9	10	-11.2	19.2	2.49	 .0721	24	1	100.0	1
11/27/24	20:08	-8.7	-8.6	-8.7	64	-14.3	15.7	SE	0.26	16.5	SE	-17.6	-8.8	-17.8	735.6	0.019	0.000	21.9	10	-11.1	19.3	2.49	 .0721	23	1	100.0	1
11/27/24	20:09	-8.6	-8.6	-8.7	64	-14.2	14.8	SE	0.25	16.5	SE	-17.3	-8.8	-17.5	735.6	0.019	0.000	21.9	10	-11.2	19.2	2.49	 .0721	23	1	100.0	1
11/27/24	20:10	-8.5	-8.5	-8.6	64	-14.1	15.7	SE	0.26	18.3	SE	-17.4	-8.7	-17.6	735.6	0.019	0.000	21.9	10	-11.2	19.2	2.49	 .0721	24	1	100.0	1
11/27/24	20:11	-8.4	-8.4	-8.5	62	-14.4	15.7	SE	0.26	18.3	SE	-17.3	-8.6	-17.5	735.6	0.019	0.000	21.9	10	-11.2	19.2	2.49	 .0721	23	1	100.0	1
11/27/24	20:12	-8.4	-8.4	-8.4	63	-14.2	15.7	SE	0.26	17.4	SE	-17.3	-8.6	-17.5	735.6	0.019	0.000	21.9	10	-11.2	19.2	2.49	 .0721	24	1	100.0	1
11/27/24	20:13	-8.5	-8.4	-8.5	63	-14.3	17.4	SE	0.29	20.0	SE	-17.8	-8.7	-17.9	735.6	0.019	0.000	21.8	10	-11.2	19.1	2.50	 .0722	23	1	100.0	1
11/27/24	20:14	-8.4	-8.4	-8.5	63	-14.2	16.5	SE	0.28	18.3	SE	-17.6	-8.6	-17.7	735.6	0.019	0.000	21.8	10	-11.2	19.1	2.50	 .0721	23	1	100.0	1
11/27/24	20:15	-8.5	-8.4	-8.5	64	-14.1	16.5	SE	0.28	17.4	ESE	-17.6	-8.7	-17.8	735.6	0.019	0.000	21.8	10	-11.2	19.1	2.50	 .0722	24	1	100.0	1
11/27/24	20:16	-8.6	-8.5	-8.6	64	-14.2	17.4	SE	0.29	18.3	SE	-17.9	-8.8	-18.1	735.6	0.019	0.000	21.8	10	-11.2	19.1	2.50	 .0721	23	1	100.0	1
11/27/24	20:17	-8.7	-8.7	-8.7	65	-14.1	15.7	SE	0.26	17.4	SE	-17.7	-8.9	-17.8	735.6	0.019	0.000	21.8	10	-11.2	19.1	2.50	 .0721	24	1	100.0	1
11/27/24	20:18	-8.7	-8.7	-8.7	65	-14.1	16.5	SE	0.28	18.3	SE	-17.8	-8.9	-18.0	735.6	0.019	0.000	21.8	10	-11.2	19.1	2.50	 .0721	23	1	100.0	1
11/27/24	20:19	-8.7	-8.7	-8.7	65	-14.1	16.5	SE	0.28	18.3	SE	-17.8	-8.9	-18.0	735.6	0.019	0.000	21.8	10	-11.2	19.1	2.50	 .0722	24	1	100.0	1
11/27/24	20:20	-8.7	-8.7	-8.7	65	-14.1	16.5	SE	0.28	18.3	SE	-17.8	-8.9	-18.0	735.6	0.019	0.000	21.8	10	-11.2	19.1	2.50	 .0721	23	1	100.0	1
11/27/24	20:21	-8.8	-8.7	-8.8	65	-14.2	16.5	SE	0.28	17.4	SE	-17.9	-8.9	-18.1	735.6	0.019	0.000	21.8	10	-11.2	19.1	2.50	 .0722	23	1	100.0	1
11/27/24	20:22	-8.8	-8.8	-8.8	65	-14.2	15.7	ESE	0.26	17.4	ESE	-17.8	-8.9	-17.9	735.6	0.019	0.000	21.8	10	-11.2	19.1	2.50	 .0722	24	1	100.0	1
11/27/24	20:23	-8.8	-8.8	-8.8	66	-14.0	15.7	SE	0.26	17.4	SE	-17.8	-9.0	-17.9	735.6	0.019	0.000	21.8	10	-11.2	19.1	2.50	 .0722	23	1	100.0	1
11/27/24	20:24	-8.8	-8.8	-8.9	66	-14.0	14.8	SE	0.25	16.5	SE	-17.6	-9.0	-17.8	735.6	0.019	0.000	21.8	10	-11.2	19.1	2.50	 .0722	24	1	100.0	1
11/27/24	20:25	-8.8	-8.8	-8.8	67	-13.8	15.7	SE	0.26	17.4	SE	-17.8	-8.9	-17.9	735.6	0.019	0.000	21.8	10	-11.2	19.1	2.50	 .0722	23	1	100.0	1
11/27/24	20:26	-8.7	-8.7	-8.8	66	-13.9	15.7	SE	0.26	17.4	SE	-17.7	-8.9	-17.8	735.6	0.019	0.000	21.8	10	-11.2	19.1	2.50	 .0722	23	1	100.0	1
11/27/24	20:27	-8.7	-8.7	-8.7	66	-13.9	15.7	SE	0.26	17.4	ESE	-17.6	-8.8	-17.8	735.7	0.019	0.000	21.8	10	-11.2	19.1	2.50	 .0722	24	1	100.0	1
11/27/24	20:28	-8.7	-8.7	-8.7	66	-13.9	16.5	SE	0.28	17.4	SE	-17.8	-8.8	-17.9	735.6	0.019	0.000	21.8	10	-11.2	19.1	2.50	 .0721	23	1	100.0	1
11/27/24	20:29	-8.7	-8.7	-8.7	65	-14.1	15.7	SE	0.26	17.4	ESE	-17.6	-8.8	-17.8	735.6	0.019	0.000	21.8	10	-11.2	19.1	2.50	 .0721	24	1	100.0	1
11/27/24	20:30	-8.6	-8.6	-8.7	65	-14.0	14.8	SE	0.25	16.5	SE	-17.2	-8.7	-17.4	735.6	0.019	0.000	21.8	10	-11.2	19.1	2.50	 .0722	23	1	100.0	1
11/27/24	20:31	-8.5	-8.5	-8.6	65	-13.9	14.8	SE	0.25	15.7	SE	-17.2	-8.7	-17.3	735.6	0.019	0.000	21.8	10	-11.2	19.1	2.50	 .0722	24	1	100.0	1
11/27/24	20:32	-8.6	-8.5	-8.6	65	-14.0	14.8	SE	0.25	16.5	ESE	-17.2	-8.7	-17.4	735.6	0.019	0.000	21.8	10	-11.2	19.1	2.50	 .0722	23	1	100.0	1
11/27/24	20:33	-8.6	-8.5	-8.6	65	-14.0	14.8	SE	0.25	16.5	SE	-17.2	-8.7	-17.4	735.6	0.019	0.000	21.8	10	-11.2	19.1	2.50	 .0722	23	1	100.0	1
11/27/24	20:34	-8.6	-8.6	-8.6	65	-14.0	15.7	SE	0.26	16.5	SE	-17.6	-8.8	-17.7	735.7	0.019	0.000	21.8	10	-11.2	19.1	2.50	 .0722	24	1	100.0	1
11/27/24	20:35	-8.6	-8.6	-8.6	64	-14.2	14.8	SE	0.25	16.5	SE	-17.2	-8.7	-17.4	735.6	0.019	0.000	21.9	10	-11.2	19.2	2.49	 .0721	23	1	100.0	1
11/27/24	20:36	-8.5	-8.5	-8.6	65	-13.9	13.9	SE	0.23	14.8	SE	-16.9	-8.7	-17.1	735.6	0.019	0.000	21.9	10	-11.2	19.2	2.49	 .0721	24	1	100.0	1
11/27/24	20:37	-8.4	-8.4	-8.4	65	-13.9	15.7	SE	0.26	17.4	ESE	-17.3	-8.6	-17.5	735.7	0.019	0.000	21.9	10	-11.2	19.2	2.49	 .0721	23	1	100.0	1
11/27/24	20:38	-8.4	-8.4	-8.5	65	-13.9	13.9	SE	0.23	15.7	SE	-16.8	-8.6	-17.0	735.6	0.019	0.000	21.9	10	-11.1	19.3	2.49	 .0721	23	1	100.0	1
11/27/24	20:39	-8.5	-8.4	-8.5	65	-13.9	15.7	ESE	0.26	17.4	ESE	-17.4	-8.7	-17.6	735.6	0.019	0.000	21.9	10	-11.1	19.3	2.49	 .0721	24	1	100.0	1
11/27/24	20:40	-8.6	-8.5	-8.6	65	-14.0	16.5	SE	0.28	18.3	SE	-17.7	-8.7	-17.8	735.6	0.019	0.000	21.9	10	-11.1	19.3	2.49	 .0721	23	1	100.0	1
11/27/24	20:41	-8.6	-8.6	-8.6	65	-14.0	15.7	SE	0.26	17.4	SE	-17.6	-8.8	-17.7	735.6	0.019	0.000	22.0	10	-11.1	19.3	2.49	 .0721	24	1	100.0	1
11/27/24	20:42	-8.7	-8.6	-8.7	65	-14.1	16.5	SE	0.28	18.3	SE	-17.8	-8.8	-17.9	735.6	0.019	0.000	22.0	10	-11.1	19.3	2.49	 .0721	23	1	100.0	1
11/27/24	20:43	-8.7	-8.7	-8.7	65	-14.1	16.5	SE	0.28	18.3	ESE	-17.8	-8.9	-18.0	735.6	0.019	0.000	22.0	10	-11.1	19.3	2.49	 .0721	23	1	100.0	1
11/27/24	20:44	-8.7	-8.7	-8.7	66	-13.9	15.7	SE	0.26	17.4	SE	-17.6	-8.8	-17.8	735.6	0.019	0.000	22.1	10	-11.0	19.4	2.48	 .0721	24	1	100.0	1
11/27/24	20:45	-8.6	-8.6	-8.7	66	-13.8	15.7	ESE	0.26	17.4	SE	-17.6	-8.8	-17.7	735.6	0.019	0.000	22.1	10	-11.0	19.4	2.48	 .0721	23	1	100.0	1
11/27/24	20:46	-8.7	-8.6	-8.7	65	-14.1	16.5	ESE	0.28	18.3	ESE	-17.8	-8.8	-17.9	735.6	0.019	0.000	22.1	10	-11.0	19.4	2.48	 .0721	24	1	100.0	1
11/27/24	20:47	-8.7	-8.7	-8.7	65	-14.1	16.5	SE	0.28	18.3	ESE	-17.8	-8.9	-18.0	735.5	0.019	0.000	22.1	10	-11.0	19.4	2.48	 .0721	23	1	100.0	1
11/27/24	20:48	-8.8	-8.7	-8.8	65	-14.2	16.5	SE	0.28	19.1	SE	-17.9	-8.9	-18.1	735.6	0.019	0.000	22.1	10	-11.0	19.4	2.48	 .0721	24	1	100.0	1
11/27/24	20:49	-8.8	-8.7	-8.8	65	-14.2	16.5	SE	0.28	17.4	SE	-17.9	-8.9	-18.1	735.5	0.019	0.000	22.1	10	-11.0	19.4	2.48	 .0721	23	1	100.0	1
11/27/24	20:50	-8.7	-8.7	-8.8	66	-13.9	16.5	ESE	0.28	18.3	ESE	-17.8	-8.9	-18.0	735.5	0.019	0.000	22.1	10	-11.0	19.4	2.48	 .0721	23	1	100.0	1
11/27/24	20:51	-8.7	-8.7	-8.7	65	-14.1	15.7	SE	0.26	17.4	SE	-17.7	-8.9	-17.8	735.6	0.019	0.000	22.1	10	-11.0	19.4	2.48	 .0721	24	1	100.0	1
11/27/24	20:52	-8.7	-8.7	-8.7	65	-14.1	15.7	ESE	0.26	17.4	ESE	-17.7	-8.9	-17.8	735.6	0.019	0.000	22.1	10	-11.0	19.4	2.48	 .0721	23	1	100.0	1
11/27/24	20:53	-8.7	-8.7	-8.7	65	-14.1	16.5	ESE	0.28	18.3	ESE	-17.8	-8.9	-18.0	735.6	0.019	0.000	22.1	10	-11.0	19.4	2.48	 .0721	24	1	100.0	1
11/27/24	20:54	-8.8	-8.8	-8.8	65	-14.2	16.5	ESE	0.28	18.3	ESE	-17.9	-8.9	-18.1	735.6	0.019	0.000	22.1	10	-11.0	19.4	2.48	 .0721	23	1	100.0	1
11/27/24	20:55	-8.7	-8.7	-8.8	64	-14.3	15.7	ESE	0.26	17.4	SE	-17.7	-8.9	-17.8	735.6	0.019	0.000	22.1	10	-11.0	19.4	2.48	 .0721	23	1	100.0	1
11/27/24	20:56	-8.8	-8.7	-8.8	65	-14.2	15.7	SE	0.26	16.5	SE	-17.8	-8.9	-17.9	735.6	0.019	0.000	22.0	10	-11.1	19.3	2.49	 .0721	24	1	100.0	1
11/27/24	20:57	-8.8	-8.8	-8.8	65	-14.2	15.7	ESE	0.26	16.5	ESE	-17.8	-8.9	-17.9	735.6	0.019	0.000	22.0	10	-11.1	19.3	2.49	 .0721	23	1	100.0	1
11/27/24	20:58	-8.8	-8.8	-8.8	65	-14.2	14.8	SE	0.25	15.7	SE	-17.5	-8.9	-17.7	735.6	0.019	0.000	22.0	10	-11.1	19.3	2.49	 .0721	24	1	100.0	1
11/27/24	20:59	-8.8	-8.8	-8.8	65	-14.2	15.7	SE	0.26	16.5	ESE	-17.8	-8.9	-17.9	735.6	0.019	0.000	22.1	10	-11.0	19.4	2.48	 .0721	23	1	100.0	1
11/27/24	21:00	-8.8	-8.8	-8.8	65	-14.2	14.8	SE	0.25	15.7	SE	-17.5	-8.9	-17.7	735.6	0.019	0.000	22.0	10	-11.1	19.3	2.49	 .0721	24	1	100.0	1
11/27/24	21:01	-8.8	-8.8	-8.8	66	-14.0	15.7	SE	0.26	16.5	SE	-17.8	-8.9	-17.9	735.6	0.019	0.000	22.0	10	-11.1	19.3	2.49	 .0721	23	1	100.0	1
11/27/24	21:02	-8.8	-8.8	-8.8	65	-14.2	14.8	SE	0.25	15.7	SE	-17.6	-9.0	-17.8	735.6	0.019	0.000	21.9	10	-11.1	19.3	2.49	 .0721	23	1	100.0	1
11/27/24	21:03	-8.8	-8.8	-8.8	65	-14.2	14.8	SE	0.25	15.7	ESE	-17.5	-8.9	-17.7	735.6	0.019	0.000	21.9	10	-11.1	19.3	2.49	 .0721	24	1	100.0	1
11/27/24	21:04	-8.8	-8.8	-8.8	65	-14.2	14.8	SE	0.25	15.7	SE	-17.5	-8.9	-17.7	735.6	0.019	0.000	21.9	10	-11.1	19.3	2.49	 .0721	23	1	100.0	1
11/27/24	21:05	-8.7	-8.7	-8.8	64	-14.3	14.8	SE	0.25	16.5	SE	-17.4	-8.9	-17.6	735.6	0.019	0.000	21.9	10	-11.1	19.3	2.49	 .0721	24	1	100.0	1
11/27/24	21:06	-8.7	-8.7	-8.8	64	-14.3	13.9	SE	0.23	14.8	SE	-17.2	-8.9	-17.4	735.7	0.019	0.000	21.9	10	-11.1	19.3	2.49	 .0721	23	1	100.0	1
11/27/24	21:07	-8.7	-8.7	-8.7	64	-14.3	13.9	ESE	0.23	17.4	ESE	-17.2	-8.9	-17.4	735.6	0.019	0.000	21.9	10	-11.1	19.3	2.49	 .0721	23	1	100.0	1
11/27/24	21:08	-8.7	-8.7	-8.7	64	-14.3	14.8	SE	0.25	15.7	SE	-17.4	-8.8	-17.6	735.6	0.019	0.000	21.9	10	-11.1	19.3	2.49	 .0721	24	1	100.0	1
11/27/24	21:09	-8.6	-8.6	-8.7	64	-14.2	13.9	SE	0.23	14.8	SE	-17.0	-8.7	-17.2	735.6	0.019	0.000	21.9	10	-11.1	19.3	2.49	 .0721	23	1	100.0	1
11/27/24	21:10	-8.4	-8.4	-8.5	63	-14.2	13.9	SE	0.23	15.7	SE	-16.8	-8.6	-17.0	735.6	0.019	0.000	21.9	10	-11.1	19.3	2.49	 .0721	24	1	100.0	1
11/27/24	21:11	-8.4	-8.4	-8.4	63	-14.2	13.9	SE	0.23	15.7	ESE	-16.8	-8.6	-17.0	735.6	0.019	0.000	21.9	10	-11.1	19.3	2.49	 .0721	23	1	100.0	1
11/27/24	21:12	-8.4	-8.4	-8.4	64	-14.0	13.9	SE	0.23	15.7	SE	-16.8	-8.6	-17.0	735.6	0.019	0.000	21.9	10	-11.2	19.2	2.49	 .0721	24	1	100.0	1
11/27/24	21:13	-8.4	-8.4	-8.4	64	-14.0	14.8	SE	0.25	16.5	SE	-17.1	-8.6	-17.3	735.6	0.019	0.000	21.9	10	-11.2	19.2	2.49	 .0721	23	1	100.0	1
11/27/24	21:14	-8.4	-8.4	-8.4	64	-14.0	14.8	SE	0.25	15.7	SE	-17.1	-8.6	-17.3	735.6	0.019	0.000	21.9	10	-11.2	19.2	2.49	 .0721	23	1	100.0	1
11/27/24	21:15	-8.5	-8.4	-8.5	64	-14.1	14.8	SE	0.25	17.4	SE	-17.2	-8.7	-17.3	735.6	0.019	0.000	21.9	10	-11.2	19.2	2.49	 .0721	24	1	100.0	1
11/27/24	21:16	-8.6	-8.5	-8.6	64	-14.2	13.9	ESE	0.23	15.7	ESE	-17.0	-8.7	-17.2	735.6	0.019	0.000	21.9	10	-11.2	19.2	2.49	 .0721	23	1	100.0	1
11/27/24	21:17	-8.6	-8.6	-8.6	64	-14.2	13.9	SE	0.23	14.8	ESE	-17.0	-8.7	-17.2	735.6	0.019	0.000	21.9	10	-11.2	19.2	2.49	 .0721	24	1	100.0	1
11/27/24	21:18	-8.6	-8.6	-8.6	64	-14.2	13.9	SE	0.23	15.7	SE	-17.0	-8.7	-17.2	735.6	0.019	0.000	21.9	10	-11.2	19.2	2.49	 .0721	23	1	100.0	1
11/27/24	21:19	-8.6	-8.6	-8.6	64	-14.2	14.8	SE	0.25	15.7	SE	-17.3	-8.8	-17.5	735.6	0.019	0.000	21.8	10	-11.2	19.1	2.50	 .0722	23	1	100.0	1
11/27/24	21:20	-8.7	-8.6	-8.7	64	-14.3	15.7	SE	0.26	16.5	ESE	-17.6	-8.8	-17.8	735.6	0.019	0.000	21.8	10	-11.2	19.1	2.50	 .0721	24	1	100.0	1
11/27/24	21:21	-8.7	-8.7	-8.7	65	-14.1	14.8	ESE	0.25	15.7	ESE	-17.4	-8.9	-17.6	735.6	0.019	0.000	21.8	10	-11.2	19.1	2.50	 .0721	23	1	100.0	1
11/27/24	21:22	-8.7	-8.7	-8.7	65	-14.1	14.8	SE	0.25	16.5	SE	-17.4	-8.9	-17.6	735.6	0.019	0.000	21.8	10	-11.2	19.1	2.50	 .0721	24	1	100.0	1
11/27/24	21:23	-8.7	-8.7	-8.7	65	-14.1	14.8	SE	0.25	16.5	SE	-17.4	-8.9	-17.6	735.6	0.019	0.000	21.8	10	-11.2	19.1	2.50	 .0721	23	1	100.0	1
11/27/24	21:24	-8.7	-8.7	-8.7	65	-14.1	15.7	SE	0.26	16.5	ESE	-17.7	-8.9	-17.8	735.6	0.019	0.000	21.8	10	-11.2	19.1	2.50	 .0721	23	1	100.0	1
11/27/24	21:25	-8.7	-8.7	-8.7	64	-14.3	15.7	ESE	0.26	16.5	ESE	-17.7	-8.9	-17.8	735.6	0.019	0.000	21.8	10	-11.2	19.1	2.50	 .0721	24	1	100.0	1
11/27/24	21:26	-8.7	-8.7	-8.7	64	-14.3	14.8	SE	0.25	15.7	SE	-17.4	-8.9	-17.6	735.5	0.019	0.000	21.8	10	-11.2	19.1	2.50	 .0721	23	1	100.0	1
11/27/24	21:27	-8.7	-8.7	-8.7	64	-14.3	14.8	SE	0.25	15.7	SE	-17.4	-8.9	-17.6	735.6	0.019	0.000	21.9	10	-11.2	19.2	2.49	 .0721	24	1	100.0	1
11/27/24	21:28	-8.8	-8.7	-8.8	64	-14.4	15.7	SE	0.26	16.5	SE	-17.8	-8.9	-17.9	735.5	0.019	0.000	21.9	10	-11.2	19.2	2.49	 .0721	23	1	100.0	1
11/27/24	21:29	-8.8	-8.8	-8.8	65	-14.2	14.8	SE	0.25	15.7	SE	-17.5	-8.9	-17.7	735.6	0.019	0.000	21.9	10	-11.2	19.2	2.49	 .0721	24	1	100.0	1
11/27/24	21:30	-8.7	-8.7	-8.8	65	-14.1	13.9	SE	0.23	15.7	ESE	-17.2	-8.9	-17.4	735.6	0.019	0.000	21.9	10	-11.2	19.2	2.49	 .0721	23	1	100.0	1
11/27/24	21:31	-8.7	-8.7	-8.7	66	-13.9	14.8	SE	0.25	15.7	SE	-17.4	-8.8	-17.6	735.6	0.019	0.000	21.9	10	-11.2	19.2	2.49	 .0721	23	1	100.0	1
11/27/24	21:32	-8.7	-8.7	-8.7	66	-13.9	14.8	SE	0.25	16.5	SE	-17.4	-8.8	-17.6	735.6	0.019	0.000	21.9	10	-11.1	19.3	2.49	 .0721	24	1	100.0	1
11/27/24	21:33	-8.7	-8.7	-8.7	65	-14.1	13.0	SE	0.22	13.9	SE	-16.9	-8.8	-17.1	735.6	0.019	0.000	21.9	10	-11.1	19.3	2.49	 .0721	23	1	100.0	1
11/27/24	21:34	-8.6	-8.6	-8.7	65	-14.0	13.9	SE	0.23	16.5	SE	-17.0	-8.7	-17.2	735.6	0.019	0.000	21.9	10	-11.1	19.3	2.49	 .0721	24	1	100.0	1
11/27/24	21:35	-8.4	-8.4	-8.5	64	-14.0	15.7	SE	0.26	17.4	SE	-17.3	-8.6	-17.4	735.6	0.019	0.000	21.9	10	-11.1	19.3	2.49	 .0721	23	1	100.0	1
11/27/24	21:36	-8.3	-8.3	-8.4	62	-14.3	14.8	SE	0.25	16.5	SE	-16.9	-8.6	-17.2	735.6	0.019	0.000	21.9	10	-11.1	19.3	2.49	 .0721	23	1	100.0	1
11/27/24	21:37	-8.2	-8.2	-8.3	62	-14.2	14.8	SE	0.25	17.4	SE	-16.8	-8.4	-17.1	735.6	0.018	0.000	22.0	10	-11.1	19.3	2.49	 .0721	24	1	100.0	1
11/27/24	21:38	-8.2	-8.2	-8.2	62	-14.2	15.7	SE	0.26	17.4	SE	-17.1	-8.4	-17.3	735.6	0.018	0.000	22.0	10	-11.1	19.3	2.49	 .0721	23	1	100.0	1
11/27/24	21:39	-8.3	-8.3	-8.3	61	-14.5	14.8	SE	0.25	15.7	SE	-16.9	-8.5	-17.1	735.6	0.018	0.000	22.0	10	-11.1	19.3	2.49	 .0721	24	1	100.0	1
11/27/24	21:40	-8.2	-8.2	-8.3	62	-14.2	14.8	SE	0.25	15.7	SE	-16.8	-8.4	-17.1	735.6	0.018	0.000	22.0	10	-11.1	19.3	2.49	 .0721	23	1	100.0	1
11/27/24	21:41	-8.2	-8.2	-8.2	62	-14.2	13.9	SE	0.23	15.7	SE	-16.5	-8.4	-16.7	735.6	0.018	0.000	22.0	10	-11.1	19.3	2.49	 .0721	24	1	100.0	1
11/27/24	21:42	-8.2	-8.1	-8.2	62	-14.2	15.7	SE	0.26	16.5	SE	-16.9	-8.4	-17.2	735.6	0.018	0.000	22.0	10	-11.1	19.3	2.49	 .0721	23	1	100.0	1
11/27/24	21:43	-8.1	-8.1	-8.2	61	-14.3	14.8	SE	0.25	16.5	SE	-16.7	-8.3	-16.9	735.6	0.018	0.000	22.0	10	-11.1	19.3	2.49	 .0721	23	1	100.0	1
11/27/24	21:44	-8.2	-8.2	-8.2	61	-14.4	14.8	SE	0.25	15.7	SE	-16.7	-8.4	-16.9	735.6	0.018	0.000	22.0	10	-11.1	19.3	2.49	 .0721	24	1	100.0	1
11/27/24	21:45	-8.1	-8.1	-8.2	60	-14.5	14.8	SE	0.25	15.7	SE	-16.7	-8.3	-16.9	735.6	0.018	0.000	22.0	10	-11.1	19.3	2.49	 .0721	23	1	100.0	1
11/27/24	21:46	-8.1	-8.1	-8.1	60	-14.5	14.8	SE	0.25	16.5	SE	-16.6	-8.3	-16.8	735.6	0.018	0.000	22.0	10	-11.1	19.3	2.49	 .0721	24	1	100.0	1
11/27/24	21:47	-8.0	-8.0	-8.1	61	-14.2	15.7	SE	0.26	16.5	SE	-16.7	-8.2	-16.9	735.6	0.018	0.000	22.0	10	-11.1	19.3	2.49	 .0721	23	1	100.0	1
11/27/24	21:48	-8.0	-8.0	-8.1	60	-14.4	14.8	SE	0.25	16.5	SE	-16.5	-8.2	-16.7	735.6	0.018	0.000	22.0	10	-11.1	19.3	2.49	 .0721	23	1	100.0	1
11/27/24	21:49	-7.9	-7.9	-7.9	60	-14.4	15.7	SE	0.26	17.4	SE	-16.7	-8.2	-16.9	735.6	0.018	0.000	22.0	10	-11.1	19.3	2.49	 .0721	24	1	100.0	1
11/27/24	21:50	-7.9	-7.9	-7.9	59	-14.6	14.8	SE	0.25	15.7	SE	-16.4	-8.2	-16.7	735.6	0.018	0.000	22.0	10	-11.1	19.3	2.49	 .0721	23	1	100.0	1
11/27/24	21:51	-7.9	-7.9	-7.9	60	-14.3	13.9	SE	0.23	15.7	SSE	-16.1	-8.1	-16.3	735.6	0.018	0.000	22.0	10	-11.1	19.3	2.49	 .0721	24	1	100.0	1
11/27/24	21:52	-7.8	-7.8	-7.8	60	-14.3	14.8	SE	0.25	15.7	SE	-16.3	-8.1	-16.5	735.6	0.018	0.000	22.0	10	-11.1	19.3	2.49	 .0721	23	1	100.0	1
11/27/24	21:53	-7.9	-7.8	-7.9	59	-14.5	14.8	SE	0.25	15.7	SE	-16.4	-8.1	-16.6	735.6	0.018	0.000	22.0	10	-11.1	19.3	2.49	 .0721	24	1	100.0	1
11/27/24	21:54	-7.8	-7.8	-7.9	59	-14.5	14.8	SE	0.25	16.5	SSE	-16.3	-8.1	-16.5	735.6	0.018	0.000	22.0	10	-11.1	19.3	2.49	 .0721	23	1	100.0	1
11/27/24	21:55	-7.8	-7.8	-7.8	60	-14.2	14.8	SE	0.25	15.7	SE	-16.2	-8.0	-16.4	735.6	0.018	0.000	21.9	10	-11.1	19.3	2.49	 .0721	23	1	100.0	1
11/27/24	21:56	-7.7	-7.7	-7.8	60	-14.1	16.5	SSE	0.28	17.4	SE	-16.6	-7.9	-16.8	735.6	0.018	0.000	21.9	10	-11.1	19.3	2.49	 .0721	24	1	100.0	1
11/27/24	21:57	-7.9	-7.7	-7.9	58	-14.7	15.7	SSE	0.26	16.5	SSE	-16.6	-8.1	-16.8	735.6	0.018	0.000	21.9	10	-11.1	19.3	2.49	 .0721	23	1	100.0	1
11/27/24	21:58	-7.9	-7.9	-7.9	59	-14.5	14.8	SE	0.25	17.4	SE	-16.4	-8.1	-16.6	735.6	0.018	0.000	21.9	10	-11.1	19.3	2.49	 .0721	24	1	100.0	1
11/27/24	21:59	-7.8	-7.8	-7.9	60	-14.3	14.8	SSE	0.25	16.5	SSE	-16.3	-8.1	-16.5	735.7	0.018	0.000	21.9	10	-11.1	19.3	2.49	 .0721	23	1	100.0	1
11/27/24	22:00	-7.8	-7.8	-7.8	60	-14.3	14.8	SE	0.25	16.5	SSE	-16.3	-8.1	-16.5	735.6	0.018	0.000	21.9	10	-11.1	19.3	2.49	 .0721	23	1	100.0	1
11/27/24	22:01	-7.8	-7.8	-7.8	60	-14.2	15.7	SSE	0.26	19.1	SSE	-16.4	-8.0	-16.7	735.6	0.018	0.000	21.9	10	-11.1	19.3	2.49	 .0721	24	1	100.0	1
11/27/24	22:02	-7.7	-7.7	-7.8	60	-14.1	18.3	SSE	0.30	20.9	SSE	-17.0	-7.9	-17.2	735.6	0.018	0.000	21.9	10	-11.2	19.2	2.49	 .0721	23	1	100.0	1
11/27/24	22:03	-7.7	-7.7	-7.7	58	-14.6	14.8	SE	0.25	16.5	SSE	-16.2	-7.9	-16.4	735.6	0.018	0.000	21.9	10	-11.2	19.2	2.49	 .0721	24	1	100.0	1
11/27/24	22:04	-7.8	-7.7	-7.8	59	-14.4	14.8	SE	0.25	16.5	SE	-16.2	-8.0	-16.4	735.6	0.018	0.000	21.9	10	-11.2	19.2	2.49	 .0721	23	1	100.0	1
11/27/24	22:05	-7.8	-7.8	-7.8	59	-14.5	15.7	SE	0.26	19.1	SE	-16.6	-8.1	-16.8	735.6	0.018	0.000	21.9	10	-11.2	19.2	2.49	 .0721	24	1	100.0	1
11/27/24	22:06	-7.9	-7.8	-7.9	59	-14.5	16.5	SSE	0.28	18.3	SSE	-16.8	-8.1	-17.1	735.6	0.018	0.000	21.9	10	-11.2	19.2	2.49	 .0721	23	1	100.0	1
11/27/24	22:07	-7.9	-7.9	-7.9	58	-14.8	15.7	SSE	0.26	17.4	SSE	-16.7	-8.2	-16.9	735.6	0.018	0.000	21.9	10	-11.2	19.2	2.49	 .0721	23	1	100.0	1
11/27/24	22:08	-7.9	-7.9	-8.0	59	-14.6	15.7	SE	0.26	17.4	SE	-16.7	-8.2	-16.9	735.6	0.018	0.000	21.9	10	-11.2	19.2	2.49	 .0721	24	1	100.0	1
11/27/24	22:09	-7.9	-7.9	-7.9	59	-14.5	15.7	SE	0.26	18.3	SE	-16.6	-8.1	-16.8	735.6	0.018	0.000	21.9	10	-11.2	19.2	2.49	 .0721	23	1	100.0	1
11/27/24	22:10	-8.0	-7.9	-8.0	59	-14.6	16.5	SE	0.28	19.1	SE	-16.9	-8.2	-17.2	735.6	0.018	0.000	21.8	11	-10.0	19.2	2.72	 .0721	24	1	100.0	1
11/27/24	22:11	-7.9	-7.9	-8.0	59	-14.6	15.7	SE	0.26	20.0	SE	-16.7	-8.2	-16.9	735.6	0.018	0.000	21.8	10	-11.2	19.1	2.50	 .0721	23	1	100.0	1
11/27/24	22:12	-7.8	-7.8	-7.9	60	-14.3	16.5	SSE	0.28	18.3	SSE	-16.7	-8.1	-16.9	735.6	0.018	0.000	21.8	10	-11.2	19.1	2.50	 .0722	23	1	100.0	1
11/27/24	22:13	-7.7	-7.7	-7.8	60	-14.1	14.8	SE	0.25	15.7	SSE	-16.2	-7.9	-16.4	735.6	0.018	0.000	21.8	11	-10.0	19.2	2.72	 .0721	24	1	100.0	1
11/27/24	22:14	-7.7	-7.7	-7.7	60	-14.1	15.7	SSE	0.26	17.4	SSE	-16.4	-7.9	-16.6	735.6	0.018	0.000	21.8	11	-10.0	19.2	2.72	 .0721	23	1	100.0	1
11/27/24	22:15	-7.8	-7.7	-7.8	58	-14.6	15.7	SSE	0.26	19.1	SSE	-16.4	-8.0	-16.7	735.6	0.018	0.000	21.8	11	-10.0	19.2	2.72	 .0721	24	1	100.0	1
11/27/24	22:16	-7.7	-7.7	-7.7	59	-14.4	15.7	SE	0.26	16.5	SSE	-16.4	-7.9	-16.6	735.6	0.018	0.000	21.8	11	-10.0	19.2	2.72	 .0721	23	1	100.0	1
11/27/24	22:17	-7.8	-7.7	-7.8	59	-14.4	15.7	SE	0.26	16.5	SE	-16.4	-8.0	-16.7	735.7	0.018	0.000	21.8	11	-10.0	19.2	2.72	 .0721	24	1	100.0	1
11/27/24	22:18	-7.8	-7.8	-7.8	58	-14.6	15.7	SE	0.26	17.4	SE	-16.4	-8.0	-16.7	735.7	0.018	0.000	21.8	11	-10.0	19.2	2.72	 .0721	23	1	100.0	1
11/27/24	22:19	-7.9	-7.8	-7.9	58	-14.8	16.5	SSE	0.28	17.4	SSE	-16.9	-8.2	-17.1	735.7	0.018	0.000	21.8	11	-10.0	19.2	2.72	 .0721	23	1	100.0	1
11/27/24	22:20	-8.0	-7.9	-8.0	59	-14.6	15.7	SE	0.26	17.4	SE	-16.7	-8.2	-16.9	735.7	0.018	0.000	21.8	11	-10.0	19.2	2.72	 .0721	24	1	100.0	1
11/27/24	22:21	-8.0	-8.0	-8.0	59	-14.6	16.5	SSE	0.28	18.3	SE	-16.9	-8.2	-17.2	735.6	0.018	0.000	21.8	11	-10.0	19.2	2.72	 .0721	23	1	100.0	1
11/27/24	22:22	-8.0	-8.0	-8.0	59	-14.6	16.5	SSE	0.28	19.1	SSE	-16.9	-8.2	-17.2	735.6	0.018	0.000	21.8	11	-10.0	19.2	2.72	 .0721	24	1	100.0	1
11/27/24	22:23	-8.1	-8.0	-8.1	58	-14.9	16.5	SSE	0.28	19.1	SSE	-17.1	-8.3	-17.3	735.7	0.018	0.000	21.8	11	-10.0	19.2	2.72	 .0721	23	1	100.0	1
11/27/24	22:24	-8.1	-8.1	-8.1	57	-15.1	15.7	SSE	0.26	17.4	SSE	-16.8	-8.3	-17.1	735.6	0.018	0.000	21.8	11	-10.0	19.2	2.72	 .0721	23	1	100.0	1
11/27/24	22:25	-8.0	-8.0	-8.0	58	-14.8	15.7	SSE	0.26	17.4	SE	-16.7	-8.2	-16.9	735.6	0.018	0.000	21.8	11	-10.0	19.2	2.72	 .0721	24	1	100.0	1
11/27/24	22:26	-7.9	-7.9	-8.0	57	-15.0	14.8	SSE	0.25	15.7	SE	-16.4	-8.2	-16.7	735.6	0.018	0.000	21.9	11	-9.9	19.2	2.72	 .0721	23	1	100.0	1
11/27/24	22:27	-7.9	-7.9	-7.9	58	-14.7	13.9	SSE	0.23	15.7	SSE	-16.1	-8.1	-16.3	735.6	0.018	0.000	21.9	11	-9.9	19.2	2.72	 .0721	24	1	100.0	1
11/27/24	22:28	-7.9	-7.9	-7.9	58	-14.7	15.7	SSE	0.26	18.3	SSE	-16.6	-8.1	-16.8	735.6	0.018	0.000	21.9	11	-9.9	19.2	2.72	 .0721	23	1	100.0	1
11/27/24	22:29	-7.9	-7.9	-7.9	57	-14.9	15.7	SSE	0.26	18.3	SSE	-16.6	-8.1	-16.8	735.6	0.018	0.000	21.9	11	-9.9	19.3	2.72	 .0721	23	1	100.0	1
11/27/24	22:30	-7.8	-7.8	-7.9	56	-15.1	16.5	SSE	0.28	19.1	SSE	-16.7	-8.1	-17.0	735.6	0.018	0.000	21.9	11	-9.9	19.3	2.72	 .0721	24	1	100.0	1
11/27/24	22:31	-7.8	-7.8	-7.8	57	-14.8	16.5	SSE	0.28	19.1	SSE	-16.7	-8.1	-16.9	735.6	0.018	0.000	21.9	11	-9.9	19.3	2.72	 .0721	23	1	100.0	1
11/27/24	22:32	-7.7	-7.7	-7.7	56	-14.9	18.3	SSE	0.30	20.0	SSE	-16.9	-7.9	-17.2	735.6	0.018	0.000	22.0	11	-9.9	19.4	2.72	 .0721	24	1	100.0	1
11/27/24	22:33	-7.7	-7.7	-7.7	56	-14.9	17.4	SSE	0.29	20.9	SSE	-16.7	-7.9	-17.0	735.6	0.018	0.000	22.0	11	-9.9	19.4	2.72	 .0721	23	1	100.0	1
11/27/24	22:34	-7.8	-7.7	-7.8	55	-15.3	17.4	SSE	0.29	19.1	SSE	-16.9	-8.1	-17.2	735.6	0.018	0.000	22.0	11	-9.9	19.4	2.72	 .0721	24	1	100.0	1
11/27/24	22:35	-7.8	-7.8	-7.8	56	-15.1	16.5	SSE	0.28	20.0	SSE	-16.7	-8.1	-17.0	735.6	0.018	0.000	22.0	11	-9.9	19.4	2.72	 .0721	23	1	100.0	1
11/27/24	22:36	-7.8	-7.8	-7.8	57	-14.9	15.7	SSE	0.26	18.3	SSE	-16.6	-8.1	-16.8	735.6	0.018	0.000	22.0	11	-9.9	19.4	2.72	 .0721	23	1	100.0	1
11/27/24	22:37	-7.9	-7.8	-7.9	58	-14.7	14.8	SSE	0.25	16.5	SSE	-16.4	-8.1	-16.6	735.6	0.018	0.000	22.1	11	-9.8	19.4	2.72	 .0721	24	1	100.0	1
11/27/24	22:38	-7.9	-7.9	-7.9	58	-14.8	14.8	SSE	0.25	17.4	SE	-16.4	-8.2	-16.7	735.6	0.018	0.000	22.1	11	-9.8	19.4	2.72	 .0721	23	1	100.0	1
11/27/24	22:39	-7.9	-7.9	-7.9	58	-14.8	15.7	SE	0.26	18.3	SSE	-16.7	-8.2	-16.9	735.6	0.018	0.000	22.1	11	-9.8	19.4	2.72	 .0721	24	1	100.0	1
11/27/24	22:40	-7.9	-7.9	-7.9	58	-14.7	15.7	SSE	0.26	17.4	SSE	-16.6	-8.1	-16.8	735.6	0.018	0.000	22.1	11	-9.8	19.4	2.72	 .0721	23	1	100.0	1
11/27/24	22:41	-7.9	-7.9	-7.9	58	-14.7	16.5	SE	0.28	18.3	SE	-16.8	-8.1	-17.1	735.6	0.018	0.000	22.1	10	-11.0	19.4	2.48	 .0721	23	1	100.0	1
11/27/24	22:42	-7.9	-7.9	-7.9	58	-14.8	14.8	SE	0.25	16.5	SE	-16.4	-8.2	-16.7	735.6	0.018	0.000	22.1	11	-9.8	19.4	2.72	 .0721	24	1	100.0	1
11/27/24	22:43	-7.9	-7.9	-7.9	59	-14.5	13.9	SE	0.23	15.7	SE	-16.1	-8.1	-16.3	735.7	0.018	0.000	22.1	11	-9.8	19.4	2.72	 .0721	23	1	100.0	1
11/27/24	22:44	-7.9	-7.9	-7.9	58	-14.7	14.8	SE	0.25	15.7	SE	-16.4	-8.1	-16.6	735.7	0.018	0.000	22.1	10	-11.0	19.4	2.48	 .0721	24	1	100.0	1
11/27/24	22:45	-7.8	-7.8	-7.9	59	-14.5	13.9	SSE	0.23	15.7	SSE	-16.1	-8.1	-16.3	735.7	0.018	0.000	22.1	11	-9.8	19.4	2.72	 .0721	23	1	100.0	1
11/27/24	22:46	-7.8	-7.8	-7.8	59	-14.4	13.0	SE	0.22	14.8	SE	-15.7	-8.0	-15.9	735.7	0.018	0.000	22.1	11	-9.8	19.4	2.72	 .0721	24	1	100.0	1
11/27/24	22:47	-7.7	-7.7	-7.8	59	-14.4	12.2	SE	0.20	13.9	SE	-15.4	-7.9	-15.6	735.8	0.018	0.000	22.1	11	-9.8	19.4	2.72	 .0721	23	1	100.0	1
11/27/24	22:48	-7.8	-7.7	-7.8	59	-14.4	13.0	SE	0.22	15.7	SE	-15.7	-8.0	-15.9	735.8	0.018	0.000	22.1	11	-9.8	19.4	2.72	 .0721	23	1	100.0	1
11/27/24	22:49	-7.9	-7.8	-7.9	59	-14.5	13.9	SE	0.23	15.7	SE	-16.1	-8.1	-16.3	735.7	0.018	0.000	22.1	11	-9.8	19.4	2.72	 .0721	24	1	100.0	1
11/27/24	22:50	-7.8	-7.8	-7.8	60	-14.2	14.8	SE	0.25	17.4	SE	-16.2	-8.0	-16.4	735.8	0.018	0.000	22.0	11	-9.9	19.4	2.72	 .0721	23	1	100.0	1
11/27/24	22:51	-7.7	-7.7	-7.7	58	-14.6	15.7	SE	0.26	16.5	SSE	-16.4	-7.9	-16.6	735.8	0.018	0.000	22.0	11	-9.9	19.4	2.72	 .0721	24	1	100.0	1
11/27/24	22:52	-7.8	-7.8	-7.8	58	-14.6	14.8	SE	0.25	15.7	SSE	-16.2	-8.0	-16.4	735.7	0.018	0.000	22.0	11	-9.9	19.4	2.72	 .0721	23	1	100.0	1
11/27/24	22:53	-7.7	-7.7	-7.7	59	-14.4	14.8	SE	0.25	15.7	SE	-16.2	-7.9	-16.4	735.7	0.018	0.000	22.0	11	-9.9	19.4	2.72	 .0721	23	1	100.0	1
11/27/24	22:54	-7.8	-7.7	-7.8	59	-14.4	14.8	SE	0.25	17.4	SE	-16.2	-8.0	-16.4	735.7	0.018	0.000	22.0	11	-9.9	19.4	2.72	 .0721	24	1	100.0	1
11/27/24	22:55	-7.8	-7.8	-7.8	58	-14.6	15.7	SE	0.26	16.5	SE	-16.4	-8.0	-16.7	735.7	0.018	0.000	22.0	11	-9.9	19.4	2.72	 .0721	23	1	100.0	1
11/27/24	22:56	-7.8	-7.8	-7.8	59	-14.4	14.8	SE	0.25	16.5	SSE	-16.2	-8.0	-16.4	735.7	0.018	0.000	22.0	11	-9.9	19.4	2.72	 .0721	24	1	100.0	1
11/27/24	22:57	-7.7	-7.7	-7.7	58	-14.5	14.8	SSE	0.25	16.5	SSE	-16.1	-7.9	-16.3	735.8	0.018	0.000	21.9	11	-9.9	19.3	2.72	 .0721	23	1	100.0	1
11/27/24	22:58	-7.6	-7.6	-7.6	58	-14.4	16.5	SSE	0.28	18.3	SE	-16.4	-7.8	-16.6	735.8	0.018	0.000	22.0	11	-9.9	19.4	2.72	 .0721	24	1	100.0	1
11/27/24	22:59	-7.4	-7.4	-7.6	57	-14.5	16.5	SSE	0.28	18.3	SSE	-16.2	-7.7	-16.5	735.7	0.018	0.000	21.9	11	-9.9	19.3	2.72	 .0721	23	1	100.0	1
11/27/24	23:00	-7.3	-7.3	-7.4	57	-14.4	16.5	SE	0.28	19.1	SE	-16.1	-7.6	-16.4	735.7	0.018	0.000	21.9	11	-9.9	19.3	2.72	 .0721	24	1	100.0	1
11/27/24	23:01	-7.4	-7.3	-7.4	56	-14.7	16.5	SE	0.28	19.1	SSE	-16.2	-7.7	-16.5	735.7	0.018	0.000	21.9	11	-9.9	19.3	2.72	 .0721	23	1	100.0	1
11/27/24	23:02	-7.6	-7.5	-7.6	56	-14.9	16.5	SSE	0.28	18.3	SSE	-16.4	-7.9	-16.7	735.7	0.018	0.000	21.9	11	-9.9	19.3	2.72	 .0721	23	1	100.0	1
11/27/24	23:03	-7.7	-7.6	-7.7	57	-14.7	16.5	SSE	0.28	18.3	SSE	-16.5	-7.9	-16.8	735.7	0.018	0.000	21.9	11	-9.9	19.3	2.72	 .0721	24	1	100.0	1
11/27/24	23:04	-7.6	-7.6	-7.7	57	-14.7	17.4	SE	0.29	19.1	SSE	-16.7	-7.9	-16.9	735.7	0.018	0.000	21.9	11	-9.9	19.3	2.72	 .0721	23	1	100.0	1
11/27/24	23:05	-7.6	-7.5	-7.6	57	-14.6	16.5	SE	0.28	18.3	SE	-16.4	-7.8	-16.7	735.7	0.018	0.000	21.9	11	-9.9	19.3	2.72	 .0721	23	1	100.0	1
11/27/24	23:06	-7.6	-7.5	-7.6	57	-14.6	16.5	SE	0.28	18.3	SE	-16.4	-7.8	-16.7	735.7	0.018	0.000	21.9	11	-9.9	19.3	2.72	 .0721	24	1	100.0	1
11/27/24	23:07	-7.6	-7.6	-7.6	56	-14.8	16.5	SSE	0.28	19.1	SSE	-16.4	-7.8	-16.7	735.7	0.018	0.000	21.9	11	-9.9	19.3	2.72	 .0721	23	1	100.0	1
11/27/24	23:08	-7.6	-7.6	-7.6	56	-14.9	16.5	SE	0.28	19.1	SE	-16.4	-7.9	-16.7	735.7	0.018	0.000	21.9	11	-9.9	19.3	2.72	 .0721	24	1	100.0	1
11/27/24	23:09	-7.6	-7.6	-7.6	57	-14.7	17.4	SE	0.29	19.1	SE	-16.7	-7.9	-16.9	735.7	0.018	0.000	21.9	11	-9.9	19.3	2.72	 .0721	23	1	100.0	1
11/27/24	23:10	-7.8	-7.7	-7.8	56	-15.0	16.5	SE	0.28	18.3	SSE	-16.7	-8.1	-16.9	735.7	0.018	0.000	21.9	11	-9.9	19.3	2.72	 .0721	23	1	100.0	1
11/27/24	23:11	-7.8	-7.8	-7.8	57	-14.8	15.7	SE	0.26	17.4	SSE	-16.4	-8.1	-16.7	735.7	0.018	0.000	21.9	11	-9.9	19.2	2.72	 .0721	24	1	100.0	1
11/27/24	23:12	-7.8	-7.8	-7.8	58	-14.6	17.4	SE	0.29	19.1	SE	-16.9	-8.0	-17.1	735.6	0.018	0.000	21.9	11	-9.9	19.3	2.72	 .0721	23	1	100.0	1
11/27/24	23:13	-7.8	-7.8	-7.8	57	-14.9	15.7	SSE	0.26	17.4	SSE	-16.6	-8.1	-16.8	735.6	0.018	0.000	21.9	11	-9.9	19.2	2.72	 .0721	24	1	100.0	1
11/27/24	23:14	-7.7	-7.7	-7.8	58	-14.5	16.5	SSE	0.28	18.3	SSE	-16.5	-7.9	-16.7	735.6	0.018	0.000	21.9	11	-9.9	19.2	2.72	 .0721	23	1	100.0	1
11/27/24	23:15	-7.6	-7.6	-7.7	58	-14.5	16.5	SE	0.28	18.3	SE	-16.4	-7.8	-16.7	735.6	0.018	0.000	21.9	11	-9.9	19.2	2.72	 .0721	24	1	100.0	1
11/27/24	23:16	-7.6	-7.6	-7.6	58	-14.4	16.5	SE	0.28	18.3	SSE	-16.4	-7.8	-16.6	735.7	0.018	0.000	21.9	11	-9.9	19.2	2.72	 .0721	23	1	100.0	1
11/27/24	23:17	-7.7	-7.6	-7.7	57	-14.7	16.5	SE	0.28	18.3	SSE	-16.5	-7.9	-16.8	735.6	0.018	0.000	21.9	11	-9.9	19.2	2.72	 .0721	23	1	100.0	1
11/27/24	23:18	-7.6	-7.6	-7.7	58	-14.5	15.7	SE	0.26	19.1	SE	-16.2	-7.8	-16.4	735.6	0.018	0.000	21.9	11	-9.9	19.2	2.72	 .0721	24	1	100.0	1
11/27/24	23:19	-7.5	-7.5	-7.7	59	-14.1	16.5	SE	0.28	18.3	SE	-16.3	-7.7	-16.6	735.6	0.018	0.000	21.9	11	-9.9	19.2	2.72	 .0721	23	1	100.0	1
11/27/24	23:20	-7.6	-7.5	-7.6	57	-14.6	16.5	SE	0.28	18.3	SE	-16.4	-7.8	-16.7	735.6	0.018	0.000	21.9	11	-9.9	19.2	2.72	 .0721	24	1	100.0	1
11/27/24	23:21	-7.6	-7.6	-7.6	57	-14.7	16.5	SE	0.28	18.3	SE	-16.4	-7.9	-16.7	735.6	0.018	0.000	21.9	11	-9.9	19.2	2.72	 .0721	23	1	100.0	1
11/27/24	23:22	-7.6	-7.6	-7.6	57	-14.6	15.7	SE	0.26	17.4	SE	-16.2	-7.8	-16.4	735.6	0.018	0.000	21.9	11	-9.9	19.2	2.72	 .0721	23	1	100.0	1
11/27/24	23:23	-7.5	-7.5	-7.6	59	-14.1	16.5	SE	0.28	18.3	SE	-16.3	-7.7	-16.6	735.7	0.018	0.000	21.9	11	-9.9	19.2	2.72	 .0721	24	1	100.0	1
11/27/24	23:24	-7.5	-7.5	-7.5	59	-14.1	18.3	SE	0.30	19.1	SE	-16.7	-7.7	-16.9	735.6	0.018	0.000	21.9	11	-9.9	19.2	2.72	 .0721	23	1	100.0	1
11/27/24	23:25	-7.4	-7.4	-7.5	58	-14.3	17.4	SE	0.29	19.1	SE	-16.4	-7.7	-16.7	735.6	0.018	0.000	21.9	11	-9.9	19.2	2.72	 .0721	24	1	100.0	1
11/27/24	23:26	-7.5	-7.4	-7.5	58	-14.4	16.5	SE	0.28	18.3	SE	-16.3	-7.7	-16.6	735.6	0.018	0.000	21.9	11	-9.9	19.2	2.72	 .0721	23	1	100.0	1
11/27/24	23:27	-7.6	-7.5	-7.6	58	-14.5	15.7	SE	0.26	17.4	SE	-16.2	-7.8	-16.4	735.6	0.018	0.000	21.9	11	-9.9	19.3	2.72	 .0721	24	1	100.0	1
11/27/24	23:28	-7.7	-7.7	-7.7	58	-14.6	15.7	SE	0.26	16.5	SE	-16.4	-7.9	-16.6	735.6	0.018	0.000	21.9	11	-9.9	19.3	2.72	 .0721	23	1	100.0	1
11/27/24	23:29	-7.7	-7.7	-7.7	59	-14.4	16.5	SE	0.28	17.4	SE	-16.6	-7.9	-16.8	735.6	0.018	0.000	21.9	11	-9.9	19.3	2.72	 .0721	23	1	100.0	1
11/27/24	23:30	-7.7	-7.7	-7.7	59	-14.4	15.7	SE	0.26	17.4	SE	-16.4	-7.9	-16.6	735.6	0.018	0.000	21.9	11	-9.9	19.3	2.72	 .0721	24	1	100.0	1
11/27/24	23:31	-7.6	-7.6	-7.7	60	-14.0	16.5	SE	0.28	17.4	SE	-16.4	-7.8	-16.7	735.6	0.018	0.000	22.0	11	-9.9	19.4	2.72	 .0721	23	1	100.0	1
11/27/24	23:32	-7.7	-7.6	-7.7	60	-14.1	16.5	SE	0.28	18.3	SE	-16.5	-7.9	-16.7	735.6	0.018	0.000	22.0	11	-9.9	19.4	2.72	 .0721	24	1	100.0	1
11/27/24	23:33	-7.8	-7.7	-7.8	60	-14.3	16.5	SE	0.28	17.4	SE	-16.7	-8.1	-16.9	735.6	0.018	0.000	22.0	11	-9.9	19.4	2.72	 .0721	23	1	100.0	1
11/27/24	23:34	-7.9	-7.8	-7.9	61	-14.2	16.5	SE	0.28	18.3	SE	-16.9	-8.2	-17.1	735.6	0.018	0.000	22.1	11	-9.8	19.4	2.72	 .0721	23	1	100.0	1
11/27/24	23:35	-8.1	-8.0	-8.1	61	-14.3	16.5	SE	0.28	18.3	ESE	-17.1	-8.3	-17.3	735.6	0.018	0.000	22.1	11	-9.8	19.4	2.72	 .0721	24	1	100.0	1
11/27/24	23:36	-8.1	-8.1	-8.1	62	-14.1	17.4	ESE	0.29	19.1	SE	-17.2	-8.3	-17.4	735.5	0.018	0.000	22.1	11	-9.8	19.4	2.72	 .0721	23	1	100.0	1
11/27/24	23:37	-8.2	-8.1	-8.2	62	-14.2	17.4	SE	0.29	17.4	ESE	-17.4	-8.4	-17.6	735.5	0.018	0.000	22.1	11	-9.8	19.4	2.72	 .0721	24	1	100.0	1
11/27/24	23:38	-8.2	-8.2	-8.2	63	-14.0	17.4	ESE	0.29	18.3	ESE	-17.4	-8.4	-17.6	735.5	0.018	0.000	22.1	11	-9.8	19.4	2.72	 .0721	23	1	100.0	1
11/27/24	23:39	-8.2	-8.2	-8.2	63	-14.0	16.5	ESE	0.28	17.4	SE	-17.2	-8.4	-17.4	735.5	0.018	0.000	22.1	11	-9.8	19.6	2.71	 .0720	24	1	100.0	1
11/27/24	23:40	-8.2	-8.2	-8.2	63	-14.0	16.5	ESE	0.28	17.4	ESE	-17.2	-8.4	-17.4	735.5	0.018	0.000	22.1	11	-9.8	19.6	2.71	 .0720	23	1	100.0	1
11/27/24	23:41	-8.1	-8.1	-8.2	63	-13.9	15.7	ESE	0.26	17.4	ESE	-16.9	-8.3	-17.1	735.5	0.018	0.000	22.1	11	-9.8	19.6	2.71	 .0720	23	1	100.0	1
11/27/24	23:42	-8.1	-8.1	-8.1	63	-13.9	16.5	ESE	0.28	16.5	ESE	-17.1	-8.3	-17.3	735.5	0.018	0.000	22.1	11	-9.8	19.6	2.71	 .0720	24	1	100.0	1
11/27/24	23:43	-8.1	-8.1	-8.1	64	-13.7	16.5	ESE	0.28	17.4	ESE	-17.1	-8.3	-17.3	735.5	0.018	0.000	22.1	11	-9.8	19.6	2.71	 .0720	23	1	100.0	1
11/27/24	23:44	-8.0	-8.0	-8.1	64	-13.6	15.7	ESE	0.26	16.5	ESE	-16.7	-8.2	-16.9	735.5	0.018	0.000	22.1	11	-9.8	19.6	2.71	 .0720	24	1	100.0	1
11/27/24	23:45	-8.0	-8.0	-8.0	64	-13.6	16.5	ESE	0.28	17.4	ESE	-16.9	-8.2	-17.2	735.5	0.018	0.000	22.1	11	-9.8	19.6	2.71	 .0720	23	1	100.0	1
11/27/24	23:46	-8.1	-8.1	-8.1	64	-13.7	14.8	ESE	0.25	15.7	ESE	-16.6	-8.3	-16.8	735.5	0.018	0.000	22.1	11	-9.8	19.6	2.71	 .0720	23	1	100.0	1
11/27/24	23:47	-7.9	-7.9	-8.0	64	-13.5	14.8	ESE	0.25	16.5	ESE	-16.4	-8.1	-16.6	735.5	0.018	0.000	22.1	11	-9.8	19.6	2.71	 .0720	24	1	100.0	1
11/27/24	23:48	-7.8	-7.8	-7.9	65	-13.3	13.9	ESE	0.23	15.7	ESE	-16.1	-8.1	-16.3	735.5	0.018	0.000	22.1	11	-9.8	19.6	2.71	 .0720	23	1	100.0	1
11/27/24	23:49	-7.8	-7.8	-7.8	64	-13.5	15.7	ESE	0.26	16.5	ESE	-16.6	-8.1	-16.8	735.5	0.018	0.000	22.1	11	-9.8	19.4	2.72	 .0721	24	1	100.0	1
11/27/24	23:50	-7.8	-7.8	-7.8	64	-13.4	14.8	ESE	0.25	15.7	ESE	-16.2	-8.0	-16.4	735.5	0.018	0.000	22.1	11	-9.8	19.4	2.72	 .0721	23	1	100.0	1
11/27/24	23:51	-7.7	-7.7	-7.8	64	-13.4	14.8	ESE	0.25	15.7	ESE	-16.2	-7.9	-16.4	735.5	0.018	0.000	22.1	11	-9.8	19.4	2.72	 .0721	24	1	100.0	1
11/27/24	23:52	-7.8	-7.7	-7.8	64	-13.4	14.8	ESE	0.25	16.5	ESE	-16.2	-8.0	-16.4	735.5	0.018	0.000	22.1	11	-9.8	19.4	2.72	 .0721	23	1	100.0	1
11/27/24	23:53	-7.9	-7.8	-7.9	63	-13.7	14.8	ESE	0.25	15.7	ESE	-16.4	-8.1	-16.6	735.5	0.018	0.000	22.1	11	-9.8	19.4	2.72	 .0721	23	1	100.0	1
11/27/24	23:54	-7.9	-7.9	-7.9	65	-13.3	13.9	ESE	0.23	14.8	ESE	-16.1	-8.1	-16.3	735.5	0.018	0.000	22.1	11	-9.8	19.4	2.72	 .0721	24	1	100.0	1
11/27/24	23:55	-7.8	-7.8	-7.9	64	-13.4	13.9	ESE	0.23	14.8	ESE	-16.0	-8.0	-16.2	735.5	0.018	0.000	22.1	11	-9.8	19.4	2.72	 .0721	23	1	100.0	1
11/27/24	23:56	-7.8	-7.8	-7.8	64	-13.4	13.9	ESE	0.23	14.8	ESE	-16.0	-8.0	-16.2	735.5	0.018	0.000	22.1	11	-9.8	19.4	2.72	 .0721	24	1	100.0	1
11/27/24	23:57	-7.8	-7.7	-7.8	64	-13.4	13.9	ESE	0.23	14.8	ESE	-16.0	-8.0	-16.2	735.6	0.018	0.000	22.1	11	-9.8	19.4	2.72	 .0721	23	1	100.0	1
11/27/24	23:58	-7.7	-7.7	-7.7	64	-13.4	13.0	ESE	0.22	13.9	ESE	-15.7	-7.9	-15.9	735.6	0.018	0.000	22.1	11	-9.8	19.4	2.72	 .0721	23	1	100.0	1
11/27/24	23:59	-7.7	-7.7	-7.7	64	-13.4	13.9	ESE	0.23	14.8	ESE	-15.9	-7.9	-16.2	735.6	0.018	0.000	22.1	11	-9.8	19.4	2.72	 .0721	24	1	100.0	1
11/28/24	00:00	-7.7	-7.7	-7.7	64	-13.3	13.0	ESE	0.22	14.8	ESE	-15.6	-7.9	-15.8	735.6	0.018	0.000	22.1	11	-9.8	19.4	2.72	 .0721	23	1	100.0	1